Wetterdaten: Dienstag, 26.12.2017
Datum Zeit Temp. A. Pool Temp. Feuchte A. Luftdruck Regen Wind Richtung Richtung Sonnenschein ET UV Solar Taupunkt Windchill Windben Empfang
26.12.2017 00:00 -1,6 C 4,4 C 98 % 1016,4 hPa 0,0 l/m 1,6 km/h (1 Bft) S 180 0 min 0,000 mm 0,0 UV-I 0 W/m -1,9 C -1,6 C 3,2 km/h (1 Bft) 100,00 %
26.12.2017 00:01 -1,5 C 4,4 C 98 % 1016,4 hPa 0,0 l/m 1,6 km/h (1 Bft) S 180 0 min 0,000 mm 0,0 UV-I 0 W/m -1,8 C -1,5 C 3,2 km/h (1 Bft) 86,96 %
26.12.2017 00:02 -1,5 C 4,4 C 98 % 1016,4 hPa 0,0 l/m 0,0 km/h (0 Bft) S 180 0 min 0,000 mm 0,0 UV-I 0 W/m -1,8 C -1,5 C 1,6 km/h (1 Bft) 100,00 %
26.12.2017 00:03 -1,5 C 4,4 C 98 % 1016,4 hPa 0,0 l/m 1,6 km/h (1 Bft) S 180 0 min 0,000 mm 0,0 UV-I 0 W/m -1,8 C -1,5 C 3,2 km/h (1 Bft) 95,65 %
26.12.2017 00:04 -1,5 C 4,4 C 98 % 1016,3 hPa 0,0 l/m 4,8 km/h (1 Bft) O-SO 112 0 min 0,000 mm 0,0 UV-I 0 W/m -1,8 C -1,5 C 6,4 km/h (2 Bft) 100,00 %
26.12.2017 00:05 -1,5 C 4,4 C 98 % 1016,3 hPa 0,0 l/m 4,8 km/h (1 Bft) S-SO 157 0 min 0,000 mm 0,0 UV-I 0 W/m -1,8 C -1,5 C 9,7 km/h (2 Bft) 91,30 %
26.12.2017 00:06 -1,5 C 4,4 C 98 % 1016,3 hPa 0,0 l/m 1,6 km/h (1 Bft) S-SO 157 0 min 0,000 mm 0,0 UV-I 0 W/m -1,8 C -1,5 C 6,4 km/h (2 Bft) 100,00 %
26.12.2017 00:07 -1,6 C 4,4 C 98 % 1016,3 hPa 0,0 l/m 4,8 km/h (1 Bft) S-SO 157 0 min 0,000 mm 0,0 UV-I 0 W/m -1,9 C -1,6 C 6,4 km/h (2 Bft) 86,96 %
26.12.2017 00:08 -1,6 C 4,4 C 98 % 1016,3 hPa 0,0 l/m 3,2 km/h (1 Bft) S-SO 157 0 min 0,000 mm 0,0 UV-I 0 W/m -1,9 C -1,6 C 6,4 km/h (2 Bft) 100,00 %
26.12.2017 00:09 -1,6 C 4,4 C 98 % 1016,3 hPa 0,0 l/m 0,0 km/h (0 Bft) S-SO 157 0 min 0,000 mm 0,0 UV-I 0 W/m -1,9 C -1,6 C 3,2 km/h (1 Bft) 95,65 %
26.12.2017 00:10 -1,6 C 4,4 C 98 % 1016,3 hPa 0,0 l/m 3,2 km/h (1 Bft) O-NO 67 0 min 0,000 mm 0,0 UV-I 0 W/m -1,9 C -1,6 C 6,4 km/h (2 Bft) 95,65 %
26.12.2017 00:11 -1,6 C 4,4 C 98 % 1016,2 hPa 0,0 l/m 3,2 km/h (1 Bft) O-NO 67 0 min 0,000 mm 0,0 UV-I 0 W/m -1,9 C -1,6 C 4,8 km/h (1 Bft) 91,30 %
26.12.2017 00:12 -1,6 C 4,4 C 98 % 1016,2 hPa 0,0 l/m 3,2 km/h (1 Bft) O-NO 67 0 min 0,000 mm 0,0 UV-I 0 W/m -1,9 C -1,6 C 4,8 km/h (1 Bft) 91,30 %
26.12.2017 00:13 -1,6 C 4,4 C 98 % 1016,2 hPa 0,0 l/m 3,2 km/h (1 Bft) O-NO 67 0 min 0,000 mm 0,0 UV-I 0 W/m -1,9 C -1,6 C 4,8 km/h (1 Bft) 91,30 %
26.12.2017 00:14 -1,7 C 4,4 C 98 % 1016,2 hPa 0,0 l/m 3,2 km/h (1 Bft) O-NO 67 0 min 0,000 mm 0,0 UV-I 0 W/m -2,0 C -1,7 C 4,8 km/h (1 Bft) 95,65 %
26.12.2017 00:15 -1,7 C 4,4 C 98 % 1016,2 hPa 0,0 l/m 1,6 km/h (1 Bft) O 90 0 min 0,000 mm 0,0 UV-I 0 W/m -2,0 C -1,7 C 4,8 km/h (1 Bft) 95,65 %
26.12.2017 00:16 -1,8 C 4,4 C 98 % 1016,2 hPa 0,0 l/m 0,0 km/h (0 Bft) O 90 0 min 0,000 mm 0,0 UV-I 0 W/m -2,1 C -1,8 C 1,6 km/h (1 Bft) 100,00 %
26.12.2017 00:17 -1,8 C 4,4 C 98 % 1016,2 hPa 0,0 l/m 0,0 km/h (0 Bft) N 0 0 min 0,000 mm 0,0 UV-I 0 W/m -2,1 C -1,8 C 0,0 km/h (0 Bft) 95,65 %
26.12.2017 00:18 -1,8 C 4,4 C 98 % 1016,2 hPa 0,0 l/m 0,0 km/h (0 Bft) N 0 0 min 0,000 mm 0,0 UV-I 0 W/m -2,1 C -1,8 C 0,0 km/h (0 Bft) 95,65 %
26.12.2017 00:19 -1,8 C 4,4 C 98 % 1016,2 hPa 0,0 l/m 0,0 km/h (0 Bft) O 90 0 min 0,000 mm 0,0 UV-I 0 W/m -2,1 C -1,8 C 3,2 km/h (1 Bft) 100,00 %
26.12.2017 00:20 -1,8 C 4,4 C 98 % 1016,2 hPa 0,0 l/m 3,2 km/h (1 Bft) O 90 0 min 0,000 mm 0,0 UV-I 0 W/m -2,1 C -1,8 C 4,8 km/h (1 Bft) 95,65 %
26.12.2017 00:21 -1,8 C 4,4 C 98 % 1016,2 hPa 0,0 l/m 3,2 km/h (1 Bft) O 90 0 min 0,000 mm 0,0 UV-I 0 W/m -2,1 C -1,8 C 4,8 km/h (1 Bft) 91,30 %
26.12.2017 00:22 -1,8 C 4,4 C 98 % 1016,2 hPa 0,0 l/m 1,6 km/h (1 Bft) O 90 0 min 0,000 mm 0,0 UV-I 0 W/m -2,1 C -1,8 C 3,2 km/h (1 Bft) 95,65 %
26.12.2017 00:23 -1,8 C 4,4 C 98 % 1016,1 hPa 0,0 l/m 1,6 km/h (1 Bft) O 90 0 min 0,000 mm 0,0 UV-I 0 W/m -2,1 C -1,8 C 3,2 km/h (1 Bft) 100,00 %
26.12.2017 00:24 -1,8 C 4,4 C 98 % 1016,1 hPa 0,0 l/m 3,2 km/h (1 Bft) O 90 0 min 0,000 mm 0,0 UV-I 0 W/m -2,1 C -1,8 C 4,8 km/h (1 Bft) 95,65 %
26.12.2017 00:25 -1,8 C 4,4 C 98 % 1016,1 hPa 0,0 l/m 1,6 km/h (1 Bft) O 90 0 min 0,000 mm 0,0 UV-I 0 W/m -2,1 C -1,8 C 3,2 km/h (1 Bft) 100,00 %
26.12.2017 00:26 -1,8 C 4,4 C 98 % 1016,1 hPa 0,0 l/m 1,6 km/h (1 Bft) O 90 0 min 0,000 mm 0,0 UV-I 0 W/m -2,1 C -1,8 C 3,2 km/h (1 Bft) 91,30 %
26.12.2017 00:27 -1,8 C 4,4 C 98 % 1016,1 hPa 0,0 l/m 1,6 km/h (1 Bft) O 90 0 min 0,000 mm 0,0 UV-I 0 W/m -2,1 C -1,8 C 3,2 km/h (1 Bft) 95,65 %
26.12.2017 00:28 -1,8 C 4,4 C 98 % 1016,1 hPa 0,0 l/m 1,6 km/h (1 Bft) O 90 0 min 0,000 mm 0,0 UV-I 0 W/m -2,1 C -1,8 C 3,2 km/h (1 Bft) 95,65 %
26.12.2017 00:29 -1,8 C 4,4 C 98 % 1016,1 hPa 0,0 l/m 0,0 km/h (0 Bft) O 90 0 min 0,000 mm 0,0 UV-I 0 W/m -2,1 C -1,8 C 1,6 km/h (1 Bft) 95,65 %
26.12.2017 00:30 -1,8 C 4,4 C 98 % 1016,1 hPa 0,0 l/m 0,0 km/h (0 Bft) O 90 0 min 0,000 mm 0,0 UV-I 0 W/m -2,1 C -1,8 C 1,6 km/h (1 Bft) 91,30 %
26.12.2017 00:31 -1,8 C 4,4 C 98 % 1016,1 hPa 0,0 l/m 1,6 km/h (1 Bft) O 90 0 min 0,000 mm 0,0 UV-I 0 W/m -2,1 C -1,8 C 3,2 km/h (1 Bft) 91,30 %
26.12.2017 00:32 -1,8 C 4,4 C 98 % 1016,0 hPa 0,0 l/m 1,6 km/h (1 Bft) O 90 0 min 0,000 mm 0,0 UV-I 0 W/m -2,1 C -1,8 C 4,8 km/h (1 Bft) 100,00 %
26.12.2017 00:33 -1,8 C 4,4 C 98 % 1016,0 hPa 0,0 l/m 3,2 km/h (1 Bft) O 90 0 min 0,000 mm 0,0 UV-I 0 W/m -2,1 C -1,8 C 4,8 km/h (1 Bft) 95,65 %
26.12.2017 00:34 -1,8 C 4,4 C 98 % 1015,9 hPa 0,0 l/m 3,2 km/h (1 Bft) O 90 0 min 0,000 mm 0,0 UV-I 0 W/m -2,1 C -1,8 C 3,2 km/h (1 Bft) 100,00 %
26.12.2017 00:35 -1,7 C 4,4 C 98 % 1015,9 hPa 0,0 l/m 1,6 km/h (1 Bft) O 90 0 min 0,000 mm 0,0 UV-I 0 W/m -2,0 C -1,7 C 3,2 km/h (1 Bft) 91,30 %
26.12.2017 00:36 -1,7 C 4,4 C 98 % 1015,9 hPa 0,0 l/m 1,6 km/h (1 Bft) O 90 0 min 0,000 mm 0,0 UV-I 0 W/m -2,0 C -1,7 C 3,2 km/h (1 Bft) 95,65 %
26.12.2017 00:37 -1,7 C 4,4 C 97 % 1015,9 hPa 0,0 l/m 3,2 km/h (1 Bft) O 90 0 min 0,000 mm 0,0 UV-I 0 W/m -2,1 C -1,7 C 4,8 km/h (1 Bft) 95,65 %
26.12.2017 00:38 -1,7 C 4,4 C 97 % 1015,9 hPa 0,0 l/m 1,6 km/h (1 Bft) O 90 0 min 0,000 mm 0,0 UV-I 0 W/m -2,1 C -1,7 C 4,8 km/h (1 Bft) 95,65 %
26.12.2017 00:39 -1,7 C 4,4 C 98 % 1015,9 hPa 0,0 l/m 0,0 km/h (0 Bft) O 90 0 min 0,000 mm 0,0 UV-I 0 W/m -2,0 C -1,7 C 1,6 km/h (1 Bft) 100,00 %
26.12.2017 00:40 -1,7 C 4,4 C 98 % 1015,9 hPa 0,0 l/m 0,0 km/h (0 Bft) O 90 0 min 0,000 mm 0,0 UV-I 0 W/m -2,0 C -1,7 C 1,6 km/h (1 Bft) 95,65 %
26.12.2017 00:41 -1,7 C 4,4 C 97 % 1015,9 hPa 0,0 l/m 0,0 km/h (0 Bft) O 90 0 min 0,000 mm 0,0 UV-I 0 W/m -2,1 C -1,7 C 1,6 km/h (1 Bft) 100,00 %
26.12.2017 00:42 -1,7 C 4,4 C 97 % 1016,0 hPa 0,0 l/m 1,6 km/h (1 Bft) O 90 0 min 0,000 mm 0,0 UV-I 0 W/m -2,1 C -1,7 C 1,6 km/h (1 Bft) 91,30 %
26.12.2017 00:43 -1,7 C 4,4 C 97 % 1015,9 hPa 0,0 l/m 1,6 km/h (1 Bft) O 90 0 min 0,000 mm 0,0 UV-I 0 W/m -2,1 C -1,7 C 3,2 km/h (1 Bft) 100,00 %
26.12.2017 00:44 -1,6 C 4,4 C 97 % 1015,9 hPa 0,0 l/m 0,0 km/h (0 Bft) O 90 0 min 0,000 mm 0,0 UV-I 0 W/m -2,0 C -1,6 C 1,6 km/h (1 Bft) 95,65 %
26.12.2017 00:45 -1,6 C 4,4 C 97 % 1015,9 hPa 0,0 l/m 0,0 km/h (0 Bft) O 90 0 min 0,000 mm 0,0 UV-I 0 W/m -2,0 C -1,6 C 1,6 km/h (1 Bft) 95,65 %
26.12.2017 00:46 -1,6 C 4,4 C 97 % 1015,9 hPa 0,0 l/m 0,0 km/h (0 Bft) O 90 0 min 0,000 mm 0,0 UV-I 0 W/m -2,0 C -1,6 C 1,6 km/h (1 Bft) 100,00 %
26.12.2017 00:47 -1,7 C 4,4 C 97 % 1015,8 hPa 0,0 l/m 1,6 km/h (1 Bft) O 90 0 min 0,000 mm 0,0 UV-I 0 W/m -2,1 C -1,7 C 1,6 km/h (1 Bft) 100,00 %
26.12.2017 00:48 -1,7 C 4,4 C 98 % 1015,8 hPa 0,0 l/m 0,0 km/h (0 Bft) O 90 0 min 0,000 mm 0,0 UV-I 0 W/m -2,0 C -1,7 C 1,6 km/h (1 Bft) 100,00 %
26.12.2017 00:49 -1,7 C 4,4 C 98 % 1015,8 hPa 0,0 l/m 0,0 km/h (0 Bft) O 90 0 min 0,000 mm 0,0 UV-I 0 W/m -2,0 C -1,7 C 1,6 km/h (1 Bft) 91,30 %
26.12.2017 00:50 -1,7 C 4,4 C 98 % 1015,8 hPa 0,0 l/m 1,6 km/h (1 Bft) S-SW 202 0 min 0,000 mm 0,0 UV-I 0 W/m -2,0 C -1,7 C 4,8 km/h (1 Bft) 95,65 %
26.12.2017 00:51 -1,7 C 4,4 C 98 % 1015,8 hPa 0,0 l/m 1,6 km/h (1 Bft) W-NW 292 0 min 0,000 mm 0,0 UV-I 0 W/m -2,0 C -1,7 C 4,8 km/h (1 Bft) 100,00 %
26.12.2017 00:52 -1,8 C 4,4 C 98 % 1015,7 hPa 0,0 l/m 1,6 km/h (1 Bft) W-NW 292 0 min 0,000 mm 0,0 UV-I 0 W/m -2,1 C -1,8 C 1,6 km/h (1 Bft) 100,00 %
26.12.2017 00:53 -1,8 C 4,4 C 98 % 1015,7 hPa 0,0 l/m 1,6 km/h (1 Bft) W-NW 292 0 min 0,000 mm 0,0 UV-I 0 W/m -2,1 C -1,8 C 3,2 km/h (1 Bft) 95,65 %
26.12.2017 00:54 -1,8 C 4,4 C 98 % 1015,8 hPa 0,0 l/m 1,6 km/h (1 Bft) W-NW 292 0 min 0,000 mm 0,0 UV-I 0 W/m -2,1 C -1,8 C 3,2 km/h (1 Bft) 100,00 %
26.12.2017 00:55 -1,8 C 4,4 C 98 % 1015,8 hPa 0,0 l/m 1,6 km/h (1 Bft) W-NW 292 0 min 0,000 mm 0,0 UV-I 0 W/m -2,1 C -1,8 C 3,2 km/h (1 Bft) 100,00 %
26.12.2017 00:56 -1,8 C 4,4 C 98 % 1015,8 hPa 0,0 l/m 0,0 km/h (0 Bft) W-NW 292 0 min 0,000 mm 0,0 UV-I 0 W/m -2,1 C -1,8 C 1,6 km/h (1 Bft) 95,65 %
26.12.2017 00:57 -1,8 C 4,4 C 98 % 1015,7 hPa 0,0 l/m 0,0 km/h (0 Bft) W-NW 292 0 min 0,000 mm 0,0 UV-I 0 W/m -2,1 C -1,8 C 1,6 km/h (1 Bft) 95,65 %
26.12.2017 00:58 -1,8 C 4,4 C 98 % 1015,8 hPa 0,0 l/m 0,0 km/h (0 Bft) N 0 0 min 0,000 mm 0,0 UV-I 0 W/m -2,1 C -1,8 C 0,0 km/h (0 Bft) 95,65 %
26.12.2017 00:59 -1,8 C 4,4 C 98 % 1015,8 hPa 0,0 l/m 0,0 km/h (0 Bft) N 0 0 min 0,000 mm 0,0 UV-I 0 W/m -2,1 C -1,8 C 0,0 km/h (0 Bft) 100,00 %
26.12.2017 01:00 -1,8 C 4,4 C 98 % 1015,7 hPa 0,0 l/m 1,6 km/h (1 Bft) W-NW 292 0 min 0,000 mm 0,0 UV-I 0 W/m -2,1 C -1,8 C 1,6 km/h (1 Bft) 91,30 %
26.12.2017 01:01 -1,8 C 4,4 C 98 % 1015,8 hPa 0,0 l/m 1,6 km/h (1 Bft) W-NW 292 0 min 0,000 mm 0,0 UV-I 0 W/m -2,1 C -1,8 C 3,2 km/h (1 Bft) 100,00 %
26.12.2017 01:02 -1,8 C 4,4 C 98 % 1015,7 hPa 0,0 l/m 1,6 km/h (1 Bft) W-NW 292 0 min 0,000 mm 0,0 UV-I 0 W/m -2,1 C -1,8 C 4,8 km/h (1 Bft) 100,00 %
26.12.2017 01:03 -1,8 C 4,4 C 98 % 1015,8 hPa 0,0 l/m 3,2 km/h (1 Bft) W-NW 292 0 min 0,000 mm 0,0 UV-I 0 W/m -2,1 C -1,8 C 3,2 km/h (1 Bft) 95,65 %
26.12.2017 01:04 -1,8 C 4,4 C 98 % 1015,7 hPa 0,0 l/m 3,2 km/h (1 Bft) W-NW 292 0 min 0,000 mm 0,0 UV-I 0 W/m -2,1 C -1,8 C 4,8 km/h (1 Bft) 95,65 %
26.12.2017 01:05 -1,8 C 4,4 C 98 % 1015,7 hPa 0,0 l/m 3,2 km/h (1 Bft) W-NW 292 0 min 0,000 mm 0,0 UV-I 0 W/m -2,1 C -1,8 C 4,8 km/h (1 Bft) 100,00 %
26.12.2017 01:06 -1,8 C 4,4 C 98 % 1015,7 hPa 0,0 l/m 3,2 km/h (1 Bft) W 270 0 min 0,000 mm 0,0 UV-I 0 W/m -2,1 C -1,8 C 3,2 km/h (1 Bft) 100,00 %
26.12.2017 01:07 -1,8 C 4,4 C 98 % 1015,7 hPa 0,0 l/m 1,6 km/h (1 Bft) W-NW 292 0 min 0,000 mm 0,0 UV-I 0 W/m -2,1 C -1,8 C 4,8 km/h (1 Bft) 100,00 %
26.12.2017 01:08 -1,9 C 4,4 C 98 % 1015,7 hPa 0,0 l/m 1,6 km/h (1 Bft) S-SW 202 0 min 0,000 mm 0,0 UV-I 0 W/m -2,2 C -1,9 C 4,8 km/h (1 Bft) 100,00 %
26.12.2017 01:09 -1,9 C 4,4 C 97 % 1015,7 hPa 0,0 l/m 3,2 km/h (1 Bft) S-SW 202 0 min 0,000 mm 0,0 UV-I 0 W/m -2,3 C -1,9 C 4,8 km/h (1 Bft) 95,65 %
26.12.2017 01:10 -1,9 C 4,4 C 97 % 1015,6 hPa 0,0 l/m 3,2 km/h (1 Bft) SW 225 0 min 0,000 mm 0,0 UV-I 0 W/m -2,3 C -1,9 C 4,8 km/h (1 Bft) 95,65 %
26.12.2017 01:11 -1,9 C 4,4 C 97 % 1015,6 hPa 0,0 l/m 1,6 km/h (1 Bft) SW 225 0 min 0,000 mm 0,0 UV-I 0 W/m -2,3 C -1,9 C 3,2 km/h (1 Bft) 95,65 %
26.12.2017 01:12 -1,9 C 4,4 C 97 % 1015,6 hPa 0,0 l/m 1,6 km/h (1 Bft) SW 225 0 min 0,000 mm 0,0 UV-I 0 W/m -2,3 C -1,9 C 3,2 km/h (1 Bft) 100,00 %
26.12.2017 01:13 -2,0 C 4,4 C 97 % 1015,6 hPa 0,0 l/m 1,6 km/h (1 Bft) SW 225 0 min 0,000 mm 0,0 UV-I 0 W/m -2,4 C -2,0 C 3,2 km/h (1 Bft) 91,30 %
26.12.2017 01:14 -2,0 C 4,4 C 97 % 1015,6 hPa 0,0 l/m 3,2 km/h (1 Bft) S-SW 202 0 min 0,000 mm 0,0 UV-I 0 W/m -2,4 C -2,0 C 4,8 km/h (1 Bft) 91,30 %
26.12.2017 01:15 -2,0 C 4,4 C 97 % 1015,6 hPa 0,0 l/m 1,6 km/h (1 Bft) S-SW 202 0 min 0,000 mm 0,0 UV-I 0 W/m -2,4 C -2,0 C 3,2 km/h (1 Bft) 100,00 %
26.12.2017 01:16 -2,0 C 4,4 C 97 % 1015,6 hPa 0,0 l/m 0,0 km/h (0 Bft) S-SW 202 0 min 0,000 mm 0,0 UV-I 0 W/m -2,4 C -2,0 C 1,6 km/h (1 Bft) 95,65 %
26.12.2017 01:17 -2,0 C 4,4 C 97 % 1015,5 hPa 0,0 l/m 0,0 km/h (0 Bft) N 0 0 min 0,000 mm 0,0 UV-I 0 W/m -2,4 C -2,0 C 0,0 km/h (0 Bft) 91,30 %
26.12.2017 01:18 -2,1 C 4,4 C 97 % 1015,5 hPa 0,0 l/m 0,0 km/h (0 Bft) S-SW 202 0 min 0,000 mm 0,0 UV-I 0 W/m -2,5 C -2,1 C 1,6 km/h (1 Bft) 91,30 %
26.12.2017 01:19 -2,1 C 4,4 C 97 % 1015,5 hPa 0,0 l/m 0,0 km/h (0 Bft) SW 225 0 min 0,000 mm 0,0 UV-I 0 W/m -2,5 C -2,1 C 1,6 km/h (1 Bft) 100,00 %
26.12.2017 01:20 -2,1 C 4,4 C 97 % 1015,5 hPa 0,0 l/m 0,0 km/h (0 Bft) N 0 0 min 0,000 mm 0,0 UV-I 0 W/m -2,5 C -2,1 C 0,0 km/h (0 Bft) 91,30 %
26.12.2017 01:21 -2,1 C 4,4 C 97 % 1015,5 hPa 0,0 l/m 0,0 km/h (0 Bft) N 0 0 min 0,000 mm 0,0 UV-I 0 W/m -2,5 C -2,1 C 0,0 km/h (0 Bft) 100,00 %
26.12.2017 01:22 -2,1 C 4,4 C 97 % 1015,5 hPa 0,0 l/m 1,6 km/h (1 Bft) SW 225 0 min 0,000 mm 0,0 UV-I 0 W/m -2,5 C -2,1 C 1,6 km/h (1 Bft) 95,65 %
26.12.2017 01:23 -2,1 C 4,4 C 97 % 1015,5 hPa 0,0 l/m 1,6 km/h (1 Bft) SW 225 0 min 0,000 mm 0,0 UV-I 0 W/m -2,5 C -2,1 C 1,6 km/h (1 Bft) 100,00 %
26.12.2017 01:24 -2,0 C 4,4 C 97 % 1015,5 hPa 0,0 l/m 0,0 km/h (0 Bft) N 0 0 min 0,000 mm 0,0 UV-I 0 W/m -2,4 C -2,0 C 0,0 km/h (0 Bft) 91,30 %
26.12.2017 01:25 -2,0 C 4,4 C 97 % 1015,6 hPa 0,0 l/m 0,0 km/h (0 Bft) N 0 0 min 0,000 mm 0,0 UV-I 0 W/m -2,4 C -2,0 C 0,0 km/h (0 Bft) 100,00 %
26.12.2017 01:26 -2,1 C 4,4 C 97 % 1015,5 hPa 0,0 l/m 0,0 km/h (0 Bft) SW 225 0 min 0,000 mm 0,0 UV-I 0 W/m -2,5 C -2,1 C 1,6 km/h (1 Bft) 95,65 %
26.12.2017 01:27 -2,1 C 4,4 C 97 % 1015,6 hPa 0,0 l/m 4,8 km/h (1 Bft) W-SW 247 0 min 0,000 mm 0,0 UV-I 0 W/m -2,5 C -2,1 C 6,4 km/h (2 Bft) 100,00 %
26.12.2017 01:28 -2,1 C 4,4 C 97 % 1015,6 hPa 0,0 l/m 6,4 km/h (2 Bft) W 270 0 min 0,000 mm 0,0 UV-I 0 W/m -2,5 C -2,1 C 6,4 km/h (2 Bft) 95,65 %
26.12.2017 01:29 -2,1 C 4,4 C 97 % 1015,6 hPa 0,0 l/m 4,8 km/h (1 Bft) W 270 0 min 0,000 mm 0,0 UV-I 0 W/m -2,5 C -2,1 C 6,4 km/h (2 Bft) 100,00 %
26.12.2017 01:30 -2,1 C 4,4 C 97 % 1015,6 hPa 0,0 l/m 4,8 km/h (1 Bft) W 270 0 min 0,000 mm 0,0 UV-I 0 W/m -2,5 C -2,1 C 6,4 km/h (2 Bft) 100,00 %
26.12.2017 01:31 -2,1 C 4,4 C 97 % 1015,6 hPa 0,0 l/m 4,8 km/h (1 Bft) W-SW 247 0 min 0,000 mm 0,0 UV-I 0 W/m -2,5 C -2,1 C 6,4 km/h (2 Bft) 91,30 %
26.12.2017 01:32 -2,2 C 4,4 C 97 % 1015,6 hPa 0,0 l/m 1,6 km/h (1 Bft) W-SW 247 0 min 0,000 mm 0,0 UV-I 0 W/m -2,6 C -2,2 C 3,2 km/h (1 Bft) 95,65 %
26.12.2017 01:33 -2,2 C 4,4 C 97 % 1015,7 hPa 0,0 l/m 1,6 km/h (1 Bft) W-SW 247 0 min 0,000 mm 0,0 UV-I 0 W/m -2,6 C -2,2 C 3,2 km/h (1 Bft) 100,00 %
26.12.2017 01:34 -2,2 C 4,4 C 97 % 1015,6 hPa 0,0 l/m 3,2 km/h (1 Bft) W 270 0 min 0,000 mm 0,0 UV-I 0 W/m -2,6 C -2,2 C 6,4 km/h (2 Bft) 100,00 %
26.12.2017 01:35 -2,2 C 4,4 C 97 % 1015,7 hPa 0,0 l/m 1,6 km/h (1 Bft) W 270 0 min 0,000 mm 0,0 UV-I 0 W/m -2,6 C -2,2 C 3,2 km/h (1 Bft) 100,00 %
26.12.2017 01:36 -2,2 C 4,4 C 97 % 1015,7 hPa 0,0 l/m 3,2 km/h (1 Bft) W 270 0 min 0,000 mm 0,0 UV-I 0 W/m -2,6 C -2,2 C 3,2 km/h (1 Bft) 100,00 %
26.12.2017 01:37 -2,2 C 4,4 C 97 % 1015,6 hPa 0,0 l/m 1,6 km/h (1 Bft) W 270 0 min 0,000 mm 0,0 UV-I 0 W/m -2,6 C -2,2 C 4,8 km/h (1 Bft) 100,00 %
26.12.2017 01:38 -2,2 C 4,4 C 97 % 1015,6 hPa 0,0 l/m 0,0 km/h (0 Bft) W 270 0 min 0,000 mm 0,0 UV-I 0 W/m -2,6 C -2,2 C 1,6 km/h (1 Bft) 95,65 %
26.12.2017 01:39 -2,2 C 4,4 C 97 % 1015,7 hPa 0,0 l/m 1,6 km/h (1 Bft) W-SW 247 0 min 0,000 mm 0,0 UV-I 0 W/m -2,6 C -2,2 C 4,8 km/h (1 Bft) 100,00 %
26.12.2017 01:40 -2,1 C 4,4 C 97 % 1015,7 hPa 0,0 l/m 3,2 km/h (1 Bft) W-SW 247 0 min 0,000 mm 0,0 UV-I 0 W/m -2,5 C -2,1 C 4,8 km/h (1 Bft) 100,00 %
26.12.2017 01:41 -2,1 C 4,4 C 97 % 1015,7 hPa 0,0 l/m 3,2 km/h (1 Bft) W-SW 247 0 min 0,000 mm 0,0 UV-I 0 W/m -2,5 C -2,1 C 4,8 km/h (1 Bft) 100,00 %
26.12.2017 01:42 -2,1 C 4,4 C 97 % 1015,6 hPa 0,0 l/m 1,6 km/h (1 Bft) W-SW 247 0 min 0,000 mm 0,0 UV-I 0 W/m -2,5 C -2,1 C 3,2 km/h (1 Bft) 100,00 %
26.12.2017 01:43 -2,1 C 4,4 C 97 % 1015,7 hPa 0,0 l/m 1,6 km/h (1 Bft) W-SW 247 0 min 0,000 mm 0,0 UV-I 0 W/m -2,5 C -2,1 C 3,2 km/h (1 Bft) 100,00 %
26.12.2017 01:44 -2,1 C 4,4 C 97 % 1015,6 hPa 0,0 l/m 1,6 km/h (1 Bft) W-SW 247 0 min 0,000 mm 0,0 UV-I 0 W/m -2,5 C -2,1 C 3,2 km/h (1 Bft) 100,00 %
26.12.2017 01:45 -2,1 C 4,4 C 97 % 1015,6 hPa 0,0 l/m 1,6 km/h (1 Bft) W-SW 247 0 min 0,000 mm 0,0 UV-I 0 W/m -2,5 C -2,1 C 4,8 km/h (1 Bft) 91,30 %
26.12.2017 01:46 -2,0 C 4,4 C 97 % 1015,6 hPa 0,0 l/m 4,8 km/h (1 Bft) SW 225 0 min 0,000 mm 0,0 UV-I 0 W/m -2,4 C -2,0 C 6,4 km/h (2 Bft) 100,00 %
26.12.2017 01:47 -2,1 C 4,4 C 97 % 1015,7 hPa 0,0 l/m 3,2 km/h (1 Bft) SW 225 0 min 0,000 mm 0,0 UV-I 0 W/m -2,5 C -2,1 C 6,4 km/h (2 Bft) 100,00 %
26.12.2017 01:48 -2,1 C 4,4 C 97 % 1015,6 hPa 0,0 l/m 4,8 km/h (1 Bft) SW 225 0 min 0,000 mm 0,0 UV-I 0 W/m -2,5 C -2,1 C 6,4 km/h (2 Bft) 100,00 %
26.12.2017 01:49 -2,1 C 4,4 C 97 % 1015,6 hPa 0,0 l/m 6,4 km/h (2 Bft) S-SW 202 0 min 0,000 mm 0,0 UV-I 0 W/m -2,5 C -2,1 C 8,0 km/h (2 Bft) 100,00 %
26.12.2017 01:50 -2,1 C 4,4 C 97 % 1015,6 hPa 0,0 l/m 4,8 km/h (1 Bft) SW 225 0 min 0,000 mm 0,0 UV-I 0 W/m -2,5 C -2,1 C 8,0 km/h (2 Bft) 100,00 %
26.12.2017 01:51 -2,1 C 4,4 C 97 % 1015,6 hPa 0,0 l/m 8,0 km/h (2 Bft) S-SW 202 0 min 0,000 mm 0,0 UV-I 0 W/m -2,5 C -3,9 C 9,7 km/h (2 Bft) 100,00 %
26.12.2017 01:52 -2,1 C 4,4 C 97 % 1015,5 hPa 0,0 l/m 6,4 km/h (2 Bft) S-SW 202 0 min 0,000 mm 0,0 UV-I 0 W/m -2,5 C -2,1 C 9,7 km/h (2 Bft) 95,65 %
26.12.2017 01:53 -2,1 C 4,4 C 97 % 1015,5 hPa 0,0 l/m 6,4 km/h (2 Bft) S-SW 202 0 min 0,000 mm 0,0 UV-I 0 W/m -2,5 C -2,1 C 8,0 km/h (2 Bft) 95,65 %
26.12.2017 01:54 -2,2 C 4,4 C 97 % 1015,5 hPa 0,0 l/m 4,8 km/h (1 Bft) S-SW 202 0 min 0,000 mm 0,0 UV-I 0 W/m -2,6 C -2,2 C 4,8 km/h (1 Bft) 100,00 %
26.12.2017 01:55 -2,2 C 4,4 C 97 % 1015,5 hPa 0,0 l/m 3,2 km/h (1 Bft) SW 225 0 min 0,000 mm 0,0 UV-I 0 W/m -2,6 C -2,2 C 4,8 km/h (1 Bft) 100,00 %
26.12.2017 01:56 -2,2 C 4,4 C 97 % 1015,6 hPa 0,0 l/m 3,2 km/h (1 Bft) SW 225 0 min 0,000 mm 0,0 UV-I 0 W/m -2,6 C -2,2 C 4,8 km/h (1 Bft) 100,00 %
26.12.2017 01:57 -2,2 C 4,4 C 97 % 1015,6 hPa 0,0 l/m 1,6 km/h (1 Bft) SW 225 0 min 0,000 mm 0,0 UV-I 0 W/m -2,6 C -2,2 C 3,2 km/h (1 Bft) 100,00 %
26.12.2017 01:58 -2,2 C 4,4 C 97 % 1015,6 hPa 0,0 l/m 0,0 km/h (0 Bft) N 0 0 min 0,000 mm 0,0 UV-I 0 W/m -2,6 C -2,2 C 0,0 km/h (0 Bft) 100,00 %
26.12.2017 01:59 -2,2 C 4,4 C 97 % 1015,6 hPa 0,0 l/m 3,2 km/h (1 Bft) SW 225 0 min 0,000 mm 0,0 UV-I 0 W/m -2,6 C -2,2 C 4,8 km/h (1 Bft) 95,65 %
26.12.2017 02:00 -2,2 C 4,4 C 97 % 1015,6 hPa 0,0 l/m 0,0 km/h (0 Bft) SW 225 0 min 0,000 mm 0,0 UV-I 0 W/m -2,6 C -2,2 C 1,6 km/h (1 Bft) 100,00 %
26.12.2017 02:01 -2,2 C 4,4 C 97 % 1015,6 hPa 0,0 l/m 0,0 km/h (0 Bft) N 0 0 min 0,000 mm 0,0 UV-I 0 W/m -2,6 C -2,2 C 0,0 km/h (0 Bft) 100,00 %
26.12.2017 02:02 -2,2 C 4,4 C 97 % 1015,6 hPa 0,0 l/m 0,0 km/h (0 Bft) N 0 0 min 0,000 mm 0,0 UV-I 0 W/m -2,6 C -2,2 C 0,0 km/h (0 Bft) 100,00 %
26.12.2017 02:03 -2,2 C 4,4 C 97 % 1015,5 hPa 0,0 l/m 1,6 km/h (1 Bft) SW 225 0 min 0,000 mm 0,0 UV-I 0 W/m -2,6 C -2,2 C 3,2 km/h (1 Bft) 100,00 %
26.12.2017 02:04 -2,2 C 4,4 C 97 % 1015,5 hPa 0,0 l/m 1,6 km/h (1 Bft) SW 225 0 min 0,000 mm 0,0 UV-I 0 W/m -2,6 C -2,2 C 3,2 km/h (1 Bft) 100,00 %
26.12.2017 02:05 -2,2 C 4,4 C 97 % 1015,5 hPa 0,0 l/m 1,6 km/h (1 Bft) SW 225 0 min 0,000 mm 0,0 UV-I 0 W/m -2,6 C -2,2 C 1,6 km/h (1 Bft) 95,65 %
26.12.2017 02:06 -2,2 C 4,4 C 97 % 1015,5 hPa 0,0 l/m 0,0 km/h (0 Bft) N 0 0 min 0,000 mm 0,0 UV-I 0 W/m -2,6 C -2,2 C 0,0 km/h (0 Bft) 95,65 %
26.12.2017 02:07 -2,1 C 4,4 C 97 % 1015,5 hPa 0,0 l/m 0,0 km/h (0 Bft) N 0 0 min 0,000 mm 0,0 UV-I 0 W/m -2,5 C -2,1 C 0,0 km/h (0 Bft) 100,00 %
26.12.2017 02:08 -2,1 C 4,4 C 97 % 1015,5 hPa 0,0 l/m 0,0 km/h (0 Bft) SW 225 0 min 0,000 mm 0,0 UV-I 0 W/m -2,5 C -2,1 C 1,6 km/h (1 Bft) 95,65 %
26.12.2017 02:09 -2,1 C 4,4 C 97 % 1015,5 hPa 0,0 l/m 1,6 km/h (1 Bft) SW 225 0 min 0,000 mm 0,0 UV-I 0 W/m -2,5 C -2,1 C 4,8 km/h (1 Bft) 100,00 %
26.12.2017 02:10 -2,1 C 4,4 C 97 % 1015,4 hPa 0,0 l/m 4,8 km/h (1 Bft) SW 225 0 min 0,000 mm 0,0 UV-I 0 W/m -2,5 C -2,1 C 6,4 km/h (2 Bft) 100,00 %
26.12.2017 02:11 -2,1 C 4,4 C 97 % 1015,4 hPa 0,0 l/m 3,2 km/h (1 Bft) W-SW 247 0 min 0,000 mm 0,0 UV-I 0 W/m -2,5 C -2,1 C 6,4 km/h (2 Bft) 100,00 %
26.12.2017 02:12 -2,1 C 4,4 C 97 % 1015,4 hPa 0,0 l/m 4,8 km/h (1 Bft) W-SW 247 0 min 0,000 mm 0,0 UV-I 0 W/m -2,5 C -2,1 C 8,0 km/h (2 Bft) 100,00 %
26.12.2017 02:13 -2,1 C 4,4 C 97 % 1015,4 hPa 0,0 l/m 3,2 km/h (1 Bft) W-SW 247 0 min 0,000 mm 0,0 UV-I 0 W/m -2,5 C -2,1 C 4,8 km/h (1 Bft) 95,65 %
26.12.2017 02:14 -2,1 C 4,4 C 97 % 1015,4 hPa 0,0 l/m 3,2 km/h (1 Bft) W-SW 247 0 min 0,000 mm 0,0 UV-I 0 W/m -2,5 C -2,1 C 6,4 km/h (2 Bft) 100,00 %
26.12.2017 02:15 -2,1 C 4,4 C 97 % 1015,4 hPa 0,0 l/m 4,8 km/h (1 Bft) W-SW 247 0 min 0,000 mm 0,0 UV-I 0 W/m -2,5 C -2,1 C 4,8 km/h (1 Bft) 95,65 %
26.12.2017 02:16 -2,1 C 4,4 C 97 % 1015,4 hPa 0,0 l/m 3,2 km/h (1 Bft) W-SW 247 0 min 0,000 mm 0,0 UV-I 0 W/m -2,5 C -2,1 C 4,8 km/h (1 Bft) 100,00 %
26.12.2017 02:17 -2,1 C 4,4 C 97 % 1015,4 hPa 0,0 l/m 4,8 km/h (1 Bft) W-SW 247 0 min 0,000 mm 0,0 UV-I 0 W/m -2,5 C -2,1 C 6,4 km/h (2 Bft) 95,65 %
26.12.2017 02:18 -2,2 C 4,4 C 97 % 1015,4 hPa 0,0 l/m 1,6 km/h (1 Bft) W-SW 247 0 min 0,000 mm 0,0 UV-I 0 W/m -2,6 C -2,2 C 4,8 km/h (1 Bft) 100,00 %
26.12.2017 02:19 -2,2 C 4,4 C 97 % 1015,4 hPa 0,0 l/m 1,6 km/h (1 Bft) W-SW 247 0 min 0,000 mm 0,0 UV-I 0 W/m -2,6 C -2,2 C 1,6 km/h (1 Bft) 95,65 %
26.12.2017 02:20 -2,2 C 4,4 C 97 % 1015,4 hPa 0,0 l/m 3,2 km/h (1 Bft) W-SW 247 0 min 0,000 mm 0,0 UV-I 0 W/m -2,6 C -2,2 C 6,4 km/h (2 Bft) 91,30 %
26.12.2017 02:21 -2,2 C 4,4 C 97 % 1015,4 hPa 0,0 l/m 4,8 km/h (1 Bft) SW 225 0 min 0,000 mm 0,0 UV-I 0 W/m -2,6 C -2,2 C 6,4 km/h (2 Bft) 100,00 %
26.12.2017 02:22 -2,2 C 4,4 C 97 % 1015,3 hPa 0,0 l/m 4,8 km/h (1 Bft) SW 225 0 min 0,000 mm 0,0 UV-I 0 W/m -2,6 C -2,2 C 8,0 km/h (2 Bft) 95,65 %
26.12.2017 02:23 -2,2 C 4,4 C 97 % 1015,3 hPa 0,0 l/m 4,8 km/h (1 Bft) W-SW 247 0 min 0,000 mm 0,0 UV-I 0 W/m -2,6 C -2,2 C 8,0 km/h (2 Bft) 100,00 %
26.12.2017 02:24 -2,2 C 4,4 C 97 % 1015,3 hPa 0,0 l/m 4,8 km/h (1 Bft) W-SW 247 0 min 0,000 mm 0,0 UV-I 0 W/m -2,6 C -2,2 C 6,4 km/h (2 Bft) 91,30 %
26.12.2017 02:25 -2,2 C 4,4 C 97 % 1015,3 hPa 0,0 l/m 6,4 km/h (2 Bft) SW 225 0 min 0,000 mm 0,0 UV-I 0 W/m -2,6 C -2,2 C 8,0 km/h (2 Bft) 100,00 %
26.12.2017 02:26 -2,3 C 4,4 C 97 % 1015,3 hPa 0,0 l/m 4,8 km/h (1 Bft) W-SW 247 0 min 0,000 mm 0,0 UV-I 0 W/m -2,7 C -2,3 C 6,4 km/h (2 Bft) 86,96 %
26.12.2017 02:27 -2,3 C 4,4 C 97 % 1015,3 hPa 0,0 l/m 1,6 km/h (1 Bft) W-SW 247 0 min 0,000 mm 0,0 UV-I 0 W/m -2,7 C -2,3 C 4,8 km/h (1 Bft) 95,65 %
26.12.2017 02:28 -2,3 C 4,4 C 97 % 1015,3 hPa 0,0 l/m 3,2 km/h (1 Bft) W-SW 247 0 min 0,000 mm 0,0 UV-I 0 W/m -2,7 C -2,3 C 4,8 km/h (1 Bft) 91,30 %
26.12.2017 02:29 -2,3 C 4,4 C 97 % 1015,3 hPa 0,0 l/m 3,2 km/h (1 Bft) W 270 0 min 0,000 mm 0,0 UV-I 0 W/m -2,7 C -2,3 C 4,8 km/h (1 Bft) 95,65 %
26.12.2017 02:30 -2,3 C 4,4 C 97 % 1015,2 hPa 0,0 l/m 3,2 km/h (1 Bft) W 270 0 min 0,000 mm 0,0 UV-I 0 W/m -2,7 C -2,3 C 6,4 km/h (2 Bft) 95,65 %
26.12.2017 02:31 -2,3 C 4,4 C 97 % 1015,2 hPa 0,0 l/m 4,8 km/h (1 Bft) SW 225 0 min 0,000 mm 0,0 UV-I 0 W/m -2,7 C -2,3 C 6,4 km/h (2 Bft) 91,30 %
26.12.2017 02:32 -2,3 C 4,4 C 97 % 1015,2 hPa 0,0 l/m 4,8 km/h (1 Bft) SW 225 0 min 0,000 mm 0,0 UV-I 0 W/m -2,7 C -2,3 C 6,4 km/h (2 Bft) 95,65 %
26.12.2017 02:33 -2,3 C 4,4 C 97 % 1015,2 hPa 0,0 l/m 6,4 km/h (2 Bft) W-SW 247 0 min 0,000 mm 0,0 UV-I 0 W/m -2,7 C -2,3 C 8,0 km/h (2 Bft) 86,96 %
26.12.2017 02:34 -2,3 C 4,4 C 97 % 1015,2 hPa 0,0 l/m 3,2 km/h (1 Bft) W 270 0 min 0,000 mm 0,0 UV-I 0 W/m -2,7 C -2,3 C 3,2 km/h (1 Bft) 95,65 %
26.12.2017 02:35 -2,3 C 4,4 C 97 % 1015,1 hPa 0,0 l/m 3,2 km/h (1 Bft) W-SW 247 0 min 0,000 mm 0,0 UV-I 0 W/m -2,7 C -2,3 C 4,8 km/h (1 Bft) 91,30 %
26.12.2017 02:36 -2,3 C 4,4 C 97 % 1015,1 hPa 0,0 l/m 0,0 km/h (0 Bft) W-SW 247 0 min 0,000 mm 0,0 UV-I 0 W/m -2,7 C -2,3 C 1,6 km/h (1 Bft) 100,00 %
26.12.2017 02:37 -2,2 C 4,4 C 97 % 1015,1 hPa 0,0 l/m 4,8 km/h (1 Bft) W-SW 247 0 min 0,000 mm 0,0 UV-I 0 W/m -2,6 C -2,2 C 6,4 km/h (2 Bft) 91,30 %
26.12.2017 02:38 -2,2 C 4,4 C 97 % 1015,2 hPa 0,0 l/m 3,2 km/h (1 Bft) SW 225 0 min 0,000 mm 0,0 UV-I 0 W/m -2,6 C -2,2 C 4,8 km/h (1 Bft) 95,65 %
26.12.2017 02:39 -2,3 C 4,4 C 97 % 1015,1 hPa 0,0 l/m 3,2 km/h (1 Bft) SW 225 0 min 0,000 mm 0,0 UV-I 0 W/m -2,7 C -2,3 C 4,8 km/h (1 Bft) 95,65 %
26.12.2017 02:40 -2,3 C 4,4 C 97 % 1015,1 hPa 0,0 l/m 3,2 km/h (1 Bft) SW 225 0 min 0,000 mm 0,0 UV-I 0 W/m -2,7 C -2,3 C 4,8 km/h (1 Bft) 95,65 %
26.12.2017 02:41 -2,2 C 4,4 C 97 % 1015,1 hPa 0,0 l/m 1,6 km/h (1 Bft) SW 225 0 min 0,000 mm 0,0 UV-I 0 W/m -2,6 C -2,2 C 3,2 km/h (1 Bft) 91,30 %
26.12.2017 02:42 -2,3 C 4,4 C 97 % 1015,1 hPa 0,0 l/m 1,6 km/h (1 Bft) S 180 0 min 0,000 mm 0,0 UV-I 0 W/m -2,7 C -2,3 C 3,2 km/h (1 Bft) 95,65 %
26.12.2017 02:43 -2,3 C 4,4 C 97 % 1015,1 hPa 0,0 l/m 4,8 km/h (1 Bft) S-SW 202 0 min 0,000 mm 0,0 UV-I 0 W/m -2,7 C -2,3 C 8,0 km/h (2 Bft) 100,00 %
26.12.2017 02:44 -2,3 C 4,4 C 97 % 1015,1 hPa 0,0 l/m 4,8 km/h (1 Bft) S-SW 202 0 min 0,000 mm 0,0 UV-I 0 W/m -2,7 C -2,3 C 6,4 km/h (2 Bft) 91,30 %
26.12.2017 02:45 -2,3 C 4,4 C 97 % 1015,1 hPa 0,0 l/m 4,8 km/h (1 Bft) S-SW 202 0 min 0,000 mm 0,0 UV-I 0 W/m -2,7 C -2,3 C 6,4 km/h (2 Bft) 100,00 %
26.12.2017 02:46 -2,3 C 4,4 C 97 % 1015,1 hPa 0,0 l/m 4,8 km/h (1 Bft) SW 225 0 min 0,000 mm 0,0 UV-I 0 W/m -2,7 C -2,3 C 6,4 km/h (2 Bft) 95,65 %
26.12.2017 02:47 -2,3 C 4,4 C 97 % 1015,1 hPa 0,0 l/m 1,6 km/h (1 Bft) S-SO 157 0 min 0,000 mm 0,0 UV-I 0 W/m -2,7 C -2,3 C 4,8 km/h (1 Bft) 91,30 %
26.12.2017 02:48 -2,4 C 4,4 C 97 % 1015,0 hPa 0,0 l/m 4,8 km/h (1 Bft) S-SO 157 0 min 0,000 mm 0,0 UV-I 0 W/m -2,8 C -2,4 C 6,4 km/h (2 Bft) 91,30 %
26.12.2017 02:49 -2,5 C 4,4 C 97 % 1015,1 hPa 0,0 l/m 4,8 km/h (1 Bft) S-SW 202 0 min 0,000 mm 0,0 UV-I 0 W/m -2,9 C -2,5 C 6,4 km/h (2 Bft) 100,00 %
26.12.2017 02:50 -2,5 C 4,4 C 97 % 1015,0 hPa 0,0 l/m 3,2 km/h (1 Bft) S-SW 202 0 min 0,000 mm 0,0 UV-I 0 W/m -2,9 C -2,5 C 4,8 km/h (1 Bft) 95,65 %
26.12.2017 02:51 -2,6 C 4,4 C 97 % 1015,1 hPa 0,0 l/m 1,6 km/h (1 Bft) S-SW 202 0 min 0,000 mm 0,0 UV-I 0 W/m -3,0 C -2,6 C 3,2 km/h (1 Bft) 100,00 %
26.12.2017 02:52 -2,6 C 4,4 C 97 % 1015,0 hPa 0,0 l/m 1,6 km/h (1 Bft) S-SW 202 0 min 0,000 mm 0,0 UV-I 0 W/m -3,0 C -2,6 C 3,2 km/h (1 Bft) 100,00 %
26.12.2017 02:53 -2,6 C 4,4 C 97 % 1015,0 hPa 0,0 l/m 1,6 km/h (1 Bft) S-SW 202 0 min 0,000 mm 0,0 UV-I 0 W/m -3,0 C -2,6 C 3,2 km/h (1 Bft) 100,00 %
26.12.2017 02:54 -2,6 C 4,4 C 97 % 1015,0 hPa 0,0 l/m 1,6 km/h (1 Bft) S-SW 202 0 min 0,000 mm 0,0 UV-I 0 W/m -3,0 C -2,6 C 3,2 km/h (1 Bft) 100,00 %
26.12.2017 02:55 -2,6 C 4,4 C 97 % 1015,0 hPa 0,0 l/m 3,2 km/h (1 Bft) S-SW 202 0 min 0,000 mm 0,0 UV-I 0 W/m -3,0 C -2,6 C 6,4 km/h (2 Bft) 95,65 %
26.12.2017 02:56 -2,5 C 4,4 C 97 % 1014,9 hPa 0,0 l/m 3,2 km/h (1 Bft) SW 225 0 min 0,000 mm 0,0 UV-I 0 W/m -2,9 C -2,5 C 4,8 km/h (1 Bft) 100,00 %
26.12.2017 02:57 -2,5 C 4,4 C 97 % 1014,8 hPa 0,0 l/m 1,6 km/h (1 Bft) SW 225 0 min 0,000 mm 0,0 UV-I 0 W/m -2,9 C -2,5 C 3,2 km/h (1 Bft) 100,00 %
26.12.2017 02:58 -2,5 C 4,4 C 97 % 1014,9 hPa 0,0 l/m 1,6 km/h (1 Bft) S 180 0 min 0,000 mm 0,0 UV-I 0 W/m -2,9 C -2,5 C 3,2 km/h (1 Bft) 95,65 %
26.12.2017 02:59 -2,5 C 4,4 C 97 % 1015,0 hPa 0,0 l/m 1,6 km/h (1 Bft) S 180 0 min 0,000 mm 0,0 UV-I 0 W/m -2,9 C -2,5 C 3,2 km/h (1 Bft) 100,00 %
26.12.2017 03:00 -2,5 C 4,4 C 97 % 1014,9 hPa 0,0 l/m 0,0 km/h (0 Bft) S 180 0 min 0,000 mm 0,0 UV-I 0 W/m -2,9 C -2,5 C 1,6 km/h (1 Bft) 100,00 %
26.12.2017 03:01 -2,5 C 4,4 C 97 % 1014,9 hPa 0,0 l/m 0,0 km/h (0 Bft) S 180 0 min 0,000 mm 0,0 UV-I 0 W/m -2,9 C -2,5 C 1,6 km/h (1 Bft) 95,65 %
26.12.2017 03:02 -2,4 C 4,4 C 97 % 1014,8 hPa 0,0 l/m 0,0 km/h (0 Bft) S 180 0 min 0,000 mm 0,0 UV-I 0 W/m -2,8 C -2,4 C 1,6 km/h (1 Bft) 95,65 %
26.12.2017 03:03 -2,5 C 4,4 C 97 % 1014,8 hPa 0,0 l/m 1,6 km/h (1 Bft) S 180 0 min 0,000 mm 0,0 UV-I 0 W/m -2,9 C -2,5 C 3,2 km/h (1 Bft) 100,00 %
26.12.2017 03:04 -2,5 C 4,4 C 97 % 1014,9 hPa 0,0 l/m 3,2 km/h (1 Bft) S 180 0 min 0,000 mm 0,0 UV-I 0 W/m -2,9 C -2,5 C 3,2 km/h (1 Bft) 100,00 %
26.12.2017 03:05 -2,5 C 4,4 C 97 % 1014,8 hPa 0,0 l/m 1,6 km/h (1 Bft) S-SO 157 0 min 0,000 mm 0,0 UV-I 0 W/m -2,9 C -2,5 C 3,2 km/h (1 Bft) 95,65 %
26.12.2017 03:06 -2,5 C 4,4 C 97 % 1014,7 hPa 0,0 l/m 3,2 km/h (1 Bft) S 180 0 min 0,000 mm 0,0 UV-I 0 W/m -2,9 C -2,5 C 6,4 km/h (2 Bft) 100,00 %
26.12.2017 03:07 -2,5 C 4,4 C 97 % 1014,7 hPa 0,0 l/m 1,6 km/h (1 Bft) S 180 0 min 0,000 mm 0,0 UV-I 0 W/m -2,9 C -2,5 C 3,2 km/h (1 Bft) 100,00 %
26.12.2017 03:08 -2,5 C 4,4 C 97 % 1014,7 hPa 0,0 l/m 0,0 km/h (0 Bft) S 180 0 min 0,000 mm 0,0 UV-I 0 W/m -2,9 C -2,5 C 1,6 km/h (1 Bft) 100,00 %
26.12.2017 03:09 -2,5 C 4,4 C 97 % 1014,7 hPa 0,0 l/m 0,0 km/h (0 Bft) S 180 0 min 0,000 mm 0,0 UV-I 0 W/m -2,9 C -2,5 C 1,6 km/h (1 Bft) 95,65 %
26.12.2017 03:10 -2,5 C 4,4 C 97 % 1014,7 hPa 0,0 l/m 0,0 km/h (0 Bft) S 180 0 min 0,000 mm 0,0 UV-I 0 W/m -2,9 C -2,5 C 1,6 km/h (1 Bft) 100,00 %
26.12.2017 03:11 -2,5 C 4,4 C 97 % 1014,7 hPa 0,0 l/m 0,0 km/h (0 Bft) S 180 0 min 0,000 mm 0,0 UV-I 0 W/m -2,9 C -2,5 C 1,6 km/h (1 Bft) 100,00 %
26.12.2017 03:12 -2,5 C 4,4 C 97 % 1014,7 hPa 0,0 l/m 0,0 km/h (0 Bft) S 180 0 min 0,000 mm 0,0 UV-I 0 W/m -2,9 C -2,5 C 1,6 km/h (1 Bft) 95,65 %
26.12.2017 03:13 -2,5 C 4,4 C 97 % 1014,7 hPa 0,0 l/m 0,0 km/h (0 Bft) S 180 0 min 0,000 mm 0,0 UV-I 0 W/m -2,9 C -2,5 C 1,6 km/h (1 Bft) 100,00 %
26.12.2017 03:14 -2,5 C 4,4 C 97 % 1014,6 hPa 0,0 l/m 1,6 km/h (1 Bft) S 180 0 min 0,000 mm 0,0 UV-I 0 W/m -2,9 C -2,5 C 3,2 km/h (1 Bft) 100,00 %
26.12.2017 03:15 -2,4 C 4,4 C 97 % 1014,6 hPa 0,0 l/m 1,6 km/h (1 Bft) S 180 0 min 0,000 mm 0,0 UV-I 0 W/m -2,8 C -2,4 C 1,6 km/h (1 Bft) 100,00 %
26.12.2017 03:16 -2,4 C 4,4 C 97 % 1014,6 hPa 0,0 l/m 0,0 km/h (0 Bft) S 180 0 min 0,000 mm 0,0 UV-I 0 W/m -2,8 C -2,4 C 1,6 km/h (1 Bft) 95,65 %
26.12.2017 03:17 -2,4 C 4,4 C 97 % 1014,6 hPa 0,0 l/m 0,0 km/h (0 Bft) S 180 0 min 0,000 mm 0,0 UV-I 0 W/m -2,8 C -2,4 C 1,6 km/h (1 Bft) 100,00 %
26.12.2017 03:18 -2,4 C 4,4 C 97 % 1014,6 hPa 0,0 l/m 0,0 km/h (0 Bft) N 0 0 min 0,000 mm 0,0 UV-I 0 W/m -2,8 C -2,4 C 0,0 km/h (0 Bft) 95,65 %
26.12.2017 03:19 -2,4 C 4,4 C 97 % 1014,6 hPa 0,0 l/m 0,0 km/h (0 Bft) S 180 0 min 0,000 mm 0,0 UV-I 0 W/m -2,8 C -2,4 C 1,6 km/h (1 Bft) 100,00 %
26.12.2017 03:20 -2,3 C 4,4 C 97 % 1014,6 hPa 0,0 l/m 0,0 km/h (0 Bft) S 180 0 min 0,000 mm 0,0 UV-I 0 W/m -2,7 C -2,3 C 1,6 km/h (1 Bft) 95,65 %
26.12.2017 03:21 -2,3 C 4,4 C 97 % 1014,6 hPa 0,0 l/m 3,2 km/h (1 Bft) S 180 0 min 0,000 mm 0,0 UV-I 0 W/m -2,7 C -2,3 C 4,8 km/h (1 Bft) 100,00 %
26.12.2017 03:22 -2,3 C 4,4 C 97 % 1014,6 hPa 0,0 l/m 1,6 km/h (1 Bft) S 180 0 min 0,000 mm 0,0 UV-I 0 W/m -2,7 C -2,3 C 3,2 km/h (1 Bft) 100,00 %
26.12.2017 03:23 -2,3 C 4,4 C 97 % 1014,6 hPa 0,0 l/m 1,6 km/h (1 Bft) S 180 0 min 0,000 mm 0,0 UV-I 0 W/m -2,7 C -2,3 C 3,2 km/h (1 Bft) 95,65 %
26.12.2017 03:24 -2,3 C 4,4 C 97 % 1014,5 hPa 0,0 l/m 1,6 km/h (1 Bft) S 180 0 min 0,000 mm 0,0 UV-I 0 W/m -2,7 C -2,3 C 1,6 km/h (1 Bft) 95,65 %
26.12.2017 03:25 -2,4 C 4,4 C 97 % 1014,5 hPa 0,0 l/m 0,0 km/h (0 Bft) N 0 0 min 0,000 mm 0,0 UV-I 0 W/m -2,8 C -2,4 C 0,0 km/h (0 Bft) 100,00 %
26.12.2017 03:26 -2,4 C 4,4 C 97 % 1014,5 hPa 0,0 l/m 0,0 km/h (0 Bft) S 180 0 min 0,000 mm 0,0 UV-I 0 W/m -2,8 C -2,4 C 1,6 km/h (1 Bft) 100,00 %
26.12.2017 03:27 -2,4 C 4,4 C 97 % 1014,5 hPa 0,0 l/m 1,6 km/h (1 Bft) W 270 0 min 0,000 mm 0,0 UV-I 0 W/m -2,8 C -2,4 C 3,2 km/h (1 Bft) 100,00 %
26.12.2017 03:28 -2,4 C 4,4 C 97 % 1014,5 hPa 0,0 l/m 1,6 km/h (1 Bft) W 270 0 min 0,000 mm 0,0 UV-I 0 W/m -2,8 C -2,4 C 3,2 km/h (1 Bft) 100,00 %
26.12.2017 03:29 -2,5 C 4,4 C 97 % 1014,4 hPa 0,0 l/m 3,2 km/h (1 Bft) W 270 0 min 0,000 mm 0,0 UV-I 0 W/m -2,9 C -2,5 C 3,2 km/h (1 Bft) 95,65 %
26.12.2017 03:30 -2,6 C 4,4 C 97 % 1014,4 hPa 0,0 l/m 3,2 km/h (1 Bft) W 270 0 min 0,000 mm 0,0 UV-I 0 W/m -3,0 C -2,6 C 3,2 km/h (1 Bft) 95,65 %
26.12.2017 03:31 -2,6 C 4,4 C 97 % 1014,5 hPa 0,0 l/m 1,6 km/h (1 Bft) W 270 0 min 0,000 mm 0,0 UV-I 0 W/m -3,0 C -2,6 C 1,6 km/h (1 Bft) 100,00 %
26.12.2017 03:32 -2,6 C 4,4 C 97 % 1014,4 hPa 0,0 l/m 0,0 km/h (0 Bft) W 270 0 min 0,000 mm 0,0 UV-I 0 W/m -3,0 C -2,6 C 1,6 km/h (1 Bft) 95,65 %
26.12.2017 03:33 -2,6 C 4,4 C 97 % 1014,5 hPa 0,0 l/m 0,0 km/h (0 Bft) W 270 0 min 0,000 mm 0,0 UV-I 0 W/m -3,0 C -2,6 C 1,6 km/h (1 Bft) 95,65 %
26.12.2017 03:34 -2,5 C 4,4 C 97 % 1014,4 hPa 0,0 l/m 0,0 km/h (0 Bft) N 0 0 min 0,000 mm 0,0 UV-I 0 W/m -2,9 C -2,5 C 0,0 km/h (0 Bft) 100,00 %
26.12.2017 03:35 -2,4 C 4,4 C 97 % 1014,4 hPa 0,0 l/m 0,0 km/h (0 Bft) W 270 0 min 0,000 mm 0,0 UV-I 0 W/m -2,8 C -2,4 C 1,6 km/h (1 Bft) 95,65 %
26.12.2017 03:36 -2,5 C 4,4 C 97 % 1014,4 hPa 0,0 l/m 0,0 km/h (0 Bft) W 270 0 min 0,000 mm 0,0 UV-I 0 W/m -2,9 C -2,5 C 1,6 km/h (1 Bft) 95,65 %
26.12.2017 03:37 -2,5 C 4,4 C 97 % 1014,4 hPa 0,0 l/m 0,0 km/h (0 Bft) W 270 0 min 0,000 mm 0,0 UV-I 0 W/m -2,9 C -2,5 C 1,6 km/h (1 Bft) 95,65 %
26.12.2017 03:38 -2,5 C 4,4 C 97 % 1014,5 hPa 0,0 l/m 0,0 km/h (0 Bft) W 270 0 min 0,000 mm 0,0 UV-I 0 W/m -2,9 C -2,5 C 1,6 km/h (1 Bft) 91,30 %
26.12.2017 03:39 -2,5 C 4,4 C 97 % 1014,5 hPa 0,0 l/m 0,0 km/h (0 Bft) W 270 0 min 0,000 mm 0,0 UV-I 0 W/m -2,9 C -2,5 C 1,6 km/h (1 Bft) 91,30 %
26.12.2017 03:40 -2,4 C 4,4 C 97 % 1014,4 hPa 0,0 l/m 1,6 km/h (1 Bft) W 270 0 min 0,000 mm 0,0 UV-I 0 W/m -2,8 C -2,4 C 3,2 km/h (1 Bft) 100,00 %
26.12.2017 03:41 -2,4 C 4,4 C 97 % 1014,4 hPa 0,0 l/m 1,6 km/h (1 Bft) W 270 0 min 0,000 mm 0,0 UV-I 0 W/m -2,8 C -2,4 C 1,6 km/h (1 Bft) 95,65 %
26.12.2017 03:42 -2,4 C 4,4 C 97 % 1014,5 hPa 0,0 l/m 1,6 km/h (1 Bft) W 270 0 min 0,000 mm 0,0 UV-I 0 W/m -2,8 C -2,4 C 3,2 km/h (1 Bft) 100,00 %
26.12.2017 03:43 -2,4 C 4,4 C 97 % 1014,5 hPa 0,0 l/m 0,0 km/h (0 Bft) W 270 0 min 0,000 mm 0,0 UV-I 0 W/m -2,8 C -2,4 C 1,6 km/h (1 Bft) 95,65 %
26.12.2017 03:44 -2,4 C 4,4 C 97 % 1014,4 hPa 0,0 l/m 0,0 km/h (0 Bft) N 0 0 min 0,000 mm 0,0 UV-I 0 W/m -2,8 C -2,4 C 0,0 km/h (0 Bft) 100,00 %
26.12.2017 03:45 -2,4 C 4,4 C 97 % 1014,4 hPa 0,0 l/m 1,6 km/h (1 Bft) W 270 0 min 0,000 mm 0,0 UV-I 0 W/m -2,8 C -2,4 C 3,2 km/h (1 Bft) 91,30 %
26.12.2017 03:46 -2,4 C 4,4 C 97 % 1014,4 hPa 0,0 l/m 1,6 km/h (1 Bft) W 270 0 min 0,000 mm 0,0 UV-I 0 W/m -2,8 C -2,4 C 3,2 km/h (1 Bft) 100,00 %
26.12.2017 03:47 -2,4 C 4,4 C 97 % 1014,4 hPa 0,0 l/m 1,6 km/h (1 Bft) W 270 0 min 0,000 mm 0,0 UV-I 0 W/m -2,8 C -2,4 C 3,2 km/h (1 Bft) 95,65 %
26.12.2017 03:48 -2,4 C 4,4 C 97 % 1014,4 hPa 0,0 l/m 3,2 km/h (1 Bft) W-NW 292 0 min 0,000 mm 0,0 UV-I 0 W/m -2,8 C -2,4 C 4,8 km/h (1 Bft) 100,00 %
26.12.2017 03:49 -2,4 C 4,4 C 97 % 1014,4 hPa 0,0 l/m 3,2 km/h (1 Bft) NW 315 0 min 0,000 mm 0,0 UV-I 0 W/m -2,8 C -2,4 C 4,8 km/h (1 Bft) 95,65 %
26.12.2017 03:50 -2,4 C 4,4 C 97 % 1014,3 hPa 0,0 l/m 3,2 km/h (1 Bft) N 360 0 min 0,000 mm 0,0 UV-I 0 W/m -2,8 C -2,4 C 4,8 km/h (1 Bft) 100,00 %
26.12.2017 03:51 -2,4 C 4,4 C 97 % 1014,3 hPa 0,0 l/m 3,2 km/h (1 Bft) N 360 0 min 0,000 mm 0,0 UV-I 0 W/m -2,8 C -2,4 C 4,8 km/h (1 Bft) 95,65 %
26.12.2017 03:52 -2,4 C 4,4 C 97 % 1014,3 hPa 0,0 l/m 3,2 km/h (1 Bft) N-NO 22 0 min 0,000 mm 0,0 UV-I 0 W/m -2,8 C -2,4 C 4,8 km/h (1 Bft) 95,65 %
26.12.2017 03:53 -2,4 C 4,4 C 97 % 1014,3 hPa 0,0 l/m 3,2 km/h (1 Bft) N-NO 22 0 min 0,000 mm 0,0 UV-I 0 W/m -2,8 C -2,4 C 3,2 km/h (1 Bft) 95,65 %
26.12.2017 03:54 -2,4 C 4,4 C 97 % 1014,2 hPa 0,0 l/m 3,2 km/h (1 Bft) N-NO 22 0 min 0,000 mm 0,0 UV-I 0 W/m -2,8 C -2,4 C 4,8 km/h (1 Bft) 91,30 %
26.12.2017 03:55 -2,4 C 4,4 C 97 % 1014,2 hPa 0,0 l/m 3,2 km/h (1 Bft) N-NO 22 0 min 0,000 mm 0,0 UV-I 0 W/m -2,8 C -2,4 C 3,2 km/h (1 Bft) 100,00 %
26.12.2017 03:56 -2,4 C 4,4 C 97 % 1014,2 hPa 0,0 l/m 0,0 km/h (0 Bft) N-NO 22 0 min 0,000 mm 0,0 UV-I 0 W/m -2,8 C -2,4 C 1,6 km/h (1 Bft) 100,00 %
26.12.2017 03:57 -2,3 C 4,4 C 97 % 1014,2 hPa 0,0 l/m 0,0 km/h (0 Bft) N 0 0 min 0,000 mm 0,0 UV-I 0 W/m -2,7 C -2,3 C 0,0 km/h (0 Bft) 100,00 %
26.12.2017 03:58 -2,3 C 4,4 C 97 % 1014,2 hPa 0,0 l/m 0,0 km/h (0 Bft) N 0 0 min 0,000 mm 0,0 UV-I 0 W/m -2,7 C -2,3 C 0,0 km/h (0 Bft) 100,00 %
26.12.2017 03:59 -2,4 C 4,4 C 97 % 1014,2 hPa 0,0 l/m 1,6 km/h (1 Bft) N-NO 22 0 min 0,000 mm 0,0 UV-I 0 W/m -2,8 C -2,4 C 3,2 km/h (1 Bft) 91,30 %
26.12.2017 04:00 -2,4 C 4,4 C 97 % 1014,2 hPa 0,0 l/m 3,2 km/h (1 Bft) N-NO 22 0 min 0,000 mm 0,0 UV-I 0 W/m -2,8 C -2,4 C 4,8 km/h (1 Bft) 100,00 %
26.12.2017 04:01 -2,4 C 4,4 C 97 % 1014,2 hPa 0,0 l/m 1,6 km/h (1 Bft) N-NO 22 0 min 0,000 mm 0,0 UV-I 0 W/m -2,8 C -2,4 C 4,8 km/h (1 Bft) 100,00 %
26.12.2017 04:02 -2,3 C 4,4 C 97 % 1014,2 hPa 0,0 l/m 0,0 km/h (0 Bft) N-NO 22 0 min 0,000 mm 0,0 UV-I 0 W/m -2,7 C -2,3 C 1,6 km/h (1 Bft) 100,00 %
26.12.2017 04:03 -2,3 C 4,4 C 97 % 1014,3 hPa 0,0 l/m 1,6 km/h (1 Bft) N 360 0 min 0,000 mm 0,0 UV-I 0 W/m -2,7 C -2,3 C 3,2 km/h (1 Bft) 100,00 %
26.12.2017 04:04 -2,3 C 4,4 C 97 % 1014,3 hPa 0,0 l/m 1,6 km/h (1 Bft) N 360 0 min 0,000 mm 0,0 UV-I 0 W/m -2,7 C -2,3 C 3,2 km/h (1 Bft) 100,00 %
26.12.2017 04:05 -2,3 C 4,4 C 97 % 1014,2 hPa 0,0 l/m 0,0 km/h (0 Bft) N 360 0 min 0,000 mm 0,0 UV-I 0 W/m -2,7 C -2,3 C 1,6 km/h (1 Bft) 100,00 %
26.12.2017 04:06 -2,4 C 4,4 C 97 % 1014,2 hPa 0,0 l/m 0,0 km/h (0 Bft) N 0 0 min 0,000 mm 0,0 UV-I 0 W/m -2,8 C -2,4 C 0,0 km/h (0 Bft) 91,30 %
26.12.2017 04:07 -2,4 C 4,4 C 97 % 1014,2 hPa 0,0 l/m 0,0 km/h (0 Bft) N 0 0 min 0,000 mm 0,0 UV-I 0 W/m -2,8 C -2,4 C 0,0 km/h (0 Bft) 95,65 %
26.12.2017 04:08 -2,4 C 4,4 C 97 % 1014,2 hPa 0,0 l/m 0,0 km/h (0 Bft) N 0 0 min 0,000 mm 0,0 UV-I 0 W/m -2,8 C -2,4 C 0,0 km/h (0 Bft) 100,00 %
26.12.2017 04:09 -2,4 C 4,4 C 97 % 1014,3 hPa 0,0 l/m 0,0 km/h (0 Bft) N 0 0 min 0,000 mm 0,0 UV-I 0 W/m -2,8 C -2,4 C 0,0 km/h (0 Bft) 100,00 %
26.12.2017 04:10 -2,4 C 4,4 C 97 % 1014,3 hPa 0,0 l/m 0,0 km/h (0 Bft) N 0 0 min 0,000 mm 0,0 UV-I 0 W/m -2,8 C -2,4 C 0,0 km/h (0 Bft) 100,00 %
26.12.2017 04:11 -2,4 C 4,4 C 97 % 1014,3 hPa 0,0 l/m 0,0 km/h (0 Bft) N 0 0 min 0,000 mm 0,0 UV-I 0 W/m -2,8 C -2,4 C 0,0 km/h (0 Bft) 100,00 %
26.12.2017 04:12 -2,4 C 4,4 C 97 % 1014,2 hPa 0,0 l/m 0,0 km/h (0 Bft) N 0 0 min 0,000 mm 0,0 UV-I 0 W/m -2,8 C -2,4 C 0,0 km/h (0 Bft) 100,00 %
26.12.2017 04:13 -2,4 C 4,4 C 97 % 1014,2 hPa 0,0 l/m 0,0 km/h (0 Bft) N 360 0 min 0,000 mm 0,0 UV-I 0 W/m -2,8 C -2,4 C 1,6 km/h (1 Bft) 95,65 %
26.12.2017 04:14 -2,3 C 4,4 C 97 % 1014,2 hPa 0,0 l/m 1,6 km/h (1 Bft) N 360 0 min 0,000 mm 0,0 UV-I 0 W/m -2,7 C -2,3 C 3,2 km/h (1 Bft) 100,00 %
26.12.2017 04:15 -2,3 C 4,4 C 97 % 1014,3 hPa 0,0 l/m 0,0 km/h (0 Bft) N 360 0 min 0,000 mm 0,0 UV-I 0 W/m -2,7 C -2,3 C 3,2 km/h (1 Bft) 95,65 %
26.12.2017 04:16 -2,3 C 4,4 C 97 % 1014,2 hPa 0,0 l/m 1,6 km/h (1 Bft) N 360 0 min 0,000 mm 0,0 UV-I 0 W/m -2,7 C -2,3 C 3,2 km/h (1 Bft) 100,00 %
26.12.2017 04:17 -2,3 C 4,4 C 97 % 1014,2 hPa 0,0 l/m 3,2 km/h (1 Bft) W-NW 292 0 min 0,000 mm 0,0 UV-I 0 W/m -2,7 C -2,3 C 4,8 km/h (1 Bft) 95,65 %
26.12.2017 04:18 -2,3 C 4,4 C 97 % 1014,2 hPa 0,0 l/m 1,6 km/h (1 Bft) W-NW 292 0 min 0,000 mm 0,0 UV-I 0 W/m -2,7 C -2,3 C 3,2 km/h (1 Bft) 100,00 %
26.12.2017 04:19 -2,3 C 4,4 C 97 % 1014,2 hPa 0,0 l/m 0,0 km/h (0 Bft) W-NW 292 0 min 0,000 mm 0,0 UV-I 0 W/m -2,7 C -2,3 C 1,6 km/h (1 Bft) 91,30 %
26.12.2017 04:20 -2,3 C 4,4 C 97 % 1014,2 hPa 0,0 l/m 0,0 km/h (0 Bft) W-NW 292 0 min 0,000 mm 0,0 UV-I 0 W/m -2,7 C -2,3 C 1,6 km/h (1 Bft) 95,65 %
26.12.2017 04:21 -2,3 C 4,4 C 97 % 1014,2 hPa 0,0 l/m 0,0 km/h (0 Bft) N 0 0 min 0,000 mm 0,0 UV-I 0 W/m -2,7 C -2,3 C 0,0 km/h (0 Bft) 95,65 %
26.12.2017 04:22 -2,4 C 4,4 C 97 % 1014,2 hPa 0,0 l/m 0,0 km/h (0 Bft) N 0 0 min 0,000 mm 0,0 UV-I 0 W/m -2,8 C -2,4 C 0,0 km/h (0 Bft) 95,65 %
26.12.2017 04:23 -2,4 C 4,4 C 97 % 1014,1 hPa 0,0 l/m 0,0 km/h (0 Bft) N 0 0 min 0,000 mm 0,0 UV-I 0 W/m -2,8 C -2,4 C 0,0 km/h (0 Bft) 100,00 %
26.12.2017 04:24 -2,4 C 4,4 C 97 % 1014,1 hPa 0,0 l/m 0,0 km/h (0 Bft) N 0 0 min 0,000 mm 0,0 UV-I 0 W/m -2,8 C -2,4 C 0,0 km/h (0 Bft) 95,65 %
26.12.2017 04:25 -2,4 C 4,4 C 97 % 1014,1 hPa 0,0 l/m 0,0 km/h (0 Bft) N 0 0 min 0,000 mm 0,0 UV-I 0 W/m -2,8 C -2,4 C 0,0 km/h (0 Bft) 100,00 %
26.12.2017 04:26 -2,4 C 4,4 C 97 % 1014,1 hPa 0,0 l/m 1,6 km/h (1 Bft) W-NW 292 0 min 0,000 mm 0,0 UV-I 0 W/m -2,8 C -2,4 C 3,2 km/h (1 Bft) 95,65 %
26.12.2017 04:27 -2,4 C 4,4 C 97 % 1014,1 hPa 0,0 l/m 0,0 km/h (0 Bft) W-NW 292 0 min 0,000 mm 0,0 UV-I 0 W/m -2,8 C -2,4 C 1,6 km/h (1 Bft) 95,65 %
26.12.2017 04:28 -2,4 C 4,4 C 97 % 1014,1 hPa 0,0 l/m 0,0 km/h (0 Bft) N 0 0 min 0,000 mm 0,0 UV-I 0 W/m -2,8 C -2,4 C 0,0 km/h (0 Bft) 95,65 %
26.12.2017 04:29 -2,4 C 4,4 C 97 % 1014,1 hPa 0,0 l/m 0,0 km/h (0 Bft) N 0 0 min 0,000 mm 0,0 UV-I 0 W/m -2,8 C -2,4 C 0,0 km/h (0 Bft) 95,65 %
26.12.2017 04:30 -2,4 C 4,4 C 97 % 1014,1 hPa 0,0 l/m 1,6 km/h (1 Bft) W-NW 292 0 min 0,000 mm 0,0 UV-I 0 W/m -2,8 C -2,4 C 3,2 km/h (1 Bft) 95,65 %
26.12.2017 04:31 -2,4 C 4,4 C 97 % 1014,2 hPa 0,0 l/m 0,0 km/h (0 Bft) W-NW 292 0 min 0,000 mm 0,0 UV-I 0 W/m -2,8 C -2,4 C 1,6 km/h (1 Bft) 95,65 %
26.12.2017 04:32 -2,4 C 4,4 C 97 % 1014,2 hPa 0,0 l/m 0,0 km/h (0 Bft) N 0 0 min 0,000 mm 0,0 UV-I 0 W/m -2,8 C -2,4 C 0,0 km/h (0 Bft) 100,00 %
26.12.2017 04:33 -2,5 C 4,4 C 97 % 1014,1 hPa 0,0 l/m 0,0 km/h (0 Bft) N 0 0 min 0,000 mm 0,0 UV-I 0 W/m -2,9 C -2,5 C 0,0 km/h (0 Bft) 95,65 %
26.12.2017 04:34 -2,4 C 4,4 C 97 % 1014,1 hPa 0,0 l/m 0,0 km/h (0 Bft) N 0 0 min 0,000 mm 0,0 UV-I 0 W/m -2,8 C -2,4 C 0,0 km/h (0 Bft) 95,65 %
26.12.2017 04:35 -2,4 C 4,4 C 97 % 1014,1 hPa 0,0 l/m 0,0 km/h (0 Bft) N 0 0 min 0,000 mm 0,0 UV-I 0 W/m -2,8 C -2,4 C 0,0 km/h (0 Bft) 95,65 %
26.12.2017 04:36 -2,4 C 4,4 C 97 % 1014,1 hPa 0,0 l/m 0,0 km/h (0 Bft) N 0 0 min 0,000 mm 0,0 UV-I 0 W/m -2,8 C -2,4 C 0,0 km/h (0 Bft) 100,00 %
26.12.2017 04:37 -2,4 C 4,4 C 97 % 1014,1 hPa 0,0 l/m 0,0 km/h (0 Bft) N 0 0 min 0,000 mm 0,0 UV-I 0 W/m -2,8 C -2,4 C 0,0 km/h (0 Bft) 95,65 %
26.12.2017 04:38 -2,4 C 4,4 C 97 % 1014,1 hPa 0,0 l/m 0,0 km/h (0 Bft) N 0 0 min 0,000 mm 0,0 UV-I 0 W/m -2,8 C -2,4 C 0,0 km/h (0 Bft) 95,65 %
26.12.2017 04:39 -2,4 C 4,4 C 97 % 1014,0 hPa 0,0 l/m 0,0 km/h (0 Bft) N 0 0 min 0,000 mm 0,0 UV-I 0 W/m -2,8 C -2,4 C 0,0 km/h (0 Bft) 95,65 %
26.12.2017 04:40 -2,4 C 4,4 C 97 % 1014,0 hPa 0,0 l/m 0,0 km/h (0 Bft) N 0 0 min 0,000 mm 0,0 UV-I 0 W/m -2,8 C -2,4 C 0,0 km/h (0 Bft) 95,65 %
26.12.2017 04:41 -2,3 C 4,4 C 97 % 1014,0 hPa 0,0 l/m 0,0 km/h (0 Bft) N 0 0 min 0,000 mm 0,0 UV-I 0 W/m -2,7 C -2,3 C 0,0 km/h (0 Bft) 91,30 %
26.12.2017 04:42 -2,3 C 4,4 C 97 % 1014,0 hPa 0,0 l/m 0,0 km/h (0 Bft) W-NW 292 0 min 0,000 mm 0,0 UV-I 0 W/m -2,7 C -2,3 C 1,6 km/h (1 Bft) 91,30 %
26.12.2017 04:43 -2,3 C 4,4 C 97 % 1014,0 hPa 0,0 l/m 0,0 km/h (0 Bft) W-NW 292 0 min 0,000 mm 0,0 UV-I 0 W/m -2,7 C -2,3 C 1,6 km/h (1 Bft) 100,00 %
26.12.2017 04:44 -2,3 C 4,4 C 97 % 1014,0 hPa 0,0 l/m 0,0 km/h (0 Bft) W-NW 292 0 min 0,000 mm 0,0 UV-I 0 W/m -2,7 C -2,3 C 1,6 km/h (1 Bft) 95,65 %
26.12.2017 04:45 -2,3 C 4,4 C 97 % 1014,0 hPa 0,0 l/m 0,0 km/h (0 Bft) W-NW 292 0 min 0,000 mm 0,0 UV-I 0 W/m -2,7 C -2,3 C 1,6 km/h (1 Bft) 100,00 %
26.12.2017 04:46 -2,3 C 4,4 C 97 % 1014,0 hPa 0,0 l/m 1,6 km/h (1 Bft) W-NW 292 0 min 0,000 mm 0,0 UV-I 0 W/m -2,7 C -2,3 C 3,2 km/h (1 Bft) 95,65 %
26.12.2017 04:47 -2,2 C 4,4 C 97 % 1014,0 hPa 0,0 l/m 1,6 km/h (1 Bft) W-NW 292 0 min 0,000 mm 0,0 UV-I 0 W/m -2,6 C -2,2 C 1,6 km/h (1 Bft) 95,65 %
26.12.2017 04:48 -2,2 C 4,4 C 97 % 1013,9 hPa 0,0 l/m 0,0 km/h (0 Bft) W-NW 292 0 min 0,000 mm 0,0 UV-I 0 W/m -2,6 C -2,2 C 1,6 km/h (1 Bft) 95,65 %
26.12.2017 04:49 -2,2 C 4,4 C 97 % 1013,9 hPa 0,0 l/m 0,0 km/h (0 Bft) N 0 0 min 0,000 mm 0,0 UV-I 0 W/m -2,6 C -2,2 C 0,0 km/h (0 Bft) 91,30 %
26.12.2017 04:50 -2,2 C 4,4 C 97 % 1013,9 hPa 0,0 l/m 1,6 km/h (1 Bft) W-NW 292 0 min 0,000 mm 0,0 UV-I 0 W/m -2,6 C -2,2 C 1,6 km/h (1 Bft) 95,65 %
26.12.2017 04:51 -2,2 C 4,4 C 97 % 1014,0 hPa 0,0 l/m 1,6 km/h (1 Bft) W-NW 292 0 min 0,000 mm 0,0 UV-I 0 W/m -2,6 C -2,2 C 1,6 km/h (1 Bft) 91,30 %
26.12.2017 04:52 -2,2 C 4,4 C 97 % 1013,9 hPa 0,0 l/m 0,0 km/h (0 Bft) N 0 0 min 0,000 mm 0,0 UV-I 0 W/m -2,6 C -2,2 C 0,0 km/h (0 Bft) 100,00 %
26.12.2017 04:53 -2,2 C 4,4 C 97 % 1013,9 hPa 0,0 l/m 0,0 km/h (0 Bft) W-NW 292 0 min 0,000 mm 0,0 UV-I 0 W/m -2,6 C -2,2 C 1,6 km/h (1 Bft) 95,65 %
26.12.2017 04:54 -2,2 C 4,4 C 97 % 1013,9 hPa 0,0 l/m 1,6 km/h (1 Bft) W-NW 292 0 min 0,000 mm 0,0 UV-I 0 W/m -2,6 C -2,2 C 1,6 km/h (1 Bft) 100,00 %
26.12.2017 04:55 -2,2 C 4,4 C 97 % 1013,9 hPa 0,0 l/m 0,0 km/h (0 Bft) N 0 0 min 0,000 mm 0,0 UV-I 0 W/m -2,6 C -2,2 C 0,0 km/h (0 Bft) 91,30 %
26.12.2017 04:56 -2,2 C 4,4 C 97 % 1013,9 hPa 0,0 l/m 0,0 km/h (0 Bft) W-NW 292 0 min 0,000 mm 0,0 UV-I 0 W/m -2,6 C -2,2 C 1,6 km/h (1 Bft) 100,00 %
26.12.2017 04:57 -2,2 C 4,4 C 97 % 1013,8 hPa 0,0 l/m 1,6 km/h (1 Bft) W-NW 292 0 min 0,000 mm 0,0 UV-I 0 W/m -2,6 C -2,2 C 1,6 km/h (1 Bft) 95,65 %
26.12.2017 04:58 -2,2 C 4,4 C 97 % 1013,8 hPa 0,0 l/m 0,0 km/h (0 Bft) W-NW 292 0 min 0,000 mm 0,0 UV-I 0 W/m -2,6 C -2,2 C 1,6 km/h (1 Bft) 95,65 %
26.12.2017 04:59 -2,2 C 4,4 C 97 % 1013,7 hPa 0,0 l/m 0,0 km/h (0 Bft) N 0 0 min 0,000 mm 0,0 UV-I 0 W/m -2,6 C -2,2 C 0,0 km/h (0 Bft) 100,00 %
26.12.2017 05:00 -2,3 C 4,4 C 97 % 1013,8 hPa 0,0 l/m 0,0 km/h (0 Bft) N 0 0 min 0,000 mm 0,0 UV-I 0 W/m -2,7 C -2,3 C 0,0 km/h (0 Bft) 95,65 %
26.12.2017 05:01 -2,3 C 4,4 C 97 % 1013,7 hPa 0,0 l/m 0,0 km/h (0 Bft) N 0 0 min 0,000 mm 0,0 UV-I 0 W/m -2,7 C -2,3 C 0,0 km/h (0 Bft) 100,00 %
26.12.2017 05:02 -2,3 C 4,4 C 97 % 1013,8 hPa 0,0 l/m 0,0 km/h (0 Bft) N 0 0 min 0,000 mm 0,0 UV-I 0 W/m -2,7 C -2,3 C 0,0 km/h (0 Bft) 86,96 %
26.12.2017 05:03 -2,3 C 4,4 C 97 % 1013,8 hPa 0,0 l/m 0,0 km/h (0 Bft) W-NW 292 0 min 0,000 mm 0,0 UV-I 0 W/m -2,7 C -2,3 C 1,6 km/h (1 Bft) 100,00 %
26.12.2017 05:04 -2,3 C 4,4 C 97 % 1013,8 hPa 0,0 l/m 0,0 km/h (0 Bft) W-NW 292 0 min 0,000 mm 0,0 UV-I 0 W/m -2,7 C -2,3 C 1,6 km/h (1 Bft) 95,65 %
26.12.2017 05:05 -2,3 C 4,4 C 97 % 1013,8 hPa 0,0 l/m 0,0 km/h (0 Bft) W-NW 292 0 min 0,000 mm 0,0 UV-I 0 W/m -2,7 C -2,3 C 1,6 km/h (1 Bft) 95,65 %
26.12.2017 05:06 -2,3 C 4,4 C 97 % 1013,8 hPa 0,0 l/m 1,6 km/h (1 Bft) W-NW 292 0 min 0,000 mm 0,0 UV-I 0 W/m -2,7 C -2,3 C 3,2 km/h (1 Bft) 95,65 %
26.12.2017 05:07 -2,3 C 4,4 C 97 % 1013,9 hPa 0,0 l/m 1,6 km/h (1 Bft) W-NW 292 0 min 0,000 mm 0,0 UV-I 0 W/m -2,7 C -2,3 C 3,2 km/h (1 Bft) 100,00 %
26.12.2017 05:08 -2,2 C 4,4 C 97 % 1013,9 hPa 0,0 l/m 0,0 km/h (0 Bft) W-NW 292 0 min 0,000 mm 0,0 UV-I 0 W/m -2,6 C -2,2 C 1,6 km/h (1 Bft) 95,65 %
26.12.2017 05:09 -2,2 C 4,4 C 97 % 1013,9 hPa 0,0 l/m 0,0 km/h (0 Bft) N 0 0 min 0,000 mm 0,0 UV-I 0 W/m -2,6 C -2,2 C 0,0 km/h (0 Bft) 95,65 %
26.12.2017 05:10 -2,2 C 4,4 C 97 % 1013,8 hPa 0,0 l/m 0,0 km/h (0 Bft) N 0 0 min 0,000 mm 0,0 UV-I 0 W/m -2,6 C -2,2 C 0,0 km/h (0 Bft) 95,65 %
26.12.2017 05:11 -2,2 C 4,4 C 97 % 1013,7 hPa 0,0 l/m 0,0 km/h (0 Bft) N 0 0 min 0,000 mm 0,0 UV-I 0 W/m -2,6 C -2,2 C 0,0 km/h (0 Bft) 100,00 %
26.12.2017 05:12 -2,2 C 4,4 C 97 % 1013,8 hPa 0,0 l/m 0,0 km/h (0 Bft) N 0 0 min 0,000 mm 0,0 UV-I 0 W/m -2,6 C -2,2 C 0,0 km/h (0 Bft) 100,00 %
26.12.2017 05:13 -2,2 C 4,4 C 97 % 1013,8 hPa 0,0 l/m 0,0 km/h (0 Bft) W-NW 292 0 min 0,000 mm 0,0 UV-I 0 W/m -2,6 C -2,2 C 1,6 km/h (1 Bft) 100,00 %
26.12.2017 05:14 -2,2 C 4,4 C 97 % 1013,8 hPa 0,0 l/m 0,0 km/h (0 Bft) W-NW 292 0 min 0,000 mm 0,0 UV-I 0 W/m -2,6 C -2,2 C 1,6 km/h (1 Bft) 100,00 %
26.12.2017 05:15 -2,2 C 4,4 C 97 % 1013,8 hPa 0,0 l/m 0,0 km/h (0 Bft) N 0 0 min 0,000 mm 0,0 UV-I 0 W/m -2,6 C -2,2 C 0,0 km/h (0 Bft) 100,00 %
26.12.2017 05:16 -2,2 C 4,4 C 97 % 1013,7 hPa 0,0 l/m 0,0 km/h (0 Bft) N 0 0 min 0,000 mm 0,0 UV-I 0 W/m -2,6 C -2,2 C 0,0 km/h (0 Bft) 95,65 %
26.12.2017 05:17 -2,2 C 4,4 C 97 % 1013,8 hPa 0,0 l/m 0,0 km/h (0 Bft) W-NW 292 0 min 0,000 mm 0,0 UV-I 0 W/m -2,6 C -2,2 C 1,6 km/h (1 Bft) 100,00 %
26.12.2017 05:18 -2,2 C 4,4 C 97 % 1013,8 hPa 0,0 l/m 0,0 km/h (0 Bft) W-NW 292 0 min 0,000 mm 0,0 UV-I 0 W/m -2,6 C -2,2 C 1,6 km/h (1 Bft) 95,65 %
26.12.2017 05:19 -2,3 C 4,4 C 97 % 1013,8 hPa 0,0 l/m 0,0 km/h (0 Bft) W-NW 292 0 min 0,000 mm 0,0 UV-I 0 W/m -2,7 C -2,3 C 1,6 km/h (1 Bft) 100,00 %
26.12.2017 05:20 -2,3 C 4,4 C 97 % 1013,8 hPa 0,0 l/m 0,0 km/h (0 Bft) N 0 0 min 0,000 mm 0,0 UV-I 0 W/m -2,7 C -2,3 C 0,0 km/h (0 Bft) 95,65 %
26.12.2017 05:21 -2,2 C 4,4 C 97 % 1013,8 hPa 0,0 l/m 0,0 km/h (0 Bft) N 0 0 min 0,000 mm 0,0 UV-I 0 W/m -2,6 C -2,2 C 0,0 km/h (0 Bft) 95,65 %
26.12.2017 05:22 -2,2 C 4,4 C 97 % 1013,8 hPa 0,0 l/m 0,0 km/h (0 Bft) N 0 0 min 0,000 mm 0,0 UV-I 0 W/m -2,6 C -2,2 C 0,0 km/h (0 Bft) 100,00 %
26.12.2017 05:23 -2,2 C 4,4 C 97 % 1013,9 hPa 0,0 l/m 0,0 km/h (0 Bft) N 0 0 min 0,000 mm 0,0 UV-I 0 W/m -2,6 C -2,2 C 0,0 km/h (0 Bft) 95,65 %
26.12.2017 05:24 -2,2 C 4,4 C 97 % 1013,8 hPa 0,0 l/m 0,0 km/h (0 Bft) W-NW 292 0 min 0,000 mm 0,0 UV-I 0 W/m -2,6 C -2,2 C 1,6 km/h (1 Bft) 100,00 %
26.12.2017 05:25 -2,2 C 4,4 C 97 % 1013,7 hPa 0,0 l/m 0,0 km/h (0 Bft) W-NW 292 0 min 0,000 mm 0,0 UV-I 0 W/m -2,6 C -2,2 C 1,6 km/h (1 Bft) 100,00 %
26.12.2017 05:26 -2,2 C 4,4 C 97 % 1013,7 hPa 0,0 l/m 0,0 km/h (0 Bft) W-NW 292 0 min 0,000 mm 0,0 UV-I 0 W/m -2,6 C -2,2 C 1,6 km/h (1 Bft) 100,00 %
26.12.2017 05:27 -2,2 C 4,4 C 97 % 1013,7 hPa 0,0 l/m 1,6 km/h (1 Bft) W-NW 292 0 min 0,000 mm 0,0 UV-I 0 W/m -2,6 C -2,2 C 3,2 km/h (1 Bft) 100,00 %
26.12.2017 05:28 -2,2 C 4,4 C 97 % 1013,6 hPa 0,0 l/m 0,0 km/h (0 Bft) W-NW 292 0 min 0,000 mm 0,0 UV-I 0 W/m -2,6 C -2,2 C 1,6 km/h (1 Bft) 100,00 %
26.12.2017 05:29 -2,2 C 4,4 C 97 % 1013,7 hPa 0,0 l/m 1,6 km/h (1 Bft) W-NW 292 0 min 0,000 mm 0,0 UV-I 0 W/m -2,6 C -2,2 C 1,6 km/h (1 Bft) 100,00 %
26.12.2017 05:30 -2,2 C 4,4 C 97 % 1013,7 hPa 0,0 l/m 0,0 km/h (0 Bft) W-NW 292 0 min 0,000 mm 0,0 UV-I 0 W/m -2,6 C -2,2 C 1,6 km/h (1 Bft) 95,65 %
26.12.2017 05:31 -2,2 C 4,4 C 97 % 1013,7 hPa 0,0 l/m 0,0 km/h (0 Bft) W-NW 292 0 min 0,000 mm 0,0 UV-I 0 W/m -2,6 C -2,2 C 1,6 km/h (1 Bft) 100,00 %
26.12.2017 05:32 -2,2 C 4,4 C 97 % 1013,6 hPa 0,0 l/m 0,0 km/h (0 Bft) W-NW 292 0 min 0,000 mm 0,0 UV-I 0 W/m -2,6 C -2,2 C 1,6 km/h (1 Bft) 100,00 %
26.12.2017 05:33 -2,2 C 4,4 C 97 % 1013,6 hPa 0,0 l/m 1,6 km/h (1 Bft) W-NW 292 0 min 0,000 mm 0,0 UV-I 0 W/m -2,6 C -2,2 C 6,4 km/h (2 Bft) 100,00 %
26.12.2017 05:34 -2,2 C 4,4 C 97 % 1013,6 hPa 0,0 l/m 4,8 km/h (1 Bft) SW 225 0 min 0,000 mm 0,0 UV-I 0 W/m -2,6 C -2,2 C 6,4 km/h (2 Bft) 100,00 %
26.12.2017 05:35 -2,2 C 4,4 C 97 % 1013,6 hPa 0,0 l/m 3,2 km/h (1 Bft) SW 225 0 min 0,000 mm 0,0 UV-I 0 W/m -2,6 C -2,2 C 4,8 km/h (1 Bft) 100,00 %
26.12.2017 05:36 -2,2 C 4,4 C 97 % 1013,6 hPa 0,0 l/m 1,6 km/h (1 Bft) SW 225 0 min 0,000 mm 0,0 UV-I 0 W/m -2,6 C -2,2 C 3,2 km/h (1 Bft) 100,00 %
26.12.2017 05:37 -2,2 C 4,4 C 97 % 1013,6 hPa 0,0 l/m 0,0 km/h (0 Bft) SW 225 0 min 0,000 mm 0,0 UV-I 0 W/m -2,6 C -2,2 C 1,6 km/h (1 Bft) 95,65 %
26.12.2017 05:38 -2,2 C 4,4 C 97 % 1013,6 hPa 0,0 l/m 1,6 km/h (1 Bft) S 180 0 min 0,000 mm 0,0 UV-I 0 W/m -2,6 C -2,2 C 3,2 km/h (1 Bft) 100,00 %
26.12.2017 05:39 -2,2 C 4,4 C 97 % 1013,6 hPa 0,0 l/m 0,0 km/h (0 Bft) S 180 0 min 0,000 mm 0,0 UV-I 0 W/m -2,6 C -2,2 C 1,6 km/h (1 Bft) 100,00 %
26.12.2017 05:40 -2,2 C 4,4 C 97 % 1013,6 hPa 0,0 l/m 1,6 km/h (1 Bft) S 180 0 min 0,000 mm 0,0 UV-I 0 W/m -2,6 C -2,2 C 3,2 km/h (1 Bft) 95,65 %
26.12.2017 05:41 -2,2 C 4,4 C 97 % 1013,6 hPa 0,0 l/m 3,2 km/h (1 Bft) S 180 0 min 0,000 mm 0,0 UV-I 0 W/m -2,6 C -2,2 C 4,8 km/h (1 Bft) 100,00 %
26.12.2017 05:42 -2,2 C 4,4 C 97 % 1013,6 hPa 0,0 l/m 3,2 km/h (1 Bft) W-SW 247 0 min 0,000 mm 0,0 UV-I 0 W/m -2,6 C -2,2 C 4,8 km/h (1 Bft) 95,65 %
26.12.2017 05:43 -2,3 C 4,4 C 97 % 1013,6 hPa 0,0 l/m 1,6 km/h (1 Bft) W-SW 247 0 min 0,000 mm 0,0 UV-I 0 W/m -2,7 C -2,3 C 4,8 km/h (1 Bft) 100,00 %
26.12.2017 05:44 -2,3 C 4,4 C 97 % 1013,6 hPa 0,0 l/m 1,6 km/h (1 Bft) W-SW 247 0 min 0,000 mm 0,0 UV-I 0 W/m -2,7 C -2,3 C 1,6 km/h (1 Bft) 91,30 %
26.12.2017 05:45 -2,3 C 4,4 C 97 % 1013,5 hPa 0,0 l/m 3,2 km/h (1 Bft) W-SW 247 0 min 0,000 mm 0,0 UV-I 0 W/m -2,7 C -2,3 C 3,2 km/h (1 Bft) 100,00 %
26.12.2017 05:46 -2,3 C 4,4 C 97 % 1013,5 hPa 0,0 l/m 1,6 km/h (1 Bft) W-SW 247 0 min 0,000 mm 0,0 UV-I 0 W/m -2,7 C -2,3 C 4,8 km/h (1 Bft) 100,00 %
26.12.2017 05:47 -2,3 C 4,4 C 97 % 1013,5 hPa 0,0 l/m 0,0 km/h (0 Bft) W-SW 247 0 min 0,000 mm 0,0 UV-I 0 W/m -2,7 C -2,3 C 1,6 km/h (1 Bft) 100,00 %
26.12.2017 05:48 -2,3 C 4,4 C 97 % 1013,5 hPa 0,0 l/m 1,6 km/h (1 Bft) W-SW 247 0 min 0,000 mm 0,0 UV-I 0 W/m -2,7 C -2,3 C 3,2 km/h (1 Bft) 100,00 %
26.12.2017 05:49 -2,3 C 4,4 C 97 % 1013,5 hPa 0,0 l/m 1,6 km/h (1 Bft) W-SW 247 0 min 0,000 mm 0,0 UV-I 0 W/m -2,7 C -2,3 C 3,2 km/h (1 Bft) 100,00 %
26.12.2017 05:50 -2,3 C 4,4 C 97 % 1013,5 hPa 0,0 l/m 1,6 km/h (1 Bft) W-SW 247 0 min 0,000 mm 0,0 UV-I 0 W/m -2,7 C -2,3 C 4,8 km/h (1 Bft) 100,00 %
26.12.2017 05:51 -2,3 C 4,4 C 97 % 1013,5 hPa 0,0 l/m 3,2 km/h (1 Bft) S-SW 202 0 min 0,000 mm 0,0 UV-I 0 W/m -2,7 C -2,3 C 6,4 km/h (2 Bft) 95,65 %
26.12.2017 05:52 -2,3 C 4,4 C 97 % 1013,4 hPa 0,0 l/m 3,2 km/h (1 Bft) SW 225 0 min 0,000 mm 0,0 UV-I 0 W/m -2,7 C -2,3 C 4,8 km/h (1 Bft) 100,00 %
26.12.2017 05:53 -2,3 C 4,4 C 97 % 1013,4 hPa 0,0 l/m 3,2 km/h (1 Bft) SW 225 0 min 0,000 mm 0,0 UV-I 0 W/m -2,7 C -2,3 C 6,4 km/h (2 Bft) 100,00 %
26.12.2017 05:54 -2,4 C 4,4 C 97 % 1013,3 hPa 0,0 l/m 1,6 km/h (1 Bft) S-SW 202 0 min 0,000 mm 0,0 UV-I 0 W/m -2,8 C -2,4 C 6,4 km/h (2 Bft) 100,00 %
26.12.2017 05:55 -2,4 C 4,4 C 97 % 1013,3 hPa 0,0 l/m 3,2 km/h (1 Bft) S-SW 202 0 min 0,000 mm 0,0 UV-I 0 W/m -2,8 C -2,4 C 6,4 km/h (2 Bft) 95,65 %
26.12.2017 05:56 -2,4 C 4,4 C 97 % 1013,4 hPa 0,0 l/m 3,2 km/h (1 Bft) S-SW 202 0 min 0,000 mm 0,0 UV-I 0 W/m -2,8 C -2,4 C 6,4 km/h (2 Bft) 100,00 %
26.12.2017 05:57 -2,4 C 4,4 C 97 % 1013,4 hPa 0,0 l/m 4,8 km/h (1 Bft) S-SW 202 0 min 0,000 mm 0,0 UV-I 0 W/m -2,8 C -2,4 C 8,0 km/h (2 Bft) 100,00 %
26.12.2017 05:58 -2,4 C 4,4 C 97 % 1013,3 hPa 0,0 l/m 1,6 km/h (1 Bft) S-SW 202 0 min 0,000 mm 0,0 UV-I 0 W/m -2,8 C -2,4 C 4,8 km/h (1 Bft) 95,65 %
26.12.2017 05:59 -2,3 C 4,4 C 97 % 1013,3 hPa 0,0 l/m 4,8 km/h (1 Bft) S-SW 202 0 min 0,000 mm 0,0 UV-I 0 W/m -2,7 C -2,3 C 4,8 km/h (1 Bft) 100,00 %
26.12.2017 06:00 -2,4 C 4,4 C 97 % 1013,4 hPa 0,0 l/m 1,6 km/h (1 Bft) S-SW 202 0 min 0,000 mm 0,0 UV-I 0 W/m -2,8 C -2,4 C 4,8 km/h (1 Bft) 100,00 %
26.12.2017 06:01 -2,4 C 4,4 C 97 % 1013,4 hPa 0,0 l/m 1,6 km/h (1 Bft) S-SW 202 0 min 0,000 mm 0,0 UV-I 0 W/m -2,8 C -2,4 C 3,2 km/h (1 Bft) 95,65 %
26.12.2017 06:02 -2,4 C 4,4 C 97 % 1013,4 hPa 0,0 l/m 0,0 km/h (0 Bft) N 0 0 min 0,000 mm 0,0 UV-I 0 W/m -2,8 C -2,4 C 0,0 km/h (0 Bft) 95,65 %
26.12.2017 06:03 -2,4 C 4,4 C 97 % 1013,4 hPa 0,0 l/m 0,0 km/h (0 Bft) S-SW 202 0 min 0,000 mm 0,0 UV-I 0 W/m -2,8 C -2,4 C 1,6 km/h (1 Bft) 100,00 %
26.12.2017 06:04 -2,4 C 4,4 C 97 % 1013,3 hPa 0,0 l/m 0,0 km/h (0 Bft) N 0 0 min 0,000 mm 0,0 UV-I 0 W/m -2,8 C -2,4 C 0,0 km/h (0 Bft) 91,30 %
26.12.2017 06:05 -2,4 C 4,4 C 97 % 1013,4 hPa 0,0 l/m 0,0 km/h (0 Bft) S-SW 202 0 min 0,000 mm 0,0 UV-I 0 W/m -2,8 C -2,4 C 1,6 km/h (1 Bft) 91,30 %
26.12.2017 06:06 -2,4 C 4,4 C 97 % 1013,4 hPa 0,0 l/m 0,0 km/h (0 Bft) S-SW 202 0 min 0,000 mm 0,0 UV-I 0 W/m -2,8 C -2,4 C 3,2 km/h (1 Bft) 95,65 %
26.12.2017 06:07 -2,4 C 4,4 C 97 % 1013,4 hPa 0,0 l/m 3,2 km/h (1 Bft) S-SW 202 0 min 0,000 mm 0,0 UV-I 0 W/m -2,8 C -2,4 C 6,4 km/h (2 Bft) 100,00 %
26.12.2017 06:08 -2,4 C 4,4 C 97 % 1013,4 hPa 0,0 l/m 4,8 km/h (1 Bft) W-SW 247 0 min 0,000 mm 0,0 UV-I 0 W/m -2,8 C -2,4 C 6,4 km/h (2 Bft) 95,65 %
26.12.2017 06:09 -2,3 C 4,4 C 97 % 1013,4 hPa 0,0 l/m 1,6 km/h (1 Bft) W-SW 247 0 min 0,000 mm 0,0 UV-I 0 W/m -2,7 C -2,3 C 4,8 km/h (1 Bft) 100,00 %
26.12.2017 06:10 -2,3 C 4,4 C 97 % 1013,4 hPa 0,0 l/m 1,6 km/h (1 Bft) W-SW 247 0 min 0,000 mm 0,0 UV-I 0 W/m -2,7 C -2,3 C 3,2 km/h (1 Bft) 95,65 %
26.12.2017 06:11 -2,3 C 4,4 C 97 % 1013,4 hPa 0,0 l/m 4,8 km/h (1 Bft) W 270 0 min 0,000 mm 0,0 UV-I 0 W/m -2,7 C -2,3 C 6,4 km/h (2 Bft) 100,00 %
26.12.2017 06:12 -2,3 C 4,4 C 97 % 1013,4 hPa 0,0 l/m 3,2 km/h (1 Bft) W 270 0 min 0,000 mm 0,0 UV-I 0 W/m -2,7 C -2,3 C 4,8 km/h (1 Bft) 86,96 %
26.12.2017 06:13 -2,3 C 4,4 C 97 % 1013,4 hPa 0,0 l/m 3,2 km/h (1 Bft) W 270 0 min 0,000 mm 0,0 UV-I 0 W/m -2,7 C -2,3 C 4,8 km/h (1 Bft) 100,00 %
26.12.2017 06:14 -2,3 C 4,4 C 97 % 1013,4 hPa 0,0 l/m 3,2 km/h (1 Bft) W 270 0 min 0,000 mm 0,0 UV-I 0 W/m -2,7 C -2,3 C 3,2 km/h (1 Bft) 91,30 %
26.12.2017 06:15 -2,3 C 4,4 C 97 % 1013,4 hPa 0,0 l/m 3,2 km/h (1 Bft) W 270 0 min 0,000 mm 0,0 UV-I 0 W/m -2,7 C -2,3 C 4,8 km/h (1 Bft) 95,65 %
26.12.2017 06:16 -2,3 C 4,4 C 97 % 1013,4 hPa 0,0 l/m 1,6 km/h (1 Bft) W 270 0 min 0,000 mm 0,0 UV-I 0 W/m -2,7 C -2,3 C 3,2 km/h (1 Bft) 95,65 %
26.12.2017 06:17 -2,3 C 4,4 C 97 % 1013,4 hPa 0,0 l/m 1,6 km/h (1 Bft) W 270 0 min 0,000 mm 0,0 UV-I 0 W/m -2,7 C -2,3 C 3,2 km/h (1 Bft) 91,30 %
26.12.2017 06:18 -2,3 C 4,4 C 97 % 1013,4 hPa 0,0 l/m 0,0 km/h (0 Bft) W 270 0 min 0,000 mm 0,0 UV-I 0 W/m -2,7 C -2,3 C 1,6 km/h (1 Bft) 95,65 %
26.12.2017 06:19 -2,3 C 4,4 C 97 % 1013,4 hPa 0,0 l/m 1,6 km/h (1 Bft) W 270 0 min 0,000 mm 0,0 UV-I 0 W/m -2,7 C -2,3 C 1,6 km/h (1 Bft) 86,96 %
26.12.2017 06:20 -2,3 C 4,4 C 97 % 1013,4 hPa 0,0 l/m 3,2 km/h (1 Bft) W 270 0 min 0,000 mm 0,0 UV-I 0 W/m -2,7 C -2,3 C 3,2 km/h (1 Bft) 95,65 %
26.12.2017 06:21 -2,3 C 4,4 C 97 % 1013,4 hPa 0,0 l/m 1,6 km/h (1 Bft) W 270 0 min 0,000 mm 0,0 UV-I 0 W/m -2,7 C -2,3 C 3,2 km/h (1 Bft) 91,30 %
26.12.2017 06:22 -2,3 C 4,4 C 97 % 1013,4 hPa 0,0 l/m 1,6 km/h (1 Bft) W 270 0 min 0,000 mm 0,0 UV-I 0 W/m -2,7 C -2,3 C 3,2 km/h (1 Bft) 95,65 %
26.12.2017 06:23 -2,3 C 4,4 C 97 % 1013,4 hPa 0,0 l/m 0,0 km/h (0 Bft) W 270 0 min 0,000 mm 0,0 UV-I 0 W/m -2,7 C -2,3 C 3,2 km/h (1 Bft) 100,00 %
26.12.2017 06:24 -2,3 C 4,4 C 97 % 1013,4 hPa 0,0 l/m 1,6 km/h (1 Bft) W 270 0 min 0,000 mm 0,0 UV-I 0 W/m -2,7 C -2,3 C 3,2 km/h (1 Bft) 95,65 %
26.12.2017 06:25 -2,3 C 4,4 C 97 % 1013,4 hPa 0,0 l/m 0,0 km/h (0 Bft) SW 225 0 min 0,000 mm 0,0 UV-I 0 W/m -2,7 C -2,3 C 1,6 km/h (1 Bft) 100,00 %
26.12.2017 06:26 -2,3 C 4,4 C 97 % 1013,4 hPa 0,0 l/m 1,6 km/h (1 Bft) SW 225 0 min 0,000 mm 0,0 UV-I 0 W/m -2,7 C -2,3 C 3,2 km/h (1 Bft) 91,30 %
26.12.2017 06:27 -2,3 C 4,4 C 97 % 1013,3 hPa 0,0 l/m 1,6 km/h (1 Bft) SW 225 0 min 0,000 mm 0,0 UV-I 0 W/m -2,7 C -2,3 C 3,2 km/h (1 Bft) 100,00 %
26.12.2017 06:28 -2,3 C 4,4 C 97 % 1013,3 hPa 0,0 l/m 1,6 km/h (1 Bft) SW 225 0 min 0,000 mm 0,0 UV-I 0 W/m -2,7 C -2,3 C 3,2 km/h (1 Bft) 91,30 %
26.12.2017 06:29 -2,3 C 4,4 C 97 % 1013,3 hPa 0,0 l/m 0,0 km/h (0 Bft) SW 225 0 min 0,000 mm 0,0 UV-I 0 W/m -2,7 C -2,3 C 1,6 km/h (1 Bft) 100,00 %
26.12.2017 06:30 -2,4 C 4,4 C 97 % 1013,3 hPa 0,0 l/m 0,0 km/h (0 Bft) SW 225 0 min 0,000 mm 0,0 UV-I 0 W/m -2,8 C -2,4 C 1,6 km/h (1 Bft) 95,65 %
26.12.2017 06:31 -2,4 C 4,4 C 97 % 1013,2 hPa 0,0 l/m 0,0 km/h (0 Bft) N 0 0 min 0,000 mm 0,0 UV-I 0 W/m -2,8 C -2,4 C 0,0 km/h (0 Bft) 95,65 %
26.12.2017 06:32 -2,4 C 4,4 C 97 % 1013,3 hPa 0,0 l/m 0,0 km/h (0 Bft) N 0 0 min 0,000 mm 0,0 UV-I 0 W/m -2,8 C -2,4 C 0,0 km/h (0 Bft) 100,00 %
26.12.2017 06:33 -2,3 C 4,4 C 97 % 1013,4 hPa 0,0 l/m 0,0 km/h (0 Bft) N 0 0 min 0,000 mm 0,0 UV-I 0 W/m -2,7 C -2,3 C 0,0 km/h (0 Bft) 91,30 %
26.12.2017 06:34 -2,3 C 4,4 C 97 % 1013,4 hPa 0,0 l/m 0,0 km/h (0 Bft) N 0 0 min 0,000 mm 0,0 UV-I 0 W/m -2,7 C -2,3 C 0,0 km/h (0 Bft) 95,65 %
26.12.2017 06:35 -2,3 C 4,4 C 97 % 1013,4 hPa 0,0 l/m 0,0 km/h (0 Bft) SW 225 0 min 0,000 mm 0,0 UV-I 0 W/m -2,7 C -2,3 C 1,6 km/h (1 Bft) 91,30 %
26.12.2017 06:36 -2,3 C 4,4 C 97 % 1013,3 hPa 0,0 l/m 0,0 km/h (0 Bft) N 0 0 min 0,000 mm 0,0 UV-I 0 W/m -2,7 C -2,3 C 0,0 km/h (0 Bft) 100,00 %
26.12.2017 06:37 -2,3 C 4,4 C 97 % 1013,3 hPa 0,0 l/m 1,6 km/h (1 Bft) SW 225 0 min 0,000 mm 0,0 UV-I 0 W/m -2,7 C -2,3 C 1,6 km/h (1 Bft) 95,65 %
26.12.2017 06:38 -2,3 C 4,4 C 97 % 1013,3 hPa 0,0 l/m 0,0 km/h (0 Bft) SW 225 0 min 0,000 mm 0,0 UV-I 0 W/m -2,7 C -2,3 C 1,6 km/h (1 Bft) 100,00 %
26.12.2017 06:39 -2,3 C 4,4 C 97 % 1013,4 hPa 0,0 l/m 1,6 km/h (1 Bft) SW 225 0 min 0,000 mm 0,0 UV-I 0 W/m -2,7 C -2,3 C 3,2 km/h (1 Bft) 95,65 %
26.12.2017 06:40 -2,3 C 4,4 C 97 % 1013,3 hPa 0,0 l/m 4,8 km/h (1 Bft) SW 225 0 min 0,000 mm 0,0 UV-I 0 W/m -2,7 C -2,3 C 6,4 km/h (2 Bft) 91,30 %
26.12.2017 06:41 -2,3 C 4,4 C 97 % 1013,3 hPa 0,0 l/m 0,0 km/h (0 Bft) SW 225 0 min 0,000 mm 0,0 UV-I 0 W/m -2,7 C -2,3 C 3,2 km/h (1 Bft) 95,65 %
26.12.2017 06:42 -2,3 C 4,4 C 97 % 1013,3 hPa 0,0 l/m 0,0 km/h (0 Bft) N 0 0 min 0,000 mm 0,0 UV-I 0 W/m -2,7 C -2,3 C 0,0 km/h (0 Bft) 95,65 %
26.12.2017 06:43 -2,3 C 4,4 C 97 % 1013,3 hPa 0,0 l/m 0,0 km/h (0 Bft) SW 225 0 min 0,000 mm 0,0 UV-I 0 W/m -2,7 C -2,3 C 1,6 km/h (1 Bft) 100,00 %
26.12.2017 06:44 -2,3 C 4,4 C 97 % 1013,3 hPa 0,0 l/m 0,0 km/h (0 Bft) N 0 0 min 0,000 mm 0,0 UV-I 0 W/m -2,7 C -2,3 C 0,0 km/h (0 Bft) 91,30 %
26.12.2017 06:45 -2,3 C 4,4 C 97 % 1013,2 hPa 0,0 l/m 0,0 km/h (0 Bft) SW 225 0 min 0,000 mm 0,0 UV-I 0 W/m -2,7 C -2,3 C 1,6 km/h (1 Bft) 100,00 %
26.12.2017 06:46 -2,4 C 4,4 C 97 % 1013,2 hPa 0,0 l/m 1,6 km/h (1 Bft) SW 225 0 min 0,000 mm 0,0 UV-I 0 W/m -2,8 C -2,4 C 3,2 km/h (1 Bft) 95,65 %
26.12.2017 06:47 -2,3 C 4,4 C 97 % 1013,2 hPa 0,0 l/m 1,6 km/h (1 Bft) SW 225 0 min 0,000 mm 0,0 UV-I 0 W/m -2,7 C -2,3 C 3,2 km/h (1 Bft) 95,65 %
26.12.2017 06:48 -2,4 C 4,4 C 97 % 1013,2 hPa 0,0 l/m 3,2 km/h (1 Bft) SW 225 0 min 0,000 mm 0,0 UV-I 0 W/m -2,8 C -2,4 C 4,8 km/h (1 Bft) 95,65 %
26.12.2017 06:49 -2,4 C 4,4 C 97 % 1013,2 hPa 0,0 l/m 4,8 km/h (1 Bft) SW 225 0 min 0,000 mm 0,0 UV-I 0 W/m -2,8 C -2,4 C 6,4 km/h (2 Bft) 95,65 %
26.12.2017 06:50 -2,3 C 4,4 C 97 % 1013,2 hPa 0,0 l/m 4,8 km/h (1 Bft) S-SW 202 0 min 0,000 mm 0,0 UV-I 0 W/m -2,7 C -2,3 C 6,4 km/h (2 Bft) 100,00 %
26.12.2017 06:51 -2,3 C 4,4 C 97 % 1013,2 hPa 0,0 l/m 3,2 km/h (1 Bft) S-SW 202 0 min 0,000 mm 0,0 UV-I 0 W/m -2,7 C -2,3 C 4,8 km/h (1 Bft) 95,65 %
26.12.2017 06:52 -2,3 C 4,4 C 97 % 1013,2 hPa 0,0 l/m 3,2 km/h (1 Bft) S-SW 202 0 min 0,000 mm 0,0 UV-I 0 W/m -2,7 C -2,3 C 4,8 km/h (1 Bft) 95,65 %
26.12.2017 06:53 -2,4 C 4,4 C 97 % 1013,1 hPa 0,0 l/m 1,6 km/h (1 Bft) S-SW 202 0 min 0,000 mm 0,0 UV-I 0 W/m -2,8 C -2,4 C 3,2 km/h (1 Bft) 95,65 %
26.12.2017 06:54 -2,3 C 4,4 C 97 % 1013,1 hPa 0,0 l/m 1,6 km/h (1 Bft) S-SW 202 0 min 0,000 mm 0,0 UV-I 0 W/m -2,7 C -2,3 C 3,2 km/h (1 Bft) 95,65 %
26.12.2017 06:55 -2,4 C 4,4 C 97 % 1013,1 hPa 0,0 l/m 1,6 km/h (1 Bft) S 180 0 min 0,000 mm 0,0 UV-I 0 W/m -2,8 C -2,4 C 1,6 km/h (1 Bft) 100,00 %
26.12.2017 06:56 -2,4 C 4,4 C 97 % 1013,1 hPa 0,0 l/m 1,6 km/h (1 Bft) S 180 0 min 0,000 mm 0,0 UV-I 0 W/m -2,8 C -2,4 C 3,2 km/h (1 Bft) 100,00 %
26.12.2017 06:57 -2,4 C 4,4 C 97 % 1013,0 hPa 0,0 l/m 1,6 km/h (1 Bft) S 180 0 min 0,000 mm 0,0 UV-I 0 W/m -2,8 C -2,4 C 3,2 km/h (1 Bft) 100,00 %
26.12.2017 06:58 -2,4 C 4,4 C 97 % 1013,0 hPa 0,0 l/m 0,0 km/h (0 Bft) S 180 0 min 0,000 mm 0,0 UV-I 0 W/m -2,8 C -2,4 C 1,6 km/h (1 Bft) 100,00 %
26.12.2017 06:59 -2,4 C 4,4 C 97 % 1013,1 hPa 0,0 l/m 0,0 km/h (0 Bft) S 180 0 min 0,000 mm 0,0 UV-I 0 W/m -2,8 C -2,4 C 3,2 km/h (1 Bft) 100,00 %
26.12.2017 07:00 -2,4 C 4,4 C 97 % 1013,1 hPa 0,0 l/m 1,6 km/h (1 Bft) S 180 0 min 0,000 mm 0,0 UV-I 0 W/m -2,8 C -2,4 C 3,2 km/h (1 Bft) 100,00 %
26.12.2017 07:01 -2,4 C 4,4 C 97 % 1013,1 hPa 0,0 l/m 0,0 km/h (0 Bft) S 180 0 min 0,000 mm 0,0 UV-I 0 W/m -2,8 C -2,4 C 3,2 km/h (1 Bft) 95,65 %
26.12.2017 07:02 -2,4 C 4,4 C 97 % 1013,1 hPa 0,0 l/m 1,6 km/h (1 Bft) S 180 0 min 0,000 mm 0,0 UV-I 0 W/m -2,8 C -2,4 C 3,2 km/h (1 Bft) 100,00 %
26.12.2017 07:03 -2,4 C 4,4 C 97 % 1013,1 hPa 0,0 l/m 0,0 km/h (0 Bft) S 180 0 min 0,000 mm 0,0 UV-I 0 W/m -2,8 C -2,4 C 1,6 km/h (1 Bft) 95,65 %
26.12.2017 07:04 -2,4 C 4,4 C 97 % 1013,1 hPa 0,0 l/m 3,2 km/h (1 Bft) S 180 0 min 0,000 mm 0,0 UV-I 0 W/m -2,8 C -2,4 C 4,8 km/h (1 Bft) 95,65 %
26.12.2017 07:05 -2,4 C 4,4 C 97 % 1013,1 hPa 0,0 l/m 1,6 km/h (1 Bft) S 180 0 min 0,000 mm 0,0 UV-I 0 W/m -2,8 C -2,4 C 3,2 km/h (1 Bft) 100,00 %
26.12.2017 07:06 -2,4 C 4,4 C 97 % 1013,1 hPa 0,0 l/m 0,0 km/h (0 Bft) S 180 0 min 0,000 mm 0,0 UV-I 0 W/m -2,8 C -2,4 C 1,6 km/h (1 Bft) 100,00 %
26.12.2017 07:07 -2,4 C 4,4 C 97 % 1013,1 hPa 0,0 l/m 0,0 km/h (0 Bft) N 0 0 min 0,000 mm 0,0 UV-I 0 W/m -2,8 C -2,4 C 0,0 km/h (0 Bft) 100,00 %
26.12.2017 07:08 -2,4 C 4,4 C 97 % 1013,2 hPa 0,0 l/m 0,0 km/h (0 Bft) N 0 0 min 0,000 mm 0,0 UV-I 0 W/m -2,8 C -2,4 C 0,0 km/h (0 Bft) 95,65 %
26.12.2017 07:09 -2,4 C 4,4 C 97 % 1013,1 hPa 0,0 l/m 0,0 km/h (0 Bft) N 0 0 min 0,000 mm 0,0 UV-I 0 W/m -2,8 C -2,4 C 0,0 km/h (0 Bft) 100,00 %
26.12.2017 07:10 -2,4 C 4,4 C 97 % 1013,1 hPa 0,0 l/m 0,0 km/h (0 Bft) S 180 0 min 0,000 mm 0,0 UV-I 0 W/m -2,8 C -2,4 C 1,6 km/h (1 Bft) 95,65 %
26.12.2017 07:11 -2,4 C 4,4 C 97 % 1013,1 hPa 0,0 l/m 0,0 km/h (0 Bft) N 0 0 min 0,000 mm 0,0 UV-I 0 W/m -2,8 C -2,4 C 0,0 km/h (0 Bft) 100,00 %
26.12.2017 07:12 -2,4 C 4,4 C 97 % 1013,1 hPa 0,0 l/m 0,0 km/h (0 Bft) N 0 0 min 0,000 mm 0,0 UV-I 0 W/m -2,8 C -2,4 C 0,0 km/h (0 Bft) 95,65 %
26.12.2017 07:13 -2,4 C 4,4 C 97 % 1013,2 hPa 0,0 l/m 0,0 km/h (0 Bft) N 0 0 min 0,000 mm 0,0 UV-I 0 W/m -2,8 C -2,4 C 0,0 km/h (0 Bft) 100,00 %
26.12.2017 07:14 -2,4 C 4,4 C 97 % 1013,1 hPa 0,0 l/m 0,0 km/h (0 Bft) N 0 0 min 0,000 mm 0,0 UV-I 0 W/m -2,8 C -2,4 C 0,0 km/h (0 Bft) 95,65 %
26.12.2017 07:15 -2,4 C 4,4 C 97 % 1013,1 hPa 0,0 l/m 0,0 km/h (0 Bft) N 0 0 min 0,000 mm 0,0 UV-I 0 W/m -2,8 C -2,4 C 0,0 km/h (0 Bft) 95,65 %
26.12.2017 07:16 -2,4 C 4,4 C 97 % 1013,1 hPa 0,0 l/m 0,0 km/h (0 Bft) S 180 0 min 0,000 mm 0,0 UV-I 0 W/m -2,8 C -2,4 C 1,6 km/h (1 Bft) 95,65 %
26.12.2017 07:17 -2,4 C 4,4 C 97 % 1013,1 hPa 0,0 l/m 0,0 km/h (0 Bft) S 180 0 min 0,000 mm 0,0 UV-I 0 W/m -2,8 C -2,4 C 1,6 km/h (1 Bft) 100,00 %
26.12.2017 07:18 -2,4 C 4,4 C 97 % 1013,0 hPa 0,0 l/m 0,0 km/h (0 Bft) S 180 0 min 0,000 mm 0,0 UV-I 0 W/m -2,8 C -2,4 C 1,6 km/h (1 Bft) 95,65 %
26.12.2017 07:19 -2,4 C 4,4 C 97 % 1013,1 hPa 0,0 l/m 0,0 km/h (0 Bft) S 180 0 min 0,000 mm 0,0 UV-I 0 W/m -2,8 C -2,4 C 1,6 km/h (1 Bft) 95,65 %
26.12.2017 07:20 -2,4 C 4,4 C 97 % 1013,0 hPa 0,0 l/m 0,0 km/h (0 Bft) S 180 0 min 0,000 mm 0,0 UV-I 0 W/m -2,8 C -2,4 C 1,6 km/h (1 Bft) 95,65 %
26.12.2017 07:21 -2,4 C 4,4 C 97 % 1013,1 hPa 0,0 l/m 0,0 km/h (0 Bft) S 180 0 min 0,000 mm 0,0 UV-I 0 W/m -2,8 C -2,4 C 1,6 km/h (1 Bft) 95,65 %
26.12.2017 07:22 -2,4 C 4,4 C 97 % 1013,1 hPa 0,0 l/m 1,6 km/h (1 Bft) S 180 0 min 0,000 mm 0,0 UV-I 0 W/m -2,8 C -2,4 C 3,2 km/h (1 Bft) 95,65 %
26.12.2017 07:23 -2,4 C 4,4 C 97 % 1013,1 hPa 0,0 l/m 3,2 km/h (1 Bft) S 180 0 min 0,000 mm 0,0 UV-I 0 W/m -2,8 C -2,4 C 4,8 km/h (1 Bft) 95,65 %
26.12.2017 07:24 -2,4 C 4,4 C 97 % 1013,0 hPa 0,0 l/m 0,0 km/h (0 Bft) S 180 0 min 0,000 mm 0,0 UV-I 0 W/m -2,8 C -2,4 C 1,6 km/h (1 Bft) 100,00 %
26.12.2017 07:25 -2,4 C 4,4 C 97 % 1013,1 hPa 0,0 l/m 3,2 km/h (1 Bft) S 180 0 min 0,000 mm 0,0 UV-I 0 W/m -2,8 C -2,4 C 4,8 km/h (1 Bft) 95,65 %
26.12.2017 07:26 -2,4 C 4,4 C 97 % 1013,0 hPa 0,0 l/m 3,2 km/h (1 Bft) S 180 0 min 0,000 mm 0,0 UV-I 0 W/m -2,8 C -2,4 C 4,8 km/h (1 Bft) 100,00 %
26.12.2017 07:27 -2,4 C 4,4 C 97 % 1013,0 hPa 0,0 l/m 1,6 km/h (1 Bft) S 180 0 min 0,000 mm 0,0 UV-I 0 W/m -2,8 C -2,4 C 1,6 km/h (1 Bft) 95,65 %
26.12.2017 07:28 -2,4 C 4,4 C 97 % 1013,0 hPa 0,0 l/m 1,6 km/h (1 Bft) S 180 0 min 0,000 mm 0,0 UV-I 0 W/m -2,8 C -2,4 C 3,2 km/h (1 Bft) 100,00 %
26.12.2017 07:29 -2,4 C 4,4 C 97 % 1012,9 hPa 0,0 l/m 0,0 km/h (0 Bft) S 180 0 min 0,000 mm 0,0 UV-I 0 W/m -2,8 C -2,4 C 1,6 km/h (1 Bft) 91,30 %
26.12.2017 07:30 -2,3 C 4,4 C 97 % 1012,9 hPa 0,0 l/m 0,0 km/h (0 Bft) N 0 0 min 0,000 mm 0,0 UV-I 0 W/m -2,7 C -2,3 C 0,0 km/h (0 Bft) 100,00 %
26.12.2017 07:31 -2,3 C 4,4 C 97 % 1012,9 hPa 0,0 l/m 0,0 km/h (0 Bft) S 180 0 min 0,000 mm 0,0 UV-I 0 W/m -2,7 C -2,3 C 1,6 km/h (1 Bft) 91,30 %
26.12.2017 07:32 -2,3 C 4,4 C 97 % 1012,9 hPa 0,0 l/m 0,0 km/h (0 Bft) S 180 0 min 0,000 mm 0,0 UV-I 0 W/m -2,7 C -2,3 C 1,6 km/h (1 Bft) 100,00 %
26.12.2017 07:33 -2,3 C 4,4 C 97 % 1012,9 hPa 0,0 l/m 0,0 km/h (0 Bft) S 180 0 min 0,000 mm 0,0 UV-I 0 W/m -2,7 C -2,3 C 1,6 km/h (1 Bft) 91,30 %
26.12.2017 07:34 -2,3 C 4,4 C 97 % 1013,0 hPa 0,0 l/m 0,0 km/h (0 Bft) S 180 0 min 0,000 mm 0,0 UV-I 0 W/m -2,7 C -2,3 C 1,6 km/h (1 Bft) 95,65 %
26.12.2017 07:35 -2,3 C 4,4 C 97 % 1013,0 hPa 0,0 l/m 1,6 km/h (1 Bft) S 180 0 min 0,000 mm 0,0 UV-I 0 W/m -2,7 C -2,3 C 3,2 km/h (1 Bft) 95,65 %
26.12.2017 07:36 -2,3 C 4,4 C 97 % 1012,9 hPa 0,0 l/m 1,6 km/h (1 Bft) S 180 0 min 0,000 mm 0,0 UV-I 0 W/m -2,7 C -2,3 C 1,6 km/h (1 Bft) 95,65 %
26.12.2017 07:37 -2,3 C 4,4 C 97 % 1013,0 hPa 0,0 l/m 1,6 km/h (1 Bft) S 180 0 min 0,000 mm 0,0 UV-I 5 W/m -2,7 C -2,3 C 1,6 km/h (1 Bft) 100,00 %
26.12.2017 07:38 -2,3 C 4,4 C 97 % 1013,0 hPa 0,0 l/m 0,0 km/h (0 Bft) S 180 0 min 0,000 mm 0,0 UV-I 5 W/m -2,7 C -2,3 C 1,6 km/h (1 Bft) 100,00 %
26.12.2017 07:39 -2,3 C 4,4 C 97 % 1012,9 hPa 0,0 l/m 0,0 km/h (0 Bft) S 180 0 min 0,000 mm 0,0 UV-I 5 W/m -2,7 C -2,3 C 1,6 km/h (1 Bft) 95,65 %
26.12.2017 07:40 -2,3 C 4,4 C 97 % 1012,9 hPa 0,0 l/m 0,0 km/h (0 Bft) S 180 0 min 0,000 mm 0,0 UV-I 5 W/m -2,7 C -2,3 C 1,6 km/h (1 Bft) 100,00 %
26.12.2017 07:41 -2,4 C 4,4 C 97 % 1012,9 hPa 0,0 l/m 0,0 km/h (0 Bft) S 180 0 min 0,000 mm 0,0 UV-I 5 W/m -2,8 C -2,4 C 1,6 km/h (1 Bft) 100,00 %
26.12.2017 07:42 -2,4 C 4,4 C 97 % 1012,9 hPa 0,0 l/m 0,0 km/h (0 Bft) N 0 0 min 0,000 mm 0,0 UV-I 5 W/m -2,8 C -2,4 C 0,0 km/h (0 Bft) 100,00 %
26.12.2017 07:43 -2,4 C 4,4 C 97 % 1012,9 hPa 0,0 l/m 0,0 km/h (0 Bft) S 180 0 min 0,000 mm 0,0 UV-I 5 W/m -2,8 C -2,4 C 1,6 km/h (1 Bft) 95,65 %
26.12.2017 07:44 -2,4 C 4,4 C 97 % 1012,9 hPa 0,0 l/m 0,0 km/h (0 Bft) N 0 0 min 0,000 mm 0,0 UV-I 5 W/m -2,8 C -2,4 C 0,0 km/h (0 Bft) 100,00 %
26.12.2017 07:45 -2,4 C 4,4 C 97 % 1012,9 hPa 0,0 l/m 0,0 km/h (0 Bft) S 180 0 min 0,000 mm 0,0 UV-I 5 W/m -2,8 C -2,4 C 1,6 km/h (1 Bft) 100,00 %
26.12.2017 07:46 -2,4 C 4,4 C 97 % 1012,9 hPa 0,0 l/m 0,0 km/h (0 Bft) N 0 0 min 0,000 mm 0,0 UV-I 5 W/m -2,8 C -2,4 C 0,0 km/h (0 Bft) 100,00 %
26.12.2017 07:47 -2,3 C 4,4 C 97 % 1012,9 hPa 0,0 l/m 0,0 km/h (0 Bft) N 0 0 min 0,000 mm 0,0 UV-I 5 W/m -2,7 C -2,3 C 0,0 km/h (0 Bft) 100,00 %
26.12.2017 07:48 -2,3 C 4,4 C 97 % 1012,9 hPa 0,0 l/m 0,0 km/h (0 Bft) N 0 0 min 0,000 mm 0,0 UV-I 7 W/m -2,7 C -2,3 C 0,0 km/h (0 Bft) 100,00 %
26.12.2017 07:49 -2,3 C 4,4 C 97 % 1012,9 hPa 0,0 l/m 0,0 km/h (0 Bft) N 0 0 min 0,000 mm 0,0 UV-I 7 W/m -2,7 C -2,3 C 0,0 km/h (0 Bft) 100,00 %
26.12.2017 07:50 -2,3 C 4,4 C 97 % 1012,9 hPa 0,0 l/m 0,0 km/h (0 Bft) N 0 0 min 0,000 mm 0,0 UV-I 7 W/m -2,7 C -2,3 C 0,0 km/h (0 Bft) 95,65 %
26.12.2017 07:51 -2,3 C 4,4 C 97 % 1012,8 hPa 0,0 l/m 0,0 km/h (0 Bft) N 0 0 min 0,000 mm 0,0 UV-I 7 W/m -2,7 C -2,3 C 0,0 km/h (0 Bft) 95,65 %
26.12.2017 07:52 -2,3 C 4,4 C 97 % 1012,9 hPa 0,0 l/m 0,0 km/h (0 Bft) N 0 0 min 0,000 mm 0,0 UV-I 7 W/m -2,7 C -2,3 C 0,0 km/h (0 Bft) 100,00 %
26.12.2017 07:53 -2,3 C 4,4 C 97 % 1012,9 hPa 0,0 l/m 0,0 km/h (0 Bft) S 180 0 min 0,000 mm 0,0 UV-I 7 W/m -2,7 C -2,3 C 1,6 km/h (1 Bft) 100,00 %
26.12.2017 07:54 -2,3 C 4,4 C 97 % 1012,9 hPa 0,0 l/m 1,6 km/h (1 Bft) S 180 0 min 0,000 mm 0,0 UV-I 7 W/m -2,7 C -2,3 C 3,2 km/h (1 Bft) 100,00 %
26.12.2017 07:55 -2,3 C 4,4 C 97 % 1012,8 hPa 0,0 l/m 0,0 km/h (0 Bft) S 180 0 min 0,000 mm 0,0 UV-I 7 W/m -2,7 C -2,3 C 1,6 km/h (1 Bft) 100,00 %
26.12.2017 07:56 -2,3 C 4,4 C 97 % 1012,8 hPa 0,0 l/m 0,0 km/h (0 Bft) S 180 0 min 0,000 mm 0,0 UV-I 7 W/m -2,7 C -2,3 C 1,6 km/h (1 Bft) 100,00 %
26.12.2017 07:57 -2,3 C 4,4 C 97 % 1012,9 hPa 0,0 l/m 0,0 km/h (0 Bft) S 180 0 min 0,000 mm 0,0 UV-I 7 W/m -2,7 C -2,3 C 1,6 km/h (1 Bft) 91,30 %
26.12.2017 07:58 -2,3 C 4,4 C 97 % 1012,9 hPa 0,0 l/m 0,0 km/h (0 Bft) N 0 0 min 0,000 mm 0,0 UV-I 7 W/m -2,7 C -2,3 C 0,0 km/h (0 Bft) 95,65 %
26.12.2017 07:59 -2,3 C 4,4 C 97 % 1012,9 hPa 0,0 l/m 0,0 km/h (0 Bft) N 0 0 min 0,000 mm 0,0 UV-I 7 W/m -2,7 C -2,3 C 0,0 km/h (0 Bft) 95,65 %
26.12.2017 08:00 -2,4 C 4,4 C 97 % 1012,9 hPa 0,0 l/m 1,6 km/h (1 Bft) S 180 0 min 0,000 mm 0,0 UV-I 8 W/m -2,8 C -2,4 C 3,2 km/h (1 Bft) 91,30 %
26.12.2017 08:01 -2,3 C 4,4 C 97 % 1012,9 hPa 0,0 l/m 3,2 km/h (1 Bft) S 180 0 min 0,000 mm 0,0 UV-I 9 W/m -2,7 C -2,3 C 4,8 km/h (1 Bft) 100,00 %
26.12.2017 08:02 -2,3 C 4,4 C 97 % 1012,9 hPa 0,0 l/m 3,2 km/h (1 Bft) S 180 0 min 0,000 mm 0,0 UV-I 11 W/m -2,7 C -2,3 C 4,8 km/h (1 Bft) 100,00 %
26.12.2017 08:03 -2,3 C 4,4 C 97 % 1012,8 hPa 0,0 l/m 3,2 km/h (1 Bft) S 180 0 min 0,000 mm 0,0 UV-I 11 W/m -2,7 C -2,3 C 4,8 km/h (1 Bft) 100,00 %
26.12.2017 08:04 -2,4 C 4,4 C 97 % 1012,8 hPa 0,0 l/m 0,0 km/h (0 Bft) S 180 0 min 0,000 mm 0,0 UV-I 11 W/m -2,8 C -2,4 C 1,6 km/h (1 Bft) 95,65 %
26.12.2017 08:05 -2,4 C 4,4 C 97 % 1012,8 hPa 0,0 l/m 0,0 km/h (0 Bft) S 180 0 min 0,000 mm 0,0 UV-I 11 W/m -2,8 C -2,4 C 3,2 km/h (1 Bft) 95,65 %
26.12.2017 08:06 -2,4 C 4,4 C 97 % 1012,8 hPa 0,0 l/m 1,6 km/h (1 Bft) S 180 1 min 0,000 mm 0,0 UV-I 11 W/m -2,8 C -2,4 C 3,2 km/h (1 Bft) 100,00 %
26.12.2017 08:07 -2,4 C 4,4 C 97 % 1012,8 hPa 0,0 l/m 1,6 km/h (1 Bft) S 180 1 min 0,000 mm 0,0 UV-I 11 W/m -2,8 C -2,4 C 3,2 km/h (1 Bft) 100,00 %
26.12.2017 08:08 -2,4 C 4,4 C 97 % 1012,8 hPa 0,0 l/m 3,2 km/h (1 Bft) S 180 0 min 0,000 mm 0,0 UV-I 11 W/m -2,8 C -2,4 C 4,8 km/h (1 Bft) 100,00 %
26.12.2017 08:09 -2,4 C 4,4 C 97 % 1012,8 hPa 0,0 l/m 1,6 km/h (1 Bft) S 180 0 min 0,000 mm 0,0 UV-I 12 W/m -2,8 C -2,4 C 3,2 km/h (1 Bft) 95,65 %
26.12.2017 08:10 -2,4 C 4,4 C 97 % 1012,9 hPa 0,0 l/m 1,6 km/h (1 Bft) S 180 0 min 0,000 mm 0,0 UV-I 12 W/m -2,8 C -2,4 C 3,2 km/h (1 Bft) 100,00 %
26.12.2017 08:11 -2,4 C 4,4 C 97 % 1012,8 hPa 0,0 l/m 0,0 km/h (0 Bft) S 180 0 min 0,000 mm 0,0 UV-I 12 W/m -2,8 C -2,4 C 1,6 km/h (1 Bft) 95,65 %
26.12.2017 08:12 -2,4 C 4,4 C 97 % 1012,8 hPa 0,0 l/m 1,6 km/h (1 Bft) S 180 0 min 0,000 mm 0,0 UV-I 14 W/m -2,8 C -2,4 C 3,2 km/h (1 Bft) 100,00 %
26.12.2017 08:13 -2,4 C 4,4 C 97 % 1012,7 hPa 0,0 l/m 1,6 km/h (1 Bft) S 180 0 min 0,000 mm 0,0 UV-I 16 W/m -2,8 C -2,4 C 3,2 km/h (1 Bft) 95,65 %
26.12.2017 08:14 -2,4 C 4,4 C 97 % 1012,8 hPa 0,0 l/m 1,6 km/h (1 Bft) S 180 0 min 0,000 mm 0,0 UV-I 16 W/m -2,8 C -2,4 C 1,6 km/h (1 Bft) 95,65 %
26.12.2017 08:15 -2,4 C 4,4 C 97 % 1012,8 hPa 0,0 l/m 0,0 km/h (0 Bft) N 0 0 min 0,000 mm 0,0 UV-I 16 W/m -2,8 C -2,4 C 0,0 km/h (0 Bft) 100,00 %
26.12.2017 08:16 -2,4 C 4,4 C 97 % 1012,8 hPa 0,0 l/m 0,0 km/h (0 Bft) N 0 0 min 0,000 mm 0,0 UV-I 16 W/m -2,8 C -2,4 C 0,0 km/h (0 Bft) 95,65 %
26.12.2017 08:17 -2,5 C 4,4 C 97 % 1012,8 hPa 0,0 l/m 0,0 km/h (0 Bft) N 0 0 min 0,000 mm 0,0 UV-I 16 W/m -2,9 C -2,5 C 0,0 km/h (0 Bft) 100,00 %
26.12.2017 08:18 -2,5 C 4,4 C 97 % 1012,8 hPa 0,0 l/m 0,0 km/h (0 Bft) S 180 0 min 0,000 mm 0,0 UV-I 18 W/m -2,9 C -2,5 C 1,6 km/h (1 Bft) 95,65 %
26.12.2017 08:19 -2,5 C 4,4 C 97 % 1012,9 hPa 0,0 l/m 0,0 km/h (0 Bft) N 0 0 min 0,000 mm 0,0 UV-I 16 W/m -2,9 C -2,5 C 0,0 km/h (0 Bft) 100,00 %
26.12.2017 08:20 -2,4 C 4,4 C 97 % 1012,9 hPa 0,0 l/m 0,0 km/h (0 Bft) S 180 0 min 0,000 mm 0,0 UV-I 18 W/m -2,8 C -2,4 C 1,6 km/h (1 Bft) 100,00 %
26.12.2017 08:21 -2,4 C 4,4 C 97 % 1012,9 hPa 0,0 l/m 0,0 km/h (0 Bft) N 0 0 min 0,000 mm 0,0 UV-I 18 W/m -2,8 C -2,4 C 0,0 km/h (0 Bft) 95,65 %
26.12.2017 08:22 -2,4 C 4,4 C 97 % 1012,9 hPa 0,0 l/m 0,0 km/h (0 Bft) N 0 0 min 0,000 mm 0,0 UV-I 19 W/m -2,8 C -2,4 C 0,0 km/h (0 Bft) 95,65 %
26.12.2017 08:23 -2,4 C 4,4 C 97 % 1012,9 hPa 0,0 l/m 0,0 km/h (0 Bft) N 0 0 min 0,000 mm 0,0 UV-I 19 W/m -2,8 C -2,4 C 0,0 km/h (0 Bft) 91,30 %
26.12.2017 08:24 -2,4 C 4,4 C 97 % 1012,9 hPa 0,0 l/m 0,0 km/h (0 Bft) N 0 0 min 0,000 mm 0,0 UV-I 19 W/m -2,8 C -2,4 C 0,0 km/h (0 Bft) 95,65 %
26.12.2017 08:25 -2,4 C 4,4 C 97 % 1012,9 hPa 0,0 l/m 0,0 km/h (0 Bft) N 0 0 min 0,000 mm 0,0 UV-I 19 W/m -2,8 C -2,4 C 0,0 km/h (0 Bft) 95,65 %
26.12.2017 08:26 -2,4 C 4,4 C 97 % 1012,8 hPa 0,0 l/m 0,0 km/h (0 Bft) N 0 0 min 0,000 mm 0,0 UV-I 18 W/m -2,8 C -2,4 C 0,0 km/h (0 Bft) 91,30 %
26.12.2017 08:27 -2,4 C 4,4 C 97 % 1012,9 hPa 0,0 l/m 0,0 km/h (0 Bft) N 0 0 min 0,000 mm 0,0 UV-I 18 W/m -2,8 C -2,4 C 0,0 km/h (0 Bft) 100,00 %
26.12.2017 08:28 -2,4 C 4,4 C 97 % 1012,9 hPa 0,0 l/m 0,0 km/h (0 Bft) N 0 0 min 0,000 mm 0,0 UV-I 18 W/m -2,8 C -2,4 C 0,0 km/h (0 Bft) 95,65 %
26.12.2017 08:29 -2,4 C 4,4 C 97 % 1012,9 hPa 0,0 l/m 0,0 km/h (0 Bft) N 0 0 min 0,000 mm 0,0 UV-I 18 W/m -2,8 C -2,4 C 0,0 km/h (0 Bft) 95,65 %
26.12.2017 08:30 -2,3 C 4,4 C 97 % 1012,9 hPa 0,0 l/m 0,0 km/h (0 Bft) N 0 0 min 0,000 mm 0,0 UV-I 19 W/m -2,7 C -2,3 C 0,0 km/h (0 Bft) 91,30 %
26.12.2017 08:31 -2,3 C 4,4 C 97 % 1012,9 hPa 0,0 l/m 0,0 km/h (0 Bft) N 0 0 min 0,000 mm 0,0 UV-I 18 W/m -2,7 C -2,3 C 0,0 km/h (0 Bft) 95,65 %
26.12.2017 08:32 -2,3 C 4,4 C 97 % 1012,9 hPa 0,0 l/m 0,0 km/h (0 Bft) N 0 0 min 0,000 mm 0,0 UV-I 18 W/m -2,7 C -2,3 C 0,0 km/h (0 Bft) 86,96 %
26.12.2017 08:33 -2,3 C 4,4 C 97 % 1012,9 hPa 0,0 l/m 0,0 km/h (0 Bft) N 0 0 min 0,000 mm 0,0 UV-I 18 W/m -2,7 C -2,3 C 0,0 km/h (0 Bft) 91,30 %
26.12.2017 08:34 -2,3 C 4,4 C 97 % 1012,9 hPa 0,0 l/m 0,0 km/h (0 Bft) N 0 0 min 0,000 mm 0,0 UV-I 18 W/m -2,7 C -2,3 C 0,0 km/h (0 Bft) 100,00 %
26.12.2017 08:35 -2,3 C 4,4 C 97 % 1013,0 hPa 0,0 l/m 0,0 km/h (0 Bft) N 0 0 min 0,000 mm 0,0 UV-I 18 W/m -2,7 C -2,3 C 0,0 km/h (0 Bft) 91,30 %
26.12.2017 08:36 -2,3 C 4,4 C 97 % 1013,0 hPa 0,0 l/m 0,0 km/h (0 Bft) S 180 0 min 0,000 mm 0,0 UV-I 19 W/m -2,7 C -2,3 C 1,6 km/h (1 Bft) 100,00 %
26.12.2017 08:37 -2,3 C 4,4 C 97 % 1012,9 hPa 0,0 l/m 0,0 km/h (0 Bft) S 180 0 min 0,000 mm 0,0 UV-I 18 W/m -2,7 C -2,3 C 1,6 km/h (1 Bft) 86,96 %
26.12.2017 08:38 -2,3 C 4,4 C 97 % 1012,9 hPa 0,0 l/m 1,6 km/h (1 Bft) S 180 0 min 0,000 mm 0,0 UV-I 19 W/m -2,7 C -2,3 C 3,2 km/h (1 Bft) 95,65 %
26.12.2017 08:39 -2,3 C 4,4 C 97 % 1012,9 hPa 0,0 l/m 1,6 km/h (1 Bft) S 180 0 min 0,000 mm 0,0 UV-I 19 W/m -2,7 C -2,3 C 3,2 km/h (1 Bft) 86,96 %
26.12.2017 08:40 -2,3 C 4,4 C 97 % 1012,9 hPa 0,0 l/m 3,2 km/h (1 Bft) S 180 0 min 0,000 mm 0,0 UV-I 19 W/m -2,7 C -2,3 C 4,8 km/h (1 Bft) 100,00 %
26.12.2017 08:41 -2,3 C 4,4 C 97 % 1012,8 hPa 0,0 l/m 1,6 km/h (1 Bft) S 180 0 min 0,000 mm 0,0 UV-I 21 W/m -2,7 C -2,3 C 3,2 km/h (1 Bft) 95,65 %
26.12.2017 08:42 -2,3 C 4,4 C 97 % 1012,8 hPa 0,0 l/m 0,0 km/h (0 Bft) S 180 0 min 0,000 mm 0,0 UV-I 21 W/m -2,7 C -2,3 C 1,6 km/h (1 Bft) 91,30 %
26.12.2017 08:43 -2,4 C 4,4 C 97 % 1012,8 hPa 0,0 l/m 0,0 km/h (0 Bft) S 180 0 min 0,000 mm 0,0 UV-I 23 W/m -2,8 C -2,4 C 1,6 km/h (1 Bft) 100,00 %
26.12.2017 08:44 -2,4 C 4,4 C 97 % 1012,8 hPa 0,0 l/m 0,0 km/h (0 Bft) S 180 0 min 0,000 mm 0,0 UV-I 23 W/m -2,8 C -2,4 C 1,6 km/h (1 Bft) 91,30 %
26.12.2017 08:45 -2,4 C 4,4 C 97 % 1012,8 hPa 0,0 l/m 0,0 km/h (0 Bft) S 180 0 min 0,000 mm 0,0 UV-I 21 W/m -2,8 C -2,4 C 1,6 km/h (1 Bft) 100,00 %
26.12.2017 08:46 -2,4 C 4,4 C 97 % 1012,8 hPa 0,0 l/m 0,0 km/h (0 Bft) S 180 0 min 0,000 mm 0,0 UV-I 26 W/m -2,8 C -2,4 C 3,2 km/h (1 Bft) 86,96 %
26.12.2017 08:47 -2,4 C 4,4 C 97 % 1012,8 hPa 0,0 l/m 1,6 km/h (1 Bft) S 180 0 min 0,000 mm 0,0 UV-I 29 W/m -2,8 C -2,4 C 3,2 km/h (1 Bft) 100,00 %
26.12.2017 08:48 -2,4 C 4,4 C 97 % 1012,8 hPa 0,0 l/m 1,6 km/h (1 Bft) S 180 0 min 0,000 mm 0,0 UV-I 30 W/m -2,8 C -2,4 C 1,6 km/h (1 Bft) 91,30 %
26.12.2017 08:49 -2,4 C 4,4 C 97 % 1012,9 hPa 0,0 l/m 0,0 km/h (0 Bft) S 180 0 min 0,000 mm 0,0 UV-I 28 W/m -2,8 C -2,4 C 1,6 km/h (1 Bft) 100,00 %
26.12.2017 08:50 -2,4 C 4,4 C 97 % 1012,8 hPa 0,0 l/m 0,0 km/h (0 Bft) N 0 0 min 0,000 mm 0,0 UV-I 28 W/m -2,8 C -2,4 C 0,0 km/h (0 Bft) 91,30 %
26.12.2017 08:51 -2,4 C 4,4 C 97 % 1012,9 hPa 0,0 l/m 0,0 km/h (0 Bft) N 0 0 min 0,000 mm 0,0 UV-I 28 W/m -2,8 C -2,4 C 0,0 km/h (0 Bft) 95,65 %
26.12.2017 08:52 -2,4 C 4,4 C 97 % 1012,8 hPa 0,0 l/m 1,6 km/h (1 Bft) S 180 0 min 0,000 mm 0,0 UV-I 32 W/m -2,8 C -2,4 C 3,2 km/h (1 Bft) 91,30 %
26.12.2017 08:53 -2,4 C 4,4 C 97 % 1012,8 hPa 0,0 l/m 1,6 km/h (1 Bft) NW 315 0 min 0,000 mm 0,0 UV-I 35 W/m -2,8 C -2,4 C 3,2 km/h (1 Bft) 91,30 %
26.12.2017 08:54 -2,4 C 4,4 C 97 % 1012,8 hPa 0,0 l/m 0,0 km/h (0 Bft) NW 315 0 min 0,000 mm 0,0 UV-I 35 W/m -2,8 C -2,4 C 1,6 km/h (1 Bft) 100,00 %
26.12.2017 08:55 -2,4 C 4,4 C 97 % 1012,8 hPa 0,0 l/m 1,6 km/h (1 Bft) NW 315 0 min 0,000 mm 0,0 UV-I 37 W/m -2,8 C -2,4 C 3,2 km/h (1 Bft) 91,30 %
26.12.2017 08:56 -2,3 C 4,4 C 97 % 1012,8 hPa 0,0 l/m 0,0 km/h (0 Bft) NW 315 0 min 0,000 mm 0,0 UV-I 37 W/m -2,7 C -2,3 C 3,2 km/h (1 Bft) 100,00 %
26.12.2017 08:57 -2,3 C 4,4 C 97 % 1012,8 hPa 0,0 l/m 0,0 km/h (0 Bft) N 0 0 min 0,000 mm 0,0 UV-I 39 W/m -2,7 C -2,3 C 0,0 km/h (0 Bft) 95,65 %
26.12.2017 08:58 -2,3 C 4,4 C 97 % 1012,8 hPa 0,0 l/m 0,0 km/h (0 Bft) N 0 0 min 0,000 mm 0,0 UV-I 40 W/m -2,7 C -2,3 C 0,0 km/h (0 Bft) 95,65 %
26.12.2017 08:59 -2,3 C 4,4 C 97 % 1012,7 hPa 0,0 l/m 0,0 km/h (0 Bft) NW 315 0 min 0,000 mm 0,0 UV-I 35 W/m -2,7 C -2,3 C 1,6 km/h (1 Bft) 100,00 %
26.12.2017 09:00 -2,3 C 4,4 C 97 % 1012,7 hPa 0,0 l/m 0,0 km/h (0 Bft) N 0 0 min 0,000 mm 0,0 UV-I 30 W/m -2,7 C -2,3 C 0,0 km/h (0 Bft) 100,00 %
26.12.2017 09:01 -2,3 C 4,4 C 97 % 1012,7 hPa 0,0 l/m 0,0 km/h (0 Bft) N 0 0 min 0,000 mm 0,0 UV-I 32 W/m -2,7 C -2,3 C 0,0 km/h (0 Bft) 95,65 %
26.12.2017 09:02 -2,3 C 4,4 C 97 % 1012,7 hPa 0,0 l/m 1,6 km/h (1 Bft) NO 45 0 min 0,000 mm 0,0 UV-I 32 W/m -2,7 C -2,3 C 4,8 km/h (1 Bft) 95,65 %
26.12.2017 09:03 -2,3 C 4,4 C 97 % 1012,7 hPa 0,0 l/m 3,2 km/h (1 Bft) NO 45 0 min 0,000 mm 0,0 UV-I 37 W/m -2,7 C -2,3 C 4,8 km/h (1 Bft) 100,00 %
26.12.2017 09:04 -2,2 C 4,4 C 97 % 1012,8 hPa 0,0 l/m 3,2 km/h (1 Bft) NO 45 0 min 0,000 mm 0,0 UV-I 30 W/m -2,6 C -2,2 C 4,8 km/h (1 Bft) 100,00 %
26.12.2017 09:05 -2,2 C 4,4 C 97 % 1012,7 hPa 0,0 l/m 3,2 km/h (1 Bft) NO 45 0 min 0,000 mm 0,0 UV-I 33 W/m -2,6 C -2,2 C 4,8 km/h (1 Bft) 100,00 %
26.12.2017 09:06 -2,2 C 4,4 C 97 % 1012,8 hPa 0,0 l/m 1,6 km/h (1 Bft) NO 45 0 min 0,000 mm 0,0 UV-I 33 W/m -2,6 C -2,2 C 3,2 km/h (1 Bft) 100,00 %
26.12.2017 09:07 -2,3 C 4,4 C 97 % 1012,8 hPa 0,0 l/m 3,2 km/h (1 Bft) NO 45 0 min 0,000 mm 0,0 UV-I 35 W/m -2,7 C -2,3 C 4,8 km/h (1 Bft) 95,65 %
26.12.2017 09:08 -2,2 C 4,4 C 97 % 1012,8 hPa 0,0 l/m 3,2 km/h (1 Bft) NO 45 0 min 0,000 mm 0,0 UV-I 26 W/m -2,6 C -2,2 C 6,4 km/h (2 Bft) 100,00 %
26.12.2017 09:09 -2,3 C 4,4 C 97 % 1012,7 hPa 0,0 l/m 3,2 km/h (1 Bft) O-NO 67 0 min 0,000 mm 0,0 UV-I 28 W/m -2,7 C -2,3 C 4,8 km/h (1 Bft) 95,65 %
26.12.2017 09:10 -2,3 C 4,4 C 97 % 1012,7 hPa 0,0 l/m 1,6 km/h (1 Bft) O-NO 67 0 min 0,000 mm 0,0 UV-I 29 W/m -2,7 C -2,3 C 3,2 km/h (1 Bft) 100,00 %
26.12.2017 09:11 -2,3 C 4,4 C 97 % 1012,7 hPa 0,0 l/m 0,0 km/h (0 Bft) O-NO 67 0 min 0,000 mm 0,0 UV-I 26 W/m -2,7 C -2,3 C 1,6 km/h (1 Bft) 100,00 %
26.12.2017 09:12 -2,3 C 4,4 C 97 % 1012,6 hPa 0,0 l/m 0,0 km/h (0 Bft) N 0 0 min 0,000 mm 0,0 UV-I 26 W/m -2,7 C -2,3 C 0,0 km/h (0 Bft) 100,00 %
26.12.2017 09:13 -2,3 C 4,4 C 97 % 1012,6 hPa 0,0 l/m 0,0 km/h (0 Bft) O-NO 67 0 min 0,000 mm 0,0 UV-I 30 W/m -2,7 C -2,3 C 1,6 km/h (1 Bft) 100,00 %
26.12.2017 09:14 -2,3 C 4,4 C 97 % 1012,7 hPa 0,0 l/m 3,2 km/h (1 Bft) O-NO 67 0 min 0,000 mm 0,0 UV-I 32 W/m -2,7 C -2,3 C 3,2 km/h (1 Bft) 95,65 %
26.12.2017 09:15 -2,3 C 4,4 C 97 % 1012,7 hPa 0,0 l/m 1,6 km/h (1 Bft) O-NO 67 0 min 0,000 mm 0,0 UV-I 28 W/m -2,7 C -2,3 C 3,2 km/h (1 Bft) 100,00 %
26.12.2017 09:16 -2,3 C 4,4 C 97 % 1012,6 hPa 0,0 l/m 1,6 km/h (1 Bft) O-NO 67 0 min 0,000 mm 0,0 UV-I 33 W/m -2,7 C -2,3 C 4,8 km/h (1 Bft) 100,00 %
26.12.2017 09:17 -2,2 C 4,4 C 97 % 1012,6 hPa 0,0 l/m 4,8 km/h (1 Bft) NO 45 0 min 0,000 mm 0,0 UV-I 33 W/m -2,6 C -2,2 C 6,4 km/h (2 Bft) 100,00 %
26.12.2017 09:18 -2,2 C 4,4 C 97 % 1012,6 hPa 0,0 l/m 3,2 km/h (1 Bft) N-NO 22 0 min 0,000 mm 0,0 UV-I 37 W/m -2,6 C -2,2 C 4,8 km/h (1 Bft) 100,00 %
26.12.2017 09:19 -2,2 C 4,4 C 97 % 1012,6 hPa 0,0 l/m 1,6 km/h (1 Bft) N-NO 22 0 min 0,000 mm 0,0 UV-I 37 W/m -2,6 C -2,2 C 4,8 km/h (1 Bft) 100,00 %
26.12.2017 09:20 -2,2 C 4,4 C 97 % 1012,7 hPa 0,0 l/m 0,0 km/h (0 Bft) N-NO 22 0 min 0,000 mm 0,0 UV-I 40 W/m -2,6 C -2,2 C 4,8 km/h (1 Bft) 100,00 %
26.12.2017 09:21 -2,2 C 4,4 C 97 % 1012,7 hPa 0,0 l/m 0,0 km/h (0 Bft) N 0 0 min 0,000 mm 0,0 UV-I 39 W/m -2,6 C -2,2 C 0,0 km/h (0 Bft) 95,65 %
26.12.2017 09:22 -2,1 C 4,4 C 97 % 1012,7 hPa 0,0 l/m 0,0 km/h (0 Bft) N-NO 22 0 min 0,000 mm 0,0 UV-I 34 W/m -2,5 C -2,1 C 1,6 km/h (1 Bft) 100,00 %
26.12.2017 09:23 -2,2 C 4,4 C 97 % 1012,7 hPa 0,0 l/m 1,6 km/h (1 Bft) N-NO 22 0 min 0,000 mm 0,0 UV-I 37 W/m -2,6 C -2,2 C 3,2 km/h (1 Bft) 100,00 %
26.12.2017 09:24 -2,2 C 4,4 C 97 % 1012,7 hPa 0,0 l/m 0,0 km/h (0 Bft) N-NO 22 0 min 0,000 mm 0,0 UV-I 37 W/m -2,6 C -2,2 C 1,6 km/h (1 Bft) 100,00 %
26.12.2017 09:25 -2,2 C 4,4 C 97 % 1012,7 hPa 0,0 l/m 0,0 km/h (0 Bft) N 0 0 min 0,000 mm 0,0 UV-I 33 W/m -2,6 C -2,2 C 0,0 km/h (0 Bft) 100,00 %
26.12.2017 09:26 -2,2 C 4,4 C 97 % 1012,7 hPa 0,0 l/m 0,0 km/h (0 Bft) N-NO 22 0 min 0,000 mm 0,0 UV-I 33 W/m -2,6 C -2,2 C 1,6 km/h (1 Bft) 100,00 %
26.12.2017 09:27 -2,3 C 4,4 C 97 % 1012,7 hPa 0,0 l/m 3,2 km/h (1 Bft) NO 45 0 min 0,000 mm 0,0 UV-I 33 W/m -2,7 C -2,3 C 4,8 km/h (1 Bft) 91,30 %
26.12.2017 09:28 -2,3 C 4,4 C 97 % 1012,7 hPa 0,0 l/m 3,2 km/h (1 Bft) O 90 0 min 0,000 mm 0,0 UV-I 33 W/m -2,7 C -2,3 C 6,4 km/h (2 Bft) 95,65 %
26.12.2017 09:29 -2,3 C 4,4 C 97 % 1012,7 hPa 0,0 l/m 4,8 km/h (1 Bft) O 90 0 min 0,000 mm 0,0 UV-I 32 W/m -2,7 C -2,3 C 4,8 km/h (1 Bft) 100,00 %
26.12.2017 09:30 -2,3 C 4,4 C 97 % 1012,7 hPa 0,0 l/m 4,8 km/h (1 Bft) O-SO 112 0 min 0,000 mm 0,0 UV-I 32 W/m -2,7 C -2,3 C 6,4 km/h (2 Bft) 100,00 %
26.12.2017 09:31 -2,3 C 4,4 C 97 % 1012,7 hPa 0,0 l/m 3,2 km/h (1 Bft) O-SO 112 0 min 0,000 mm 0,0 UV-I 37 W/m -2,7 C -2,3 C 4,8 km/h (1 Bft) 100,00 %
26.12.2017 09:32 -2,3 C 4,4 C 97 % 1012,7 hPa 0,0 l/m 1,6 km/h (1 Bft) O-SO 112 0 min 0,000 mm 0,0 UV-I 33 W/m -2,7 C -2,3 C 3,2 km/h (1 Bft) 100,00 %
26.12.2017 09:33 -2,3 C 4,4 C 97 % 1012,7 hPa 0,0 l/m 3,2 km/h (1 Bft) O-SO 112 0 min 0,000 mm 0,0 UV-I 33 W/m -2,7 C -2,3 C 4,8 km/h (1 Bft) 100,00 %
26.12.2017 09:34 -2,4 C 4,4 C 97 % 1012,7 hPa 0,0 l/m 1,6 km/h (1 Bft) O-SO 112 0 min 0,000 mm 0,0 UV-I 34 W/m -2,8 C -2,4 C 3,2 km/h (1 Bft) 100,00 %
26.12.2017 09:35 -2,3 C 4,4 C 97 % 1012,7 hPa 0,0 l/m 1,6 km/h (1 Bft) O-SO 112 0 min 0,000 mm 0,0 UV-I 39 W/m -2,7 C -2,3 C 4,8 km/h (1 Bft) 91,30 %
26.12.2017 09:36 -2,4 C 4,4 C 97 % 1012,6 hPa 0,0 l/m 3,2 km/h (1 Bft) O-SO 112 0 min 0,000 mm 0,0 UV-I 39 W/m -2,8 C -2,4 C 3,2 km/h (1 Bft) 100,00 %
26.12.2017 09:37 -2,4 C 4,4 C 97 % 1012,7 hPa 0,0 l/m 0,0 km/h (0 Bft) O-SO 112 0 min 0,000 mm 0,0 UV-I 39 W/m -2,8 C -2,4 C 1,6 km/h (1 Bft) 100,00 %
26.12.2017 09:38 -2,3 C 4,4 C 97 % 1012,6 hPa 0,0 l/m 3,2 km/h (1 Bft) O-SO 112 0 min 0,000 mm 0,0 UV-I 40 W/m -2,7 C -2,3 C 4,8 km/h (1 Bft) 100,00 %
26.12.2017 09:39 -2,3 C 4,4 C 97 % 1012,6 hPa 0,0 l/m 3,2 km/h (1 Bft) O-SO 112 0 min 0,000 mm 0,0 UV-I 44 W/m -2,7 C -2,3 C 4,8 km/h (1 Bft) 100,00 %
26.12.2017 09:40 -2,4 C 4,4 C 97 % 1012,6 hPa 0,0 l/m 1,6 km/h (1 Bft) O-SO 112 0 min 0,000 mm 0,0 UV-I 51 W/m -2,8 C -2,4 C 3,2 km/h (1 Bft) 100,00 %
26.12.2017 09:41 -2,4 C 4,4 C 97 % 1012,6 hPa 0,0 l/m 1,6 km/h (1 Bft) O-SO 112 0 min 0,000 mm 0,0 UV-I 49 W/m -2,8 C -2,4 C 3,2 km/h (1 Bft) 100,00 %
26.12.2017 09:42 -2,4 C 4,4 C 97 % 1012,6 hPa 0,0 l/m 0,0 km/h (0 Bft) N 0 0 min 0,000 mm 0,0 UV-I 47 W/m -2,8 C -2,4 C 0,0 km/h (0 Bft) 95,65 %
26.12.2017 09:43 -2,4 C 4,4 C 97 % 1012,5 hPa 0,0 l/m 0,0 km/h (0 Bft) O-SO 112 0 min 0,000 mm 0,0 UV-I 51 W/m -2,8 C -2,4 C 1,6 km/h (1 Bft) 100,00 %
26.12.2017 09:44 -2,4 C 4,4 C 97 % 1012,5 hPa 0,0 l/m 1,6 km/h (1 Bft) O-SO 112 0 min 0,000 mm 0,0 UV-I 60 W/m -2,8 C -2,4 C 3,2 km/h (1 Bft) 100,00 %
26.12.2017 09:45 -2,4 C 4,4 C 97 % 1012,5 hPa 0,0 l/m 1,6 km/h (1 Bft) O-SO 112 0 min 0,000 mm 0,0 UV-I 51 W/m -2,8 C -2,4 C 3,2 km/h (1 Bft) 95,65 %
26.12.2017 09:46 -2,4 C 4,4 C 97 % 1012,5 hPa 0,0 l/m 0,0 km/h (0 Bft) O-SO 112 0 min 0,000 mm 0,0 UV-I 51 W/m -2,8 C -2,4 C 3,2 km/h (1 Bft) 95,65 %
26.12.2017 09:47 -2,4 C 4,4 C 97 % 1012,5 hPa 0,0 l/m 1,6 km/h (1 Bft) NO 45 0 min 0,000 mm 0,0 UV-I 67 W/m -2,8 C -2,4 C 6,4 km/h (2 Bft) 100,00 %
26.12.2017 09:48 -2,4 C 4,4 C 97 % 1012,5 hPa 0,0 l/m 4,8 km/h (1 Bft) NO 45 0 min 0,000 mm 0,0 UV-I 65 W/m -2,8 C -2,4 C 4,8 km/h (1 Bft) 95,65 %
26.12.2017 09:49 -2,3 C 4,4 C 97 % 1012,5 hPa 0,0 l/m 1,6 km/h (1 Bft) NO 45 0 min 0,000 mm 0,0 UV-I 49 W/m -2,7 C -2,3 C 4,8 km/h (1 Bft) 86,96 %
26.12.2017 09:50 -2,3 C 4,4 C 97 % 1012,5 hPa 0,0 l/m 0,0 km/h (0 Bft) NO 45 0 min 0,000 mm 0,0 UV-I 53 W/m -2,7 C -2,3 C 1,6 km/h (1 Bft) 95,65 %
26.12.2017 09:51 -2,3 C 4,4 C 97 % 1012,5 hPa 0,0 l/m 0,0 km/h (0 Bft) NO 45 0 min 0,000 mm 0,0 UV-I 53 W/m -2,7 C -2,3 C 1,6 km/h (1 Bft) 100,00 %
26.12.2017 09:52 -2,3 C 4,4 C 97 % 1012,5 hPa 0,0 l/m 0,0 km/h (0 Bft) NO 45 0 min 0,000 mm 0,0 UV-I 51 W/m -2,7 C -2,3 C 1,6 km/h (1 Bft) 95,65 %
26.12.2017 09:53 -2,4 C 4,4 C 97 % 1012,5 hPa 0,0 l/m 0,0 km/h (0 Bft) N 0 0 min 0,000 mm 0,0 UV-I 53 W/m -2,8 C -2,4 C 0,0 km/h (0 Bft) 100,00 %
26.12.2017 09:54 -2,4 C 4,4 C 97 % 1012,5 hPa 0,0 l/m 0,0 km/h (0 Bft) N 0 0 min 0,000 mm 0,0 UV-I 53 W/m -2,8 C -2,4 C 0,0 km/h (0 Bft) 95,65 %
26.12.2017 09:55 -2,4 C 4,4 C 97 % 1012,5 hPa 0,0 l/m 0,0 km/h (0 Bft) N 0 0 min 0,000 mm 0,0 UV-I 54 W/m -2,8 C -2,4 C 0,0 km/h (0 Bft) 100,00 %
26.12.2017 09:56 -2,4 C 4,4 C 97 % 1012,5 hPa 0,0 l/m 0,0 km/h (0 Bft) N 0 0 min 0,000 mm 0,0 UV-I 60 W/m -2,8 C -2,4 C 0,0 km/h (0 Bft) 86,96 %
26.12.2017 09:57 -2,4 C 4,4 C 97 % 1012,5 hPa 0,0 l/m 0,0 km/h (0 Bft) N 0 0 min 0,000 mm 0,0 UV-I 65 W/m -2,8 C -2,4 C 0,0 km/h (0 Bft) 100,00 %
26.12.2017 09:58 -2,4 C 4,4 C 97 % 1012,5 hPa 0,0 l/m 0,0 km/h (0 Bft) N 0 0 min 0,000 mm 0,0 UV-I 58 W/m -2,8 C -2,4 C 0,0 km/h (0 Bft) 91,30 %
26.12.2017 09:59 -2,3 C 4,4 C 97 % 1012,4 hPa 0,0 l/m 0,0 km/h (0 Bft) N 0 0 min 0,000 mm 0,0 UV-I 51 W/m -2,7 C -2,3 C 0,0 km/h (0 Bft) 100,00 %
26.12.2017 10:00 -2,3 C 4,4 C 97 % 1012,4 hPa 0,0 l/m 0,0 km/h (0 Bft) N 0 0 min 0,025 mm 0,0 UV-I 42 W/m -2,7 C -2,3 C 0,0 km/h (0 Bft) 95,65 %
26.12.2017 10:01 -2,3 C 4,4 C 97 % 1012,4 hPa 0,0 l/m 0,0 km/h (0 Bft) N 0 0 min 0,000 mm 0,0 UV-I 42 W/m -2,7 C -2,3 C 0,0 km/h (0 Bft) 95,65 %
26.12.2017 10:02 -2,3 C 4,4 C 97 % 1012,4 hPa 0,0 l/m 0,0 km/h (0 Bft) NO 45 0 min 0,000 mm 0,0 UV-I 46 W/m -2,7 C -2,3 C 1,6 km/h (1 Bft) 91,30 %
26.12.2017 10:03 -2,3 C 4,4 C 97 % 1012,4 hPa 0,0 l/m 1,6 km/h (1 Bft) NO 45 0 min 0,000 mm 0,0 UV-I 40 W/m -2,7 C -2,3 C 3,2 km/h (1 Bft) 91,30 %
26.12.2017 10:04 -2,3 C 4,4 C 97 % 1012,4 hPa 0,0 l/m 0,0 km/h (0 Bft) NO 45 0 min 0,000 mm 0,0 UV-I 42 W/m -2,7 C -2,3 C 1,6 km/h (1 Bft) 100,00 %
26.12.2017 10:05 -2,3 C 4,4 C 97 % 1012,3 hPa 0,0 l/m 3,2 km/h (1 Bft) NO 45 0 min 0,000 mm 0,0 UV-I 40 W/m -2,7 C -2,3 C 4,8 km/h (1 Bft) 95,65 %
26.12.2017 10:06 -2,2 C 4,4 C 97 % 1012,3 hPa 0,0 l/m 3,2 km/h (1 Bft) NO 45 0 min 0,000 mm 0,0 UV-I 40 W/m -2,6 C -2,2 C 4,8 km/h (1 Bft) 100,00 %
26.12.2017 10:07 -2,2 C 4,4 C 97 % 1012,3 hPa 0,0 l/m 1,6 km/h (1 Bft) NO 45 0 min 0,000 mm 0,0 UV-I 39 W/m -2,6 C -2,2 C 3,2 km/h (1 Bft) 100,00 %
26.12.2017 10:08 -2,2 C 4,4 C 97 % 1012,3 hPa 0,0 l/m 3,2 km/h (1 Bft) NO 45 0 min 0,000 mm 0,0 UV-I 39 W/m -2,6 C -2,2 C 4,8 km/h (1 Bft) 95,65 %
26.12.2017 10:09 -2,2 C 4,4 C 97 % 1012,3 hPa 0,0 l/m 4,8 km/h (1 Bft) O-NO 67 0 min 0,000 mm 0,0 UV-I 39 W/m -2,6 C -2,2 C 6,4 km/h (2 Bft) 91,30 %
26.12.2017 10:10 -2,2 C 4,4 C 97 % 1012,3 hPa 0,0 l/m 3,2 km/h (1 Bft) O-NO 67 0 min 0,000 mm 0,0 UV-I 39 W/m -2,6 C -2,2 C 4,8 km/h (1 Bft) 95,65 %
26.12.2017 10:11 -2,2 C 4,4 C 97 % 1012,3 hPa 0,0 l/m 3,2 km/h (1 Bft) O-NO 67 0 min 0,000 mm 0,0 UV-I 39 W/m -2,6 C -2,2 C 4,8 km/h (1 Bft) 100,00 %
26.12.2017 10:12 -2,2 C 4,4 C 97 % 1012,3 hPa 0,0 l/m 3,2 km/h (1 Bft) O-NO 67 0 min 0,000 mm 0,0 UV-I 39 W/m -2,6 C -2,2 C 4,8 km/h (1 Bft) 95,65 %
26.12.2017 10:13 -2,2 C 4,4 C 97 % 1012,3 hPa 0,0 l/m 3,2 km/h (1 Bft) O-NO 67 0 min 0,000 mm 0,0 UV-I 39 W/m -2,6 C -2,2 C 4,8 km/h (1 Bft) 100,00 %
26.12.2017 10:14 -2,2 C 4,4 C 97 % 1012,3 hPa 0,0 l/m 3,2 km/h (1 Bft) O-NO 67 0 min 0,000 mm 0,0 UV-I 40 W/m -2,6 C -2,2 C 4,8 km/h (1 Bft) 95,65 %
26.12.2017 10:15 -2,3 C 4,4 C 97 % 1012,3 hPa 0,0 l/m 3,2 km/h (1 Bft) O-NO 67 0 min 0,000 mm 0,0 UV-I 41 W/m -2,7 C -2,3 C 4,8 km/h (1 Bft) 100,00 %
26.12.2017 10:16 -2,3 C 4,4 C 97 % 1012,3 hPa 0,0 l/m 3,2 km/h (1 Bft) O-NO 67 0 min 0,000 mm 0,0 UV-I 44 W/m -2,7 C -2,3 C 4,8 km/h (1 Bft) 100,00 %
26.12.2017 10:17 -2,3 C 4,4 C 97 % 1012,3 hPa 0,0 l/m 4,8 km/h (1 Bft) O-NO 67 0 min 0,000 mm 0,0 UV-I 39 W/m -2,7 C -2,3 C 6,4 km/h (2 Bft) 95,65 %
26.12.2017 10:18 -2,3 C 4,4 C 97 % 1012,2 hPa 0,0 l/m 4,8 km/h (1 Bft) O-NO 67 0 min 0,000 mm 0,0 UV-I 37 W/m -2,7 C -2,3 C 6,4 km/h (2 Bft) 100,00 %
26.12.2017 10:19 -2,3 C 4,4 C 97 % 1012,2 hPa 0,0 l/m 3,2 km/h (1 Bft) O-NO 67 0 min 0,000 mm 0,0 UV-I 39 W/m -2,7 C -2,3 C 4,8 km/h (1 Bft) 95,65 %
26.12.2017 10:20 -2,3 C 4,4 C 97 % 1012,2 hPa 0,0 l/m 4,8 km/h (1 Bft) O-NO 67 0 min 0,000 mm 0,0 UV-I 40 W/m -2,7 C -2,3 C 4,8 km/h (1 Bft) 100,00 %
26.12.2017 10:21 -2,3 C 4,4 C 97 % 1012,2 hPa 0,0 l/m 6,4 km/h (2 Bft) O-NO 67 0 min 0,000 mm 0,0 UV-I 38 W/m -2,7 C -2,3 C 8,0 km/h (2 Bft) 100,00 %
26.12.2017 10:22 -2,3 C 4,4 C 97 % 1012,2 hPa 0,0 l/m 8,0 km/h (2 Bft) O-NO 67 0 min 0,000 mm 0,0 UV-I 40 W/m -2,7 C -4,1 C 12,9 km/h (3 Bft) 100,00 %
26.12.2017 10:23 -2,4 C 4,4 C 97 % 1012,2 hPa 0,0 l/m 6,4 km/h (2 Bft) NO 45 0 min 0,000 mm 0,0 UV-I 47 W/m -2,8 C -2,4 C 12,9 km/h (3 Bft) 100,00 %
26.12.2017 10:24 -2,4 C 4,4 C 97 % 1012,2 hPa 0,0 l/m 6,4 km/h (2 Bft) O-NO 67 0 min 0,000 mm 0,0 UV-I 44 W/m -2,8 C -2,4 C 11,3 km/h (2 Bft) 95,65 %
26.12.2017 10:25 -2,4 C 4,4 C 97 % 1012,2 hPa 0,0 l/m 6,4 km/h (2 Bft) O-NO 67 0 min 0,000 mm 0,0 UV-I 46 W/m -2,8 C -2,4 C 11,3 km/h (2 Bft) 95,65 %
26.12.2017 10:26 -2,4 C 4,4 C 97 % 1012,1 hPa 0,0 l/m 4,8 km/h (1 Bft) O 90 0 min 0,000 mm 0,0 UV-I 47 W/m -2,8 C -2,4 C 6,4 km/h (2 Bft) 95,65 %
26.12.2017 10:27 -2,3 C 4,4 C 97 % 1012,1 hPa 0,0 l/m 4,8 km/h (1 Bft) O 90 0 min 0,000 mm 0,0 UV-I 50 W/m -2,7 C -2,3 C 6,4 km/h (2 Bft) 100,00 %
26.12.2017 10:28 -2,3 C 4,4 C 97 % 1012,0 hPa 0,0 l/m 4,8 km/h (1 Bft) O-NO 67 0 min 0,000 mm 0,0 UV-I 53 W/m -2,7 C -2,3 C 6,4 km/h (2 Bft) 91,30 %
26.12.2017 10:29 -2,3 C 4,4 C 97 % 1012,0 hPa 0,0 l/m 6,4 km/h (2 Bft) SO 135 0 min 0,000 mm 0,0 UV-I 40 W/m -2,7 C -2,3 C 6,4 km/h (2 Bft) 100,00 %
26.12.2017 10:30 -2,3 C 4,4 C 97 % 1012,0 hPa 0,0 l/m 4,8 km/h (1 Bft) SO 135 0 min 0,000 mm 0,0 UV-I 40 W/m -2,7 C -2,3 C 6,4 km/h (2 Bft) 95,65 %
26.12.2017 10:31 -2,3 C 4,4 C 97 % 1012,0 hPa 0,0 l/m 4,8 km/h (1 Bft) O-SO 112 0 min 0,000 mm 0,0 UV-I 58 W/m -2,7 C -2,3 C 6,4 km/h (2 Bft) 95,65 %
26.12.2017 10:32 -2,3 C 4,4 C 97 % 1012,1 hPa 0,0 l/m 3,2 km/h (1 Bft) O-SO 112 0 min 0,000 mm 0,0 UV-I 54 W/m -2,7 C -2,3 C 4,8 km/h (1 Bft) 95,65 %
26.12.2017 10:33 -2,3 C 4,4 C 97 % 1012,1 hPa 0,0 l/m 3,2 km/h (1 Bft) O 90 0 min 0,000 mm 0,0 UV-I 42 W/m -2,7 C -2,3 C 4,8 km/h (1 Bft) 100,00 %
26.12.2017 10:34 -2,3 C 4,4 C 97 % 1012,1 hPa 0,0 l/m 3,2 km/h (1 Bft) O 90 0 min 0,000 mm 0,0 UV-I 44 W/m -2,7 C -2,3 C 6,4 km/h (2 Bft) 95,65 %
26.12.2017 10:35 -2,3 C 4,4 C 97 % 1012,0 hPa 0,0 l/m 3,2 km/h (1 Bft) O-NO 67 0 min 0,000 mm 0,0 UV-I 47 W/m -2,7 C -2,3 C 6,4 km/h (2 Bft) 95,65 %
26.12.2017 10:36 -2,2 C 4,4 C 97 % 1012,0 hPa 0,0 l/m 8,0 km/h (2 Bft) O 90 0 min 0,000 mm 0,0 UV-I 58 W/m -2,6 C -4,0 C 11,3 km/h (2 Bft) 100,00 %
26.12.2017 10:37 -2,3 C 4,4 C 97 % 1012,0 hPa 0,0 l/m 6,4 km/h (2 Bft) O-SO 112 0 min 0,000 mm 0,0 UV-I 62 W/m -2,7 C -2,3 C 11,3 km/h (2 Bft) 95,65 %
26.12.2017 10:38 -2,3 C 4,4 C 97 % 1012,0 hPa 0,0 l/m 6,4 km/h (2 Bft) O-SO 112 0 min 0,000 mm 0,0 UV-I 69 W/m -2,7 C -2,3 C 9,7 km/h (2 Bft) 95,65 %
26.12.2017 10:39 -2,3 C 4,4 C 97 % 1012,0 hPa 0,0 l/m 4,8 km/h (1 Bft) O-NO 67 0 min 0,000 mm 0,0 UV-I 93 W/m -2,7 C -2,3 C 8,0 km/h (2 Bft) 95,65 %
26.12.2017 10:40 -2,3 C 4,4 C 97 % 1012,0 hPa 0,0 l/m 4,8 km/h (1 Bft) O 90 0 min 0,000 mm 0,0 UV-I 95 W/m -2,7 C -2,3 C 6,4 km/h (2 Bft) 100,00 %
26.12.2017 10:41 -2,3 C 4,4 C 97 % 1012,0 hPa 0,0 l/m 6,4 km/h (2 Bft) O-SO 112 0 min 0,000 mm 0,0 UV-I 98 W/m -2,7 C -2,3 C 9,7 km/h (2 Bft) 95,65 %
26.12.2017 10:42 -2,3 C 4,4 C 97 % 1012,0 hPa 0,0 l/m 4,8 km/h (1 Bft) O-SO 112 0 min 0,000 mm 0,0 UV-I 95 W/m -2,7 C -2,3 C 6,4 km/h (2 Bft) 95,65 %
26.12.2017 10:43 -2,3 C 4,4 C 97 % 1012,0 hPa 0,0 l/m 1,6 km/h (1 Bft) O-SO 112 0 min 0,000 mm 0,0 UV-I 90 W/m -2,7 C -2,3 C 4,8 km/h (1 Bft) 95,65 %
26.12.2017 10:44 -2,3 C 4,4 C 97 % 1012,1 hPa 0,0 l/m 0,0 km/h (0 Bft) O-SO 112 0 min 0,000 mm 0,0 UV-I 86 W/m -2,7 C -2,3 C 1,6 km/h (1 Bft) 95,65 %
26.12.2017 10:45 -2,3 C 4,4 C 97 % 1012,2 hPa 0,0 l/m 0,0 km/h (0 Bft) O-SO 112 0 min 0,000 mm 0,0 UV-I 91 W/m -2,7 C -2,3 C 1,6 km/h (1 Bft) 91,30 %
26.12.2017 10:46 -2,3 C 4,4 C 97 % 1012,2 hPa 0,0 l/m 0,0 km/h (0 Bft) N 0 0 min 0,000 mm 0,0 UV-I 93 W/m -2,7 C -2,3 C 0,0 km/h (0 Bft) 95,65 %
26.12.2017 10:47 -2,2 C 4,4 C 97 % 1012,2 hPa 0,0 l/m 4,8 km/h (1 Bft) NO 45 0 min 0,000 mm 0,0 UV-I 83 W/m -2,6 C -2,2 C 8,0 km/h (2 Bft) 100,00 %
26.12.2017 10:48 -2,2 C 4,4 C 97 % 1012,2 hPa 0,0 l/m 6,4 km/h (2 Bft) NO 45 0 min 0,000 mm 0,0 UV-I 84 W/m -2,6 C -2,2 C 8,0 km/h (2 Bft) 95,65 %
26.12.2017 10:49 -2,2 C 4,4 C 97 % 1012,2 hPa 0,0 l/m 4,8 km/h (1 Bft) NO 45 0 min 0,000 mm 0,0 UV-I 91 W/m -2,6 C -2,2 C 6,4 km/h (2 Bft) 100,00 %
26.12.2017 10:50 -2,1 C 4,4 C 97 % 1012,2 hPa 0,0 l/m 6,4 km/h (2 Bft) NO 45 0 min 0,000 mm 0,0 UV-I 91 W/m -2,5 C -2,1 C 6,4 km/h (2 Bft) 91,30 %
26.12.2017 10:51 -2,1 C 4,4 C 97 % 1012,1 hPa 0,0 l/m 6,4 km/h (2 Bft) NO 45 0 min 0,000 mm 0,0 UV-I 86 W/m -2,5 C -2,1 C 8,0 km/h (2 Bft) 95,65 %
26.12.2017 10:52 -2,1 C 4,4 C 97 % 1012,1 hPa 0,0 l/m 4,8 km/h (1 Bft) O-NO 67 0 min 0,000 mm 0,0 UV-I 93 W/m -2,5 C -2,1 C 6,4 km/h (2 Bft) 95,65 %
26.12.2017 10:53 -2,2 C 4,4 C 97 % 1012,1 hPa 0,0 l/m 3,2 km/h (1 Bft) O-NO 67 0 min 0,000 mm 0,0 UV-I 97 W/m -2,6 C -2,2 C 4,8 km/h (1 Bft) 91,30 %
26.12.2017 10:54 -2,2 C 4,4 C 97 % 1012,1 hPa 0,0 l/m 6,4 km/h (2 Bft) O-NO 67 0 min 0,000 mm 0,0 UV-I 105 W/m -2,6 C -2,2 C 6,4 km/h (2 Bft) 100,00 %
26.12.2017 10:55 -2,2 C 4,4 C 97 % 1012,0 hPa 0,0 l/m 4,8 km/h (1 Bft) O-NO 67 0 min 0,000 mm 0,0 UV-I 105 W/m -2,6 C -2,2 C 8,0 km/h (2 Bft) 95,65 %
26.12.2017 10:56 -2,2 C 4,4 C 97 % 1012,0 hPa 0,0 l/m 3,2 km/h (1 Bft) O-NO 67 0 min 0,000 mm 0,0 UV-I 97 W/m -2,6 C -2,2 C 6,4 km/h (2 Bft) 100,00 %
26.12.2017 10:57 -2,2 C 4,4 C 97 % 1012,0 hPa 0,0 l/m 6,4 km/h (2 Bft) NO 45 0 min 0,000 mm 0,0 UV-I 90 W/m -2,6 C -2,2 C 8,0 km/h (2 Bft) 95,65 %
26.12.2017 10:58 -2,2 C 4,4 C 97 % 1012,0 hPa 0,0 l/m 4,8 km/h (1 Bft) NO 45 0 min 0,000 mm 0,0 UV-I 79 W/m -2,6 C -2,2 C 6,4 km/h (2 Bft) 100,00 %
26.12.2017 10:59 -2,2 C 4,4 C 97 % 1012,0 hPa 0,0 l/m 4,8 km/h (1 Bft) NO 45 0 min 0,000 mm 0,0 UV-I 91 W/m -2,6 C -2,2 C 6,4 km/h (2 Bft) 91,30 %
26.12.2017 11:00 -2,2 C 4,4 C 97 % 1012,1 hPa 0,0 l/m 1,6 km/h (1 Bft) NO 45 0 min 0,025 mm 0,0 UV-I 90 W/m -2,6 C -2,2 C 3,2 km/h (1 Bft) 100,00 %
26.12.2017 11:01 -2,2 C 4,4 C 97 % 1012,2 hPa 0,0 l/m 0,0 km/h (0 Bft) NO 45 0 min 0,000 mm 0,0 UV-I 88 W/m -2,6 C -2,2 C 1,6 km/h (1 Bft) 95,65 %
26.12.2017 11:02 -2,2 C 4,4 C 97 % 1012,1 hPa 0,0 l/m 0,0 km/h (0 Bft) NO 45 0 min 0,000 mm 0,0 UV-I 85 W/m -2,6 C -2,2 C 1,6 km/h (1 Bft) 95,65 %
26.12.2017 11:03 -2,2 C 4,4 C 97 % 1012,2 hPa 0,0 l/m 0,0 km/h (0 Bft) NO 45 0 min 0,000 mm 0,0 UV-I 88 W/m -2,6 C -2,2 C 3,2 km/h (1 Bft) 100,00 %
26.12.2017 11:04 -2,2 C 4,4 C 97 % 1012,2 hPa 0,0 l/m 0,0 km/h (0 Bft) NO 45 0 min 0,000 mm 0,0 UV-I 79 W/m -2,6 C -2,2 C 1,6 km/h (1 Bft) 91,30 %
26.12.2017 11:05 -2,2 C 4,4 C 97 % 1012,2 hPa 0,0 l/m 0,0 km/h (0 Bft) NO 45 0 min 0,000 mm 0,0 UV-I 74 W/m -2,6 C -2,2 C 1,6 km/h (1 Bft) 95,65 %
26.12.2017 11:06 -2,2 C 4,4 C 97 % 1012,2 hPa 0,0 l/m 1,6 km/h (1 Bft) NO 45 0 min 0,000 mm 0,0 UV-I 76 W/m -2,6 C -2,2 C 1,6 km/h (1 Bft) 95,65 %
26.12.2017 11:07 -2,2 C 4,4 C 97 % 1012,2 hPa 0,0 l/m 0,0 km/h (0 Bft) NO 45 0 min 0,000 mm 0,0 UV-I 86 W/m -2,6 C -2,2 C 1,6 km/h (1 Bft) 95,65 %
26.12.2017 11:08 -2,2 C 4,4 C 97 % 1012,2 hPa 0,0 l/m 0,0 km/h (0 Bft) NO 45 0 min 0,000 mm 0,0 UV-I 97 W/m -2,6 C -2,2 C 1,6 km/h (1 Bft) 95,65 %
26.12.2017 11:09 -2,2 C 4,4 C 97 % 1012,2 hPa 0,0 l/m 0,0 km/h (0 Bft) N 0 0 min 0,000 mm 0,0 UV-I 98 W/m -2,6 C -2,2 C 0,0 km/h (0 Bft) 95,65 %
26.12.2017 11:10 -2,2 C 4,4 C 97 % 1012,2 hPa 0,0 l/m 0,0 km/h (0 Bft) N 0 0 min 0,000 mm 0,0 UV-I 109 W/m -2,6 C -2,2 C 0,0 km/h (0 Bft) 100,00 %
26.12.2017 11:11 -2,2 C 4,4 C 97 % 1012,2 hPa 0,0 l/m 0,0 km/h (0 Bft) N 0 0 min 0,000 mm 0,0 UV-I 114 W/m -2,6 C -2,2 C 0,0 km/h (0 Bft) 95,65 %
26.12.2017 11:12 -2,1 C 4,4 C 97 % 1012,2 hPa 0,0 l/m 0,0 km/h (0 Bft) N 0 0 min 0,000 mm 0,0 UV-I 111 W/m -2,5 C -2,1 C 0,0 km/h (0 Bft) 100,00 %
26.12.2017 11:13 -2,2 C 4,4 C 97 % 1012,1 hPa 0,0 l/m 0,0 km/h (0 Bft) N 0 0 min 0,000 mm 0,0 UV-I 100 W/m -2,6 C -2,2 C 0,0 km/h (0 Bft) 91,30 %
26.12.2017 11:14 -2,1 C 4,4 C 97 % 1012,1 hPa 0,0 l/m 0,0 km/h (0 Bft) NO 45 0 min 0,000 mm 0,0 UV-I 100 W/m -2,5 C -2,1 C 1,6 km/h (1 Bft) 100,00 %
26.12.2017 11:15 -2,2 C 4,4 C 97 % 1012,1 hPa 0,0 l/m 1,6 km/h (1 Bft) NO 45 0 min 0,000 mm 0,0 UV-I 97 W/m -2,6 C -2,2 C 3,2 km/h (1 Bft) 95,65 %
26.12.2017 11:16 -2,2 C 4,4 C 97 % 1012,1 hPa 0,0 l/m 3,2 km/h (1 Bft) NO 45 0 min 0,000 mm 0,0 UV-I 93 W/m -2,6 C -2,2 C 4,8 km/h (1 Bft) 100,00 %
26.12.2017 11:17 -2,2 C 4,4 C 97 % 1012,1 hPa 0,0 l/m 0,0 km/h (0 Bft) NO 45 0 min 0,000 mm 0,0 UV-I 100 W/m -2,6 C -2,2 C 1,6 km/h (1 Bft) 95,65 %
26.12.2017 11:18 -2,1 C 4,4 C 97 % 1012,1 hPa 0,0 l/m 0,0 km/h (0 Bft) N 0 0 min 0,000 mm 0,0 UV-I 109 W/m -2,5 C -2,1 C 0,0 km/h (0 Bft) 95,65 %
26.12.2017 11:19 -2,2 C 4,4 C 97 % 1012,0 hPa 0,0 l/m 0,0 km/h (0 Bft) NO 45 0 min 0,000 mm 0,0 UV-I 105 W/m -2,6 C -2,2 C 1,6 km/h (1 Bft) 95,65 %
26.12.2017 11:20 -2,2 C 4,4 C 97 % 1012,0 hPa 0,0 l/m 0,0 km/h (0 Bft) NO 45 0 min 0,000 mm 0,0 UV-I 113 W/m -2,6 C -2,2 C 1,6 km/h (1 Bft) 91,30 %
26.12.2017 11:21 -2,1 C 4,4 C 97 % 1012,0 hPa 0,0 l/m 3,2 km/h (1 Bft) NO 45 0 min 0,000 mm 0,0 UV-I 120 W/m -2,5 C -2,1 C 4,8 km/h (1 Bft) 95,65 %
26.12.2017 11:22 -2,1 C 4,4 C 97 % 1012,0 hPa 0,0 l/m 4,8 km/h (1 Bft) NO 45 0 min 0,000 mm 0,0 UV-I 123 W/m -2,5 C -2,1 C 6,4 km/h (2 Bft) 95,65 %
26.12.2017 11:23 -2,0 C 4,4 C 97 % 1011,9 hPa 0,0 l/m 6,4 km/h (2 Bft) NO 45 0 min 0,000 mm 0,0 UV-I 125 W/m -2,4 C -2,0 C 8,0 km/h (2 Bft) 100,00 %
26.12.2017 11:24 -1,9 C 4,4 C 97 % 1011,9 hPa 0,0 l/m 3,2 km/h (1 Bft) NO 45 0 min 0,000 mm 0,0 UV-I 127 W/m -2,3 C -1,9 C 4,8 km/h (1 Bft) 95,65 %
26.12.2017 11:25 -1,9 C 4,4 C 97 % 1011,8 hPa 0,0 l/m 3,2 km/h (1 Bft) NO 45 0 min 0,000 mm 0,0 UV-I 121 W/m -2,3 C -1,9 C 6,4 km/h (2 Bft) 100,00 %
26.12.2017 11:26 -1,9 C 4,4 C 97 % 1011,8 hPa 0,0 l/m 3,2 km/h (1 Bft) NO 45 0 min 0,000 mm 0,0 UV-I 120 W/m -2,3 C -1,9 C 4,8 km/h (1 Bft) 100,00 %
26.12.2017 11:27 -1,9 C 4,4 C 97 % 1011,8 hPa 0,0 l/m 4,8 km/h (1 Bft) NO 45 0 min 0,000 mm 0,0 UV-I 118 W/m -2,3 C -1,9 C 6,4 km/h (2 Bft) 95,65 %
26.12.2017 11:28 -1,8 C 4,4 C 97 % 1011,8 hPa 0,0 l/m 3,2 km/h (1 Bft) NO 45 0 min 0,000 mm 0,0 UV-I 127 W/m -2,2 C -1,8 C 4,8 km/h (1 Bft) 100,00 %
26.12.2017 11:29 -1,8 C 4,4 C 98 % 1011,9 hPa 0,0 l/m 4,8 km/h (1 Bft) N-NO 22 0 min 0,000 mm 0,0 UV-I 127 W/m -2,1 C -1,8 C 8,0 km/h (2 Bft) 100,00 %
26.12.2017 11:30 -1,8 C 4,4 C 98 % 1011,9 hPa 0,0 l/m 3,2 km/h (1 Bft) N-NO 22 0 min 0,000 mm 0,0 UV-I 120 W/m -2,1 C -1,8 C 4,8 km/h (1 Bft) 95,65 %
26.12.2017 11:31 -1,8 C 4,4 C 98 % 1011,8 hPa 0,0 l/m 3,2 km/h (1 Bft) N-NO 22 0 min 0,000 mm 0,0 UV-I 122 W/m -2,1 C -1,8 C 8,0 km/h (2 Bft) 100,00 %
26.12.2017 11:32 -1,8 C 4,4 C 98 % 1011,8 hPa 0,0 l/m 3,2 km/h (1 Bft) N-NO 22 0 min 0,000 mm 0,0 UV-I 127 W/m -2,1 C -1,8 C 6,4 km/h (2 Bft) 100,00 %
26.12.2017 11:33 -1,8 C 4,4 C 98 % 1011,8 hPa 0,0 l/m 3,2 km/h (1 Bft) N-NO 22 0 min 0,000 mm 0,0 UV-I 127 W/m -2,1 C -1,8 C 4,8 km/h (1 Bft) 95,65 %
26.12.2017 11:34 -1,8 C 4,4 C 98 % 1011,8 hPa 0,0 l/m 3,2 km/h (1 Bft) N-NO 22 0 min 0,000 mm 0,0 UV-I 118 W/m -2,1 C -1,8 C 6,4 km/h (2 Bft) 95,65 %
26.12.2017 11:35 -1,8 C 4,4 C 98 % 1011,8 hPa 0,0 l/m 3,2 km/h (1 Bft) N-NO 22 0 min 0,000 mm 0,0 UV-I 111 W/m -2,1 C -1,8 C 4,8 km/h (1 Bft) 100,00 %
26.12.2017 11:36 -1,8 C 4,4 C 98 % 1011,8 hPa 0,0 l/m 3,2 km/h (1 Bft) N-NO 22 0 min 0,000 mm 0,0 UV-I 114 W/m -2,1 C -1,8 C 6,4 km/h (2 Bft) 100,00 %
26.12.2017 11:37 -1,8 C 4,4 C 98 % 1011,8 hPa 0,0 l/m 3,2 km/h (1 Bft) N-NO 22 0 min 0,000 mm 0,0 UV-I 111 W/m -2,1 C -1,8 C 6,4 km/h (2 Bft) 100,00 %
26.12.2017 11:38 -1,8 C 4,4 C 98 % 1011,7 hPa 0,0 l/m 6,4 km/h (2 Bft) O-NO 67 0 min 0,000 mm 0,0 UV-I 118 W/m -2,1 C -1,8 C 6,4 km/h (2 Bft) 100,00 %
26.12.2017 11:39 -1,8 C 4,4 C 98 % 1011,7 hPa 0,0 l/m 4,8 km/h (1 Bft) NO 45 0 min 0,000 mm 0,0 UV-I 132 W/m -2,1 C -1,8 C 6,4 km/h (2 Bft) 100,00 %
26.12.2017 11:40 -1,8 C 4,4 C 98 % 1011,6 hPa 0,0 l/m 3,2 km/h (1 Bft) NO 45 0 min 0,000 mm 0,0 UV-I 146 W/m -2,1 C -1,8 C 4,8 km/h (1 Bft) 91,30 %
26.12.2017 11:41 -1,8 C 4,4 C 98 % 1011,6 hPa 0,0 l/m 3,2 km/h (1 Bft) NO 45 0 min 0,000 mm 0,0 UV-I 146 W/m -2,1 C -1,8 C 4,8 km/h (1 Bft) 91,30 %
26.12.2017 11:42 -1,8 C 4,4 C 98 % 1011,6 hPa 0,0 l/m 1,6 km/h (1 Bft) NO 45 0 min 0,000 mm 0,0 UV-I 151 W/m -2,1 C -1,8 C 3,2 km/h (1 Bft) 100,00 %
26.12.2017 11:43 -1,8 C 4,4 C 98 % 1011,6 hPa 0,0 l/m 1,6 km/h (1 Bft) NO 45 0 min 0,000 mm 0,0 UV-I 159 W/m -2,1 C -1,8 C 3,2 km/h (1 Bft) 100,00 %
26.12.2017 11:44 -1,8 C 4,4 C 98 % 1011,6 hPa 0,0 l/m 0,0 km/h (0 Bft) NO 45 0 min 0,000 mm 0,0 UV-I 141 W/m -2,1 C -1,8 C 1,6 km/h (1 Bft) 100,00 %
26.12.2017 11:45 -1,8 C 4,4 C 98 % 1011,6 hPa 0,0 l/m 0,0 km/h (0 Bft) NO 45 0 min 0,000 mm 0,0 UV-I 132 W/m -2,1 C -1,8 C 1,6 km/h (1 Bft) 100,00 %
26.12.2017 11:46 -1,8 C 4,4 C 98 % 1011,6 hPa 0,0 l/m 1,6 km/h (1 Bft) NO 45 0 min 0,000 mm 0,0 UV-I 130 W/m -2,1 C -1,8 C 3,2 km/h (1 Bft) 95,65 %
26.12.2017 11:47 -1,7 C 4,4 C 98 % 1011,6 hPa 0,0 l/m 3,2 km/h (1 Bft) NO 45 0 min 0,000 mm 0,0 UV-I 139 W/m -2,0 C -1,7 C 6,4 km/h (2 Bft) 100,00 %
26.12.2017 11:48 -1,7 C 4,4 C 97 % 1011,5 hPa 0,0 l/m 3,2 km/h (1 Bft) NO 45 0 min 0,000 mm 0,0 UV-I 146 W/m -2,1 C -1,7 C 4,8 km/h (1 Bft) 91,30 %
26.12.2017 11:49 -1,7 C 4,4 C 97 % 1011,5 hPa 0,0 l/m 3,2 km/h (1 Bft) NO 45 0 min 0,000 mm 0,0 UV-I 137 W/m -2,1 C -1,7 C 3,2 km/h (1 Bft) 95,65 %
26.12.2017 11:50 -1,7 C 4,4 C 97 % 1011,5 hPa 0,0 l/m 3,2 km/h (1 Bft) NO 45 0 min 0,000 mm 0,0 UV-I 135 W/m -2,1 C -1,7 C 4,8 km/h (1 Bft) 95,65 %
26.12.2017 11:51 -1,7 C 4,4 C 97 % 1011,5 hPa 0,0 l/m 4,8 km/h (1 Bft) NO 45 0 min 0,000 mm 0,0 UV-I 125 W/m -2,1 C -1,7 C 6,4 km/h (2 Bft) 100,00 %
26.12.2017 11:52 -1,7 C 4,4 C 97 % 1011,5 hPa 0,0 l/m 3,2 km/h (1 Bft) NO 45 0 min 0,000 mm 0,0 UV-I 118 W/m -2,1 C -1,7 C 4,8 km/h (1 Bft) 95,65 %
26.12.2017 11:53 -1,7 C 4,4 C 97 % 1011,4 hPa 0,0 l/m 6,4 km/h (2 Bft) O-NO 67 0 min 0,000 mm 0,0 UV-I 118 W/m -2,1 C -1,7 C 6,4 km/h (2 Bft) 100,00 %
26.12.2017 11:54 -1,8 C 4,4 C 98 % 1011,4 hPa 0,0 l/m 4,8 km/h (1 Bft) O-NO 67 0 min 0,000 mm 0,0 UV-I 118 W/m -2,1 C -1,8 C 6,4 km/h (2 Bft) 100,00 %
26.12.2017 11:55 -1,8 C 4,4 C 98 % 1011,4 hPa 0,0 l/m 3,2 km/h (1 Bft) O-NO 67 0 min 0,000 mm 0,0 UV-I 118 W/m -2,1 C -1,8 C 4,8 km/h (1 Bft) 95,65 %
26.12.2017 11:56 -1,8 C 4,4 C 98 % 1011,4 hPa 0,0 l/m 4,8 km/h (1 Bft) O-NO 67 0 min 0,000 mm 0,0 UV-I 114 W/m -2,1 C -1,8 C 6,4 km/h (2 Bft) 100,00 %
26.12.2017 11:57 -1,9 C 4,4 C 98 % 1011,4 hPa 0,0 l/m 3,2 km/h (1 Bft) O-NO 67 0 min 0,000 mm 0,0 UV-I 116 W/m -2,2 C -1,9 C 6,4 km/h (2 Bft) 100,00 %
26.12.2017 11:58 -1,9 C 4,4 C 97 % 1011,4 hPa 0,0 l/m 4,8 km/h (1 Bft) O-NO 67 0 min 0,000 mm 0,0 UV-I 118 W/m -2,3 C -1,9 C 6,4 km/h (2 Bft) 100,00 %
26.12.2017 11:59 -1,9 C 4,4 C 98 % 1011,3 hPa 0,0 l/m 3,2 km/h (1 Bft) O-NO 67 0 min 0,000 mm 0,0 UV-I 120 W/m -2,2 C -1,9 C 3,2 km/h (1 Bft) 95,65 %
26.12.2017 12:00 -1,8 C 4,4 C 98 % 1011,3 hPa 0,0 l/m 1,6 km/h (1 Bft) O-NO 67 0 min 0,025 mm 0,0 UV-I 120 W/m -2,1 C -1,8 C 3,2 km/h (1 Bft) 95,65 %
26.12.2017 12:01 -1,8 C 4,4 C 98 % 1011,3 hPa 0,0 l/m 1,6 km/h (1 Bft) O-NO 67 0 min 0,000 mm 0,0 UV-I 125 W/m -2,1 C -1,8 C 3,2 km/h (1 Bft) 100,00 %
26.12.2017 12:02 -1,8 C 4,4 C 98 % 1011,3 hPa 0,0 l/m 3,2 km/h (1 Bft) O-NO 67 0 min 0,000 mm 0,0 UV-I 120 W/m -2,1 C -1,8 C 4,8 km/h (1 Bft) 95,65 %
26.12.2017 12:03 -1,8 C 4,4 C 98 % 1011,3 hPa 0,0 l/m 1,6 km/h (1 Bft) O-NO 67 0 min 0,000 mm 0,0 UV-I 116 W/m -2,1 C -1,8 C 3,2 km/h (1 Bft) 100,00 %
26.12.2017 12:04 -1,8 C 4,4 C 98 % 1011,4 hPa 0,0 l/m 1,6 km/h (1 Bft) O-NO 67 0 min 0,000 mm 0,0 UV-I 105 W/m -2,1 C -1,8 C 3,2 km/h (1 Bft) 100,00 %
26.12.2017 12:05 -1,8 C 4,4 C 98 % 1011,3 hPa 0,0 l/m 3,2 km/h (1 Bft) O-NO 67 0 min 0,000 mm 0,0 UV-I 111 W/m -2,1 C -1,8 C 3,2 km/h (1 Bft) 100,00 %
26.12.2017 12:06 -1,8 C 4,4 C 98 % 1011,3 hPa 0,0 l/m 0,0 km/h (0 Bft) O-NO 67 0 min 0,000 mm 0,0 UV-I 120 W/m -2,1 C -1,8 C 1,6 km/h (1 Bft) 100,00 %
26.12.2017 12:07 -1,8 C 4,4 C 98 % 1011,2 hPa 0,0 l/m 1,6 km/h (1 Bft) O-NO 67 0 min 0,000 mm 0,0 UV-I 118 W/m -2,1 C -1,8 C 3,2 km/h (1 Bft) 100,00 %
26.12.2017 12:08 -1,8 C 4,4 C 98 % 1011,3 hPa 0,0 l/m 1,6 km/h (1 Bft) O-NO 67 0 min 0,000 mm 0,0 UV-I 121 W/m -2,1 C -1,8 C 4,8 km/h (1 Bft) 100,00 %
26.12.2017 12:09 -1,8 C 4,4 C 98 % 1011,3 hPa 0,0 l/m 0,0 km/h (0 Bft) O-NO 67 0 min 0,000 mm 0,0 UV-I 121 W/m -2,1 C -1,8 C 1,6 km/h (1 Bft) 95,65 %
26.12.2017 12:10 -1,8 C 4,4 C 98 % 1011,3 hPa 0,0 l/m 0,0 km/h (0 Bft) N 0 0 min 0,000 mm 0,0 UV-I 130 W/m -2,1 C -1,8 C 0,0 km/h (0 Bft) 100,00 %
26.12.2017 12:11 -1,8 C 4,4 C 98 % 1011,3 hPa 0,0 l/m 0,0 km/h (0 Bft) O-NO 67 0 min 0,000 mm 0,0 UV-I 134 W/m -2,1 C -1,8 C 1,6 km/h (1 Bft) 100,00 %
26.12.2017 12:12 -1,8 C 4,4 C 98 % 1011,3 hPa 0,0 l/m 0,0 km/h (0 Bft) O-NO 67 0 min 0,000 mm 0,0 UV-I 128 W/m -2,1 C -1,8 C 1,6 km/h (1 Bft) 100,00 %
26.12.2017 12:13 -1,8 C 4,4 C 98 % 1011,3 hPa 0,0 l/m 0,0 km/h (0 Bft) O-NO 67 0 min 0,000 mm 0,0 UV-I 125 W/m -2,1 C -1,8 C 1,6 km/h (1 Bft) 100,00 %
26.12.2017 12:14 -1,8 C 4,4 C 98 % 1011,3 hPa 0,0 l/m 0,0 km/h (0 Bft) N 0 0 min 0,000 mm 0,0 UV-I 132 W/m -2,1 C -1,8 C 0,0 km/h (0 Bft) 100,00 %
26.12.2017 12:15 -1,8 C 4,4 C 98 % 1011,3 hPa 0,0 l/m 1,6 km/h (1 Bft) O-NO 67 0 min 0,000 mm 0,0 UV-I 132 W/m -2,1 C -1,8 C 3,2 km/h (1 Bft) 100,00 %
26.12.2017 12:16 -1,8 C 4,4 C 98 % 1011,3 hPa 0,0 l/m 1,6 km/h (1 Bft) O-NO 67 0 min 0,000 mm 0,0 UV-I 123 W/m -2,1 C -1,8 C 3,2 km/h (1 Bft) 95,65 %
26.12.2017 12:17 -1,7 C 4,4 C 98 % 1011,3 hPa 0,0 l/m 0,0 km/h (0 Bft) N 0 0 min 0,000 mm 0,0 UV-I 120 W/m -2,0 C -1,7 C 0,0 km/h (0 Bft) 100,00 %
26.12.2017 12:18 -1,7 C 4,4 C 98 % 1011,3 hPa 0,0 l/m 0,0 km/h (0 Bft) N 0 0 min 0,000 mm 0,0 UV-I 122 W/m -2,0 C -1,7 C 0,0 km/h (0 Bft) 100,00 %
26.12.2017 12:19 -1,8 C 4,4 C 98 % 1011,3 hPa 0,0 l/m 0,0 km/h (0 Bft) O-NO 67 0 min 0,000 mm 0,0 UV-I 121 W/m -2,1 C -1,8 C 1,6 km/h (1 Bft) 100,00 %
26.12.2017 12:20 -1,8 C 4,4 C 98 % 1011,3 hPa 0,0 l/m 1,6 km/h (1 Bft) O-NO 67 0 min 0,000 mm 0,0 UV-I 128 W/m -2,1 C -1,8 C 3,2 km/h (1 Bft) 100,00 %
26.12.2017 12:21 -1,7 C 4,4 C 98 % 1011,3 hPa 0,0 l/m 3,2 km/h (1 Bft) O-NO 67 0 min 0,000 mm 0,0 UV-I 130 W/m -2,0 C -1,7 C 3,2 km/h (1 Bft) 95,65 %
26.12.2017 12:22 -1,7 C 4,4 C 97 % 1011,3 hPa 0,0 l/m 1,6 km/h (1 Bft) O-NO 67 0 min 0,000 mm 0,0 UV-I 135 W/m -2,1 C -1,7 C 4,8 km/h (1 Bft) 100,00 %
26.12.2017 12:23 -1,7 C 4,4 C 97 % 1011,2 hPa 0,0 l/m 1,6 km/h (1 Bft) O-NO 67 0 min 0,000 mm 0,0 UV-I 134 W/m -2,1 C -1,7 C 3,2 km/h (1 Bft) 86,96 %
26.12.2017 12:24 -1,7 C 4,4 C 97 % 1011,2 hPa 0,0 l/m 1,6 km/h (1 Bft) O-NO 67 0 min 0,000 mm 0,0 UV-I 133 W/m -2,1 C -1,7 C 3,2 km/h (1 Bft) 100,00 %
26.12.2017 12:25 -1,7 C 4,4 C 97 % 1011,2 hPa 0,0 l/m 0,0 km/h (0 Bft) O-NO 67 0 min 0,000 mm 0,0 UV-I 123 W/m -2,1 C -1,7 C 1,6 km/h (1 Bft) 95,65 %
26.12.2017 12:26 -1,7 C 4,4 C 98 % 1011,2 hPa 0,0 l/m 0,0 km/h (0 Bft) O-NO 67 0 min 0,000 mm 0,0 UV-I 123 W/m -2,0 C -1,7 C 1,6 km/h (1 Bft) 86,96 %
26.12.2017 12:27 -1,7 C 4,4 C 98 % 1011,2 hPa 0,0 l/m 0,0 km/h (0 Bft) N 0 0 min 0,000 mm 0,0 UV-I 135 W/m -2,0 C -1,7 C 0,0 km/h (0 Bft) 100,00 %
26.12.2017 12:28 -1,7 C 4,4 C 97 % 1011,1 hPa 0,0 l/m 1,6 km/h (1 Bft) O-NO 67 0 min 0,000 mm 0,0 UV-I 139 W/m -2,1 C -1,7 C 3,2 km/h (1 Bft) 91,30 %
26.12.2017 12:29 -1,7 C 4,4 C 97 % 1011,2 hPa 0,0 l/m 1,6 km/h (1 Bft) O-NO 67 0 min 0,000 mm 0,0 UV-I 146 W/m -2,1 C -1,7 C 3,2 km/h (1 Bft) 100,00 %
26.12.2017 12:30 -1,7 C 4,4 C 97 % 1011,1 hPa 0,0 l/m 1,6 km/h (1 Bft) O-NO 67 0 min 0,000 mm 0,0 UV-I 142 W/m -2,1 C -1,7 C 3,2 km/h (1 Bft) 82,61 %
26.12.2017 12:31 -1,7 C 4,4 C 97 % 1011,1 hPa 0,0 l/m 1,6 km/h (1 Bft) O-NO 67 0 min 0,000 mm 0,0 UV-I 160 W/m -2,1 C -1,7 C 4,8 km/h (1 Bft) 100,00 %
26.12.2017 12:32 -1,7 C 4,4 C 98 % 1011,0 hPa 0,0 l/m 3,2 km/h (1 Bft) O-NO 67 0 min 0,000 mm 0,0 UV-I 149 W/m -2,0 C -1,7 C 4,8 km/h (1 Bft) 91,30 %
26.12.2017 12:33 -1,7 C 4,4 C 97 % 1011,0 hPa 0,0 l/m 1,6 km/h (1 Bft) O-NO 67 0 min 0,000 mm 0,0 UV-I 146 W/m -2,1 C -1,7 C 3,2 km/h (1 Bft) 100,00 %
26.12.2017 12:34 -1,6 C 4,4 C 97 % 1011,0 hPa 0,0 l/m 3,2 km/h (1 Bft) O-NO 67 0 min 0,000 mm 0,0 UV-I 139 W/m -2,0 C -1,6 C 4,8 km/h (1 Bft) 91,30 %
26.12.2017 12:35 -1,6 C 4,4 C 98 % 1011,0 hPa 0,0 l/m 1,6 km/h (1 Bft) O-NO 67 0 min 0,000 mm 0,0 UV-I 127 W/m -1,9 C -1,6 C 3,2 km/h (1 Bft) 95,65 %
26.12.2017 12:36 -1,5 C 4,4 C 98 % 1010,9 hPa 0,0 l/m 1,6 km/h (1 Bft) O-NO 67 0 min 0,000 mm 0,0 UV-I 125 W/m -1,8 C -1,5 C 3,2 km/h (1 Bft) 91,30 %
26.12.2017 12:37 -1,5 C 4,4 C 98 % 1011,0 hPa 0,0 l/m 0,0 km/h (0 Bft) O-NO 67 0 min 0,000 mm 0,0 UV-I 118 W/m -1,8 C -1,5 C 1,6 km/h (1 Bft) 91,30 %
26.12.2017 12:38 -1,5 C 4,4 C 98 % 1011,0 hPa 0,0 l/m 3,2 km/h (1 Bft) O-NO 67 0 min 0,000 mm 0,0 UV-I 116 W/m -1,8 C -1,5 C 4,8 km/h (1 Bft) 95,65 %
26.12.2017 12:39 -1,5 C 4,4 C 98 % 1010,9 hPa 0,0 l/m 1,6 km/h (1 Bft) O-NO 67 0 min 0,000 mm 0,0 UV-I 111 W/m -1,8 C -1,5 C 3,2 km/h (1 Bft) 95,65 %
26.12.2017 12:40 -1,6 C 4,4 C 98 % 1011,0 hPa 0,0 l/m 0,0 km/h (0 Bft) O-NO 67 0 min 0,000 mm 0,0 UV-I 111 W/m -1,9 C -1,6 C 1,6 km/h (1 Bft) 95,65 %
26.12.2017 12:41 -1,6 C 4,4 C 98 % 1010,9 hPa 0,0 l/m 0,0 km/h (0 Bft) N 0 0 min 0,000 mm 0,0 UV-I 109 W/m -1,9 C -1,6 C 0,0 km/h (0 Bft) 91,30 %
26.12.2017 12:42 -1,6 C 4,4 C 98 % 1010,9 hPa 0,0 l/m 0,0 km/h (0 Bft) N 0 0 min 0,000 mm 0,0 UV-I 98 W/m -1,9 C -1,6 C 0,0 km/h (0 Bft) 100,00 %
26.12.2017 12:43 -1,6 C 4,4 C 98 % 1010,9 hPa 0,0 l/m 3,2 km/h (1 Bft) O-NO 67 0 min 0,000 mm 0,0 UV-I 88 W/m -1,9 C -1,6 C 4,8 km/h (1 Bft) 86,96 %
26.12.2017 12:44 -1,6 C 4,4 C 98 % 1010,9 hPa 0,0 l/m 4,8 km/h (1 Bft) O-NO 67 0 min 0,000 mm 0,0 UV-I 88 W/m -1,9 C -1,6 C 6,4 km/h (2 Bft) 91,30 %
26.12.2017 12:45 -1,6 C 4,4 C 98 % 1010,8 hPa 0,0 l/m 3,2 km/h (1 Bft) O-NO 67 0 min 0,000 mm 0,0 UV-I 86 W/m -1,9 C -1,6 C 4,8 km/h (1 Bft) 100,00 %
26.12.2017 12:46 -1,6 C 4,4 C 98 % 1010,8 hPa 0,0 l/m 3,2 km/h (1 Bft) O-NO 67 0 min 0,000 mm 0,0 UV-I 86 W/m -1,9 C -1,6 C 4,8 km/h (1 Bft) 95,65 %
26.12.2017 12:47 -1,6 C 4,4 C 98 % 1010,8 hPa 0,0 l/m 4,8 km/h (1 Bft) O-NO 67 0 min 0,000 mm 0,0 UV-I 89 W/m -1,9 C -1,6 C 4,8 km/h (1 Bft) 100,00 %
26.12.2017 12:48 -1,6 C 4,4 C 98 % 1010,8 hPa 0,0 l/m 4,8 km/h (1 Bft) O-NO 67 0 min 0,000 mm 0,0 UV-I 90 W/m -1,9 C -1,6 C 6,4 km/h (2 Bft) 95,65 %
26.12.2017 12:49 -1,6 C 4,4 C 98 % 1010,8 hPa 0,0 l/m 3,2 km/h (1 Bft) O-NO 67 0 min 0,000 mm 0,0 UV-I 90 W/m -1,9 C -1,6 C 4,8 km/h (1 Bft) 100,00 %
26.12.2017 12:50 -1,6 C 4,4 C 98 % 1010,7 hPa 0,0 l/m 3,2 km/h (1 Bft) O-NO 67 0 min 0,000 mm 0,0 UV-I 86 W/m -1,9 C -1,6 C 4,8 km/h (1 Bft) 95,65 %
26.12.2017 12:51 -1,6 C 4,4 C 98 % 1010,8 hPa 0,0 l/m 1,6 km/h (1 Bft) O-NO 67 0 min 0,000 mm 0,0 UV-I 88 W/m -1,9 C -1,6 C 3,2 km/h (1 Bft) 95,65 %
26.12.2017 12:52 -1,5 C 4,4 C 98 % 1010,7 hPa 0,0 l/m 3,2 km/h (1 Bft) O-NO 67 0 min 0,000 mm 0,0 UV-I 90 W/m -1,8 C -1,5 C 3,2 km/h (1 Bft) 95,65 %
26.12.2017 12:53 -1,5 C 4,4 C 98 % 1010,7 hPa 0,0 l/m 3,2 km/h (1 Bft) O-NO 67 0 min 0,000 mm 0,0 UV-I 91 W/m -1,8 C -1,5 C 3,2 km/h (1 Bft) 95,65 %
26.12.2017 12:54 -1,5 C 4,4 C 98 % 1010,7 hPa 0,0 l/m 1,6 km/h (1 Bft) O-NO 67 0 min 0,000 mm 0,0 UV-I 88 W/m -1,8 C -1,5 C 3,2 km/h (1 Bft) 100,00 %
26.12.2017 12:55 -1,5 C 4,4 C 98 % 1010,7 hPa 0,0 l/m 0,0 km/h (0 Bft) O-NO 67 0 min 0,000 mm 0,0 UV-I 86 W/m -1,8 C -1,5 C 3,2 km/h (1 Bft) 95,65 %
26.12.2017 12:56 -1,5 C 4,4 C 98 % 1010,7 hPa 0,0 l/m 0,0 km/h (0 Bft) N 0 0 min 0,000 mm 0,0 UV-I 86 W/m -1,8 C -1,5 C 0,0 km/h (0 Bft) 100,00 %
26.12.2017 12:57 -1,5 C 4,4 C 98 % 1010,7 hPa 0,0 l/m 0,0 km/h (0 Bft) N 0 0 min 0,000 mm 0,0 UV-I 90 W/m -1,8 C -1,5 C 0,0 km/h (0 Bft) 95,65 %
26.12.2017 12:58 -1,5 C 4,4 C 98 % 1010,7 hPa 0,0 l/m 0,0 km/h (0 Bft) N 0 0 min 0,000 mm 0,0 UV-I 90 W/m -1,8 C -1,5 C 0,0 km/h (0 Bft) 95,65 %
26.12.2017 12:59 -1,4 C 4,4 C 98 % 1010,7 hPa 0,0 l/m 0,0 km/h (0 Bft) N 0 0 min 0,000 mm 0,0 UV-I 86 W/m -1,7 C -1,4 C 0,0 km/h (0 Bft) 91,30 %
26.12.2017 13:00 -1,4 C 4,4 C 98 % 1010,6 hPa 0,0 l/m 0,0 km/h (0 Bft) O-NO 67 0 min 0,025 mm 0,0 UV-I 84 W/m -1,7 C -1,4 C 1,6 km/h (1 Bft) 100,00 %
26.12.2017 13:01 -1,4 C 4,4 C 98 % 1010,6 hPa 0,0 l/m 3,2 km/h (1 Bft) O-NO 67 0 min 0,000 mm 0,0 UV-I 86 W/m -1,7 C -1,4 C 4,8 km/h (1 Bft) 95,65 %
26.12.2017 13:02 -1,4 C 4,4 C 98 % 1010,6 hPa 0,0 l/m 3,2 km/h (1 Bft) O-NO 67 0 min 0,000 mm 0,0 UV-I 88 W/m -1,7 C -1,4 C 4,8 km/h (1 Bft) 95,65 %
26.12.2017 13:03 -1,4 C 4,4 C 98 % 1010,6 hPa 0,0 l/m 0,0 km/h (0 Bft) O-NO 67 0 min 0,000 mm 0,0 UV-I 88 W/m -1,7 C -1,4 C 1,6 km/h (1 Bft) 100,00 %
26.12.2017 13:04 -1,4 C 4,4 C 98 % 1010,6 hPa 0,0 l/m 0,0 km/h (0 Bft) N 0 0 min 0,000 mm 0,0 UV-I 88 W/m -1,7 C -1,4 C 0,0 km/h (0 Bft) 100,00 %
26.12.2017 13:05 -1,3 C 4,4 C 98 % 1010,5 hPa 0,0 l/m 1,6 km/h (1 Bft) O-NO 67 0 min 0,000 mm 0,0 UV-I 91 W/m -1,6 C -1,3 C 4,8 km/h (1 Bft) 91,30 %
26.12.2017 13:06 -1,3 C 4,4 C 98 % 1010,5 hPa 0,0 l/m 1,6 km/h (1 Bft) O-NO 67 0 min 0,000 mm 0,0 UV-I 91 W/m -1,6 C -1,3 C 3,2 km/h (1 Bft) 95,65 %
26.12.2017 13:07 -1,3 C 4,4 C 98 % 1010,5 hPa 0,0 l/m 0,0 km/h (0 Bft) O-NO 67 0 min 0,000 mm 0,0 UV-I 93 W/m -1,6 C -1,3 C 1,6 km/h (1 Bft) 95,65 %
26.12.2017 13:08 -1,3 C 4,4 C 98 % 1010,5 hPa 0,0 l/m 0,0 km/h (0 Bft) O-NO 67 0 min 0,000 mm 0,0 UV-I 91 W/m -1,6 C -1,3 C 1,6 km/h (1 Bft) 95,65 %
26.12.2017 13:09 -1,3 C 4,4 C 98 % 1010,5 hPa 0,0 l/m 0,0 km/h (0 Bft) N 0 0 min 0,000 mm 0,0 UV-I 91 W/m -1,6 C -1,3 C 0,0 km/h (0 Bft) 100,00 %
26.12.2017 13:10 -1,3 C 4,4 C 98 % 1010,5 hPa 0,0 l/m 0,0 km/h (0 Bft) N 0 0 min 0,000 mm 0,0 UV-I 90 W/m -1,6 C -1,3 C 0,0 km/h (0 Bft) 95,65 %
26.12.2017 13:11 -1,3 C 4,4 C 98 % 1010,5 hPa 0,0 l/m 0,0 km/h (0 Bft) O-NO 67 0 min 0,000 mm 0,0 UV-I 86 W/m -1,6 C -1,3 C 3,2 km/h (1 Bft) 100,00 %
26.12.2017 13:12 -1,3 C 4,4 C 98 % 1010,5 hPa 0,0 l/m 3,2 km/h (1 Bft) O-NO 67 0 min 0,000 mm 0,0 UV-I 83 W/m -1,6 C -1,3 C 3,2 km/h (1 Bft) 95,65 %
26.12.2017 13:13 -1,3 C 4,4 C 98 % 1010,5 hPa 0,0 l/m 1,6 km/h (1 Bft) O-NO 67 0 min 0,000 mm 0,0 UV-I 81 W/m -1,6 C -1,3 C 4,8 km/h (1 Bft) 100,00 %
26.12.2017 13:14 -1,3 C 4,4 C 98 % 1010,5 hPa 0,0 l/m 3,2 km/h (1 Bft) O-NO 67 0 min 0,000 mm 0,0 UV-I 79 W/m -1,6 C -1,3 C 4,8 km/h (1 Bft) 100,00 %
26.12.2017 13:15 -1,3 C 4,4 C 98 % 1010,5 hPa 0,0 l/m 4,8 km/h (1 Bft) O-NO 67 0 min 0,000 mm 0,0 UV-I 79 W/m -1,6 C -1,3 C 6,4 km/h (2 Bft) 100,00 %
26.12.2017 13:16 -1,3 C 4,4 C 98 % 1010,4 hPa 0,0 l/m 4,8 km/h (1 Bft) O-NO 67 0 min 0,000 mm 0,0 UV-I 80 W/m -1,6 C -1,3 C 4,8 km/h (1 Bft) 100,00 %
26.12.2017 13:17 -1,3 C 4,4 C 98 % 1010,4 hPa 0,0 l/m 4,8 km/h (1 Bft) O-NO 67 0 min 0,000 mm 0,0 UV-I 81 W/m -1,6 C -1,3 C 6,4 km/h (2 Bft) 95,65 %
26.12.2017 13:18 -1,3 C 4,4 C 98 % 1010,3 hPa 0,0 l/m 4,8 km/h (1 Bft) O-NO 67 0 min 0,000 mm 0,0 UV-I 83 W/m -1,6 C -1,3 C 6,4 km/h (2 Bft) 100,00 %
26.12.2017 13:19 -1,3 C 4,4 C 98 % 1010,3 hPa 0,0 l/m 3,2 km/h (1 Bft) O-NO 67 0 min 0,000 mm 0,0 UV-I 83 W/m -1,6 C -1,3 C 4,8 km/h (1 Bft) 95,65 %
26.12.2017 13:20 -1,3 C 4,4 C 98 % 1010,4 hPa 0,0 l/m 4,8 km/h (1 Bft) O-NO 67 0 min 0,000 mm 0,0 UV-I 83 W/m -1,6 C -1,3 C 4,8 km/h (1 Bft) 100,00 %
26.12.2017 13:21 -1,4 C 4,4 C 98 % 1010,3 hPa 0,0 l/m 3,2 km/h (1 Bft) O-NO 67 0 min 0,000 mm 0,0 UV-I 83 W/m -1,7 C -1,4 C 4,8 km/h (1 Bft) 100,00 %
26.12.2017 13:22 -1,4 C 4,4 C 98 % 1010,3 hPa 0,0 l/m 1,6 km/h (1 Bft) O-NO 67 0 min 0,000 mm 0,0 UV-I 84 W/m -1,7 C -1,4 C 3,2 km/h (1 Bft) 100,00 %
26.12.2017 13:23 -1,4 C 4,4 C 98 % 1010,4 hPa 0,0 l/m 3,2 km/h (1 Bft) O-NO 67 0 min 0,000 mm 0,0 UV-I 83 W/m -1,7 C -1,4 C 3,2 km/h (1 Bft) 100,00 %
26.12.2017 13:24 -1,4 C 4,4 C 98 % 1010,4 hPa 0,0 l/m 3,2 km/h (1 Bft) O-NO 67 0 min 0,000 mm 0,0 UV-I 81 W/m -1,7 C -1,4 C 6,4 km/h (2 Bft) 100,00 %
26.12.2017 13:25 -1,4 C 4,4 C 98 % 1010,4 hPa 0,0 l/m 3,2 km/h (1 Bft) O-NO 67 0 min 0,000 mm 0,0 UV-I 81 W/m -1,7 C -1,4 C 4,8 km/h (1 Bft) 100,00 %
26.12.2017 13:26 -1,4 C 4,4 C 98 % 1010,3 hPa 0,0 l/m 4,8 km/h (1 Bft) O-NO 67 0 min 0,000 mm 0,0 UV-I 81 W/m -1,7 C -1,4 C 8,0 km/h (2 Bft) 95,65 %
26.12.2017 13:27 -1,4 C 4,4 C 98 % 1010,4 hPa 0,0 l/m 4,8 km/h (1 Bft) O-NO 67 0 min 0,000 mm 0,0 UV-I 81 W/m -1,7 C -1,4 C 4,8 km/h (1 Bft) 100,00 %
26.12.2017 13:28 -1,4 C 4,4 C 98 % 1010,4 hPa 0,0 l/m 3,2 km/h (1 Bft) O-NO 67 0 min 0,000 mm 0,0 UV-I 81 W/m -1,7 C -1,4 C 4,8 km/h (1 Bft) 100,00 %
26.12.2017 13:29 -1,5 C 4,4 C 98 % 1010,4 hPa 0,0 l/m 1,6 km/h (1 Bft) O-NO 67 0 min 0,000 mm 0,0 UV-I 81 W/m -1,8 C -1,5 C 3,2 km/h (1 Bft) 100,00 %
26.12.2017 13:30 -1,5 C 4,4 C 98 % 1010,4 hPa 0,0 l/m 1,6 km/h (1 Bft) O-NO 67 0 min 0,000 mm 0,0 UV-I 77 W/m -1,8 C -1,5 C 1,6 km/h (1 Bft) 100,00 %
26.12.2017 13:31 -1,6 C 4,4 C 98 % 1010,4 hPa 0,0 l/m 1,6 km/h (1 Bft) O-NO 67 0 min 0,000 mm 0,0 UV-I 76 W/m -1,9 C -1,6 C 3,2 km/h (1 Bft) 100,00 %
26.12.2017 13:32 -1,6 C 4,4 C 98 % 1010,4 hPa 0,0 l/m 1,6 km/h (1 Bft) O-NO 67 0 min 0,000 mm 0,0 UV-I 76 W/m -1,9 C -1,6 C 1,6 km/h (1 Bft) 100,00 %
26.12.2017 13:33 -1,6 C 4,4 C 98 % 1010,5 hPa 0,0 l/m 1,6 km/h (1 Bft) O-NO 67 0 min 0,000 mm 0,0 UV-I 76 W/m -1,9 C -1,6 C 3,2 km/h (1 Bft) 91,30 %
26.12.2017 13:34 -1,6 C 4,4 C 98 % 1010,4 hPa 0,0 l/m 0,0 km/h (0 Bft) N 0 0 min 0,000 mm 0,0 UV-I 76 W/m -1,9 C -1,6 C 0,0 km/h (0 Bft) 100,00 %
26.12.2017 13:35 -1,5 C 4,4 C 98 % 1010,4 hPa 0,0 l/m 1,6 km/h (1 Bft) O-NO 67 0 min 0,000 mm 0,0 UV-I 77 W/m -1,8 C -1,5 C 4,8 km/h (1 Bft) 100,00 %
26.12.2017 13:36 -1,5 C 4,4 C 98 % 1010,4 hPa 0,0 l/m 4,8 km/h (1 Bft) O-NO 67 0 min 0,000 mm 0,0 UV-I 77 W/m -1,8 C -1,5 C 6,4 km/h (2 Bft) 100,00 %
26.12.2017 13:37 -1,5 C 4,4 C 98 % 1010,3 hPa 0,0 l/m 4,8 km/h (1 Bft) O-NO 67 0 min 0,000 mm 0,0 UV-I 79 W/m -1,8 C -1,5 C 4,8 km/h (1 Bft) 100,00 %
26.12.2017 13:38 -1,5 C 4,4 C 98 % 1010,3 hPa 0,0 l/m 3,2 km/h (1 Bft) O-NO 67 0 min 0,000 mm 0,0 UV-I 77 W/m -1,8 C -1,5 C 3,2 km/h (1 Bft) 100,00 %
26.12.2017 13:39 -1,5 C 4,4 C 98 % 1010,3 hPa 0,0 l/m 0,0 km/h (0 Bft) O-NO 67 0 min 0,000 mm 0,0 UV-I 76 W/m -1,8 C -1,5 C 1,6 km/h (1 Bft) 100,00 %
26.12.2017 13:40 -1,5 C 4,4 C 98 % 1010,4 hPa 0,0 l/m 1,6 km/h (1 Bft) O-NO 67 0 min 0,000 mm 0,0 UV-I 75 W/m -1,8 C -1,5 C 3,2 km/h (1 Bft) 95,65 %
26.12.2017 13:41 -1,5 C 4,4 C 98 % 1010,4 hPa 0,0 l/m 3,2 km/h (1 Bft) O-NO 67 0 min 0,000 mm 0,0 UV-I 74 W/m -1,8 C -1,5 C 4,8 km/h (1 Bft) 100,00 %
26.12.2017 13:42 -1,5 C 4,4 C 98 % 1010,4 hPa 0,0 l/m 3,2 km/h (1 Bft) O-NO 67 0 min 0,000 mm 0,0 UV-I 74 W/m -1,8 C -1,5 C 4,8 km/h (1 Bft) 100,00 %
26.12.2017 13:43 -1,5 C 4,4 C 98 % 1010,3 hPa 0,0 l/m 3,2 km/h (1 Bft) O-NO 67 0 min 0,000 mm 0,0 UV-I 70 W/m -1,8 C -1,5 C 4,8 km/h (1 Bft) 95,65 %
26.12.2017 13:44 -1,5 C 4,4 C 98 % 1010,4 hPa 0,0 l/m 4,8 km/h (1 Bft) O-NO 67 0 min 0,000 mm 0,0 UV-I 70 W/m -1,8 C -1,5 C 4,8 km/h (1 Bft) 95,65 %
26.12.2017 13:45 -1,4 C 4,4 C 98 % 1010,4 hPa 0,0 l/m 4,8 km/h (1 Bft) O 90 0 min 0,000 mm 0,0 UV-I 72 W/m -1,7 C -1,4 C 6,4 km/h (2 Bft) 95,65 %
26.12.2017 13:46 -1,4 C 4,4 C 98 % 1010,3 hPa 0,0 l/m 6,4 km/h (2 Bft) O-SO 112 0 min 0,000 mm 0,0 UV-I 72 W/m -1,7 C -1,4 C 9,7 km/h (2 Bft) 100,00 %
26.12.2017 13:47 -1,5 C 4,4 C 98 % 1010,2 hPa 0,0 l/m 4,8 km/h (1 Bft) O-SO 112 0 min 0,000 mm 0,0 UV-I 70 W/m -1,8 C -1,5 C 6,4 km/h (2 Bft) 95,65 %
26.12.2017 13:48 -1,5 C 4,4 C 98 % 1010,2 hPa 0,0 l/m 4,8 km/h (1 Bft) O-SO 112 0 min 0,000 mm 0,0 UV-I 72 W/m -1,8 C -1,5 C 6,4 km/h (2 Bft) 95,65 %
26.12.2017 13:49 -1,5 C 4,4 C 98 % 1010,2 hPa 0,0 l/m 6,4 km/h (2 Bft) O-SO 112 0 min 0,000 mm 0,0 UV-I 76 W/m -1,8 C -1,5 C 9,7 km/h (2 Bft) 95,65 %
26.12.2017 13:50 -1,4 C 4,4 C 98 % 1010,2 hPa 0,0 l/m 4,8 km/h (1 Bft) O-SO 112 0 min 0,000 mm 0,0 UV-I 77 W/m -1,7 C -1,4 C 6,4 km/h (2 Bft) 95,65 %
26.12.2017 13:51 -1,4 C 4,4 C 98 % 1010,1 hPa 0,0 l/m 4,8 km/h (1 Bft) O-SO 112 0 min 0,000 mm 0,0 UV-I 76 W/m -1,7 C -1,4 C 6,4 km/h (2 Bft) 95,65 %
26.12.2017 13:52 -1,4 C 4,4 C 98 % 1010,1 hPa 0,0 l/m 3,2 km/h (1 Bft) O-SO 112 0 min 0,000 mm 0,0 UV-I 74 W/m -1,7 C -1,4 C 4,8 km/h (1 Bft) 100,00 %
26.12.2017 13:53 -1,4 C 4,4 C 98 % 1010,1 hPa 0,0 l/m 1,6 km/h (1 Bft) O-SO 112 0 min 0,000 mm 0,0 UV-I 67 W/m -1,7 C -1,4 C 3,2 km/h (1 Bft) 91,30 %
26.12.2017 13:54 -1,4 C 4,4 C 98 % 1010,1 hPa 0,0 l/m 1,6 km/h (1 Bft) O-SO 112 0 min 0,000 mm 0,0 UV-I 65 W/m -1,7 C -1,4 C 4,8 km/h (1 Bft) 95,65 %
26.12.2017 13:55 -1,4 C 4,4 C 98 % 1010,2 hPa 0,0 l/m 3,2 km/h (1 Bft) O-SO 112 0 min 0,000 mm 0,0 UV-I 63 W/m -1,7 C -1,4 C 4,8 km/h (1 Bft) 95,65 %
26.12.2017 13:56 -1,4 C 4,4 C 98 % 1010,2 hPa 0,0 l/m 3,2 km/h (1 Bft) O-SO 112 0 min 0,000 mm 0,0 UV-I 62 W/m -1,7 C -1,4 C 4,8 km/h (1 Bft) 100,00 %
26.12.2017 13:57 -1,4 C 4,4 C 98 % 1010,2 hPa 0,0 l/m 4,8 km/h (1 Bft) O-NO 67 0 min 0,000 mm 0,0 UV-I 60 W/m -1,7 C -1,4 C 8,0 km/h (2 Bft) 95,65 %
26.12.2017 13:58 -1,4 C 4,4 C 98 % 1010,1 hPa 0,0 l/m 3,2 km/h (1 Bft) O-NO 67 0 min 0,000 mm 0,0 UV-I 60 W/m -1,7 C -1,4 C 6,4 km/h (2 Bft) 100,00 %
26.12.2017 13:59 -1,4 C 4,4 C 98 % 1010,1 hPa 0,0 l/m 3,2 km/h (1 Bft) O-NO 67 0 min 0,000 mm 0,0 UV-I 58 W/m -1,7 C -1,4 C 4,8 km/h (1 Bft) 91,30 %
26.12.2017 14:00 -1,4 C 4,4 C 98 % 1010,1 hPa 0,0 l/m 3,2 km/h (1 Bft) O-NO 67 0 min 0,025 mm 0,0 UV-I 58 W/m -1,7 C -1,4 C 4,8 km/h (1 Bft) 100,00 %
26.12.2017 14:01 -1,3 C 4,4 C 98 % 1010,1 hPa 0,0 l/m 3,2 km/h (1 Bft) O-NO 67 0 min 0,000 mm 0,0 UV-I 56 W/m -1,6 C -1,3 C 4,8 km/h (1 Bft) 91,30 %
26.12.2017 14:02 -1,3 C 4,4 C 98 % 1010,1 hPa 0,0 l/m 1,6 km/h (1 Bft) O-NO 67 0 min 0,000 mm 0,0 UV-I 54 W/m -1,6 C -1,3 C 3,2 km/h (1 Bft) 91,30 %
26.12.2017 14:03 -1,3 C 4,4 C 98 % 1010,1 hPa 0,0 l/m 1,6 km/h (1 Bft) O-NO 67 0 min 0,000 mm 0,0 UV-I 54 W/m -1,6 C -1,3 C 4,8 km/h (1 Bft) 100,00 %
26.12.2017 14:04 -1,3 C 4,4 C 98 % 1010,0 hPa 0,0 l/m 3,2 km/h (1 Bft) O-NO 67 0 min 0,000 mm 0,0 UV-I 54 W/m -1,6 C -1,3 C 6,4 km/h (2 Bft) 95,65 %
26.12.2017 14:05 -1,3 C 4,4 C 98 % 1010,0 hPa 0,0 l/m 6,4 km/h (2 Bft) O 90 0 min 0,000 mm 0,0 UV-I 54 W/m -1,6 C -1,3 C 8,0 km/h (2 Bft) 100,00 %
26.12.2017 14:06 -1,3 C 4,4 C 98 % 1009,9 hPa 0,0 l/m 4,8 km/h (1 Bft) O 90 0 min 0,000 mm 0,0 UV-I 54 W/m -1,6 C -1,3 C 6,4 km/h (2 Bft) 100,00 %
26.12.2017 14:07 -1,3 C 4,4 C 98 % 1009,9 hPa 0,0 l/m 6,4 km/h (2 Bft) O 90 0 min 0,000 mm 0,0 UV-I 54 W/m -1,6 C -1,3 C 8,0 km/h (2 Bft) 95,65 %
26.12.2017 14:08 -1,3 C 4,4 C 98 % 1009,9 hPa 0,0 l/m 6,4 km/h (2 Bft) SO 135 0 min 0,000 mm 0,0 UV-I 58 W/m -1,6 C -1,3 C 9,7 km/h (2 Bft) 95,65 %
26.12.2017 14:09 -1,3 C 4,4 C 98 % 1009,9 hPa 0,0 l/m 4,8 km/h (1 Bft) O-SO 112 0 min 0,000 mm 0,0 UV-I 59 W/m -1,6 C -1,3 C 6,4 km/h (2 Bft) 95,65 %
26.12.2017 14:10 -1,4 C 4,4 C 98 % 1009,9 hPa 0,0 l/m 4,8 km/h (1 Bft) O-SO 112 0 min 0,000 mm 0,0 UV-I 60 W/m -1,7 C -1,4 C 4,8 km/h (1 Bft) 100,00 %
26.12.2017 14:11 -1,3 C 4,4 C 98 % 1009,9 hPa 0,0 l/m 4,8 km/h (1 Bft) O-SO 112 0 min 0,000 mm 0,0 UV-I 62 W/m -1,6 C -1,3 C 6,4 km/h (2 Bft) 100,00 %
26.12.2017 14:12 -1,4 C 4,4 C 98 % 1009,9 hPa 0,0 l/m 6,4 km/h (2 Bft) SO 135 0 min 0,000 mm 0,0 UV-I 63 W/m -1,7 C -1,4 C 8,0 km/h (2 Bft) 100,00 %
26.12.2017 14:13 -1,4 C 4,4 C 98 % 1009,8 hPa 0,0 l/m 3,2 km/h (1 Bft) SO 135 0 min 0,000 mm 0,0 UV-I 62 W/m -1,7 C -1,4 C 8,0 km/h (2 Bft) 95,65 %
26.12.2017 14:14 -1,4 C 4,4 C 98 % 1009,8 hPa 0,0 l/m 1,6 km/h (1 Bft) SO 135 0 min 0,000 mm 0,0 UV-I 60 W/m -1,7 C -1,4 C 6,4 km/h (2 Bft) 100,00 %
26.12.2017 14:15 -1,3 C 4,4 C 98 % 1009,8 hPa 0,0 l/m 3,2 km/h (1 Bft) SO 135 0 min 0,000 mm 0,0 UV-I 60 W/m -1,6 C -1,3 C 6,4 km/h (2 Bft) 95,65 %
26.12.2017 14:16 -1,3 C 4,4 C 98 % 1009,8 hPa 0,0 l/m 4,8 km/h (1 Bft) O 90 0 min 0,000 mm 0,0 UV-I 60 W/m -1,6 C -1,3 C 8,0 km/h (2 Bft) 100,00 %
26.12.2017 14:17 -1,3 C 4,4 C 98 % 1009,7 hPa 0,0 l/m 4,8 km/h (1 Bft) O 90 0 min 0,000 mm 0,0 UV-I 62 W/m -1,6 C -1,3 C 6,4 km/h (2 Bft) 100,00 %
26.12.2017 14:18 -1,3 C 4,4 C 98 % 1009,7 hPa 0,0 l/m 4,8 km/h (1 Bft) O-NO 67 0 min 0,000 mm 0,0 UV-I 60 W/m -1,6 C -1,3 C 6,4 km/h (2 Bft) 100,00 %
26.12.2017 14:19 -1,3 C 4,4 C 98 % 1009,7 hPa 0,0 l/m 1,6 km/h (1 Bft) O-NO 67 0 min 0,000 mm 0,0 UV-I 58 W/m -1,6 C -1,3 C 4,8 km/h (1 Bft) 100,00 %
26.12.2017 14:20 -1,3 C 4,4 C 98 % 1009,8 hPa 0,0 l/m 1,6 km/h (1 Bft) O-NO 67 0 min 0,000 mm 0,0 UV-I 58 W/m -1,6 C -1,3 C 3,2 km/h (1 Bft) 95,65 %
26.12.2017 14:21 -1,3 C 4,4 C 98 % 1009,8 hPa 0,0 l/m 1,6 km/h (1 Bft) O-NO 67 0 min 0,000 mm 0,0 UV-I 55 W/m -1,6 C -1,3 C 4,8 km/h (1 Bft) 100,00 %
26.12.2017 14:22 -1,3 C 4,4 C 98 % 1009,8 hPa 0,0 l/m 0,0 km/h (0 Bft) O-NO 67 0 min 0,000 mm 0,0 UV-I 54 W/m -1,6 C -1,3 C 1,6 km/h (1 Bft) 95,65 %
26.12.2017 14:23 -1,3 C 4,4 C 98 % 1009,9 hPa 0,0 l/m 3,2 km/h (1 Bft) O-NO 67 0 min 0,000 mm 0,0 UV-I 54 W/m -1,6 C -1,3 C 6,4 km/h (2 Bft) 100,00 %
26.12.2017 14:24 -1,3 C 4,4 C 98 % 1009,9 hPa 0,0 l/m 6,4 km/h (2 Bft) O-NO 67 0 min 0,000 mm 0,0 UV-I 54 W/m -1,6 C -1,3 C 8,0 km/h (2 Bft) 95,65 %
26.12.2017 14:25 -1,3 C 4,4 C 98 % 1009,9 hPa 0,0 l/m 4,8 km/h (1 Bft) O-NO 67 0 min 0,000 mm 0,0 UV-I 54 W/m -1,6 C -1,3 C 6,4 km/h (2 Bft) 100,00 %
26.12.2017 14:26 -1,3 C 4,4 C 98 % 1009,9 hPa 0,0 l/m 3,2 km/h (1 Bft) O-NO 67 0 min 0,000 mm 0,0 UV-I 53 W/m -1,6 C -1,3 C 4,8 km/h (1 Bft) 100,00 %
26.12.2017 14:27 -1,3 C 4,4 C 98 % 1009,8 hPa 0,0 l/m 1,6 km/h (1 Bft) O-NO 67 0 min 0,000 mm 0,0 UV-I 52 W/m -1,6 C -1,3 C 3,2 km/h (1 Bft) 100,00 %
26.12.2017 14:28 -1,3 C 4,4 C 98 % 1009,8 hPa 0,0 l/m 3,2 km/h (1 Bft) O 90 0 min 0,000 mm 0,0 UV-I 49 W/m -1,6 C -1,3 C 4,8 km/h (1 Bft) 100,00 %
26.12.2017 14:29 -1,3 C 4,4 C 98 % 1009,8 hPa 0,0 l/m 4,8 km/h (1 Bft) O 90 0 min 0,000 mm 0,0 UV-I 49 W/m -1,6 C -1,3 C 6,4 km/h (2 Bft) 95,65 %
26.12.2017 14:30 -1,3 C 4,4 C 98 % 1009,7 hPa 0,0 l/m 3,2 km/h (1 Bft) O 90 0 min 0,000 mm 0,0 UV-I 51 W/m -1,6 C -1,3 C 4,8 km/h (1 Bft) 100,00 %
26.12.2017 14:31 -1,3 C 4,4 C 98 % 1009,8 hPa 0,0 l/m 4,8 km/h (1 Bft) O 90 0 min 0,000 mm 0,0 UV-I 51 W/m -1,6 C -1,3 C 4,8 km/h (1 Bft) 100,00 %
26.12.2017 14:32 -1,3 C 4,4 C 98 % 1009,7 hPa 0,0 l/m 3,2 km/h (1 Bft) O 90 0 min 0,000 mm 0,0 UV-I 51 W/m -1,6 C -1,3 C 4,8 km/h (1 Bft) 95,65 %
26.12.2017 14:33 -1,2 C 4,4 C 98 % 1009,7 hPa 0,0 l/m 1,6 km/h (1 Bft) O 90 0 min 0,000 mm 0,0 UV-I 53 W/m -1,5 C -1,2 C 3,2 km/h (1 Bft) 100,00 %
26.12.2017 14:34 -1,2 C 4,4 C 98 % 1009,7 hPa 0,0 l/m 1,6 km/h (1 Bft) O 90 0 min 0,000 mm 0,0 UV-I 54 W/m -1,5 C -1,2 C 1,6 km/h (1 Bft) 95,65 %
26.12.2017 14:35 -1,2 C 4,4 C 98 % 1009,7 hPa 0,0 l/m 3,2 km/h (1 Bft) O 90 0 min 0,000 mm 0,0 UV-I 53 W/m -1,5 C -1,2 C 3,2 km/h (1 Bft) 100,00 %
26.12.2017 14:36 -1,2 C 4,4 C 98 % 1009,8 hPa 0,0 l/m 4,8 km/h (1 Bft) O 90 0 min 0,000 mm 0,0 UV-I 53 W/m -1,5 C -1,2 C 6,4 km/h (2 Bft) 91,30 %
26.12.2017 14:37 -1,2 C 4,4 C 98 % 1009,8 hPa 0,0 l/m 4,8 km/h (1 Bft) O-NO 67 0 min 0,000 mm 0,0 UV-I 53 W/m -1,5 C -1,2 C 6,4 km/h (2 Bft) 91,30 %
26.12.2017 14:38 -1,2 C 4,4 C 98 % 1009,7 hPa 0,0 l/m 4,8 km/h (1 Bft) O-NO 67 0 min 0,000 mm 0,0 UV-I 53 W/m -1,5 C -1,2 C 6,4 km/h (2 Bft) 100,00 %
26.12.2017 14:39 -1,2 C 4,4 C 98 % 1009,7 hPa 0,0 l/m 3,2 km/h (1 Bft) O-NO 67 0 min 0,000 mm 0,0 UV-I 51 W/m -1,5 C -1,2 C 4,8 km/h (1 Bft) 95,65 %
26.12.2017 14:40 -1,2 C 4,4 C 98 % 1009,7 hPa 0,0 l/m 4,8 km/h (1 Bft) O-NO 67 0 min 0,000 mm 0,0 UV-I 51 W/m -1,5 C -1,2 C 6,4 km/h (2 Bft) 100,00 %
26.12.2017 14:41 -1,2 C 4,4 C 98 % 1009,6 hPa 0,0 l/m 6,4 km/h (2 Bft) SO 135 0 min 0,000 mm 0,0 UV-I 51 W/m -1,5 C -1,2 C 8,0 km/h (2 Bft) 95,65 %
26.12.2017 14:42 -1,2 C 4,4 C 98 % 1009,5 hPa 0,0 l/m 6,4 km/h (2 Bft) O-SO 112 0 min 0,000 mm 0,0 UV-I 51 W/m -1,5 C -1,2 C 8,0 km/h (2 Bft) 95,65 %
26.12.2017 14:43 -1,2 C 4,4 C 98 % 1009,6 hPa 0,0 l/m 4,8 km/h (1 Bft) SO 135 0 min 0,000 mm 0,0 UV-I 51 W/m -1,5 C -1,2 C 6,4 km/h (2 Bft) 86,96 %
26.12.2017 14:44 -1,2 C 4,4 C 98 % 1009,6 hPa 0,0 l/m 3,2 km/h (1 Bft) SO 135 0 min 0,000 mm 0,0 UV-I 50 W/m -1,5 C -1,2 C 4,8 km/h (1 Bft) 100,00 %
26.12.2017 14:45 -1,2 C 4,4 C 98 % 1009,6 hPa 0,0 l/m 4,8 km/h (1 Bft) O-NO 67 0 min 0,000 mm 0,0 UV-I 47 W/m -1,5 C -1,2 C 6,4 km/h (2 Bft) 95,65 %
26.12.2017 14:46 -1,2 C 4,4 C 98 % 1009,6 hPa 0,0 l/m 4,8 km/h (1 Bft) O-NO 67 0 min 0,000 mm 0,0 UV-I 46 W/m -1,5 C -1,2 C 8,0 km/h (2 Bft) 95,65 %
26.12.2017 14:47 -1,2 C 4,4 C 98 % 1009,7 hPa 0,0 l/m 3,2 km/h (1 Bft) O-NO 67 0 min 0,000 mm 0,0 UV-I 46 W/m -1,5 C -1,2 C 4,8 km/h (1 Bft) 100,00 %
26.12.2017 14:48 -1,2 C 4,4 C 98 % 1009,7 hPa 0,0 l/m 1,6 km/h (1 Bft) O-NO 67 0 min 0,000 mm 0,0 UV-I 47 W/m -1,5 C -1,2 C 3,2 km/h (1 Bft) 95,65 %
26.12.2017 14:49 -1,2 C 4,4 C 98 % 1009,7 hPa 0,0 l/m 0,0 km/h (0 Bft) O-NO 67 0 min 0,000 mm 0,0 UV-I 46 W/m -1,5 C -1,2 C 1,6 km/h (1 Bft) 100,00 %
26.12.2017 14:50 -1,2 C 4,4 C 98 % 1009,6 hPa 0,0 l/m 1,6 km/h (1 Bft) O-NO 67 0 min 0,000 mm 0,0 UV-I 44 W/m -1,5 C -1,2 C 3,2 km/h (1 Bft) 91,30 %
26.12.2017 14:51 -1,2 C 4,4 C 98 % 1009,6 hPa 0,0 l/m 1,6 km/h (1 Bft) O-NO 67 0 min 0,000 mm 0,0 UV-I 44 W/m -1,5 C -1,2 C 4,8 km/h (1 Bft) 100,00 %
26.12.2017 14:52 -1,2 C 4,4 C 98 % 1009,7 hPa 0,0 l/m 1,6 km/h (1 Bft) O-NO 67 0 min 0,000 mm 0,0 UV-I 42 W/m -1,5 C -1,2 C 3,2 km/h (1 Bft) 95,65 %
26.12.2017 14:53 -1,2 C 4,4 C 98 % 1009,7 hPa 0,0 l/m 1,6 km/h (1 Bft) O-NO 67 0 min 0,000 mm 0,0 UV-I 44 W/m -1,5 C -1,2 C 3,2 km/h (1 Bft) 100,00 %
26.12.2017 14:54 -1,2 C 4,4 C 98 % 1009,7 hPa 0,0 l/m 3,2 km/h (1 Bft) O-NO 67 0 min 0,000 mm 0,0 UV-I 44 W/m -1,5 C -1,2 C 4,8 km/h (1 Bft) 95,65 %
26.12.2017 14:55 -1,2 C 4,4 C 98 % 1009,6 hPa 0,0 l/m 1,6 km/h (1 Bft) O-NO 67 0 min 0,000 mm 0,0 UV-I 44 W/m -1,5 C -1,2 C 3,2 km/h (1 Bft) 91,30 %
26.12.2017 14:56 -1,2 C 4,4 C 98 % 1009,6 hPa 0,0 l/m 0,0 km/h (0 Bft) O-NO 67 0 min 0,000 mm 0,0 UV-I 45 W/m -1,5 C -1,2 C 1,6 km/h (1 Bft) 100,00 %
26.12.2017 14:57 -1,2 C 4,4 C 98 % 1009,6 hPa 0,0 l/m 0,0 km/h (0 Bft) O-NO 67 0 min 0,000 mm 0,0 UV-I 44 W/m -1,5 C -1,2 C 1,6 km/h (1 Bft) 91,30 %
26.12.2017 14:58 -1,2 C 4,4 C 98 % 1009,6 hPa 0,0 l/m 0,0 km/h (0 Bft) O-NO 67 0 min 0,000 mm 0,0 UV-I 42 W/m -1,5 C -1,2 C 1,6 km/h (1 Bft) 100,00 %
26.12.2017 14:59 -1,2 C 4,4 C 98 % 1009,6 hPa 0,0 l/m 1,6 km/h (1 Bft) O-NO 67 0 min 0,000 mm 0,0 UV-I 42 W/m -1,5 C -1,2 C 4,8 km/h (1 Bft) 91,30 %
26.12.2017 15:00 -1,2 C 4,4 C 98 % 1009,6 hPa 0,0 l/m 3,2 km/h (1 Bft) O 90 0 min 0,025 mm 0,0 UV-I 44 W/m -1,5 C -1,2 C 4,8 km/h (1 Bft) 95,65 %
26.12.2017 15:01 -1,2 C 4,4 C 98 % 1009,5 hPa 0,0 l/m 4,8 km/h (1 Bft) O 90 0 min 0,000 mm 0,0 UV-I 42 W/m -1,5 C -1,2 C 6,4 km/h (2 Bft) 91,30 %
26.12.2017 15:02 -1,2 C 4,4 C 98 % 1009,5 hPa 0,0 l/m 4,8 km/h (1 Bft) O 90 0 min 0,000 mm 0,0 UV-I 42 W/m -1,5 C -1,2 C 6,4 km/h (2 Bft) 95,65 %
26.12.2017 15:03 -1,2 C 4,4 C 98 % 1009,5 hPa 0,0 l/m 3,2 km/h (1 Bft) O 90 0 min 0,000 mm 0,0 UV-I 42 W/m -1,5 C -1,2 C 4,8 km/h (1 Bft) 95,65 %
26.12.2017 15:04 -1,2 C 4,4 C 98 % 1009,5 hPa 0,0 l/m 3,2 km/h (1 Bft) O 90 0 min 0,000 mm 0,0 UV-I 42 W/m -1,5 C -1,2 C 3,2 km/h (1 Bft) 91,30 %
26.12.2017 15:05 -1,2 C 4,4 C 98 % 1009,5 hPa 0,0 l/m 1,6 km/h (1 Bft) O 90 0 min 0,000 mm 0,0 UV-I 42 W/m -1,5 C -1,2 C 3,2 km/h (1 Bft) 95,65 %
26.12.2017 15:06 -1,2 C 4,4 C 98 % 1009,5 hPa 0,0 l/m 3,2 km/h (1 Bft) O 90 0 min 0,000 mm 0,0 UV-I 42 W/m -1,5 C -1,2 C 4,8 km/h (1 Bft) 91,30 %
26.12.2017 15:07 -1,2 C 4,4 C 98 % 1009,6 hPa 0,0 l/m 4,8 km/h (1 Bft) O 90 0 min 0,000 mm 0,0 UV-I 44 W/m -1,5 C -1,2 C 6,4 km/h (2 Bft) 100,00 %
26.12.2017 15:08 -1,2 C 4,4 C 98 % 1009,5 hPa 0,0 l/m 4,8 km/h (1 Bft) O 90 0 min 0,000 mm 0,0 UV-I 43 W/m -1,5 C -1,2 C 6,4 km/h (2 Bft) 91,30 %
26.12.2017 15:09 -1,2 C 4,4 C 98 % 1009,5 hPa 0,0 l/m 3,2 km/h (1 Bft) O 90 0 min 0,000 mm 0,0 UV-I 42 W/m -1,5 C -1,2 C 4,8 km/h (1 Bft) 100,00 %
26.12.2017 15:10 -1,2 C 4,4 C 98 % 1009,5 hPa 0,0 l/m 3,2 km/h (1 Bft) O 90 0 min 0,000 mm 0,0 UV-I 40 W/m -1,5 C -1,2 C 4,8 km/h (1 Bft) 95,65 %
26.12.2017 15:11 -1,2 C 4,4 C 98 % 1009,6 hPa 0,0 l/m 3,2 km/h (1 Bft) O 90 0 min 0,000 mm 0,0 UV-I 40 W/m -1,5 C -1,2 C 4,8 km/h (1 Bft) 91,30 %
26.12.2017 15:12 -1,3 C 4,4 C 98 % 1009,5 hPa 0,0 l/m 1,6 km/h (1 Bft) O 90 0 min 0,000 mm 0,0 UV-I 42 W/m -1,6 C -1,3 C 3,2 km/h (1 Bft) 95,65 %
26.12.2017 15:13 -1,3 C 4,4 C 98 % 1009,5 hPa 0,0 l/m 1,6 km/h (1 Bft) O 90 0 min 0,000 mm 0,0 UV-I 42 W/m -1,6 C -1,3 C 1,6 km/h (1 Bft) 100,00 %
26.12.2017 15:14 -1,3 C 4,4 C 98 % 1009,5 hPa 0,0 l/m 0,0 km/h (0 Bft) O 90 0 min 0,000 mm 0,0 UV-I 44 W/m -1,6 C -1,3 C 3,2 km/h (1 Bft) 91,30 %
26.12.2017 15:15 -1,3 C 4,4 C 98 % 1009,5 hPa 0,0 l/m 0,0 km/h (0 Bft) O 90 0 min 0,000 mm 0,0 UV-I 42 W/m -1,6 C -1,3 C 1,6 km/h (1 Bft) 100,00 %
26.12.2017 15:16 -1,3 C 4,4 C 98 % 1009,5 hPa 0,0 l/m 0,0 km/h (0 Bft) N 0 0 min 0,000 mm 0,0 UV-I 42 W/m -1,6 C -1,3 C 0,0 km/h (0 Bft) 95,65 %
26.12.2017 15:17 -1,3 C 4,4 C 98 % 1009,6 hPa 0,0 l/m 0,0 km/h (0 Bft) N 0 0 min 0,000 mm 0,0 UV-I 42 W/m -1,6 C -1,3 C 0,0 km/h (0 Bft) 100,00 %
26.12.2017 15:18 -1,3 C 4,4 C 98 % 1009,7 hPa 0,0 l/m 1,6 km/h (1 Bft) O 90 0 min 0,000 mm 0,0 UV-I 40 W/m -1,6 C -1,3 C 3,2 km/h (1 Bft) 82,61 %
26.12.2017 15:19 -1,2 C 4,4 C 98 % 1009,7 hPa 0,0 l/m 1,6 km/h (1 Bft) O 90 0 min 0,000 mm 0,0 UV-I 38 W/m -1,5 C -1,2 C 3,2 km/h (1 Bft) 100,00 %
26.12.2017 15:20 -1,2 C 4,4 C 98 % 1009,7 hPa 0,0 l/m 0,0 km/h (0 Bft) O 90 0 min 0,000 mm 0,0 UV-I 35 W/m -1,5 C -1,2 C 1,6 km/h (1 Bft) 95,65 %
26.12.2017 15:21 -1,2 C 4,4 C 98 % 1009,7 hPa 0,0 l/m 0,0 km/h (0 Bft) N 0 0 min 0,000 mm 0,0 UV-I 35 W/m -1,5 C -1,2 C 0,0 km/h (0 Bft) 95,65 %
26.12.2017 15:22 -1,2 C 4,4 C 98 % 1009,7 hPa 0,0 l/m 0,0 km/h (0 Bft) O 90 0 min 0,000 mm 0,0 UV-I 35 W/m -1,5 C -1,2 C 3,2 km/h (1 Bft) 100,00 %
26.12.2017 15:23 -1,2 C 4,4 C 98 % 1009,6 hPa 0,0 l/m 1,6 km/h (1 Bft) O 90 0 min 0,000 mm 0,0 UV-I 35 W/m -1,5 C -1,2 C 3,2 km/h (1 Bft) 95,65 %
26.12.2017 15:24 -1,2 C 4,4 C 98 % 1009,6 hPa 0,0 l/m 1,6 km/h (1 Bft) O 90 0 min 0,000 mm 0,0 UV-I 35 W/m -1,5 C -1,2 C 3,2 km/h (1 Bft) 100,00 %
26.12.2017 15:25 -1,2 C 4,4 C 98 % 1009,7 hPa 0,0 l/m 1,6 km/h (1 Bft) O 90 0 min 0,000 mm 0,0 UV-I 34 W/m -1,5 C -1,2 C 3,2 km/h (1 Bft) 95,65 %
26.12.2017 15:26 -1,2 C 4,4 C 98 % 1009,6 hPa 0,0 l/m 0,0 km/h (0 Bft) O 90 0 min 0,000 mm 0,0 UV-I 33 W/m -1,5 C -1,2 C 1,6 km/h (1 Bft) 91,30 %
26.12.2017 15:27 -1,2 C 4,4 C 98 % 1009,7 hPa 0,0 l/m 1,6 km/h (1 Bft) O 90 0 min 0,000 mm 0,0 UV-I 33 W/m -1,5 C -1,2 C 1,6 km/h (1 Bft) 95,65 %
26.12.2017 15:28 -1,2 C 4,4 C 98 % 1009,7 hPa 0,0 l/m 1,6 km/h (1 Bft) O 90 0 min 0,000 mm 0,0 UV-I 32 W/m -1,5 C -1,2 C 3,2 km/h (1 Bft) 100,00 %
26.12.2017 15:29 -1,2 C 4,4 C 98 % 1009,7 hPa 0,0 l/m 0,0 km/h (0 Bft) O 90 0 min 0,000 mm 0,0 UV-I 32 W/m -1,5 C -1,2 C 1,6 km/h (1 Bft) 100,00 %
26.12.2017 15:30 -1,2 C 4,4 C 98 % 1009,7 hPa 0,0 l/m 0,0 km/h (0 Bft) O 90 0 min 0,000 mm 0,0 UV-I 32 W/m -1,5 C -1,2 C 1,6 km/h (1 Bft) 100,00 %
26.12.2017 15:31 -1,2 C 4,4 C 98 % 1009,7 hPa 0,0 l/m 0,0 km/h (0 Bft) N 0 0 min 0,000 mm 0,0 UV-I 31 W/m -1,5 C -1,2 C 0,0 km/h (0 Bft) 100,00 %
26.12.2017 15:32 -1,2 C 4,4 C 98 % 1009,7 hPa 0,0 l/m 0,0 km/h (0 Bft) N 0 0 min 0,000 mm 0,0 UV-I 30 W/m -1,5 C -1,2 C 0,0 km/h (0 Bft) 91,30 %
26.12.2017 15:33 -1,1 C 4,4 C 98 % 1009,7 hPa 0,0 l/m 1,6 km/h (1 Bft) O 90 0 min 0,000 mm 0,0 UV-I 30 W/m -1,4 C -1,1 C 1,6 km/h (1 Bft) 100,00 %
26.12.2017 15:34 -1,1 C 4,4 C 98 % 1009,7 hPa 0,0 l/m 0,0 km/h (0 Bft) O 90 0 min 0,000 mm 0,0 UV-I 33 W/m -1,4 C -1,1 C 1,6 km/h (1 Bft) 100,00 %
26.12.2017 15:35 -1,1 C 4,4 C 98 % 1009,6 hPa 0,0 l/m 1,6 km/h (1 Bft) O 90 0 min 0,000 mm 0,0 UV-I 37 W/m -1,4 C -1,1 C 4,8 km/h (1 Bft) 100,00 %
26.12.2017 15:36 -1,1 C 4,4 C 98 % 1009,6 hPa 0,0 l/m 3,2 km/h (1 Bft) O 90 0 min 0,000 mm 0,0 UV-I 39 W/m -1,4 C -1,1 C 3,2 km/h (1 Bft) 100,00 %
26.12.2017 15:37 -1,1 C 4,4 C 98 % 1009,6 hPa 0,0 l/m 3,2 km/h (1 Bft) O 90 0 min 0,000 mm 0,0 UV-I 37 W/m -1,4 C -1,1 C 4,8 km/h (1 Bft) 100,00 %
26.12.2017 15:38 -1,1 C 4,4 C 98 % 1009,5 hPa 0,0 l/m 4,8 km/h (1 Bft) O-NO 67 0 min 0,000 mm 0,0 UV-I 33 W/m -1,4 C -1,1 C 6,4 km/h (2 Bft) 100,00 %
26.12.2017 15:39 -1,1 C 4,4 C 98 % 1009,5 hPa 0,0 l/m 4,8 km/h (1 Bft) O-NO 67 0 min 0,000 mm 0,0 UV-I 32 W/m -1,4 C -1,1 C 4,8 km/h (1 Bft) 95,65 %
26.12.2017 15:40 -1,1 C 4,4 C 98 % 1009,5 hPa 0,0 l/m 3,2 km/h (1 Bft) O-NO 67 0 min 0,000 mm 0,0 UV-I 32 W/m -1,4 C -1,1 C 6,4 km/h (2 Bft) 100,00 %
26.12.2017 15:41 -1,0 C 4,4 C 98 % 1009,5 hPa 0,0 l/m 4,8 km/h (1 Bft) O-NO 67 0 min 0,000 mm 0,0 UV-I 32 W/m -1,3 C -1,0 C 6,4 km/h (2 Bft) 100,00 %
26.12.2017 15:42 -1,0 C 4,4 C 98 % 1009,5 hPa 0,0 l/m 4,8 km/h (1 Bft) O-NO 67 0 min 0,000 mm 0,0 UV-I 30 W/m -1,3 C -1,0 C 4,8 km/h (1 Bft) 100,00 %
26.12.2017 15:43 -1,1 C 4,4 C 98 % 1009,4 hPa 0,0 l/m 4,8 km/h (1 Bft) O-NO 67 0 min 0,000 mm 0,0 UV-I 26 W/m -1,4 C -1,1 C 6,4 km/h (2 Bft) 100,00 %
26.12.2017 15:44 -1,1 C 4,4 C 98 % 1009,4 hPa 0,0 l/m 6,4 km/h (2 Bft) NO 45 0 min 0,000 mm 0,0 UV-I 26 W/m -1,4 C -1,1 C 8,0 km/h (2 Bft) 100,00 %
26.12.2017 15:45 -1,1 C 4,4 C 98 % 1009,4 hPa 0,0 l/m 4,8 km/h (1 Bft) NO 45 0 min 0,000 mm 0,0 UV-I 26 W/m -1,4 C -1,1 C 8,0 km/h (2 Bft) 100,00 %
26.12.2017 15:46 -1,1 C 4,4 C 98 % 1009,4 hPa 0,0 l/m 1,6 km/h (1 Bft) NO 45 0 min 0,000 mm 0,0 UV-I 26 W/m -1,4 C -1,1 C 3,2 km/h (1 Bft) 95,65 %
26.12.2017 15:47 -1,1 C 4,4 C 98 % 1009,4 hPa 0,0 l/m 1,6 km/h (1 Bft) NO 45 0 min 0,000 mm 0,0 UV-I 26 W/m -1,4 C -1,1 C 3,2 km/h (1 Bft) 100,00 %
26.12.2017 15:48 -1,1 C 4,4 C 98 % 1009,5 hPa 0,0 l/m 3,2 km/h (1 Bft) NO 45 0 min 0,000 mm 0,0 UV-I 26 W/m -1,4 C -1,1 C 3,2 km/h (1 Bft) 100,00 %
26.12.2017 15:49 -1,2 C 4,4 C 98 % 1009,4 hPa 0,0 l/m 3,2 km/h (1 Bft) NO 45 0 min 0,000 mm 0,0 UV-I 26 W/m -1,5 C -1,2 C 4,8 km/h (1 Bft) 95,65 %
26.12.2017 15:50 -1,2 C 4,4 C 98 % 1009,5 hPa 0,0 l/m 4,8 km/h (1 Bft) NO 45 1 min 0,000 mm 0,0 UV-I 25 W/m -1,5 C -1,2 C 6,4 km/h (2 Bft) 95,65 %
26.12.2017 15:51 -1,2 C 4,4 C 98 % 1009,5 hPa 0,0 l/m 4,8 km/h (1 Bft) NO 45 0 min 0,000 mm 0,0 UV-I 23 W/m -1,5 C -1,2 C 6,4 km/h (2 Bft) 100,00 %
26.12.2017 15:52 -1,2 C 4,4 C 98 % 1009,5 hPa 0,0 l/m 6,4 km/h (2 Bft) N-NO 22 0 min 0,000 mm 0,0 UV-I 21 W/m -1,5 C -1,2 C 6,4 km/h (2 Bft) 95,65 %
26.12.2017 15:53 -1,2 C 4,4 C 98 % 1009,5 hPa 0,0 l/m 4,8 km/h (1 Bft) N-NO 22 0 min 0,000 mm 0,0 UV-I 21 W/m -1,5 C -1,2 C 6,4 km/h (2 Bft) 95,65 %
26.12.2017 15:54 -1,2 C 4,4 C 98 % 1009,6 hPa 0,0 l/m 1,6 km/h (1 Bft) N-NO 22 0 min 0,000 mm 0,0 UV-I 19 W/m -1,5 C -1,2 C 3,2 km/h (1 Bft) 95,65 %
26.12.2017 15:55 -1,2 C 4,4 C 98 % 1009,5 hPa 0,0 l/m 3,2 km/h (1 Bft) N-NO 22 1 min 0,000 mm 0,0 UV-I 20 W/m -1,5 C -1,2 C 4,8 km/h (1 Bft) 100,00 %
26.12.2017 15:56 -1,2 C 4,4 C 98 % 1009,5 hPa 0,0 l/m 4,8 km/h (1 Bft) N-NO 22 1 min 0,000 mm 0,0 UV-I 21 W/m -1,5 C -1,2 C 6,4 km/h (2 Bft) 100,00 %
26.12.2017 15:57 -1,2 C 4,4 C 98 % 1009,5 hPa 0,0 l/m 1,6 km/h (1 Bft) NO 45 1 min 0,000 mm 0,0 UV-I 21 W/m -1,5 C -1,2 C 3,2 km/h (1 Bft) 100,00 %
26.12.2017 15:58 -1,2 C 4,4 C 98 % 1009,4 hPa 0,0 l/m 1,6 km/h (1 Bft) NO 45 1 min 0,000 mm 0,0 UV-I 21 W/m -1,5 C -1,2 C 4,8 km/h (1 Bft) 100,00 %
26.12.2017 15:59 -1,2 C 4,4 C 98 % 1009,4 hPa 0,0 l/m 3,2 km/h (1 Bft) NO 45 1 min 0,000 mm 0,0 UV-I 19 W/m -1,5 C -1,2 C 4,8 km/h (1 Bft) 100,00 %
26.12.2017 16:00 -1,2 C 4,4 C 98 % 1009,4 hPa 0,0 l/m 4,8 km/h (1 Bft) NO 45 1 min 0,000 mm 0,0 UV-I 19 W/m -1,5 C -1,2 C 6,4 km/h (2 Bft) 95,65 %
26.12.2017 16:01 -1,2 C 4,4 C 98 % 1009,4 hPa 0,0 l/m 4,8 km/h (1 Bft) NO 45 1 min 0,000 mm 0,0 UV-I 18 W/m -1,5 C -1,2 C 6,4 km/h (2 Bft) 100,00 %
26.12.2017 16:02 -1,2 C 4,4 C 98 % 1009,4 hPa 0,0 l/m 1,6 km/h (1 Bft) NO 45 1 min 0,000 mm 0,0 UV-I 18 W/m -1,5 C -1,2 C 3,2 km/h (1 Bft) 100,00 %
26.12.2017 16:03 -1,2 C 4,4 C 98 % 1009,4 hPa 0,0 l/m 3,2 km/h (1 Bft) NO 45 1 min 0,000 mm 0,0 UV-I 18 W/m -1,5 C -1,2 C 4,8 km/h (1 Bft) 100,00 %
26.12.2017 16:04 -1,2 C 4,4 C 98 % 1009,4 hPa 0,0 l/m 3,2 km/h (1 Bft) NO 45 0 min 0,000 mm 0,0 UV-I 18 W/m -1,5 C -1,2 C 4,8 km/h (1 Bft) 100,00 %
26.12.2017 16:05 -1,2 C 4,4 C 98 % 1009,4 hPa 0,0 l/m 3,2 km/h (1 Bft) NO 45 0 min 0,000 mm 0,0 UV-I 16 W/m -1,5 C -1,2 C 4,8 km/h (1 Bft) 100,00 %
26.12.2017 16:06 -1,3 C 4,4 C 98 % 1009,3 hPa 0,0 l/m 3,2 km/h (1 Bft) NO 45 0 min 0,000 mm 0,0 UV-I 12 W/m -1,6 C -1,3 C 4,8 km/h (1 Bft) 100,00 %
26.12.2017 16:07 -1,2 C 4,4 C 98 % 1009,3 hPa 0,0 l/m 1,6 km/h (1 Bft) NO 45 0 min 0,000 mm 0,0 UV-I 12 W/m -1,5 C -1,2 C 3,2 km/h (1 Bft) 100,00 %
26.12.2017 16:08 -1,2 C 4,4 C 98 % 1009,4 hPa 0,0 l/m 0,0 km/h (0 Bft) N 0 0 min 0,000 mm 0,0 UV-I 11 W/m -1,5 C -1,2 C 0,0 km/h (0 Bft) 95,65 %
26.12.2017 16:09 -1,2 C 4,4 C 98 % 1009,5 hPa 0,0 l/m 1,6 km/h (1 Bft) NO 45 0 min 0,000 mm 0,0 UV-I 11 W/m -1,5 C -1,2 C 3,2 km/h (1 Bft) 100,00 %
26.12.2017 16:10 -1,2 C 4,4 C 98 % 1009,5 hPa 0,0 l/m 3,2 km/h (1 Bft) NO 45 0 min 0,000 mm 0,0 UV-I 11 W/m -1,5 C -1,2 C 4,8 km/h (1 Bft) 100,00 %
26.12.2017 16:11 -1,2 C 4,4 C 98 % 1009,6 hPa 0,0 l/m 0,0 km/h (0 Bft) NW 315 0 min 0,000 mm 0,0 UV-I 11 W/m -1,5 C -1,2 C 1,6 km/h (1 Bft) 100,00 %
26.12.2017 16:12 -1,2 C 4,4 C 98 % 1009,6 hPa 0,0 l/m 0,0 km/h (0 Bft) NW 315 0 min 0,000 mm 0,0 UV-I 10 W/m -1,5 C -1,2 C 1,6 km/h (1 Bft) 100,00 %
26.12.2017 16:13 -1,2 C 4,4 C 98 % 1009,7 hPa 0,0 l/m 0,0 km/h (0 Bft) NW 315 0 min 0,000 mm 0,0 UV-I 9 W/m -1,5 C -1,2 C 1,6 km/h (1 Bft) 100,00 %
26.12.2017 16:14 -1,2 C 4,4 C 98 % 1009,7 hPa 0,0 l/m 0,0 km/h (0 Bft) NW 315 0 min 0,000 mm 0,0 UV-I 9 W/m -1,5 C -1,2 C 1,6 km/h (1 Bft) 95,65 %
26.12.2017 16:15 -1,2 C 4,4 C 98 % 1009,7 hPa 0,0 l/m 1,6 km/h (1 Bft) NW 315 0 min 0,000 mm 0,0 UV-I 9 W/m -1,5 C -1,2 C 3,2 km/h (1 Bft) 100,00 %
26.12.2017 16:16 -1,2 C 4,4 C 98 % 1009,7 hPa 0,0 l/m 3,2 km/h (1 Bft) NW 315 0 min 0,000 mm 0,0 UV-I 9 W/m -1,5 C -1,2 C 3,2 km/h (1 Bft) 100,00 %
26.12.2017 16:17 -1,2 C 4,4 C 98 % 1009,7 hPa 0,0 l/m 0,0 km/h (0 Bft) NW 315 0 min 0,000 mm 0,0 UV-I 9 W/m -1,5 C -1,2 C 1,6 km/h (1 Bft) 100,00 %
26.12.2017 16:18 -1,2 C 4,4 C 98 % 1009,7 hPa 0,0 l/m 0,0 km/h (0 Bft) NW 315 0 min 0,000 mm 0,0 UV-I 9 W/m -1,5 C -1,2 C 1,6 km/h (1 Bft) 100,00 %
26.12.2017 16:19 -1,2 C 4,4 C 98 % 1009,7 hPa 0,0 l/m 1,6 km/h (1 Bft) NW 315 0 min 0,000 mm 0,0 UV-I 9 W/m -1,5 C -1,2 C 6,4 km/h (2 Bft) 100,00 %
26.12.2017 16:20 -1,2 C 4,4 C 98 % 1009,7 hPa 0,0 l/m 4,8 km/h (1 Bft) N-NO 22 0 min 0,000 mm 0,0 UV-I 9 W/m -1,5 C -1,2 C 6,4 km/h (2 Bft) 100,00 %
26.12.2017 16:21 -1,2 C 4,4 C 98 % 1009,6 hPa 0,0 l/m 3,2 km/h (1 Bft) N-NO 22 0 min 0,000 mm 0,0 UV-I 9 W/m -1,5 C -1,2 C 6,4 km/h (2 Bft) 91,30 %
26.12.2017 16:22 -1,2 C 4,4 C 98 % 1009,7 hPa 0,0 l/m 1,6 km/h (1 Bft) N-NO 22 0 min 0,000 mm 0,0 UV-I 9 W/m -1,5 C -1,2 C 3,2 km/h (1 Bft) 100,00 %
26.12.2017 16:23 -1,2 C 4,4 C 98 % 1009,8 hPa 0,0 l/m 1,6 km/h (1 Bft) N-NO 22 0 min 0,000 mm 0,0 UV-I 7 W/m -1,5 C -1,2 C 3,2 km/h (1 Bft) 100,00 %
26.12.2017 16:24 -1,2 C 4,4 C 98 % 1009,9 hPa 0,0 l/m 6,4 km/h (2 Bft) W 270 0 min 0,000 mm 0,0 UV-I 7 W/m -1,5 C -1,2 C 9,7 km/h (2 Bft) 95,65 %
26.12.2017 16:25 -1,2 C 4,4 C 98 % 1010,0 hPa 0,0 l/m 4,8 km/h (1 Bft) W 270 0 min 0,000 mm 0,0 UV-I 7 W/m -1,5 C -1,2 C 6,4 km/h (2 Bft) 95,65 %
26.12.2017 16:26 -1,2 C 4,4 C 98 % 1010,1 hPa 0,0 l/m 1,6 km/h (1 Bft) W 270 0 min 0,000 mm 0,0 UV-I 7 W/m -1,5 C -1,2 C 3,2 km/h (1 Bft) 100,00 %
26.12.2017 16:27 -1,2 C 4,4 C 98 % 1010,1 hPa 0,0 l/m 1,6 km/h (1 Bft) W 270 0 min 0,000 mm 0,0 UV-I 7 W/m -1,5 C -1,2 C 3,2 km/h (1 Bft) 91,30 %
26.12.2017 16:28 -1,2 C 4,4 C 98 % 1010,2 hPa 0,0 l/m 3,2 km/h (1 Bft) W-NW 292 0 min 0,000 mm 0,0 UV-I 5 W/m -1,5 C -1,2 C 4,8 km/h (1 Bft) 95,65 %
26.12.2017 16:29 -1,2 C 4,4 C 98 % 1010,3 hPa 0,0 l/m 3,2 km/h (1 Bft) W-NW 292 0 min 0,000 mm 0,0 UV-I 5 W/m -1,5 C -1,2 C 4,8 km/h (1 Bft) 95,65 %
26.12.2017 16:30 -1,2 C 4,4 C 98 % 1010,3 hPa 0,0 l/m 4,8 km/h (1 Bft) W 270 0 min 0,000 mm 0,0 UV-I 5 W/m -1,5 C -1,2 C 6,4 km/h (2 Bft) 100,00 %
26.12.2017 16:31 -1,2 C 4,4 C 98 % 1010,3 hPa 0,0 l/m 3,2 km/h (1 Bft) W 270 0 min 0,000 mm 0,0 UV-I 0 W/m -1,5 C -1,2 C 6,4 km/h (2 Bft) 91,30 %
26.12.2017 16:32 -1,2 C 4,4 C 98 % 1010,3 hPa 0,0 l/m 1,6 km/h (1 Bft) W 270 0 min 0,000 mm 0,0 UV-I 0 W/m -1,5 C -1,2 C 3,2 km/h (1 Bft) 100,00 %
26.12.2017 16:33 -1,2 C 4,4 C 98 % 1010,2 hPa 0,0 l/m 3,2 km/h (1 Bft) W 270 0 min 0,000 mm 0,0 UV-I 0 W/m -1,5 C -1,2 C 4,8 km/h (1 Bft) 91,30 %
26.12.2017 16:34 -1,2 C 4,4 C 98 % 1010,2 hPa 0,0 l/m 3,2 km/h (1 Bft) W-SW 247 0 min 0,000 mm 0,0 UV-I 0 W/m -1,5 C -1,2 C 4,8 km/h (1 Bft) 100,00 %
26.12.2017 16:35 -1,2 C 4,4 C 98 % 1010,2 hPa 0,0 l/m 4,8 km/h (1 Bft) W-SW 247 0 min 0,000 mm 0,0 UV-I 0 W/m -1,5 C -1,2 C 6,4 km/h (2 Bft) 91,30 %
26.12.2017 16:36 -1,2 C 4,4 C 98 % 1010,2 hPa 0,0 l/m 4,8 km/h (1 Bft) W-SW 247 0 min 0,000 mm 0,0 UV-I 0 W/m -1,5 C -1,2 C 6,4 km/h (2 Bft) 95,65 %
26.12.2017 16:37 -1,2 C 4,4 C 98 % 1010,2 hPa 0,0 l/m 6,4 km/h (2 Bft) W 270 0 min 0,000 mm 0,0 UV-I 0 W/m -1,5 C -1,2 C 11,3 km/h (2 Bft) 95,65 %
26.12.2017 16:38 -1,3 C 4,4 C 98 % 1010,3 hPa 0,0 l/m 6,4 km/h (2 Bft) W-SW 247 0 min 0,000 mm 0,0 UV-I 0 W/m -1,6 C -1,3 C 8,0 km/h (2 Bft) 95,65 %
26.12.2017 16:39 -1,3 C 4,4 C 98 % 1010,4 hPa 0,0 l/m 4,8 km/h (1 Bft) W 270 0 min 0,000 mm 0,0 UV-I 0 W/m -1,6 C -1,3 C 6,4 km/h (2 Bft) 91,30 %
26.12.2017 16:40 -1,3 C 4,4 C 98 % 1010,5 hPa 0,0 l/m 4,8 km/h (1 Bft) W 270 0 min 0,000 mm 0,0 UV-I 0 W/m -1,6 C -1,3 C 4,8 km/h (1 Bft) 100,00 %
26.12.2017 16:41 -1,3 C 4,4 C 98 % 1010,5 hPa 0,0 l/m 3,2 km/h (1 Bft) W 270 0 min 0,000 mm 0,0 UV-I 0 W/m -1,6 C -1,3 C 4,8 km/h (1 Bft) 91,30 %
26.12.2017 16:42 -1,3 C 4,4 C 98 % 1010,5 hPa 0,0 l/m 3,2 km/h (1 Bft) W 270 0 min 0,000 mm 0,0 UV-I 0 W/m -1,6 C -1,3 C 4,8 km/h (1 Bft) 91,30 %
26.12.2017 16:43 -1,3 C 4,4 C 98 % 1010,6 hPa 0,0 l/m 3,2 km/h (1 Bft) W 270 0 min 0,000 mm 0,0 UV-I 0 W/m -1,6 C -1,3 C 4,8 km/h (1 Bft) 95,65 %
26.12.2017 16:44 -1,2 C 4,4 C 98 % 1010,6 hPa 0,0 l/m 6,4 km/h (2 Bft) W 270 0 min 0,000 mm 0,0 UV-I 0 W/m -1,5 C -1,2 C 14,5 km/h (3 Bft) 100,00 %
26.12.2017 16:45 -1,2 C 4,4 C 98 % 1010,5 hPa 0,0 l/m 1,6 km/h (1 Bft) W 270 0 min 0,000 mm 0,0 UV-I 0 W/m -1,5 C -1,2 C 14,5 km/h (3 Bft) 95,65 %
26.12.2017 16:46 -1,2 C 4,4 C 98 % 1010,5 hPa 0,0 l/m 4,8 km/h (1 Bft) W-NW 292 0 min 0,000 mm 0,0 UV-I 0 W/m -1,5 C -1,2 C 9,7 km/h (2 Bft) 95,65 %
26.12.2017 16:47 -1,2 C 4,4 C 98 % 1010,5 hPa 0,0 l/m 3,2 km/h (1 Bft) W-NW 292 0 min 0,000 mm 0,0 UV-I 0 W/m -1,5 C -1,2 C 6,4 km/h (2 Bft) 100,00 %
26.12.2017 16:48 -1,2 C 4,4 C 98 % 1010,5 hPa 0,0 l/m 4,8 km/h (1 Bft) W 270 0 min 0,000 mm 0,0 UV-I 0 W/m -1,5 C -1,2 C 9,7 km/h (2 Bft) 95,65 %
26.12.2017 16:49 -1,2 C 4,4 C 98 % 1010,8 hPa 0,0 l/m 4,8 km/h (1 Bft) W 270 0 min 0,000 mm 0,0 UV-I 0 W/m -1,5 C -1,2 C 9,7 km/h (2 Bft) 95,65 %
26.12.2017 16:50 -1,2 C 4,4 C 98 % 1010,8 hPa 0,0 l/m 6,4 km/h (2 Bft) W 270 0 min 0,000 mm 0,0 UV-I 0 W/m -1,5 C -1,2 C 12,9 km/h (3 Bft) 95,65 %
26.12.2017 16:51 -1,2 C 4,4 C 98 % 1010,7 hPa 0,0 l/m 3,2 km/h (1 Bft) SW 225 0 min 0,000 mm 0,0 UV-I 0 W/m -1,5 C -1,2 C 9,7 km/h (2 Bft) 100,00 %
26.12.2017 16:52 -1,2 C 4,4 C 98 % 1010,7 hPa 0,0 l/m 4,8 km/h (1 Bft) W-SW 247 0 min 0,000 mm 0,0 UV-I 0 W/m -1,5 C -1,2 C 6,4 km/h (2 Bft) 95,65 %
26.12.2017 16:53 -1,2 C 4,4 C 98 % 1010,7 hPa 0,0 l/m 4,8 km/h (1 Bft) W 270 0 min 0,000 mm 0,0 UV-I 0 W/m -1,5 C -1,2 C 6,4 km/h (2 Bft) 100,00 %
26.12.2017 16:54 -1,2 C 4,4 C 98 % 1010,8 hPa 0,0 l/m 6,4 km/h (2 Bft) W 270 0 min 0,000 mm 0,0 UV-I 0 W/m -1,5 C -1,2 C 9,7 km/h (2 Bft) 91,30 %
26.12.2017 16:55 -1,2 C 4,4 C 98 % 1010,9 hPa 0,0 l/m 4,8 km/h (1 Bft) W 270 0 min 0,000 mm 0,0 UV-I 0 W/m -1,5 C -1,2 C 11,3 km/h (2 Bft) 95,65 %
26.12.2017 16:56 -1,2 C 4,4 C 98 % 1010,9 hPa 0,0 l/m 6,4 km/h (2 Bft) W 270 0 min 0,000 mm 0,0 UV-I 0 W/m -1,5 C -1,2 C 9,7 km/h (2 Bft) 91,30 %
26.12.2017 16:57 -1,2 C 4,4 C 98 % 1010,9 hPa 0,0 l/m 4,8 km/h (1 Bft) W-SW 247 0 min 0,000 mm 0,0 UV-I 0 W/m -1,5 C -1,2 C 6,4 km/h (2 Bft) 91,30 %
26.12.2017 16:58 -1,2 C 4,4 C 98 % 1010,9 hPa 0,0 l/m 4,8 km/h (1 Bft) W 270 0 min 0,000 mm 0,0 UV-I 0 W/m -1,5 C -1,2 C 6,4 km/h (2 Bft) 95,65 %
26.12.2017 16:59 -1,2 C 4,4 C 98 % 1010,9 hPa 0,0 l/m 6,4 km/h (2 Bft) W 270 0 min 0,000 mm 0,0 UV-I 0 W/m -1,5 C -1,2 C 6,4 km/h (2 Bft) 95,65 %
26.12.2017 17:00 -1,2 C 4,4 C 98 % 1011,0 hPa 0,0 l/m 9,7 km/h (2 Bft) W 270 0 min 0,000 mm 0,0 UV-I 0 W/m -1,5 C -4,5 C 14,5 km/h (3 Bft) 100,00 %
26.12.2017 17:01 -1,2 C 4,4 C 98 % 1011,0 hPa 0,0 l/m 6,4 km/h (2 Bft) NW 315 0 min 0,000 mm 0,0 UV-I 0 W/m -1,5 C -1,2 C 12,9 km/h (3 Bft) 95,65 %
26.12.2017 17:02 -1,2 C 4,4 C 98 % 1010,9 hPa 0,0 l/m 3,2 km/h (1 Bft) N-NO 22 0 min 0,000 mm 0,0 UV-I 0 W/m -1,5 C -1,2 C 8,0 km/h (2 Bft) 100,00 %
26.12.2017 17:03 -1,2 C 4,4 C 98 % 1010,8 hPa 0,0 l/m 3,2 km/h (1 Bft) N-NO 22 0 min 0,000 mm 0,0 UV-I 0 W/m -1,5 C -1,2 C 6,4 km/h (2 Bft) 91,30 %
26.12.2017 17:04 -1,2 C 4,4 C 98 % 1010,9 hPa 0,0 l/m 8,0 km/h (2 Bft) W-SW 247 0 min 0,000 mm 0,0 UV-I 0 W/m -1,5 C -2,9 C 9,7 km/h (2 Bft) 95,65 %
26.12.2017 17:05 -1,2 C 4,4 C 98 % 1011,1 hPa 0,0 l/m 8,0 km/h (2 Bft) SW 225 0 min 0,000 mm 0,0 UV-I 0 W/m -1,5 C -2,9 C 14,5 km/h (3 Bft) 100,00 %
26.12.2017 17:06 -1,2 C 4,4 C 98 % 1011,0 hPa 0,0 l/m 11,3 km/h (2 Bft) W 270 0 min 0,000 mm 0,0 UV-I 0 W/m -1,5 C -5,8 C 16,1 km/h (3 Bft) 91,30 %
26.12.2017 17:07 -1,3 C 4,4 C 98 % 1011,1 hPa 0,0 l/m 12,9 km/h (3 Bft) W 270 0 min 0,000 mm 0,0 UV-I 0 W/m -1,6 C -7,2 C 16,1 km/h (3 Bft) 100,00 %
26.12.2017 17:08 -1,3 C 4,4 C 98 % 1011,1 hPa 0,0 l/m 4,8 km/h (1 Bft) W-SW 247 0 min 0,000 mm 0,0 UV-I 0 W/m -1,6 C -1,3 C 16,1 km/h (3 Bft) 95,65 %
26.12.2017 17:09 -1,3 C 4,4 C 98 % 1011,0 hPa 0,0 l/m 8,0 km/h (2 Bft) W-SW 247 0 min 0,000 mm 0,0 UV-I 0 W/m -1,6 C -3,0 C 11,3 km/h (2 Bft) 100,00 %
26.12.2017 17:10 -1,3 C 4,4 C 98 % 1011,1 hPa 0,0 l/m 6,4 km/h (2 Bft) W 270 0 min 0,000 mm 0,0 UV-I 0 W/m -1,6 C -1,3 C 9,7 km/h (2 Bft) 91,30 %
26.12.2017 17:11 -1,3 C 4,4 C 98 % 1011,1 hPa 0,0 l/m 8,0 km/h (2 Bft) W-SW 247 0 min 0,000 mm 0,0 UV-I 0 W/m -1,6 C -3,0 C 11,3 km/h (2 Bft) 100,00 %
26.12.2017 17:12 -1,3 C 4,4 C 98 % 1011,1 hPa 0,0 l/m 6,4 km/h (2 Bft) W-SW 247 0 min 0,000 mm 0,0 UV-I 0 W/m -1,6 C -1,3 C 8,0 km/h (2 Bft) 95,65 %
26.12.2017 17:13 -1,3 C 4,4 C 98 % 1011,1 hPa 0,0 l/m 4,8 km/h (1 Bft) W 270 0 min 0,000 mm 0,0 UV-I 0 W/m -1,6 C -1,3 C 9,7 km/h (2 Bft) 100,00 %
26.12.2017 17:14 -1,3 C 4,4 C 98 % 1011,0 hPa 0,0 l/m 4,8 km/h (1 Bft) W-SW 247 0 min 0,000 mm 0,0 UV-I 0 W/m -1,6 C -1,3 C 8,0 km/h (2 Bft) 100,00 %
26.12.2017 17:15 -1,3 C 4,4 C 98 % 1011,1 hPa 0,0 l/m 6,4 km/h (2 Bft) W-SW 247 0 min 0,000 mm 0,0 UV-I 0 W/m -1,6 C -1,3 C 11,3 km/h (2 Bft) 100,00 %
26.12.2017 17:16 -1,3 C 4,4 C 98 % 1011,1 hPa 0,0 l/m 12,9 km/h (3 Bft) SW 225 0 min 0,000 mm 0,0 UV-I 0 W/m -1,6 C -7,2 C 17,7 km/h (3 Bft) 95,65 %
26.12.2017 17:17 -1,3 C 4,4 C 98 % 1011,1 hPa 0,0 l/m 8,0 km/h (2 Bft) W-SW 247 0 min 0,000 mm 0,0 UV-I 0 W/m -1,6 C -3,0 C 12,9 km/h (3 Bft) 95,65 %
26.12.2017 17:18 -1,3 C 4,4 C 98 % 1011,1 hPa 0,0 l/m 9,7 km/h (2 Bft) W 270 0 min 0,000 mm 0,0 UV-I 0 W/m -1,6 C -4,6 C 14,5 km/h (3 Bft) 100,00 %
26.12.2017 17:19 -1,3 C 4,4 C 98 % 1011,1 hPa 0,0 l/m 11,3 km/h (2 Bft) W 270 0 min 0,000 mm 0,0 UV-I 0 W/m -1,6 C -6,0 C 12,9 km/h (3 Bft) 100,00 %
26.12.2017 17:20 -1,3 C 4,4 C 98 % 1011,1 hPa 0,0 l/m 8,0 km/h (2 Bft) SW 225 0 min 0,000 mm 0,0 UV-I 0 W/m -1,6 C -3,0 C 11,3 km/h (2 Bft) 100,00 %
26.12.2017 17:21 -1,3 C 4,4 C 98 % 1011,1 hPa 0,0 l/m 8,0 km/h (2 Bft) W-SW 247 0 min 0,000 mm 0,0 UV-I 0 W/m -1,6 C -3,0 C 9,7 km/h (2 Bft) 100,00 %
26.12.2017 17:22 -1,3 C 4,4 C 98 % 1011,0 hPa 0,0 l/m 6,4 km/h (2 Bft) S-SW 202 0 min 0,000 mm 0,0 UV-I 0 W/m -1,6 C -1,3 C 8,0 km/h (2 Bft) 100,00 %
26.12.2017 17:23 -1,3 C 4,4 C 98 % 1010,9 hPa 0,0 l/m 4,8 km/h (1 Bft) S-SW 202 0 min 0,000 mm 0,0 UV-I 0 W/m -1,6 C -1,3 C 8,0 km/h (2 Bft) 100,00 %
26.12.2017 17:24 -1,3 C 4,4 C 98 % 1010,8 hPa 0,0 l/m 6,4 km/h (2 Bft) S-SW 202 0 min 0,000 mm 0,0 UV-I 0 W/m -1,6 C -1,3 C 9,7 km/h (2 Bft) 91,30 %
26.12.2017 17:25 -1,3 C 4,4 C 98 % 1010,9 hPa 0,0 l/m 8,0 km/h (2 Bft) W-SW 247 0 min 0,000 mm 0,0 UV-I 0 W/m -1,6 C -3,0 C 9,7 km/h (2 Bft) 100,00 %
26.12.2017 17:26 -1,3 C 4,4 C 98 % 1010,9 hPa 0,0 l/m 6,4 km/h (2 Bft) SW 225 0 min 0,000 mm 0,0 UV-I 0 W/m -1,6 C -1,3 C 8,0 km/h (2 Bft) 100,00 %
26.12.2017 17:27 -1,3 C 4,4 C 98 % 1010,9 hPa 0,0 l/m 8,0 km/h (2 Bft) S-SW 202 0 min 0,000 mm 0,0 UV-I 0 W/m -1,6 C -3,0 C 14,5 km/h (3 Bft) 100,00 %
26.12.2017 17:28 -1,2 C 4,4 C 98 % 1011,0 hPa 0,0 l/m 9,7 km/h (2 Bft) S-SW 202 0 min 0,000 mm 0,0 UV-I 0 W/m -1,5 C -4,5 C 11,3 km/h (2 Bft) 100,00 %
26.12.2017 17:29 -1,3 C 4,4 C 98 % 1011,0 hPa 0,0 l/m 9,7 km/h (2 Bft) S-SW 202 0 min 0,000 mm 0,0 UV-I 0 W/m -1,6 C -4,6 C 12,9 km/h (3 Bft) 100,00 %
26.12.2017 17:30 -1,2 C 4,4 C 98 % 1010,9 hPa 0,0 l/m 11,3 km/h (2 Bft) S-SW 202 0 min 0,000 mm 0,0 UV-I 0 W/m -1,5 C -5,8 C 14,5 km/h (3 Bft) 100,00 %
26.12.2017 17:31 -1,2 C 4,4 C 98 % 1010,9 hPa 0,0 l/m 8,0 km/h (2 Bft) S-SW 202 0 min 0,000 mm 0,0 UV-I 0 W/m -1,5 C -2,9 C 11,3 km/h (2 Bft) 95,65 %
26.12.2017 17:32 -1,2 C 4,4 C 98 % 1010,9 hPa 0,0 l/m 8,0 km/h (2 Bft) S-SW 202 0 min 0,000 mm 0,0 UV-I 0 W/m -1,5 C -2,9 C 9,7 km/h (2 Bft) 100,00 %
26.12.2017 17:33 -1,2 C 4,4 C 98 % 1010,9 hPa 0,0 l/m 8,0 km/h (2 Bft) S-SW 202 0 min 0,000 mm 0,0 UV-I 0 W/m -1,5 C -2,9 C 11,3 km/h (2 Bft) 100,00 %
26.12.2017 17:34 -1,2 C 4,4 C 98 % 1010,9 hPa 0,0 l/m 4,8 km/h (1 Bft) S-SW 202 0 min 0,000 mm 0,0 UV-I 0 W/m -1,5 C -1,2 C 6,4 km/h (2 Bft) 100,00 %
26.12.2017 17:35 -1,2 C 4,4 C 98 % 1010,9 hPa 0,0 l/m 11,3 km/h (2 Bft) S-SW 202 0 min 0,000 mm 0,0 UV-I 0 W/m -1,5 C -5,8 C 14,5 km/h (3 Bft) 100,00 %
26.12.2017 17:36 -1,2 C 4,4 C 98 % 1011,0 hPa 0,0 l/m 9,7 km/h (2 Bft) S-SW 202 0 min 0,000 mm 0,0 UV-I 0 W/m -1,5 C -4,5 C 16,1 km/h (3 Bft) 95,65 %
26.12.2017 17:37 -1,2 C 4,4 C 98 % 1010,9 hPa 0,0 l/m 9,7 km/h (2 Bft) SW 225 0 min 0,000 mm 0,0 UV-I 0 W/m -1,5 C -4,5 C 14,5 km/h (3 Bft) 95,65 %
26.12.2017 17:38 -1,2 C 4,4 C 98 % 1010,9 hPa 0,0 l/m 6,4 km/h (2 Bft) S-SW 202 0 min 0,000 mm 0,0 UV-I 0 W/m -1,5 C -1,2 C 8,0 km/h (2 Bft) 95,65 %
26.12.2017 17:39 -1,2 C 4,4 C 98 % 1010,8 hPa 0,0 l/m 4,8 km/h (1 Bft) S 180 0 min 0,000 mm 0,0 UV-I 0 W/m -1,5 C -1,2 C 8,0 km/h (2 Bft) 100,00 %
26.12.2017 17:40 -1,2 C 4,4 C 98 % 1010,8 hPa 0,0 l/m 4,8 km/h (1 Bft) S-SW 202 0 min 0,000 mm 0,0 UV-I 0 W/m -1,5 C -1,2 C 6,4 km/h (2 Bft) 95,65 %
26.12.2017 17:41 -1,2 C 4,4 C 98 % 1010,7 hPa 0,0 l/m 3,2 km/h (1 Bft) S-SW 202 0 min 0,000 mm 0,0 UV-I 0 W/m -1,5 C -1,2 C 4,8 km/h (1 Bft) 91,30 %
26.12.2017 17:42 -1,2 C 4,4 C 98 % 1010,7 hPa 0,0 l/m 4,8 km/h (1 Bft) S-SW 202 0 min 0,000 mm 0,0 UV-I 0 W/m -1,5 C -1,2 C 8,0 km/h (2 Bft) 100,00 %
26.12.2017 17:43 -1,2 C 4,4 C 98 % 1010,8 hPa 0,0 l/m 4,8 km/h (1 Bft) S-SW 202 0 min 0,000 mm 0,0 UV-I 0 W/m -1,5 C -1,2 C 6,4 km/h (2 Bft) 95,65 %
26.12.2017 17:44 -1,2 C 4,4 C 98 % 1010,8 hPa 0,0 l/m 4,8 km/h (1 Bft) S-SO 157 0 min 0,000 mm 0,0 UV-I 0 W/m -1,5 C -1,2 C 11,3 km/h (2 Bft) 100,00 %
26.12.2017 17:45 -1,2 C 4,4 C 98 % 1010,7 hPa 0,0 l/m 4,8 km/h (1 Bft) S 180 0 min 0,000 mm 0,0 UV-I 0 W/m -1,5 C -1,2 C 8,0 km/h (2 Bft) 91,30 %
26.12.2017 17:46 -1,2 C 4,4 C 98 % 1010,7 hPa 0,0 l/m 8,0 km/h (2 Bft) S-SW 202 0 min 0,000 mm 0,0 UV-I 0 W/m -1,5 C -2,9 C 12,9 km/h (3 Bft) 95,65 %
26.12.2017 17:47 -1,2 C 4,4 C 98 % 1010,7 hPa 0,0 l/m 6,4 km/h (2 Bft) S-SW 202 0 min 0,000 mm 0,0 UV-I 0 W/m -1,5 C -1,2 C 11,3 km/h (2 Bft) 100,00 %
26.12.2017 17:48 -1,2 C 4,4 C 98 % 1010,7 hPa 0,0 l/m 6,4 km/h (2 Bft) S-SO 157 0 min 0,000 mm 0,0 UV-I 0 W/m -1,5 C -1,2 C 11,3 km/h (2 Bft) 95,65 %
26.12.2017 17:49 -1,2 C 4,4 C 98 % 1010,6 hPa 0,0 l/m 9,7 km/h (2 Bft) S 180 0 min 0,000 mm 0,0 UV-I 0 W/m -1,5 C -4,5 C 14,5 km/h (3 Bft) 100,00 %
26.12.2017 17:50 -1,2 C 4,4 C 98 % 1010,7 hPa 0,0 l/m 11,3 km/h (2 Bft) S-SO 157 0 min 0,000 mm 0,0 UV-I 0 W/m -1,5 C -5,8 C 14,5 km/h (3 Bft) 95,65 %
26.12.2017 17:51 -1,2 C 4,4 C 98 % 1010,6 hPa 0,0 l/m 8,0 km/h (2 Bft) S-SO 157 0 min 0,000 mm 0,0 UV-I 0 W/m -1,5 C -2,9 C 12,9 km/h (3 Bft) 100,00 %
26.12.2017 17:52 -1,2 C 4,4 C 98 % 1010,6 hPa 0,0 l/m 6,4 km/h (2 Bft) S-SO 157 0 min 0,000 mm 0,0 UV-I 0 W/m -1,5 C -1,2 C 11,3 km/h (2 Bft) 91,30 %
26.12.2017 17:53 -1,2 C 4,4 C 98 % 1010,5 hPa 0,0 l/m 8,0 km/h (2 Bft) S-SO 157 0 min 0,000 mm 0,0 UV-I 0 W/m -1,5 C -2,9 C 11,3 km/h (2 Bft) 95,65 %
26.12.2017 17:54 -1,2 C 4,4 C 98 % 1010,5 hPa 0,0 l/m 6,4 km/h (2 Bft) S 180 0 min 0,000 mm 0,0 UV-I 0 W/m -1,5 C -1,2 C 11,3 km/h (2 Bft) 95,65 %
26.12.2017 17:55 -1,2 C 4,4 C 98 % 1010,5 hPa 0,0 l/m 9,7 km/h (2 Bft) S-SO 157 0 min 0,000 mm 0,0 UV-I 0 W/m -1,5 C -4,5 C 14,5 km/h (3 Bft) 100,00 %
26.12.2017 17:56 -1,2 C 4,4 C 98 % 1010,5 hPa 0,0 l/m 6,4 km/h (2 Bft) S-SO 157 0 min 0,000 mm 0,0 UV-I 0 W/m -1,5 C -1,2 C 9,7 km/h (2 Bft) 95,65 %
26.12.2017 17:57 -1,2 C 4,4 C 98 % 1010,5 hPa 0,0 l/m 6,4 km/h (2 Bft) S-SO 157 0 min 0,000 mm 0,0 UV-I 0 W/m -1,5 C -1,2 C 12,9 km/h (3 Bft) 100,00 %
26.12.2017 17:58 -1,2 C 4,4 C 98 % 1010,5 hPa 0,0 l/m 8,0 km/h (2 Bft) S-SO 157 0 min 0,000 mm 0,0 UV-I 0 W/m -1,5 C -2,9 C 11,3 km/h (2 Bft) 95,65 %
26.12.2017 17:59 -1,2 C 4,4 C 98 % 1010,4 hPa 0,0 l/m 6,4 km/h (2 Bft) S-SO 157 0 min 0,000 mm 0,0 UV-I 0 W/m -1,5 C -1,2 C 8,0 km/h (2 Bft) 95,65 %
26.12.2017 18:00 -1,2 C 4,4 C 98 % 1010,4 hPa 0,0 l/m 8,0 km/h (2 Bft) S-SO 157 0 min 0,000 mm 0,0 UV-I 0 W/m -1,5 C -2,9 C 12,9 km/h (3 Bft) 95,65 %
26.12.2017 18:01 -1,2 C 4,4 C 98 % 1010,4 hPa 0,0 l/m 6,4 km/h (2 Bft) S-SO 157 0 min 0,000 mm 0,0 UV-I 0 W/m -1,5 C -1,2 C 8,0 km/h (2 Bft) 95,65 %
26.12.2017 18:02 -1,2 C 4,4 C 98 % 1010,4 hPa 0,0 l/m 8,0 km/h (2 Bft) S 180 0 min 0,000 mm 0,0 UV-I 0 W/m -1,5 C -2,9 C 16,1 km/h (3 Bft) 100,00 %
26.12.2017 18:03 -1,2 C 4,4 C 98 % 1010,4 hPa 0,0 l/m 6,4 km/h (2 Bft) S-SO 157 0 min 0,000 mm 0,0 UV-I 0 W/m -1,5 C -1,2 C 12,9 km/h (3 Bft) 100,00 %
26.12.2017 18:04 -1,2 C 4,4 C 98 % 1010,4 hPa 0,0 l/m 6,4 km/h (2 Bft) S 180 0 min 0,000 mm 0,0 UV-I 0 W/m -1,5 C -1,2 C 11,3 km/h (2 Bft) 100,00 %
26.12.2017 18:05 -1,2 C 4,4 C 98 % 1010,4 hPa 0,0 l/m 6,4 km/h (2 Bft) S-SO 157 0 min 0,000 mm 0,0 UV-I 0 W/m -1,5 C -1,2 C 9,7 km/h (2 Bft) 95,65 %
26.12.2017 18:06 -1,2 C 4,4 C 98 % 1010,4 hPa 0,0 l/m 3,2 km/h (1 Bft) S-SO 157 0 min 0,000 mm 0,0 UV-I 0 W/m -1,5 C -1,2 C 6,4 km/h (2 Bft) 95,65 %
26.12.2017 18:07 -1,2 C 4,4 C 98 % 1010,5 hPa 0,0 l/m 6,4 km/h (2 Bft) W-SW 247 0 min 0,000 mm 0,0 UV-I 0 W/m -1,5 C -1,2 C 8,0 km/h (2 Bft) 91,30 %
26.12.2017 18:08 -1,2 C 4,4 C 98 % 1010,5 hPa 0,0 l/m 4,8 km/h (1 Bft) SW 225 0 min 0,000 mm 0,0 UV-I 0 W/m -1,5 C -1,2 C 8,0 km/h (2 Bft) 95,65 %
26.12.2017 18:09 -1,2 C 4,4 C 98 % 1010,5 hPa 0,0 l/m 8,0 km/h (2 Bft) S-SW 202 0 min 0,000 mm 0,0 UV-I 0 W/m -1,5 C -2,9 C 11,3 km/h (2 Bft) 100,00 %
26.12.2017 18:10 -1,2 C 4,4 C 98 % 1010,5 hPa 0,0 l/m 4,8 km/h (1 Bft) S-SW 202 0 min 0,000 mm 0,0 UV-I 0 W/m -1,5 C -1,2 C 9,7 km/h (2 Bft) 100,00 %
26.12.2017 18:11 -1,2 C 4,4 C 98 % 1010,5 hPa 0,0 l/m 1,6 km/h (1 Bft) S-SW 202 0 min 0,000 mm 0,0 UV-I 0 W/m -1,5 C -1,2 C 3,2 km/h (1 Bft) 100,00 %
26.12.2017 18:12 -1,2 C 4,4 C 98 % 1010,4 hPa 0,0 l/m 1,6 km/h (1 Bft) S-SW 202 0 min 0,000 mm 0,0 UV-I 0 W/m -1,5 C -1,2 C 3,2 km/h (1 Bft) 100,00 %
26.12.2017 18:13 -1,2 C 4,4 C 98 % 1010,4 hPa 0,0 l/m 1,6 km/h (1 Bft) S-SW 202 0 min 0,000 mm 0,0 UV-I 0 W/m -1,5 C -1,2 C 3,2 km/h (1 Bft) 95,65 %
26.12.2017 18:14 -1,2 C 4,4 C 98 % 1010,4 hPa 0,0 l/m 1,6 km/h (1 Bft) S-SW 202 0 min 0,000 mm 0,0 UV-I 0 W/m -1,5 C -1,2 C 4,8 km/h (1 Bft) 100,00 %
26.12.2017 18:15 -1,2 C 4,4 C 98 % 1010,4 hPa 0,0 l/m 4,8 km/h (1 Bft) SW 225 0 min 0,000 mm 0,0 UV-I 0 W/m -1,5 C -1,2 C 6,4 km/h (2 Bft) 100,00 %
26.12.2017 18:16 -1,2 C 4,4 C 98 % 1010,4 hPa 0,0 l/m 4,8 km/h (1 Bft) SW 225 0 min 0,000 mm 0,0 UV-I 0 W/m -1,5 C -1,2 C 6,4 km/h (2 Bft) 100,00 %
26.12.2017 18:17 -1,2 C 4,4 C 98 % 1010,4 hPa 0,0 l/m 4,8 km/h (1 Bft) SW 225 0 min 0,000 mm 0,0 UV-I 0 W/m -1,5 C -1,2 C 6,4 km/h (2 Bft) 100,00 %
26.12.2017 18:18 -1,2 C 4,4 C 98 % 1010,4 hPa 0,0 l/m 4,8 km/h (1 Bft) SW 225 0 min 0,000 mm 0,0 UV-I 0 W/m -1,5 C -1,2 C 6,4 km/h (2 Bft) 100,00 %
26.12.2017 18:19 -1,2 C 4,4 C 98 % 1010,4 hPa 0,0 l/m 3,2 km/h (1 Bft) SW 225 0 min 0,000 mm 0,0 UV-I 0 W/m -1,5 C -1,2 C 4,8 km/h (1 Bft) 95,65 %
26.12.2017 18:20 -1,2 C 4,4 C 98 % 1010,3 hPa 0,0 l/m 1,6 km/h (1 Bft) SW 225 0 min 0,000 mm 0,0 UV-I 0 W/m -1,5 C -1,2 C 3,2 km/h (1 Bft) 95,65 %
26.12.2017 18:21 -1,2 C 4,4 C 98 % 1010,3 hPa 0,0 l/m 1,6 km/h (1 Bft) SW 225 0 min 0,000 mm 0,0 UV-I 0 W/m -1,5 C -1,2 C 3,2 km/h (1 Bft) 95,65 %
26.12.2017 18:22 -1,2 C 4,4 C 98 % 1010,3 hPa 0,0 l/m 0,0 km/h (0 Bft) N 0 0 min 0,000 mm 0,0 UV-I 0 W/m -1,5 C -1,2 C 0,0 km/h (0 Bft) 100,00 %
26.12.2017 18:23 -1,2 C 4,4 C 98 % 1010,3 hPa 0,0 l/m 0,0 km/h (0 Bft) N 0 0 min 0,000 mm 0,0 UV-I 0 W/m -1,5 C -1,2 C 0,0 km/h (0 Bft) 100,00 %
26.12.2017 18:24 -1,2 C 4,4 C 98 % 1010,3 hPa 0,0 l/m 0,0 km/h (0 Bft) N 0 0 min 0,000 mm 0,0 UV-I 0 W/m -1,5 C -1,2 C 0,0 km/h (0 Bft) 95,65 %
26.12.2017 18:25 -1,2 C 4,4 C 98 % 1010,4 hPa 0,0 l/m 0,0 km/h (0 Bft) N 0 0 min 0,000 mm 0,0 UV-I 0 W/m -1,5 C -1,2 C 0,0 km/h (0 Bft) 95,65 %
26.12.2017 18:26 -1,2 C 4,4 C 98 % 1010,3 hPa 0,0 l/m 0,0 km/h (0 Bft) N 0 0 min 0,000 mm 0,0 UV-I 0 W/m -1,5 C -1,2 C 0,0 km/h (0 Bft) 95,65 %
26.12.2017 18:27 -1,2 C 4,4 C 98 % 1010,3 hPa 0,0 l/m 0,0 km/h (0 Bft) N 0 0 min 0,000 mm 0,0 UV-I 0 W/m -1,5 C -1,2 C 0,0 km/h (0 Bft) 95,65 %
26.12.2017 18:28 -1,2 C 4,4 C 98 % 1010,4 hPa 0,0 l/m 0,0 km/h (0 Bft) N 0 0 min 0,000 mm 0,0 UV-I 0 W/m -1,5 C -1,2 C 0,0 km/h (0 Bft) 100,00 %
26.12.2017 18:29 -1,2 C 4,4 C 98 % 1010,4 hPa 0,0 l/m 0,0 km/h (0 Bft) N 0 0 min 0,000 mm 0,0 UV-I 0 W/m -1,5 C -1,2 C 0,0 km/h (0 Bft) 100,00 %
26.12.2017 18:30 -1,2 C 4,4 C 98 % 1010,3 hPa 0,0 l/m 0,0 km/h (0 Bft) SW 225 0 min 0,000 mm 0,0 UV-I 0 W/m -1,5 C -1,2 C 1,6 km/h (1 Bft) 91,30 %
26.12.2017 18:31 -1,2 C 4,4 C 98 % 1010,3 hPa 0,0 l/m 0,0 km/h (0 Bft) N 0 0 min 0,000 mm 0,0 UV-I 0 W/m -1,5 C -1,2 C 0,0 km/h (0 Bft) 100,00 %
26.12.2017 18:32 -1,2 C 4,4 C 98 % 1010,3 hPa 0,0 l/m 1,6 km/h (1 Bft) SW 225 0 min 0,000 mm 0,0 UV-I 0 W/m -1,5 C -1,2 C 3,2 km/h (1 Bft) 100,00 %
26.12.2017 18:33 -1,2 C 4,4 C 98 % 1010,3 hPa 0,0 l/m 1,6 km/h (1 Bft) SW 225 0 min 0,000 mm 0,0 UV-I 0 W/m -1,5 C -1,2 C 3,2 km/h (1 Bft) 100,00 %
26.12.2017 18:34 -1,2 C 4,4 C 98 % 1010,3 hPa 0,0 l/m 0,0 km/h (0 Bft) SW 225 0 min 0,000 mm 0,0 UV-I 0 W/m -1,5 C -1,2 C 1,6 km/h (1 Bft) 86,96 %
26.12.2017 18:35 -1,2 C 4,4 C 98 % 1010,3 hPa 0,0 l/m 1,6 km/h (1 Bft) SW 225 0 min 0,000 mm 0,0 UV-I 0 W/m -1,5 C -1,2 C 3,2 km/h (1 Bft) 95,65 %
26.12.2017 18:36 -1,2 C 4,4 C 98 % 1010,3 hPa 0,0 l/m 3,2 km/h (1 Bft) SW 225 0 min 0,000 mm 0,0 UV-I 0 W/m -1,5 C -1,2 C 3,2 km/h (1 Bft) 100,00 %
26.12.2017 18:37 -1,2 C 4,4 C 98 % 1010,3 hPa 0,0 l/m 1,6 km/h (1 Bft) SW 225 0 min 0,000 mm 0,0 UV-I 0 W/m -1,5 C -1,2 C 3,2 km/h (1 Bft) 100,00 %
26.12.2017 18:38 -1,3 C 4,4 C 98 % 1010,3 hPa 0,0 l/m 0,0 km/h (0 Bft) N 0 0 min 0,000 mm 0,0 UV-I 0 W/m -1,6 C -1,3 C 0,0 km/h (0 Bft) 100,00 %
26.12.2017 18:39 -1,3 C 4,4 C 98 % 1010,3 hPa 0,0 l/m 0,0 km/h (0 Bft) N 0 0 min 0,000 mm 0,0 UV-I 0 W/m -1,6 C -1,3 C 0,0 km/h (0 Bft) 95,65 %
26.12.2017 18:40 -1,3 C 4,4 C 98 % 1010,3 hPa 0,0 l/m 0,0 km/h (0 Bft) N 0 0 min 0,000 mm 0,0 UV-I 0 W/m -1,6 C -1,3 C 0,0 km/h (0 Bft) 95,65 %
26.12.2017 18:41 -1,3 C 4,4 C 98 % 1010,2 hPa 0,0 l/m 0,0 km/h (0 Bft) N 0 0 min 0,000 mm 0,0 UV-I 0 W/m -1,6 C -1,3 C 0,0 km/h (0 Bft) 91,30 %
26.12.2017 18:42 -1,3 C 4,4 C 98 % 1010,3 hPa 0,0 l/m 0,0 km/h (0 Bft) SW 225 0 min 0,000 mm 0,0 UV-I 0 W/m -1,6 C -1,3 C 1,6 km/h (1 Bft) 95,65 %
26.12.2017 18:43 -1,3 C 4,4 C 98 % 1010,2 hPa 0,0 l/m 0,0 km/h (0 Bft) N 0 0 min 0,000 mm 0,0 UV-I 0 W/m -1,6 C -1,3 C 0,0 km/h (0 Bft) 95,65 %
26.12.2017 18:44 -1,3 C 4,4 C 98 % 1010,2 hPa 0,0 l/m 0,0 km/h (0 Bft) SW 225 0 min 0,000 mm 0,0 UV-I 0 W/m -1,6 C -1,3 C 1,6 km/h (1 Bft) 100,00 %
26.12.2017 18:45 -1,3 C 4,4 C 98 % 1010,2 hPa 0,0 l/m 3,2 km/h (1 Bft) SW 225 0 min 0,000 mm 0,0 UV-I 0 W/m -1,6 C -1,3 C 3,2 km/h (1 Bft) 91,30 %
26.12.2017 18:46 -1,3 C 4,4 C 98 % 1010,2 hPa 0,0 l/m 3,2 km/h (1 Bft) SW 225 0 min 0,000 mm 0,0 UV-I 0 W/m -1,6 C -1,3 C 3,2 km/h (1 Bft) 100,00 %
26.12.2017 18:47 -1,3 C 4,4 C 98 % 1010,3 hPa 0,0 l/m 1,6 km/h (1 Bft) SW 225 0 min 0,000 mm 0,0 UV-I 0 W/m -1,6 C -1,3 C 3,2 km/h (1 Bft) 95,65 %
26.12.2017 18:48 -1,4 C 4,4 C 98 % 1010,3 hPa 0,0 l/m 3,2 km/h (1 Bft) SW 225 0 min 0,000 mm 0,0 UV-I 0 W/m -1,7 C -1,4 C 4,8 km/h (1 Bft) 91,30 %
26.12.2017 18:49 -1,4 C 4,4 C 98 % 1010,3 hPa 0,0 l/m 3,2 km/h (1 Bft) SW 225 0 min 0,000 mm 0,0 UV-I 0 W/m -1,7 C -1,4 C 4,8 km/h (1 Bft) 100,00 %
26.12.2017 18:50 -1,4 C 4,4 C 98 % 1010,3 hPa 0,0 l/m 3,2 km/h (1 Bft) SW 225 0 min 0,000 mm 0,0 UV-I 0 W/m -1,7 C -1,4 C 4,8 km/h (1 Bft) 95,65 %
26.12.2017 18:51 -1,4 C 4,4 C 98 % 1010,3 hPa 0,0 l/m 3,2 km/h (1 Bft) SW 225 0 min 0,000 mm 0,0 UV-I 0 W/m -1,7 C -1,4 C 4,8 km/h (1 Bft) 100,00 %
26.12.2017 18:52 -1,4 C 4,4 C 98 % 1010,3 hPa 0,0 l/m 0,0 km/h (0 Bft) SW 225 0 min 0,000 mm 0,0 UV-I 0 W/m -1,7 C -1,4 C 3,2 km/h (1 Bft) 95,65 %
26.12.2017 18:53 -1,4 C 4,4 C 98 % 1010,3 hPa 0,0 l/m 0,0 km/h (0 Bft) SW 225 0 min 0,000 mm 0,0 UV-I 0 W/m -1,7 C -1,4 C 1,6 km/h (1 Bft) 100,00 %
26.12.2017 18:54 -1,3 C 4,4 C 98 % 1010,3 hPa 0,0 l/m 0,0 km/h (0 Bft) SW 225 0 min 0,000 mm 0,0 UV-I 0 W/m -1,6 C -1,3 C 1,6 km/h (1 Bft) 91,30 %
26.12.2017 18:55 -1,3 C 4,4 C 98 % 1010,3 hPa 0,0 l/m 0,0 km/h (0 Bft) NW 315 0 min 0,000 mm 0,0 UV-I 0 W/m -1,6 C -1,3 C 1,6 km/h (1 Bft) 95,65 %
26.12.2017 18:56 -1,3 C 4,4 C 98 % 1010,3 hPa 0,0 l/m 0,0 km/h (0 Bft) NW 315 0 min 0,000 mm 0,0 UV-I 0 W/m -1,6 C -1,3 C 1,6 km/h (1 Bft) 95,65 %
26.12.2017 18:57 -1,3 C 4,4 C 98 % 1010,3 hPa 0,0 l/m 0,0 km/h (0 Bft) NW 315 0 min 0,000 mm 0,0 UV-I 0 W/m -1,6 C -1,3 C 1,6 km/h (1 Bft) 95,65 %
26.12.2017 18:58 -1,3 C 4,4 C 98 % 1010,3 hPa 0,0 l/m 3,2 km/h (1 Bft) N-NW 337 0 min 0,000 mm 0,0 UV-I 0 W/m -1,6 C -1,3 C 4,8 km/h (1 Bft) 95,65 %
26.12.2017 18:59 -1,3 C 4,4 C 98 % 1010,2 hPa 0,0 l/m 1,6 km/h (1 Bft) N-NW 337 0 min 0,000 mm 0,0 UV-I 0 W/m -1,6 C -1,3 C 3,2 km/h (1 Bft) 95,65 %
26.12.2017 19:00 -1,3 C 4,4 C 98 % 1010,2 hPa 0,0 l/m 0,0 km/h (0 Bft) N-NW 337 0 min 0,000 mm 0,0 UV-I 0 W/m -1,6 C -1,3 C 1,6 km/h (1 Bft) 95,65 %
26.12.2017 19:01 -1,3 C 4,4 C 98 % 1010,2 hPa 0,0 l/m 1,6 km/h (1 Bft) N-NW 337 0 min 0,000 mm 0,0 UV-I 0 W/m -1,6 C -1,3 C 3,2 km/h (1 Bft) 95,65 %
26.12.2017 19:02 -1,3 C 4,4 C 98 % 1010,2 hPa 0,0 l/m 3,2 km/h (1 Bft) N-NW 337 0 min 0,000 mm 0,0 UV-I 0 W/m -1,6 C -1,3 C 4,8 km/h (1 Bft) 95,65 %
26.12.2017 19:03 -1,3 C 4,4 C 98 % 1010,1 hPa 0,0 l/m 6,4 km/h (2 Bft) N-NO 22 0 min 0,000 mm 0,0 UV-I 0 W/m -1,6 C -1,3 C 8,0 km/h (2 Bft) 86,96 %
26.12.2017 19:04 -1,3 C 4,4 C 98 % 1010,1 hPa 0,0 l/m 6,4 km/h (2 Bft) N-NO 22 0 min 0,000 mm 0,0 UV-I 0 W/m -1,6 C -1,3 C 8,0 km/h (2 Bft) 91,30 %
26.12.2017 19:05 -1,4 C 4,4 C 98 % 1010,1 hPa 0,0 l/m 6,4 km/h (2 Bft) N-NO 22 0 min 0,000 mm 0,0 UV-I 0 W/m -1,7 C -1,4 C 8,0 km/h (2 Bft) 91,30 %
26.12.2017 19:06 -1,4 C 4,4 C 98 % 1010,1 hPa 0,0 l/m 6,4 km/h (2 Bft) N-NO 22 0 min 0,000 mm 0,0 UV-I 0 W/m -1,7 C -1,4 C 6,4 km/h (2 Bft) 95,65 %
26.12.2017 19:07 -1,4 C 4,4 C 98 % 1010,1 hPa 0,0 l/m 4,8 km/h (1 Bft) N-NO 22 0 min 0,000 mm 0,0 UV-I 0 W/m -1,7 C -1,4 C 6,4 km/h (2 Bft) 95,65 %
26.12.2017 19:08 -1,4 C 4,4 C 98 % 1010,1 hPa 0,0 l/m 3,2 km/h (1 Bft) N-NO 22 0 min 0,000 mm 0,0 UV-I 0 W/m -1,7 C -1,4 C 4,8 km/h (1 Bft) 95,65 %
26.12.2017 19:09 -1,4 C 4,4 C 98 % 1010,1 hPa 0,0 l/m 4,8 km/h (1 Bft) N-NO 22 0 min 0,000 mm 0,0 UV-I 0 W/m -1,7 C -1,4 C 6,4 km/h (2 Bft) 95,65 %
26.12.2017 19:10 -1,4 C 4,4 C 98 % 1010,1 hPa 0,0 l/m 4,8 km/h (1 Bft) N-NO 22 0 min 0,000 mm 0,0 UV-I 0 W/m -1,7 C -1,4 C 8,0 km/h (2 Bft) 91,30 %
26.12.2017 19:11 -1,4 C 4,4 C 98 % 1010,1 hPa 0,0 l/m 1,6 km/h (1 Bft) N-NO 22 0 min 0,000 mm 0,0 UV-I 0 W/m -1,7 C -1,4 C 3,2 km/h (1 Bft) 95,65 %
26.12.2017 19:12 -1,4 C 4,4 C 98 % 1010,1 hPa 0,0 l/m 3,2 km/h (1 Bft) N-NO 22 0 min 0,000 mm 0,0 UV-I 0 W/m -1,7 C -1,4 C 4,8 km/h (1 Bft) 95,65 %
26.12.2017 19:13 -1,4 C 4,4 C 98 % 1010,1 hPa 0,0 l/m 3,2 km/h (1 Bft) N-NO 22 0 min 0,000 mm 0,0 UV-I 0 W/m -1,7 C -1,4 C 4,8 km/h (1 Bft) 95,65 %
26.12.2017 19:14 -1,4 C 4,4 C 98 % 1010,1 hPa 0,0 l/m 3,2 km/h (1 Bft) N-NO 22 0 min 0,000 mm 0,0 UV-I 0 W/m -1,7 C -1,4 C 4,8 km/h (1 Bft) 95,65 %
26.12.2017 19:15 -1,4 C 4,4 C 98 % 1010,1 hPa 0,0 l/m 4,8 km/h (1 Bft) N-NO 22 0 min 0,000 mm 0,0 UV-I 0 W/m -1,7 C -1,4 C 6,4 km/h (2 Bft) 91,30 %
26.12.2017 19:16 -1,4 C 4,4 C 98 % 1010,1 hPa 0,0 l/m 4,8 km/h (1 Bft) N-NO 22 0 min 0,000 mm 0,0 UV-I 0 W/m -1,7 C -1,4 C 6,4 km/h (2 Bft) 100,00 %
26.12.2017 19:17 -1,4 C 4,4 C 98 % 1010,1 hPa 0,0 l/m 4,8 km/h (1 Bft) N-NO 22 0 min 0,000 mm 0,0 UV-I 0 W/m -1,7 C -1,4 C 6,4 km/h (2 Bft) 86,96 %
26.12.2017 19:18 -1,4 C 4,4 C 98 % 1010,1 hPa 0,0 l/m 4,8 km/h (1 Bft) N-NO 22 0 min 0,000 mm 0,0 UV-I 0 W/m -1,7 C -1,4 C 8,0 km/h (2 Bft) 100,00 %
26.12.2017 19:19 -1,4 C 4,4 C 98 % 1010,1 hPa 0,0 l/m 6,4 km/h (2 Bft) N-NO 22 0 min 0,000 mm 0,0 UV-I 0 W/m -1,7 C -1,4 C 8,0 km/h (2 Bft) 95,65 %
26.12.2017 19:20 -1,4 C 4,4 C 98 % 1010,1 hPa 0,0 l/m 6,4 km/h (2 Bft) N-NO 22 0 min 0,000 mm 0,0 UV-I 0 W/m -1,7 C -1,4 C 8,0 km/h (2 Bft) 100,00 %
26.12.2017 19:21 -1,4 C 4,4 C 98 % 1010,1 hPa 0,0 l/m 4,8 km/h (1 Bft) N-NO 22 0 min 0,000 mm 0,0 UV-I 0 W/m -1,7 C -1,4 C 6,4 km/h (2 Bft) 100,00 %
26.12.2017 19:22 -1,4 C 4,4 C 98 % 1010,1 hPa 0,0 l/m 4,8 km/h (1 Bft) N-NO 22 0 min 0,000 mm 0,0 UV-I 0 W/m -1,7 C -1,4 C 8,0 km/h (2 Bft) 100,00 %
26.12.2017 19:23 -1,4 C 4,4 C 98 % 1010,1 hPa 0,0 l/m 3,2 km/h (1 Bft) N-NO 22 0 min 0,000 mm 0,0 UV-I 0 W/m -1,7 C -1,4 C 6,4 km/h (2 Bft) 100,00 %
26.12.2017 19:24 -1,4 C 4,4 C 98 % 1010,1 hPa 0,0 l/m 6,4 km/h (2 Bft) N-NO 22 0 min 0,000 mm 0,0 UV-I 0 W/m -1,7 C -1,4 C 8,0 km/h (2 Bft) 95,65 %
26.12.2017 19:25 -1,4 C 4,4 C 98 % 1010,1 hPa 0,0 l/m 6,4 km/h (2 Bft) N-NO 22 0 min 0,000 mm 0,0 UV-I 0 W/m -1,7 C -1,4 C 11,3 km/h (2 Bft) 100,00 %
26.12.2017 19:26 -1,4 C 4,4 C 98 % 1010,1 hPa 0,0 l/m 9,7 km/h (2 Bft) N-NO 22 0 min 0,000 mm 0,0 UV-I 0 W/m -1,7 C -4,7 C 14,5 km/h (3 Bft) 100,00 %
26.12.2017 19:27 -1,4 C 4,4 C 98 % 1010,1 hPa 0,0 l/m 8,0 km/h (2 Bft) NO 45 0 min 0,000 mm 0,0 UV-I 0 W/m -1,7 C -3,1 C 14,5 km/h (3 Bft) 100,00 %
26.12.2017 19:28 -1,3 C 4,4 C 98 % 1010,1 hPa 0,0 l/m 6,4 km/h (2 Bft) N-NO 22 0 min 0,000 mm 0,0 UV-I 0 W/m -1,6 C -1,3 C 11,3 km/h (2 Bft) 95,65 %
26.12.2017 19:29 -1,4 C 4,4 C 98 % 1010,1 hPa 0,0 l/m 4,8 km/h (1 Bft) N-NO 22 0 min 0,000 mm 0,0 UV-I 0 W/m -1,7 C -1,4 C 6,4 km/h (2 Bft) 100,00 %
26.12.2017 19:30 -1,3 C 4,4 C 98 % 1010,1 hPa 0,0 l/m 6,4 km/h (2 Bft) N-NO 22 0 min 0,000 mm 0,0 UV-I 0 W/m -1,6 C -1,3 C 8,0 km/h (2 Bft) 100,00 %
26.12.2017 19:31 -1,3 C 4,4 C 98 % 1010,2 hPa 0,0 l/m 4,8 km/h (1 Bft) N-NO 22 0 min 0,000 mm 0,0 UV-I 0 W/m -1,6 C -1,3 C 8,0 km/h (2 Bft) 91,30 %
26.12.2017 19:32 -1,3 C 4,4 C 98 % 1010,2 hPa 0,0 l/m 6,4 km/h (2 Bft) N-NO 22 0 min 0,000 mm 0,0 UV-I 0 W/m -1,6 C -1,3 C 8,0 km/h (2 Bft) 95,65 %
26.12.2017 19:33 -1,3 C 4,4 C 98 % 1010,2 hPa 0,0 l/m 6,4 km/h (2 Bft) N-NO 22 0 min 0,000 mm 0,0 UV-I 0 W/m -1,6 C -1,3 C 9,7 km/h (2 Bft) 100,00 %
26.12.2017 19:34 -1,3 C 4,4 C 98 % 1010,1 hPa 0,0 l/m 8,0 km/h (2 Bft) NO 45 0 min 0,000 mm 0,0 UV-I 0 W/m -1,6 C -3,0 C 11,3 km/h (2 Bft) 95,65 %
26.12.2017 19:35 -1,3 C 4,4 C 98 % 1010,1 hPa 0,0 l/m 8,0 km/h (2 Bft) NO 45 0 min 0,000 mm 0,0 UV-I 0 W/m -1,6 C -3,0 C 11,3 km/h (2 Bft) 100,00 %
26.12.2017 19:36 -1,3 C 4,4 C 98 % 1010,1 hPa 0,0 l/m 8,0 km/h (2 Bft) N-NO 22 0 min 0,000 mm 0,0 UV-I 0 W/m -1,6 C -3,0 C 9,7 km/h (2 Bft) 91,30 %
26.12.2017 19:37 -1,3 C 4,4 C 98 % 1010,1 hPa 0,0 l/m 4,8 km/h (1 Bft) N-NO 22 0 min 0,000 mm 0,0 UV-I 0 W/m -1,6 C -1,3 C 8,0 km/h (2 Bft) 100,00 %
26.12.2017 19:38 -1,3 C 4,4 C 98 % 1010,0 hPa 0,0 l/m 6,4 km/h (2 Bft) N-NO 22 0 min 0,000 mm 0,0 UV-I 0 W/m -1,6 C -1,3 C 8,0 km/h (2 Bft) 95,65 %
26.12.2017 19:39 -1,3 C 4,4 C 98 % 1010,1 hPa 0,0 l/m 3,2 km/h (1 Bft) N 360 0 min 0,000 mm 0,0 UV-I 0 W/m -1,6 C -1,3 C 6,4 km/h (2 Bft) 100,00 %
26.12.2017 19:40 -1,3 C 4,4 C 98 % 1010,0 hPa 0,0 l/m 6,4 km/h (2 Bft) N-NO 22 0 min 0,000 mm 0,0 UV-I 0 W/m -1,6 C -1,3 C 9,7 km/h (2 Bft) 100,00 %
26.12.2017 19:41 -1,3 C 4,4 C 98 % 1010,0 hPa 0,0 l/m 4,8 km/h (1 Bft) NO 45 0 min 0,000 mm 0,0 UV-I 0 W/m -1,6 C -1,3 C 6,4 km/h (2 Bft) 100,00 %
26.12.2017 19:42 -1,3 C 4,4 C 98 % 1010,0 hPa 0,0 l/m 6,4 km/h (2 Bft) N-NO 22 0 min 0,000 mm 0,0 UV-I 0 W/m -1,6 C -1,3 C 8,0 km/h (2 Bft) 100,00 %
26.12.2017 19:43 -1,3 C 4,4 C 98 % 1010,0 hPa 0,0 l/m 6,4 km/h (2 Bft) O-NO 67 0 min 0,000 mm 0,0 UV-I 0 W/m -1,6 C -1,3 C 8,0 km/h (2 Bft) 95,65 %
26.12.2017 19:44 -1,3 C 4,4 C 98 % 1010,0 hPa 0,0 l/m 4,8 km/h (1 Bft) O-NO 67 0 min 0,000 mm 0,0 UV-I 0 W/m -1,6 C -1,3 C 6,4 km/h (2 Bft) 100,00 %
26.12.2017 19:45 -1,3 C 4,4 C 98 % 1009,9 hPa 0,0 l/m 6,4 km/h (2 Bft) O-NO 67 0 min 0,000 mm 0,0 UV-I 0 W/m -1,6 C -1,3 C 8,0 km/h (2 Bft) 95,65 %
26.12.2017 19:46 -1,3 C 4,4 C 98 % 1009,9 hPa 0,0 l/m 4,8 km/h (1 Bft) N-NO 22 0 min 0,000 mm 0,0 UV-I 0 W/m -1,6 C -1,3 C 8,0 km/h (2 Bft) 100,00 %
26.12.2017 19:47 -1,3 C 4,4 C 98 % 1009,9 hPa 0,0 l/m 4,8 km/h (1 Bft) NO 45 0 min 0,000 mm 0,0 UV-I 0 W/m -1,6 C -1,3 C 8,0 km/h (2 Bft) 100,00 %
26.12.2017 19:48 -1,4 C 4,4 C 98 % 1009,9 hPa 0,0 l/m 4,8 km/h (1 Bft) NO 45 0 min 0,000 mm 0,0 UV-I 0 W/m -1,7 C -1,4 C 6,4 km/h (2 Bft) 95,65 %
26.12.2017 19:49 -1,4 C 4,4 C 98 % 1009,9 hPa 0,0 l/m 3,2 km/h (1 Bft) NO 45 0 min 0,000 mm 0,0 UV-I 0 W/m -1,7 C -1,4 C 6,4 km/h (2 Bft) 100,00 %
26.12.2017 19:50 -1,4 C 4,4 C 98 % 1009,8 hPa 0,0 l/m 4,8 km/h (1 Bft) NO 45 0 min 0,000 mm 0,0 UV-I 0 W/m -1,7 C -1,4 C 6,4 km/h (2 Bft) 95,65 %
26.12.2017 19:51 -1,4 C 4,4 C 98 % 1009,7 hPa 0,0 l/m 3,2 km/h (1 Bft) NO 45 0 min 0,000 mm 0,0 UV-I 0 W/m -1,7 C -1,4 C 6,4 km/h (2 Bft) 95,65 %
26.12.2017 19:52 -1,4 C 4,4 C 98 % 1009,8 hPa 0,0 l/m 4,8 km/h (1 Bft) NO 45 0 min 0,000 mm 0,0 UV-I 0 W/m -1,7 C -1,4 C 6,4 km/h (2 Bft) 95,65 %
26.12.2017 19:53 -1,4 C 4,4 C 98 % 1009,8 hPa 0,0 l/m 6,4 km/h (2 Bft) NO 45 0 min 0,000 mm 0,0 UV-I 0 W/m -1,7 C -1,4 C 8,0 km/h (2 Bft) 100,00 %
26.12.2017 19:54 -1,4 C 4,4 C 98 % 1009,8 hPa 0,0 l/m 4,8 km/h (1 Bft) NO 45 0 min 0,000 mm 0,0 UV-I 0 W/m -1,7 C -1,4 C 6,4 km/h (2 Bft) 100,00 %
26.12.2017 19:55 -1,4 C 4,4 C 98 % 1009,8 hPa 0,0 l/m 6,4 km/h (2 Bft) NO 45 0 min 0,000 mm 0,0 UV-I 0 W/m -1,7 C -1,4 C 8,0 km/h (2 Bft) 100,00 %
26.12.2017 19:56 -1,4 C 4,4 C 98 % 1009,8 hPa 0,0 l/m 6,4 km/h (2 Bft) N-NO 22 0 min 0,000 mm 0,0 UV-I 0 W/m -1,7 C -1,4 C 8,0 km/h (2 Bft) 100,00 %
26.12.2017 19:57 -1,4 C 4,4 C 98 % 1009,8 hPa 0,0 l/m 3,2 km/h (1 Bft) N 360 0 min 0,000 mm 0,0 UV-I 0 W/m -1,7 C -1,4 C 4,8 km/h (1 Bft) 100,00 %
26.12.2017 19:58 -1,4 C 4,4 C 98 % 1009,8 hPa 0,0 l/m 3,2 km/h (1 Bft) N-NO 22 0 min 0,000 mm 0,0 UV-I 0 W/m -1,7 C -1,4 C 6,4 km/h (2 Bft) 100,00 %
26.12.2017 19:59 -1,4 C 4,4 C 98 % 1009,8 hPa 0,0 l/m 3,2 km/h (1 Bft) N-NO 22 0 min 0,000 mm 0,0 UV-I 0 W/m -1,7 C -1,4 C 6,4 km/h (2 Bft) 95,65 %
26.12.2017 20:00 -1,4 C 4,4 C 98 % 1009,7 hPa 0,0 l/m 1,6 km/h (1 Bft) N-NO 22 0 min 0,000 mm 0,0 UV-I 0 W/m -1,7 C -1,4 C 3,2 km/h (1 Bft) 100,00 %
26.12.2017 20:01 -1,4 C 4,4 C 98 % 1009,7 hPa 0,0 l/m 1,6 km/h (1 Bft) N-NO 22 0 min 0,000 mm 0,0 UV-I 0 W/m -1,7 C -1,4 C 3,2 km/h (1 Bft) 100,00 %
26.12.2017 20:02 -1,4 C 4,4 C 98 % 1009,7 hPa 0,0 l/m 1,6 km/h (1 Bft) N-NO 22 0 min 0,000 mm 0,0 UV-I 0 W/m -1,7 C -1,4 C 3,2 km/h (1 Bft) 100,00 %
26.12.2017 20:03 -1,4 C 4,4 C 98 % 1009,7 hPa 0,0 l/m 0,0 km/h (0 Bft) N-NO 22 0 min 0,000 mm 0,0 UV-I 0 W/m -1,7 C -1,4 C 1,6 km/h (1 Bft) 100,00 %
26.12.2017 20:04 -1,4 C 4,4 C 98 % 1009,7 hPa 0,0 l/m 1,6 km/h (1 Bft) N-NO 22 0 min 0,000 mm 0,0 UV-I 0 W/m -1,7 C -1,4 C 3,2 km/h (1 Bft) 100,00 %
26.12.2017 20:05 -1,4 C 4,4 C 98 % 1009,7 hPa 0,0 l/m 1,6 km/h (1 Bft) N-NW 337 0 min 0,000 mm 0,0 UV-I 0 W/m -1,7 C -1,4 C 3,2 km/h (1 Bft) 100,00 %
26.12.2017 20:06 -1,4 C 4,4 C 98 % 1009,7 hPa 0,0 l/m 1,6 km/h (1 Bft) N-NO 22 0 min 0,000 mm 0,0 UV-I 0 W/m -1,7 C -1,4 C 6,4 km/h (2 Bft) 95,65 %
26.12.2017 20:07 -1,4 C 4,4 C 98 % 1009,7 hPa 0,0 l/m 6,4 km/h (2 Bft) N-NO 22 0 min 0,000 mm 0,0 UV-I 0 W/m -1,7 C -1,4 C 9,7 km/h (2 Bft) 95,65 %
26.12.2017 20:08 -1,4 C 4,4 C 98 % 1009,7 hPa 0,0 l/m 4,8 km/h (1 Bft) NO 45 0 min 0,000 mm 0,0 UV-I 0 W/m -1,7 C -1,4 C 8,0 km/h (2 Bft) 100,00 %
26.12.2017 20:09 -1,4 C 4,4 C 98 % 1009,7 hPa 0,0 l/m 4,8 km/h (1 Bft) NO 45 0 min 0,000 mm 0,0 UV-I 0 W/m -1,7 C -1,4 C 6,4 km/h (2 Bft) 100,00 %
26.12.2017 20:10 -1,4 C 4,4 C 98 % 1009,7 hPa 0,0 l/m 3,2 km/h (1 Bft) N-NO 22 0 min 0,000 mm 0,0 UV-I 0 W/m -1,7 C -1,4 C 6,4 km/h (2 Bft) 100,00 %
26.12.2017 20:11 -1,4 C 4,4 C 98 % 1009,7 hPa 0,0 l/m 0,0 km/h (0 Bft) N-NO 22 0 min 0,000 mm 0,0 UV-I 0 W/m -1,7 C -1,4 C 3,2 km/h (1 Bft) 100,00 %
26.12.2017 20:12 -1,4 C 4,4 C 98 % 1009,6 hPa 0,0 l/m 3,2 km/h (1 Bft) N-NO 22 0 min 0,000 mm 0,0 UV-I 0 W/m -1,7 C -1,4 C 4,8 km/h (1 Bft) 100,00 %
26.12.2017 20:13 -1,5 C 4,4 C 98 % 1009,7 hPa 0,0 l/m 3,2 km/h (1 Bft) N-NO 22 0 min 0,000 mm 0,0 UV-I 0 W/m -1,8 C -1,5 C 4,8 km/h (1 Bft) 95,65 %
26.12.2017 20:14 -1,4 C 4,4 C 98 % 1009,6 hPa 0,0 l/m 1,6 km/h (1 Bft) N-NO 22 0 min 0,000 mm 0,0 UV-I 0 W/m -1,7 C -1,4 C 4,8 km/h (1 Bft) 100,00 %
26.12.2017 20:15 -1,4 C 4,4 C 98 % 1009,6 hPa 0,0 l/m 0,0 km/h (0 Bft) N-NO 22 0 min 0,000 mm 0,0 UV-I 0 W/m -1,7 C -1,4 C 1,6 km/h (1 Bft) 100,00 %
26.12.2017 20:16 -1,5 C 4,4 C 98 % 1009,6 hPa 0,0 l/m 4,8 km/h (1 Bft) NO 45 0 min 0,000 mm 0,0 UV-I 0 W/m -1,8 C -1,5 C 6,4 km/h (2 Bft) 100,00 %
26.12.2017 20:17 -1,4 C 4,4 C 98 % 1009,6 hPa 0,0 l/m 6,4 km/h (2 Bft) NO 45 0 min 0,000 mm 0,0 UV-I 0 W/m -1,7 C -1,4 C 8,0 km/h (2 Bft) 95,65 %
26.12.2017 20:18 -1,5 C 4,4 C 98 % 1009,7 hPa 0,0 l/m 4,8 km/h (1 Bft) N-NO 22 0 min 0,000 mm 0,0 UV-I 0 W/m -1,8 C -1,5 C 6,4 km/h (2 Bft) 100,00 %
26.12.2017 20:19 -1,5 C 4,4 C 98 % 1009,6 hPa 0,0 l/m 6,4 km/h (2 Bft) NO 45 0 min 0,000 mm 0,0 UV-I 0 W/m -1,8 C -1,5 C 8,0 km/h (2 Bft) 91,30 %
26.12.2017 20:20 -1,5 C 4,4 C 98 % 1009,6 hPa 0,0 l/m 4,8 km/h (1 Bft) NO 45 0 min 0,000 mm 0,0 UV-I 0 W/m -1,8 C -1,5 C 6,4 km/h (2 Bft) 95,65 %
26.12.2017 20:21 -1,5 C 4,4 C 98 % 1009,6 hPa 0,0 l/m 6,4 km/h (2 Bft) NO 45 0 min 0,000 mm 0,0 UV-I 0 W/m -1,8 C -1,5 C 9,7 km/h (2 Bft) 95,65 %
26.12.2017 20:22 -1,5 C 4,4 C 98 % 1009,6 hPa 0,0 l/m 6,4 km/h (2 Bft) NO 45 0 min 0,000 mm 0,0 UV-I 0 W/m -1,8 C -1,5 C 9,7 km/h (2 Bft) 100,00 %
26.12.2017 20:23 -1,5 C 4,4 C 98 % 1009,6 hPa 0,0 l/m 3,2 km/h (1 Bft) NO 45 0 min 0,000 mm 0,0 UV-I 0 W/m -1,8 C -1,5 C 4,8 km/h (1 Bft) 95,65 %
26.12.2017 20:24 -1,5 C 4,4 C 98 % 1009,6 hPa 0,0 l/m 4,8 km/h (1 Bft) N-NO 22 0 min 0,000 mm 0,0 UV-I 0 W/m -1,8 C -1,5 C 6,4 km/h (2 Bft) 100,00 %
26.12.2017 20:25 -1,6 C 4,4 C 98 % 1009,5 hPa 0,0 l/m 3,2 km/h (1 Bft) N-NO 22 0 min 0,000 mm 0,0 UV-I 0 W/m -1,9 C -1,6 C 6,4 km/h (2 Bft) 91,30 %
26.12.2017 20:26 -1,6 C 4,4 C 98 % 1009,5 hPa 0,0 l/m 4,8 km/h (1 Bft) N-NO 22 0 min 0,000 mm 0,0 UV-I 0 W/m -1,9 C -1,6 C 6,4 km/h (2 Bft) 95,65 %
26.12.2017 20:27 -1,6 C 4,4 C 98 % 1009,5 hPa 0,0 l/m 1,6 km/h (1 Bft) N-NO 22 0 min 0,000 mm 0,0 UV-I 0 W/m -1,9 C -1,6 C 4,8 km/h (1 Bft) 95,65 %
26.12.2017 20:28 -1,6 C 4,4 C 98 % 1009,5 hPa 0,0 l/m 4,8 km/h (1 Bft) N-NO 22 0 min 0,000 mm 0,0 UV-I 0 W/m -1,9 C -1,6 C 6,4 km/h (2 Bft) 95,65 %
26.12.2017 20:29 -1,6 C 4,4 C 98 % 1009,5 hPa 0,0 l/m 6,4 km/h (2 Bft) O-NO 67 0 min 0,000 mm 0,0 UV-I 0 W/m -1,9 C -1,6 C 8,0 km/h (2 Bft) 100,00 %
26.12.2017 20:30 -1,6 C 4,4 C 98 % 1009,5 hPa 0,0 l/m 4,8 km/h (1 Bft) NO 45 0 min 0,000 mm 0,0 UV-I 0 W/m -1,9 C -1,6 C 6,4 km/h (2 Bft) 95,65 %
26.12.2017 20:31 -1,6 C 4,4 C 98 % 1009,4 hPa 0,0 l/m 6,4 km/h (2 Bft) O-NO 67 0 min 0,000 mm 0,0 UV-I 0 W/m -1,9 C -1,6 C 8,0 km/h (2 Bft) 95,65 %
26.12.2017 20:32 -1,6 C 4,4 C 98 % 1009,5 hPa 0,0 l/m 6,4 km/h (2 Bft) O-NO 67 0 min 0,000 mm 0,0 UV-I 0 W/m -1,9 C -1,6 C 8,0 km/h (2 Bft) 95,65 %
26.12.2017 20:33 -1,7 C 4,4 C 98 % 1009,4 hPa 0,0 l/m 6,4 km/h (2 Bft) O-NO 67 0 min 0,000 mm 0,0 UV-I 0 W/m -2,0 C -1,7 C 9,7 km/h (2 Bft) 100,00 %
26.12.2017 20:34 -1,7 C 4,4 C 98 % 1009,4 hPa 0,0 l/m 8,0 km/h (2 Bft) O-NO 67 0 min 0,000 mm 0,0 UV-I 0 W/m -2,0 C -3,4 C 12,9 km/h (3 Bft) 91,30 %
26.12.2017 20:35 -1,7 C 4,4 C 98 % 1009,4 hPa 0,0 l/m 9,7 km/h (2 Bft) O-NO 67 0 min 0,000 mm 0,0 UV-I 0 W/m -2,0 C -5,1 C 12,9 km/h (3 Bft) 100,00 %
26.12.2017 20:36 -1,7 C 4,4 C 98 % 1009,4 hPa 0,0 l/m 9,7 km/h (2 Bft) O 90 0 min 0,000 mm 0,0 UV-I 0 W/m -2,0 C -5,1 C 11,3 km/h (2 Bft) 95,65 %
26.12.2017 20:37 -1,7 C 4,4 C 98 % 1009,4 hPa 0,0 l/m 4,8 km/h (1 Bft) O-NO 67 0 min 0,000 mm 0,0 UV-I 0 W/m -2,0 C -1,7 C 8,0 km/h (2 Bft) 100,00 %
26.12.2017 20:38 -1,7 C 4,4 C 98 % 1009,4 hPa 0,0 l/m 4,8 km/h (1 Bft) O-NO 67 0 min 0,000 mm 0,0 UV-I 0 W/m -2,0 C -1,7 C 8,0 km/h (2 Bft) 100,00 %
26.12.2017 20:39 -1,7 C 4,4 C 98 % 1009,3 hPa 0,0 l/m 6,4 km/h (2 Bft) O-NO 67 0 min 0,000 mm 0,0 UV-I 0 W/m -2,0 C -1,7 C 8,0 km/h (2 Bft) 100,00 %
26.12.2017 20:40 -1,7 C 4,4 C 98 % 1009,3 hPa 0,0 l/m 8,0 km/h (2 Bft) O-NO 67 0 min 0,000 mm 0,0 UV-I 0 W/m -2,0 C -3,4 C 11,3 km/h (2 Bft) 100,00 %
26.12.2017 20:41 -1,7 C 4,4 C 98 % 1009,3 hPa 0,0 l/m 4,8 km/h (1 Bft) O-NO 67 0 min 0,000 mm 0,0 UV-I 0 W/m -2,0 C -1,7 C 9,7 km/h (2 Bft) 95,65 %
26.12.2017 20:42 -1,8 C 4,4 C 98 % 1009,3 hPa 0,0 l/m 4,8 km/h (1 Bft) O-NO 67 0 min 0,000 mm 0,0 UV-I 0 W/m -2,1 C -1,8 C 11,3 km/h (2 Bft) 100,00 %
26.12.2017 20:43 -1,8 C 4,4 C 98 % 1009,3 hPa 0,0 l/m 6,4 km/h (2 Bft) O-NO 67 0 min 0,000 mm 0,0 UV-I 0 W/m -2,1 C -1,8 C 9,7 km/h (2 Bft) 100,00 %
26.12.2017 20:44 -1,8 C 4,4 C 98 % 1009,3 hPa 0,0 l/m 8,0 km/h (2 Bft) O-NO 67 0 min 0,000 mm 0,0 UV-I 0 W/m -2,1 C -3,5 C 11,3 km/h (2 Bft) 100,00 %
26.12.2017 20:45 -1,8 C 4,4 C 98 % 1009,2 hPa 0,0 l/m 9,7 km/h (2 Bft) O-NO 67 0 min 0,000 mm 0,0 UV-I 0 W/m -2,1 C -5,2 C 14,5 km/h (3 Bft) 95,65 %
26.12.2017 20:46 -1,8 C 4,4 C 98 % 1009,3 hPa 0,0 l/m 8,0 km/h (2 Bft) O-NO 67 0 min 0,000 mm 0,0 UV-I 0 W/m -2,1 C -3,5 C 11,3 km/h (2 Bft) 95,65 %
26.12.2017 20:47 -1,8 C 4,4 C 98 % 1009,3 hPa 0,0 l/m 4,8 km/h (1 Bft) O-NO 67 0 min 0,000 mm 0,0 UV-I 0 W/m -2,1 C -1,8 C 11,3 km/h (2 Bft) 95,65 %
26.12.2017 20:48 -1,8 C 4,4 C 98 % 1009,3 hPa 0,0 l/m 4,8 km/h (1 Bft) O 90 0 min 0,000 mm 0,0 UV-I 0 W/m -2,1 C -1,8 C 6,4 km/h (2 Bft) 95,65 %
26.12.2017 20:49 -1,8 C 4,4 C 98 % 1009,3 hPa 0,0 l/m 4,8 km/h (1 Bft) O-NO 67 0 min 0,000 mm 0,0 UV-I 0 W/m -2,1 C -1,8 C 6,4 km/h (2 Bft) 95,65 %
26.12.2017 20:50 -1,8 C 4,4 C 98 % 1009,2 hPa 0,0 l/m 4,8 km/h (1 Bft) O-NO 67 0 min 0,000 mm 0,0 UV-I 0 W/m -2,1 C -1,8 C 6,4 km/h (2 Bft) 95,65 %
26.12.2017 20:51 -1,8 C 4,4 C 98 % 1009,2 hPa 0,0 l/m 6,4 km/h (2 Bft) O-NO 67 0 min 0,000 mm 0,0 UV-I 0 W/m -2,1 C -1,8 C 8,0 km/h (2 Bft) 100,00 %
26.12.2017 20:52 -1,8 C 4,4 C 98 % 1009,2 hPa 0,0 l/m 8,0 km/h (2 Bft) NO 45 0 min 0,000 mm 0,0 UV-I 0 W/m -2,1 C -3,5 C 9,7 km/h (2 Bft) 95,65 %
26.12.2017 20:53 -1,8 C 4,4 C 98 % 1009,2 hPa 0,0 l/m 4,8 km/h (1 Bft) O-NO 67 0 min 0,000 mm 0,0 UV-I 0 W/m -2,1 C -1,8 C 8,0 km/h (2 Bft) 95,65 %
26.12.2017 20:54 -1,8 C 4,4 C 98 % 1009,2 hPa 0,0 l/m 4,8 km/h (1 Bft) NO 45 0 min 0,000 mm 0,0 UV-I 0 W/m -2,1 C -1,8 C 6,4 km/h (2 Bft) 95,65 %
26.12.2017 20:55 -1,8 C 4,4 C 98 % 1009,2 hPa 0,0 l/m 4,8 km/h (1 Bft) NO 45 0 min 0,000 mm 0,0 UV-I 0 W/m -2,1 C -1,8 C 6,4 km/h (2 Bft) 95,65 %
26.12.2017 20:56 -1,9 C 4,4 C 98 % 1009,2 hPa 0,0 l/m 4,8 km/h (1 Bft) NO 45 0 min 0,000 mm 0,0 UV-I 0 W/m -2,2 C -1,9 C 6,4 km/h (2 Bft) 95,65 %
26.12.2017 20:57 -1,9 C 4,4 C 97 % 1009,2 hPa 0,0 l/m 4,8 km/h (1 Bft) O-NO 67 0 min 0,000 mm 0,0 UV-I 0 W/m -2,3 C -1,9 C 8,0 km/h (2 Bft) 100,00 %
26.12.2017 20:58 -1,9 C 4,4 C 97 % 1009,2 hPa 0,0 l/m 4,8 km/h (1 Bft) O-NO 67 0 min 0,000 mm 0,0 UV-I 0 W/m -2,3 C -1,9 C 4,8 km/h (1 Bft) 95,65 %
26.12.2017 20:59 -1,9 C 4,4 C 97 % 1009,1 hPa 0,0 l/m 4,8 km/h (1 Bft) O-NO 67 0 min 0,000 mm 0,0 UV-I 0 W/m -2,3 C -1,9 C 6,4 km/h (2 Bft) 95,65 %
26.12.2017 21:00 -1,9 C 4,4 C 97 % 1009,2 hPa 0,0 l/m 3,2 km/h (1 Bft) O-NO 67 0 min 0,000 mm 0,0 UV-I 0 W/m -2,3 C -1,9 C 4,8 km/h (1 Bft) 100,00 %
26.12.2017 21:01 -2,0 C 4,4 C 97 % 1009,1 hPa 0,0 l/m 4,8 km/h (1 Bft) O-NO 67 0 min 0,000 mm 0,0 UV-I 0 W/m -2,4 C -2,0 C 6,4 km/h (2 Bft) 95,65 %
26.12.2017 21:02 -2,0 C 4,4 C 97 % 1009,1 hPa 0,0 l/m 6,4 km/h (2 Bft) O-NO 67 0 min 0,000 mm 0,0 UV-I 0 W/m -2,4 C -2,0 C 8,0 km/h (2 Bft) 91,30 %
26.12.2017 21:03 -2,0 C 4,4 C 97 % 1009,1 hPa 0,0 l/m 6,4 km/h (2 Bft) O-NO 67 0 min 0,000 mm 0,0 UV-I 0 W/m -2,4 C -2,0 C 11,3 km/h (2 Bft) 95,65 %
26.12.2017 21:04 -2,0 C 4,4 C 97 % 1009,1 hPa 0,0 l/m 8,0 km/h (2 Bft) O-NO 67 0 min 0,000 mm 0,0 UV-I 0 W/m -2,4 C -3,7 C 9,7 km/h (2 Bft) 95,65 %
26.12.2017 21:05 -2,0 C 4,4 C 97 % 1009,1 hPa 0,0 l/m 6,4 km/h (2 Bft) O-NO 67 0 min 0,000 mm 0,0 UV-I 0 W/m -2,4 C -2,0 C 9,7 km/h (2 Bft) 95,65 %
26.12.2017 21:06 -2,1 C 4,4 C 97 % 1009,1 hPa 0,0 l/m 4,8 km/h (1 Bft) O-NO 67 0 min 0,000 mm 0,0 UV-I 0 W/m -2,5 C -2,1 C 6,4 km/h (2 Bft) 95,65 %
26.12.2017 21:07 -2,1 C 4,4 C 97 % 1009,1 hPa 0,0 l/m 3,2 km/h (1 Bft) O-NO 67 0 min 0,000 mm 0,0 UV-I 0 W/m -2,5 C -2,1 C 4,8 km/h (1 Bft) 95,65 %
26.12.2017 21:08 -2,1 C 4,4 C 97 % 1009,0 hPa 0,0 l/m 4,8 km/h (1 Bft) O-NO 67 0 min 0,000 mm 0,0 UV-I 0 W/m -2,5 C -2,1 C 6,4 km/h (2 Bft) 95,65 %
26.12.2017 21:09 -2,1 C 4,4 C 98 % 1009,0 hPa 0,0 l/m 4,8 km/h (1 Bft) O-NO 67 0 min 0,000 mm 0,0 UV-I 0 W/m -2,4 C -2,1 C 8,0 km/h (2 Bft) 91,30 %
26.12.2017 21:10 -2,1 C 4,4 C 98 % 1009,0 hPa 0,0 l/m 3,2 km/h (1 Bft) O-NO 67 0 min 0,000 mm 0,0 UV-I 0 W/m -2,4 C -2,1 C 4,8 km/h (1 Bft) 91,30 %
26.12.2017 21:11 -2,1 C 4,4 C 98 % 1008,9 hPa 0,0 l/m 3,2 km/h (1 Bft) O-NO 67 0 min 0,000 mm 0,0 UV-I 0 W/m -2,4 C -2,1 C 6,4 km/h (2 Bft) 100,00 %
26.12.2017 21:12 -2,1 C 4,4 C 98 % 1008,9 hPa 0,0 l/m 4,8 km/h (1 Bft) O-NO 67 0 min 0,000 mm 0,0 UV-I 0 W/m -2,4 C -2,1 C 6,4 km/h (2 Bft) 95,65 %
26.12.2017 21:13 -2,1 C 4,4 C 98 % 1008,8 hPa 0,0 l/m 4,8 km/h (1 Bft) O-NO 67 0 min 0,000 mm 0,0 UV-I 0 W/m -2,4 C -2,1 C 6,4 km/h (2 Bft) 95,65 %
26.12.2017 21:14 -2,1 C 4,4 C 98 % 1008,8 hPa 0,0 l/m 4,8 km/h (1 Bft) O-NO 67 0 min 0,000 mm 0,0 UV-I 0 W/m -2,4 C -2,1 C 6,4 km/h (2 Bft) 95,65 %
26.12.2017 21:15 -2,2 C 4,4 C 98 % 1008,8 hPa 0,0 l/m 4,8 km/h (1 Bft) O-NO 67 0 min 0,000 mm 0,0 UV-I 0 W/m -2,5 C -2,2 C 4,8 km/h (1 Bft) 95,65 %
26.12.2017 21:16 -2,2 C 4,4 C 97 % 1008,8 hPa 0,0 l/m 4,8 km/h (1 Bft) O-NO 67 0 min 0,000 mm 0,0 UV-I 0 W/m -2,6 C -2,2 C 6,4 km/h (2 Bft) 95,65 %
26.12.2017 21:17 -2,2 C 4,4 C 97 % 1008,8 hPa 0,0 l/m 4,8 km/h (1 Bft) O-NO 67 0 min 0,000 mm 0,0 UV-I 0 W/m -2,6 C -2,2 C 6,4 km/h (2 Bft) 95,65 %
26.12.2017 21:18 -2,2 C 4,4 C 97 % 1008,8 hPa 0,0 l/m 3,2 km/h (1 Bft) O-NO 67 0 min 0,000 mm 0,0 UV-I 0 W/m -2,6 C -2,2 C 4,8 km/h (1 Bft) 100,00 %
26.12.2017 21:19 -2,2 C 4,4 C 97 % 1008,8 hPa 0,0 l/m 3,2 km/h (1 Bft) NO 45 0 min 0,000 mm 0,0 UV-I 0 W/m -2,6 C -2,2 C 4,8 km/h (1 Bft) 95,65 %
26.12.2017 21:20 -2,2 C 4,4 C 98 % 1008,8 hPa 0,0 l/m 4,8 km/h (1 Bft) NO 45 0 min 0,000 mm 0,0 UV-I 0 W/m -2,5 C -2,2 C 6,4 km/h (2 Bft) 95,65 %
26.12.2017 21:21 -2,2 C 4,4 C 98 % 1008,8 hPa 0,0 l/m 3,2 km/h (1 Bft) NO 45 0 min 0,000 mm 0,0 UV-I 0 W/m -2,5 C -2,2 C 4,8 km/h (1 Bft) 100,00 %
26.12.2017 21:22 -2,1 C 4,4 C 98 % 1008,8 hPa 0,0 l/m 3,2 km/h (1 Bft) NO 45 0 min 0,000 mm 0,0 UV-I 0 W/m -2,4 C -2,1 C 6,4 km/h (2 Bft) 100,00 %
26.12.2017 21:23 -2,2 C 4,4 C 98 % 1008,8 hPa 0,0 l/m 4,8 km/h (1 Bft) O-NO 67 0 min 0,000 mm 0,0 UV-I 0 W/m -2,5 C -2,2 C 4,8 km/h (1 Bft) 95,65 %
26.12.2017 21:24 -2,1 C 4,4 C 98 % 1008,8 hPa 0,0 l/m 3,2 km/h (1 Bft) O-NO 67 0 min 0,000 mm 0,0 UV-I 0 W/m -2,4 C -2,1 C 4,8 km/h (1 Bft) 95,65 %
26.12.2017 21:25 -2,1 C 4,4 C 98 % 1008,8 hPa 0,0 l/m 1,6 km/h (1 Bft) O-NO 67 0 min 0,000 mm 0,0 UV-I 0 W/m -2,4 C -2,1 C 3,2 km/h (1 Bft) 100,00 %
26.12.2017 21:26 -2,1 C 4,4 C 98 % 1008,8 hPa 0,0 l/m 3,2 km/h (1 Bft) O-NO 67 0 min 0,000 mm 0,0 UV-I 0 W/m -2,4 C -2,1 C 4,8 km/h (1 Bft) 95,65 %
26.12.2017 21:27 -2,1 C 4,4 C 98 % 1008,8 hPa 0,0 l/m 3,2 km/h (1 Bft) O-NO 67 0 min 0,000 mm 0,0 UV-I 0 W/m -2,4 C -2,1 C 6,4 km/h (2 Bft) 100,00 %
26.12.2017 21:28 -2,1 C 4,4 C 98 % 1008,8 hPa 0,0 l/m 4,8 km/h (1 Bft) O-NO 67 0 min 0,000 mm 0,0 UV-I 0 W/m -2,4 C -2,1 C 6,4 km/h (2 Bft) 100,00 %
26.12.2017 21:29 -2,1 C 4,4 C 98 % 1008,8 hPa 0,0 l/m 3,2 km/h (1 Bft) O-NO 67 0 min 0,000 mm 0,0 UV-I 0 W/m -2,4 C -2,1 C 4,8 km/h (1 Bft) 100,00 %
26.12.2017 21:30 -2,1 C 4,4 C 98 % 1008,8 hPa 0,0 l/m 3,2 km/h (1 Bft) O-NO 67 0 min 0,000 mm 0,0 UV-I 0 W/m -2,4 C -2,1 C 4,8 km/h (1 Bft) 91,30 %
26.12.2017 21:31 -2,1 C 4,4 C 98 % 1008,8 hPa 0,0 l/m 1,6 km/h (1 Bft) O-NO 67 0 min 0,000 mm 0,0 UV-I 0 W/m -2,4 C -2,1 C 3,2 km/h (1 Bft) 100,00 %
26.12.2017 21:32 -2,1 C 4,4 C 98 % 1008,8 hPa 0,0 l/m 3,2 km/h (1 Bft) O-NO 67 0 min 0,000 mm 0,0 UV-I 0 W/m -2,4 C -2,1 C 4,8 km/h (1 Bft) 95,65 %
26.12.2017 21:33 -2,1 C 4,4 C 98 % 1008,7 hPa 0,0 l/m 3,2 km/h (1 Bft) O-NO 67 0 min 0,000 mm 0,0 UV-I 0 W/m -2,4 C -2,1 C 4,8 km/h (1 Bft) 100,00 %
26.12.2017 21:34 -2,1 C 4,4 C 97 % 1008,7 hPa 0,0 l/m 4,8 km/h (1 Bft) NO 45 0 min 0,000 mm 0,0 UV-I 0 W/m -2,5 C -2,1 C 6,4 km/h (2 Bft) 100,00 %
26.12.2017 21:35 -2,1 C 4,4 C 97 % 1008,7 hPa 0,0 l/m 4,8 km/h (1 Bft) NO 45 0 min 0,000 mm 0,0 UV-I 0 W/m -2,5 C -2,1 C 6,4 km/h (2 Bft) 100,00 %
26.12.2017 21:36 -2,1 C 4,4 C 97 % 1008,7 hPa 0,0 l/m 4,8 km/h (1 Bft) NO 45 0 min 0,000 mm 0,0 UV-I 0 W/m -2,5 C -2,1 C 6,4 km/h (2 Bft) 95,65 %
26.12.2017 21:37 -2,1 C 4,4 C 97 % 1008,7 hPa 0,0 l/m 4,8 km/h (1 Bft) NO 45 0 min 0,000 mm 0,0 UV-I 0 W/m -2,5 C -2,1 C 6,4 km/h (2 Bft) 95,65 %
26.12.2017 21:38 -2,0 C 4,4 C 97 % 1008,7 hPa 0,0 l/m 4,8 km/h (1 Bft) NO 45 0 min 0,000 mm 0,0 UV-I 0 W/m -2,4 C -2,0 C 4,8 km/h (1 Bft) 95,65 %
26.12.2017 21:39 -2,0 C 4,4 C 97 % 1008,6 hPa 0,0 l/m 4,8 km/h (1 Bft) NO 45 0 min 0,000 mm 0,0 UV-I 0 W/m -2,4 C -2,0 C 6,4 km/h (2 Bft) 100,00 %
26.12.2017 21:40 -2,0 C 4,4 C 97 % 1008,6 hPa 0,0 l/m 1,6 km/h (1 Bft) NO 45 0 min 0,000 mm 0,0 UV-I 0 W/m -2,4 C -2,0 C 3,2 km/h (1 Bft) 95,65 %
26.12.2017 21:41 -2,0 C 4,4 C 97 % 1008,6 hPa 0,0 l/m 3,2 km/h (1 Bft) NO 45 0 min 0,000 mm 0,0 UV-I 0 W/m -2,4 C -2,0 C 4,8 km/h (1 Bft) 100,00 %
26.12.2017 21:42 -2,0 C 4,4 C 97 % 1008,6 hPa 0,0 l/m 4,8 km/h (1 Bft) O-NO 67 0 min 0,000 mm 0,0 UV-I 0 W/m -2,4 C -2,0 C 8,0 km/h (2 Bft) 95,65 %
26.12.2017 21:43 -2,0 C 4,4 C 97 % 1008,6 hPa 0,0 l/m 4,8 km/h (1 Bft) O-NO 67 0 min 0,000 mm 0,0 UV-I 0 W/m -2,4 C -2,0 C 6,4 km/h (2 Bft) 100,00 %
26.12.2017 21:44 -2,0 C 4,4 C 97 % 1008,5 hPa 0,0 l/m 4,8 km/h (1 Bft) O-NO 67 0 min 0,000 mm 0,0 UV-I 0 W/m -2,4 C -2,0 C 6,4 km/h (2 Bft) 91,30 %
26.12.2017 21:45 -2,1 C 4,4 C 97 % 1008,5 hPa 0,0 l/m 4,8 km/h (1 Bft) O-NO 67 0 min 0,000 mm 0,0 UV-I 0 W/m -2,5 C -2,1 C 6,4 km/h (2 Bft) 95,65 %
26.12.2017 21:46 -2,1 C 4,4 C 97 % 1008,5 hPa 0,0 l/m 3,2 km/h (1 Bft) O-NO 67 0 min 0,000 mm 0,0 UV-I 0 W/m -2,5 C -2,1 C 4,8 km/h (1 Bft) 100,00 %
26.12.2017 21:47 -2,1 C 4,4 C 97 % 1008,5 hPa 0,0 l/m 4,8 km/h (1 Bft) NO 45 0 min 0,000 mm 0,0 UV-I 0 W/m -2,5 C -2,1 C 6,4 km/h (2 Bft) 95,65 %
26.12.2017 21:48 -2,1 C 4,4 C 98 % 1008,4 hPa 0,0 l/m 3,2 km/h (1 Bft) NO 45 0 min 0,000 mm 0,0 UV-I 0 W/m -2,4 C -2,1 C 4,8 km/h (1 Bft) 100,00 %
26.12.2017 21:49 -2,1 C 4,4 C 97 % 1008,5 hPa 0,0 l/m 4,8 km/h (1 Bft) O-NO 67 0 min 0,000 mm 0,0 UV-I 0 W/m -2,5 C -2,1 C 8,0 km/h (2 Bft) 95,65 %
26.12.2017 21:50 -2,1 C 4,4 C 97 % 1008,4 hPa 0,0 l/m 4,8 km/h (1 Bft) O-NO 67 0 min 0,000 mm 0,0 UV-I 0 W/m -2,5 C -2,1 C 6,4 km/h (2 Bft) 100,00 %
26.12.2017 21:51 -2,1 C 4,4 C 97 % 1008,4 hPa 0,0 l/m 4,8 km/h (1 Bft) O-NO 67 0 min 0,000 mm 0,0 UV-I 0 W/m -2,5 C -2,1 C 6,4 km/h (2 Bft) 91,30 %
26.12.2017 21:52 -2,1 C 4,4 C 97 % 1008,4 hPa 0,0 l/m 6,4 km/h (2 Bft) O-NO 67 0 min 0,000 mm 0,0 UV-I 0 W/m -2,5 C -2,1 C 8,0 km/h (2 Bft) 100,00 %
26.12.2017 21:53 -2,1 C 4,4 C 97 % 1008,4 hPa 0,0 l/m 8,0 km/h (2 Bft) O-NO 67 0 min 0,000 mm 0,0 UV-I 0 W/m -2,5 C -3,9 C 12,9 km/h (3 Bft) 91,30 %
26.12.2017 21:54 -2,1 C 4,4 C 97 % 1008,4 hPa 0,0 l/m 8,0 km/h (2 Bft) O-NO 67 0 min 0,000 mm 0,0 UV-I 0 W/m -2,5 C -3,9 C 9,7 km/h (2 Bft) 100,00 %
26.12.2017 21:55 -2,1 C 4,4 C 97 % 1008,3 hPa 0,0 l/m 8,0 km/h (2 Bft) O-NO 67 0 min 0,000 mm 0,0 UV-I 0 W/m -2,5 C -3,9 C 11,3 km/h (2 Bft) 91,30 %
26.12.2017 21:56 -2,1 C 4,4 C 97 % 1008,3 hPa 0,0 l/m 9,7 km/h (2 Bft) O-NO 67 0 min 0,000 mm 0,0 UV-I 0 W/m -2,5 C -5,5 C 12,9 km/h (3 Bft) 95,65 %
26.12.2017 21:57 -2,1 C 4,4 C 97 % 1008,3 hPa 0,0 l/m 8,0 km/h (2 Bft) O-NO 67 0 min 0,000 mm 0,0 UV-I 0 W/m -2,5 C -3,9 C 9,7 km/h (2 Bft) 100,00 %
26.12.2017 21:58 -2,1 C 4,4 C 97 % 1008,3 hPa 0,0 l/m 8,0 km/h (2 Bft) NO 45 0 min 0,000 mm 0,0 UV-I 0 W/m -2,5 C -3,9 C 11,3 km/h (2 Bft) 95,65 %
26.12.2017 21:59 -2,1 C 4,4 C 97 % 1008,3 hPa 0,0 l/m 8,0 km/h (2 Bft) NO 45 0 min 0,000 mm 0,0 UV-I 0 W/m -2,5 C -3,9 C 9,7 km/h (2 Bft) 100,00 %
26.12.2017 22:00 -2,1 C 4,4 C 97 % 1008,2 hPa 0,0 l/m 8,0 km/h (2 Bft) NO 45 0 min 0,000 mm 0,0 UV-I 0 W/m -2,5 C -3,9 C 9,7 km/h (2 Bft) 95,65 %
26.12.2017 22:01 -2,1 C 4,4 C 97 % 1008,2 hPa 0,0 l/m 6,4 km/h (2 Bft) NO 45 0 min 0,000 mm 0,0 UV-I 0 W/m -2,5 C -2,1 C 9,7 km/h (2 Bft) 100,00 %
26.12.2017 22:02 -2,1 C 4,4 C 97 % 1008,2 hPa 0,0 l/m 6,4 km/h (2 Bft) NO 45 0 min 0,000 mm 0,0 UV-I 0 W/m -2,5 C -2,1 C 8,0 km/h (2 Bft) 100,00 %
26.12.2017 22:03 -2,1 C 4,4 C 97 % 1008,2 hPa 0,0 l/m 8,0 km/h (2 Bft) N-NO 22 0 min 0,000 mm 0,0 UV-I 0 W/m -2,5 C -3,9 C 9,7 km/h (2 Bft) 95,65 %
26.12.2017 22:04 -2,1 C 4,4 C 97 % 1008,2 hPa 0,0 l/m 8,0 km/h (2 Bft) N-NO 22 0 min 0,000 mm 0,0 UV-I 0 W/m -2,5 C -3,9 C 11,3 km/h (2 Bft) 100,00 %
26.12.2017 22:05 -2,1 C 4,4 C 97 % 1008,2 hPa 0,0 l/m 6,4 km/h (2 Bft) N-NO 22 0 min 0,000 mm 0,0 UV-I 0 W/m -2,5 C -2,1 C 11,3 km/h (2 Bft) 91,30 %
26.12.2017 22:06 -2,1 C 4,4 C 97 % 1008,2 hPa 0,0 l/m 9,7 km/h (2 Bft) NO 45 0 min 0,000 mm 0,0 UV-I 0 W/m -2,5 C -5,5 C 11,3 km/h (2 Bft) 100,00 %
26.12.2017 22:07 -2,0 C 4,4 C 97 % 1008,1 hPa 0,0 l/m 9,7 km/h (2 Bft) NO 45 0 min 0,000 mm 0,0 UV-I 0 W/m -2,4 C -5,4 C 11,3 km/h (2 Bft) 100,00 %
26.12.2017 22:08 -2,0 C 4,4 C 97 % 1008,1 hPa 0,0 l/m 8,0 km/h (2 Bft) NO 45 0 min 0,000 mm 0,0 UV-I 0 W/m -2,4 C -3,7 C 11,3 km/h (2 Bft) 100,00 %
26.12.2017 22:09 -2,0 C 4,4 C 97 % 1008,1 hPa 0,0 l/m 6,4 km/h (2 Bft) O-NO 67 0 min 0,000 mm 0,0 UV-I 0 W/m -2,4 C -2,0 C 9,7 km/h (2 Bft) 100,00 %
26.12.2017 22:10 -2,0 C 4,4 C 97 % 1008,0 hPa 0,0 l/m 6,4 km/h (2 Bft) O-NO 67 0 min 0,000 mm 0,0 UV-I 0 W/m -2,4 C -2,0 C 9,7 km/h (2 Bft) 100,00 %
26.12.2017 22:11 -2,0 C 4,4 C 97 % 1008,0 hPa 0,0 l/m 9,7 km/h (2 Bft) O-NO 67 0 min 0,000 mm 0,0 UV-I 0 W/m -2,4 C -5,4 C 12,9 km/h (3 Bft) 100,00 %
26.12.2017 22:12 -2,0 C 4,4 C 97 % 1007,9 hPa 0,0 l/m 6,4 km/h (2 Bft) NO 45 0 min 0,000 mm 0,0 UV-I 0 W/m -2,4 C -2,0 C 9,7 km/h (2 Bft) 95,65 %
26.12.2017 22:13 -2,1 C 4,4 C 97 % 1007,9 hPa 0,0 l/m 6,4 km/h (2 Bft) NO 45 0 min 0,000 mm 0,0 UV-I 0 W/m -2,5 C -2,1 C 8,0 km/h (2 Bft) 100,00 %
26.12.2017 22:14 -2,1 C 4,4 C 97 % 1007,9 hPa 0,0 l/m 6,4 km/h (2 Bft) NO 45 0 min 0,000 mm 0,0 UV-I 0 W/m -2,5 C -2,1 C 9,7 km/h (2 Bft) 95,65 %
26.12.2017 22:15 -2,1 C 4,4 C 97 % 1007,8 hPa 0,0 l/m 8,0 km/h (2 Bft) O-NO 67 0 min 0,000 mm 0,0 UV-I 0 W/m -2,5 C -3,9 C 12,9 km/h (3 Bft) 100,00 %
26.12.2017 22:16 -2,1 C 4,4 C 97 % 1007,8 hPa 0,0 l/m 9,7 km/h (2 Bft) O-NO 67 0 min 0,000 mm 0,0 UV-I 0 W/m -2,5 C -5,5 C 14,5 km/h (3 Bft) 100,00 %
26.12.2017 22:17 -2,1 C 4,4 C 97 % 1007,8 hPa 0,0 l/m 9,7 km/h (2 Bft) O-NO 67 0 min 0,000 mm 0,0 UV-I 0 W/m -2,5 C -5,5 C 14,5 km/h (3 Bft) 100,00 %
26.12.2017 22:18 -2,1 C 4,4 C 97 % 1007,8 hPa 0,0 l/m 8,0 km/h (2 Bft) NO 45 0 min 0,000 mm 0,0 UV-I 0 W/m -2,5 C -3,9 C 14,5 km/h (3 Bft) 95,65 %
26.12.2017 22:19 -2,1 C 4,4 C 97 % 1007,7 hPa 0,0 l/m 11,3 km/h (2 Bft) O-NO 67 0 min 0,000 mm 0,0 UV-I 0 W/m -2,5 C -6,9 C 14,5 km/h (3 Bft) 95,65 %
26.12.2017 22:20 -2,1 C 4,4 C 97 % 1007,7 hPa 0,0 l/m 9,7 km/h (2 Bft) O-NO 67 0 min 0,000 mm 0,0 UV-I 0 W/m -2,5 C -5,5 C 14,5 km/h (3 Bft) 100,00 %
26.12.2017 22:21 -2,2 C 4,4 C 97 % 1007,7 hPa 0,0 l/m 9,7 km/h (2 Bft) O-NO 67 0 min 0,000 mm 0,0 UV-I 0 W/m -2,6 C -5,6 C 12,9 km/h (3 Bft) 95,65 %
26.12.2017 22:22 -2,2 C 4,4 C 97 % 1007,7 hPa 0,0 l/m 6,4 km/h (2 Bft) O-NO 67 0 min 0,000 mm 0,0 UV-I 0 W/m -2,6 C -2,2 C 9,7 km/h (2 Bft) 95,65 %
26.12.2017 22:23 -2,2 C 4,4 C 97 % 1007,7 hPa 0,0 l/m 12,9 km/h (3 Bft) NO 45 0 min 0,000 mm 0,0 UV-I 0 W/m -2,6 C -8,2 C 17,7 km/h (3 Bft) 100,00 %
26.12.2017 22:24 -2,2 C 4,4 C 97 % 1007,7 hPa 0,0 l/m 11,3 km/h (2 Bft) O-NO 67 0 min 0,000 mm 0,0 UV-I 0 W/m -2,6 C -7,0 C 16,1 km/h (3 Bft) 95,65 %
26.12.2017 22:25 -2,2 C 4,4 C 97 % 1007,6 hPa 0,0 l/m 12,9 km/h (3 Bft) NO 45 0 min 0,000 mm 0,0 UV-I 0 W/m -2,6 C -8,2 C 17,7 km/h (3 Bft) 95,65 %
26.12.2017 22:26 -2,2 C 4,4 C 97 % 1007,6 hPa 0,0 l/m 12,9 km/h (3 Bft) NO 45 0 min 0,000 mm 0,0 UV-I 0 W/m -2,6 C -8,2 C 17,7 km/h (3 Bft) 91,30 %
26.12.2017 22:27 -2,2 C 4,4 C 97 % 1007,6 hPa 0,0 l/m 12,9 km/h (3 Bft) O-NO 67 0 min 0,000 mm 0,0 UV-I 0 W/m -2,6 C -8,2 C 16,1 km/h (3 Bft) 100,00 %
26.12.2017 22:28 -2,3 C 4,4 C 97 % 1007,6 hPa 0,0 l/m 14,5 km/h (3 Bft) O-NO 67 0 min 0,000 mm 0,0 UV-I 0 W/m -2,7 C -9,4 C 17,7 km/h (3 Bft) 100,00 %
26.12.2017 22:29 -2,3 C 4,4 C 97 % 1007,5 hPa 0,0 l/m 12,9 km/h (3 Bft) O-NO 67 0 min 0,000 mm 0,0 UV-I 0 W/m -2,7 C -8,3 C 16,1 km/h (3 Bft) 100,00 %
26.12.2017 22:30 -2,3 C 4,4 C 97 % 1007,6 hPa 0,0 l/m 12,9 km/h (3 Bft) O-NO 67 0 min 0,000 mm 0,0 UV-I 0 W/m -2,7 C -8,3 C 16,1 km/h (3 Bft) 100,00 %
26.12.2017 22:31 -2,3 C 4,4 C 97 % 1007,6 hPa 0,0 l/m 12,9 km/h (3 Bft) O-NO 67 0 min 0,000 mm 0,0 UV-I 0 W/m -2,7 C -8,3 C 16,1 km/h (3 Bft) 100,00 %
26.12.2017 22:32 -2,3 C 4,4 C 97 % 1007,5 hPa 0,0 l/m 11,3 km/h (2 Bft) O-NO 67 0 min 0,000 mm 0,0 UV-I 0 W/m -2,7 C -7,1 C 16,1 km/h (3 Bft) 100,00 %
26.12.2017 22:33 -2,3 C 4,4 C 97 % 1007,5 hPa 0,0 l/m 11,3 km/h (2 Bft) O-NO 67 0 min 0,000 mm 0,0 UV-I 0 W/m -2,7 C -7,1 C 14,5 km/h (3 Bft) 95,65 %
26.12.2017 22:34 -2,3 C 4,4 C 97 % 1007,5 hPa 0,0 l/m 9,7 km/h (2 Bft) O-NO 67 0 min 0,000 mm 0,0 UV-I 0 W/m -2,7 C -5,7 C 14,5 km/h (3 Bft) 100,00 %
26.12.2017 22:35 -2,3 C 4,4 C 97 % 1007,5 hPa 0,0 l/m 9,7 km/h (2 Bft) O-NO 67 0 min 0,000 mm 0,0 UV-I 0 W/m -2,7 C -5,7 C 14,5 km/h (3 Bft) 100,00 %
26.12.2017 22:36 -2,3 C 4,4 C 97 % 1007,5 hPa 0,0 l/m 11,3 km/h (2 Bft) O-NO 67 0 min 0,000 mm 0,0 UV-I 0 W/m -2,7 C -7,1 C 16,1 km/h (3 Bft) 100,00 %
26.12.2017 22:37 -2,3 C 4,4 C 97 % 1007,4 hPa 0,0 l/m 11,3 km/h (2 Bft) O-NO 67 0 min 0,000 mm 0,0 UV-I 0 W/m -2,7 C -7,1 C 16,1 km/h (3 Bft) 100,00 %
26.12.2017 22:38 -2,3 C 4,4 C 97 % 1007,4 hPa 0,0 l/m 8,0 km/h (2 Bft) NO 45 0 min 0,000 mm 0,0 UV-I 0 W/m -2,7 C -4,1 C 12,9 km/h (3 Bft) 95,65 %
26.12.2017 22:39 -2,3 C 4,4 C 97 % 1007,3 hPa 0,0 l/m 9,7 km/h (2 Bft) O-NO 67 0 min 0,000 mm 0,0 UV-I 0 W/m -2,7 C -5,7 C 12,9 km/h (3 Bft) 100,00 %
26.12.2017 22:40 -2,3 C 4,4 C 97 % 1007,3 hPa 0,0 l/m 9,7 km/h (2 Bft) O-NO 67 0 min 0,000 mm 0,0 UV-I 0 W/m -2,7 C -5,7 C 12,9 km/h (3 Bft) 95,65 %
26.12.2017 22:41 -2,3 C 4,4 C 97 % 1007,2 hPa 0,0 l/m 9,7 km/h (2 Bft) O 90 0 min 0,000 mm 0,0 UV-I 0 W/m -2,7 C -5,7 C 12,9 km/h (3 Bft) 100,00 %
26.12.2017 22:42 -2,3 C 4,4 C 97 % 1007,2 hPa 0,0 l/m 9,7 km/h (2 Bft) O-NO 67 0 min 0,000 mm 0,0 UV-I 0 W/m -2,7 C -5,7 C 11,3 km/h (2 Bft) 100,00 %
26.12.2017 22:43 -2,3 C 4,4 C 97 % 1007,2 hPa 0,0 l/m 11,3 km/h (2 Bft) O-NO 67 0 min 0,000 mm 0,0 UV-I 0 W/m -2,7 C -7,1 C 17,7 km/h (3 Bft) 95,65 %
26.12.2017 22:44 -2,3 C 4,4 C 97 % 1007,2 hPa 0,0 l/m 9,7 km/h (2 Bft) O-NO 67 0 min 0,000 mm 0,0 UV-I 0 W/m -2,7 C -5,7 C 16,1 km/h (3 Bft) 100,00 %
26.12.2017 22:45 -2,3 C 4,4 C 97 % 1007,3 hPa 0,0 l/m 12,9 km/h (3 Bft) O-NO 67 0 min 0,000 mm 0,0 UV-I 0 W/m -2,7 C -8,3 C 16,1 km/h (3 Bft) 95,65 %
26.12.2017 22:46 -2,3 C 4,4 C 97 % 1007,3 hPa 0,0 l/m 11,3 km/h (2 Bft) O-NO 67 0 min 0,000 mm 0,0 UV-I 0 W/m -2,7 C -7,1 C 14,5 km/h (3 Bft) 100,00 %
26.12.2017 22:47 -2,3 C 4,4 C 97 % 1007,3 hPa 0,0 l/m 9,7 km/h (2 Bft) NO 45 0 min 0,000 mm 0,0 UV-I 0 W/m -2,7 C -5,7 C 12,9 km/h (3 Bft) 95,65 %
26.12.2017 22:48 -2,3 C 4,4 C 97 % 1007,3 hPa 0,0 l/m 8,0 km/h (2 Bft) O-NO 67 0 min 0,000 mm 0,0 UV-I 0 W/m -2,7 C -4,1 C 11,3 km/h (2 Bft) 100,00 %
26.12.2017 22:49 -2,3 C 4,4 C 97 % 1007,3 hPa 0,0 l/m 8,0 km/h (2 Bft) O-NO 67 0 min 0,000 mm 0,0 UV-I 0 W/m -2,7 C -4,1 C 11,3 km/h (2 Bft) 95,65 %
26.12.2017 22:50 -2,3 C 4,4 C 97 % 1007,3 hPa 0,0 l/m 9,7 km/h (2 Bft) O-NO 67 0 min 0,000 mm 0,0 UV-I 0 W/m -2,7 C -5,7 C 14,5 km/h (3 Bft) 91,30 %
26.12.2017 22:51 -2,3 C 4,4 C 97 % 1007,2 hPa 0,0 l/m 9,7 km/h (2 Bft) O-NO 67 0 min 0,000 mm 0,0 UV-I 0 W/m -2,7 C -5,7 C 12,9 km/h (3 Bft) 100,00 %
26.12.2017 22:52 -2,3 C 4,4 C 97 % 1007,3 hPa 0,0 l/m 8,0 km/h (2 Bft) O-NO 67 0 min 0,000 mm 0,0 UV-I 0 W/m -2,7 C -4,1 C 12,9 km/h (3 Bft) 95,65 %
26.12.2017 22:53 -2,3 C 4,4 C 97 % 1007,2 hPa 0,0 l/m 8,0 km/h (2 Bft) O-NO 67 0 min 0,000 mm 0,0 UV-I 0 W/m -2,7 C -4,1 C 9,7 km/h (2 Bft) 100,00 %
26.12.2017 22:54 -2,3 C 4,4 C 97 % 1007,2 hPa 0,0 l/m 6,4 km/h (2 Bft) O-NO 67 0 min 0,000 mm 0,0 UV-I 0 W/m -2,7 C -2,3 C 8,0 km/h (2 Bft) 91,30 %
26.12.2017 22:55 -2,3 C 4,4 C 97 % 1007,2 hPa 0,0 l/m 4,8 km/h (1 Bft) O-NO 67 0 min 0,000 mm 0,0 UV-I 0 W/m -2,7 C -2,3 C 8,0 km/h (2 Bft) 95,65 %
26.12.2017 22:56 -2,3 C 4,4 C 97 % 1007,2 hPa 0,0 l/m 4,8 km/h (1 Bft) NO 45 0 min 0,000 mm 0,0 UV-I 0 W/m -2,7 C -2,3 C 6,4 km/h (2 Bft) 95,65 %
26.12.2017 22:57 -2,3 C 4,4 C 97 % 1007,1 hPa 0,0 l/m 6,4 km/h (2 Bft) NO 45 0 min 0,000 mm 0,0 UV-I 0 W/m -2,7 C -2,3 C 8,0 km/h (2 Bft) 95,65 %
26.12.2017 22:58 -2,2 C 4,4 C 97 % 1007,1 hPa 0,0 l/m 6,4 km/h (2 Bft) O-NO 67 0 min 0,000 mm 0,0 UV-I 0 W/m -2,6 C -2,2 C 8,0 km/h (2 Bft) 95,65 %
26.12.2017 22:59 -2,2 C 4,4 C 97 % 1007,0 hPa 0,0 l/m 6,4 km/h (2 Bft) O-NO 67 0 min 0,000 mm 0,0 UV-I 0 W/m -2,6 C -2,2 C 8,0 km/h (2 Bft) 91,30 %
26.12.2017 23:00 -2,2 C 4,4 C 97 % 1007,0 hPa 0,0 l/m 6,4 km/h (2 Bft) NO 45 0 min 0,000 mm 0,0 UV-I 0 W/m -2,6 C -2,2 C 8,0 km/h (2 Bft) 100,00 %
26.12.2017 23:01 -2,2 C 4,4 C 97 % 1006,9 hPa 0,0 l/m 4,8 km/h (1 Bft) NO 45 0 min 0,000 mm 0,0 UV-I 0 W/m -2,6 C -2,2 C 6,4 km/h (2 Bft) 86,96 %
26.12.2017 23:02 -2,2 C 4,4 C 97 % 1006,9 hPa 0,0 l/m 4,8 km/h (1 Bft) O-NO 67 0 min 0,000 mm 0,0 UV-I 0 W/m -2,6 C -2,2 C 8,0 km/h (2 Bft) 95,65 %
26.12.2017 23:03 -2,2 C 4,4 C 97 % 1006,9 hPa 0,0 l/m 4,8 km/h (1 Bft) O-NO 67 0 min 0,000 mm 0,0 UV-I 0 W/m -2,6 C -2,2 C 6,4 km/h (2 Bft) 91,30 %
26.12.2017 23:04 -2,2 C 4,4 C 97 % 1006,9 hPa 0,0 l/m 6,4 km/h (2 Bft) O-NO 67 0 min 0,000 mm 0,0 UV-I 0 W/m -2,6 C -2,2 C 8,0 km/h (2 Bft) 95,65 %
26.12.2017 23:05 -2,2 C 4,4 C 97 % 1006,9 hPa 0,0 l/m 3,2 km/h (1 Bft) N-NO 22 0 min 0,000 mm 0,0 UV-I 0 W/m -2,6 C -2,2 C 6,4 km/h (2 Bft) 86,96 %
26.12.2017 23:06 -2,2 C 4,4 C 97 % 1006,9 hPa 0,0 l/m 3,2 km/h (1 Bft) NO 45 0 min 0,000 mm 0,0 UV-I 0 W/m -2,6 C -2,2 C 6,4 km/h (2 Bft) 95,65 %
26.12.2017 23:07 -2,1 C 4,4 C 97 % 1006,9 hPa 0,0 l/m 3,2 km/h (1 Bft) N-NO 22 0 min 0,000 mm 0,0 UV-I 0 W/m -2,5 C -2,1 C 4,8 km/h (1 Bft) 95,65 %
26.12.2017 23:08 -2,1 C 4,4 C 97 % 1006,9 hPa 0,0 l/m 4,8 km/h (1 Bft) N-NO 22 0 min 0,000 mm 0,0 UV-I 0 W/m -2,5 C -2,1 C 8,0 km/h (2 Bft) 82,61 %
26.12.2017 23:09 -2,1 C 4,4 C 97 % 1006,9 hPa 0,0 l/m 4,8 km/h (1 Bft) O-NO 67 0 min 0,000 mm 0,0 UV-I 0 W/m -2,5 C -2,1 C 8,0 km/h (2 Bft) 100,00 %
26.12.2017 23:10 -2,1 C 4,4 C 97 % 1007,0 hPa 0,0 l/m 6,4 km/h (2 Bft) O-NO 67 0 min 0,000 mm 0,0 UV-I 0 W/m -2,5 C -2,1 C 8,0 km/h (2 Bft) 91,30 %
26.12.2017 23:11 -2,1 C 4,4 C 97 % 1007,0 hPa 0,0 l/m 6,4 km/h (2 Bft) O-NO 67 0 min 0,000 mm 0,0 UV-I 0 W/m -2,5 C -2,1 C 8,0 km/h (2 Bft) 100,00 %
26.12.2017 23:12 -2,1 C 4,4 C 97 % 1006,9 hPa 0,0 l/m 4,8 km/h (1 Bft) NO 45 0 min 0,000 mm 0,0 UV-I 0 W/m -2,5 C -2,1 C 6,4 km/h (2 Bft) 91,30 %
26.12.2017 23:13 -2,2 C 4,4 C 97 % 1007,0 hPa 0,0 l/m 1,6 km/h (1 Bft) NO 45 0 min 0,000 mm 0,0 UV-I 0 W/m -2,6 C -2,2 C 3,2 km/h (1 Bft) 95,65 %
26.12.2017 23:14 -2,2 C 4,4 C 97 % 1006,9 hPa 0,0 l/m 1,6 km/h (1 Bft) NO 45 0 min 0,000 mm 0,0 UV-I 0 W/m -2,6 C -2,2 C 3,2 km/h (1 Bft) 91,30 %
26.12.2017 23:15 -2,2 C 4,4 C 97 % 1006,9 hPa 0,0 l/m 4,8 km/h (1 Bft) NO 45 0 min 0,000 mm 0,0 UV-I 0 W/m -2,6 C -2,2 C 6,4 km/h (2 Bft) 95,65 %
26.12.2017 23:16 -2,2 C 4,4 C 97 % 1006,9 hPa 0,0 l/m 4,8 km/h (1 Bft) NO 45 0 min 0,000 mm 0,0 UV-I 0 W/m -2,6 C -2,2 C 6,4 km/h (2 Bft) 86,96 %
26.12.2017 23:17 -2,2 C 4,4 C 97 % 1006,8 hPa 0,0 l/m 3,2 km/h (1 Bft) NO 45 0 min 0,000 mm 0,0 UV-I 0 W/m -2,6 C -2,2 C 4,8 km/h (1 Bft) 95,65 %
26.12.2017 23:18 -2,2 C 4,4 C 97 % 1006,8 hPa 0,0 l/m 4,8 km/h (1 Bft) O-NO 67 0 min 0,000 mm 0,0 UV-I 0 W/m -2,6 C -2,2 C 6,4 km/h (2 Bft) 100,00 %
26.12.2017 23:19 -2,2 C 4,4 C 97 % 1006,8 hPa 0,0 l/m 4,8 km/h (1 Bft) O-NO 67 0 min 0,000 mm 0,0 UV-I 0 W/m -2,6 C -2,2 C 6,4 km/h (2 Bft) 95,65 %
26.12.2017 23:20 -2,2 C 4,4 C 97 % 1006,8 hPa 0,0 l/m 6,4 km/h (2 Bft) O-NO 67 0 min 0,000 mm 0,0 UV-I 0 W/m -2,6 C -2,2 C 8,0 km/h (2 Bft) 95,65 %
26.12.2017 23:21 -2,2 C 4,4 C 97 % 1006,7 hPa 0,0 l/m 6,4 km/h (2 Bft) O-NO 67 0 min 0,000 mm 0,0 UV-I 0 W/m -2,6 C -2,2 C 8,0 km/h (2 Bft) 91,30 %
26.12.2017 23:22 -2,3 C 4,4 C 97 % 1006,7 hPa 0,0 l/m 4,8 km/h (1 Bft) O-NO 67 0 min 0,000 mm 0,0 UV-I 0 W/m -2,7 C -2,3 C 6,4 km/h (2 Bft) 95,65 %
26.12.2017 23:23 -2,3 C 4,4 C 97 % 1006,6 hPa 0,0 l/m 3,2 km/h (1 Bft) O-NO 67 0 min 0,000 mm 0,0 UV-I 0 W/m -2,7 C -2,3 C 6,4 km/h (2 Bft) 95,65 %
26.12.2017 23:24 -2,3 C 4,4 C 97 % 1006,6 hPa 0,0 l/m 4,8 km/h (1 Bft) O-NO 67 0 min 0,000 mm 0,0 UV-I 0 W/m -2,7 C -2,3 C 6,4 km/h (2 Bft) 100,00 %
26.12.2017 23:25 -2,3 C 4,4 C 97 % 1006,6 hPa 0,0 l/m 4,8 km/h (1 Bft) O-NO 67 0 min 0,000 mm 0,0 UV-I 0 W/m -2,7 C -2,3 C 6,4 km/h (2 Bft) 100,00 %
26.12.2017 23:26 -2,3 C 4,4 C 97 % 1006,6 hPa 0,0 l/m 6,4 km/h (2 Bft) O-NO 67 0 min 0,000 mm 0,0 UV-I 0 W/m -2,7 C -2,3 C 8,0 km/h (2 Bft) 95,65 %
26.12.2017 23:27 -2,3 C 4,4 C 97 % 1006,7 hPa 0,0 l/m 6,4 km/h (2 Bft) O-NO 67 0 min 0,000 mm 0,0 UV-I 0 W/m -2,7 C -2,3 C 8,0 km/h (2 Bft) 100,00 %
26.12.2017 23:28 -2,3 C 4,4 C 97 % 1006,6 hPa 0,0 l/m 8,0 km/h (2 Bft) O-NO 67 0 min 0,000 mm 0,0 UV-I 0 W/m -2,7 C -4,1 C 11,3 km/h (2 Bft) 100,00 %
26.12.2017 23:29 -2,3 C 4,4 C 97 % 1006,6 hPa 0,0 l/m 8,0 km/h (2 Bft) O-NO 67 0 min 0,000 mm 0,0 UV-I 0 W/m -2,7 C -4,1 C 9,7 km/h (2 Bft) 95,65 %
26.12.2017 23:30 -2,2 C 4,4 C 97 % 1006,5 hPa 0,0 l/m 9,7 km/h (2 Bft) O-NO 67 0 min 0,000 mm 0,0 UV-I 0 W/m -2,6 C -5,6 C 12,9 km/h (3 Bft) 95,65 %
26.12.2017 23:31 -2,3 C 4,4 C 97 % 1006,5 hPa 0,0 l/m 9,7 km/h (2 Bft) O-NO 67 0 min 0,000 mm 0,0 UV-I 0 W/m -2,7 C -5,7 C 14,5 km/h (3 Bft) 100,00 %
26.12.2017 23:32 -2,3 C 4,4 C 97 % 1006,5 hPa 0,0 l/m 8,0 km/h (2 Bft) O-NO 67 0 min 0,000 mm 0,0 UV-I 0 W/m -2,7 C -4,1 C 9,7 km/h (2 Bft) 95,65 %
26.12.2017 23:33 -2,3 C 4,4 C 97 % 1006,4 hPa 0,0 l/m 8,0 km/h (2 Bft) O-NO 67 0 min 0,000 mm 0,0 UV-I 0 W/m -2,7 C -4,1 C 9,7 km/h (2 Bft) 100,00 %
26.12.2017 23:34 -2,3 C 4,4 C 97 % 1006,4 hPa 0,0 l/m 8,0 km/h (2 Bft) NO 45 0 min 0,000 mm 0,0 UV-I 0 W/m -2,7 C -4,1 C 9,7 km/h (2 Bft) 100,00 %
26.12.2017 23:35 -2,3 C 4,4 C 97 % 1006,4 hPa 0,0 l/m 9,7 km/h (2 Bft) NO 45 0 min 0,000 mm 0,0 UV-I 0 W/m -2,7 C -5,7 C 12,9 km/h (3 Bft) 100,00 %
26.12.2017 23:36 -2,3 C 4,4 C 97 % 1006,2 hPa 0,0 l/m 9,7 km/h (2 Bft) O-NO 67 0 min 0,000 mm 0,0 UV-I 0 W/m -2,7 C -5,7 C 14,5 km/h (3 Bft) 95,65 %
26.12.2017 23:37 -2,3 C 4,4 C 97 % 1006,2 hPa 0,0 l/m 11,3 km/h (2 Bft) O-NO 67 0 min 0,000 mm 0,0 UV-I 0 W/m -2,7 C -7,1 C 16,1 km/h (3 Bft) 95,65 %
26.12.2017 23:38 -2,3 C 4,4 C 97 % 1006,1 hPa 0,0 l/m 11,3 km/h (2 Bft) O-NO 67 0 min 0,000 mm 0,0 UV-I 0 W/m -2,7 C -7,1 C 16,1 km/h (3 Bft) 100,00 %
26.12.2017 23:39 -2,3 C 4,4 C 97 % 1006,0 hPa 0,0 l/m 11,3 km/h (2 Bft) O-NO 67 0 min 0,000 mm 0,0 UV-I 0 W/m -2,7 C -7,1 C 16,1 km/h (3 Bft) 100,00 %
26.12.2017 23:40 -2,3 C 4,4 C 97 % 1006,0 hPa 0,0 l/m 11,3 km/h (2 Bft) NO 45 0 min 0,000 mm 0,0 UV-I 0 W/m -2,7 C -7,1 C 16,1 km/h (3 Bft) 100,00 %
26.12.2017 23:41 -2,3 C 4,4 C 97 % 1005,9 hPa 0,0 l/m 14,5 km/h (3 Bft) NO 45 0 min 0,000 mm 0,0 UV-I 0 W/m -2,7 C -9,4 C 17,7 km/h (3 Bft) 100,00 %
26.12.2017 23:42 -2,2 C 4,4 C 97 % 1005,9 hPa 0,0 l/m 14,5 km/h (3 Bft) O-NO 67 0 min 0,000 mm 0,0 UV-I 0 W/m -2,6 C -9,3 C 17,7 km/h (3 Bft) 100,00 %
26.12.2017 23:43 -2,2 C 4,4 C 97 % 1005,7 hPa 0,0 l/m 17,7 km/h (3 Bft) NO 45 0 min 0,000 mm 0,0 UV-I 0 W/m -2,6 C -11,3 C 20,9 km/h (4 Bft) 95,65 %
26.12.2017 23:44 -2,2 C 4,4 C 97 % 1005,7 hPa 0,0 l/m 19,3 km/h (3 Bft) O-NO 67 0 min 0,000 mm 0,0 UV-I 0 W/m -2,6 C -12,1 C 22,5 km/h (4 Bft) 100,00 %
26.12.2017 23:45 -2,2 C 4,4 C 97 % 1005,6 hPa 0,0 l/m 16,1 km/h (3 Bft) O-NO 67 0 min 0,000 mm 0,0 UV-I 0 W/m -2,6 C -10,3 C 22,5 km/h (4 Bft) 100,00 %
26.12.2017 23:46 -2,2 C 4,4 C 97 % 1005,6 hPa 0,0 l/m 12,9 km/h (3 Bft) O-NO 67 0 min 0,000 mm 0,0 UV-I 0 W/m -2,6 C -8,2 C 19,3 km/h (3 Bft) 100,00 %
26.12.2017 23:47 -2,2 C 4,4 C 97 % 1005,5 hPa 0,0 l/m 14,5 km/h (3 Bft) O-NO 67 0 min 0,000 mm 0,0 UV-I 0 W/m -2,6 C -9,3 C 17,7 km/h (3 Bft) 95,65 %
26.12.2017 23:48 -2,2 C 4,4 C 97 % 1005,5 hPa 0,0 l/m 12,9 km/h (3 Bft) O-NO 67 0 min 0,000 mm 0,0 UV-I 0 W/m -2,6 C -8,2 C 19,3 km/h (3 Bft) 100,00 %
26.12.2017 23:49 -2,2 C 4,4 C 97 % 1005,6 hPa 0,0 l/m 11,3 km/h (2 Bft) O-NO 67 0 min 0,000 mm 0,0 UV-I 0 W/m -2,6 C -7,0 C 14,5 km/h (3 Bft) 100,00 %
26.12.2017 23:50 -2,2 C 4,4 C 97 % 1005,7 hPa 0,0 l/m 11,3 km/h (2 Bft) O-NO 67 0 min 0,000 mm 0,0 UV-I 0 W/m -2,6 C -7,0 C 14,5 km/h (3 Bft) 95,65 %
26.12.2017 23:51 -2,3 C 4,4 C 97 % 1005,7 hPa 0,0 l/m 8,0 km/h (2 Bft) O-NO 67 0 min 0,000 mm 0,0 UV-I 0 W/m -2,7 C -4,1 C 14,5 km/h (3 Bft) 100,00 %
26.12.2017 23:52 -2,3 C 4,4 C 97 % 1005,8 hPa 0,0 l/m 6,4 km/h (2 Bft) SO 135 0 min 0,000 mm 0,0 UV-I 0 W/m -2,7 C -2,3 C 9,7 km/h (2 Bft) 100,00 %
26.12.2017 23:53 -2,3 C 4,4 C 97 % 1005,8 hPa 0,0 l/m 4,8 km/h (1 Bft) SO 135 0 min 0,000 mm 0,0 UV-I 0 W/m -2,7 C -2,3 C 6,4 km/h (2 Bft) 95,65 %
26.12.2017 23:54 -2,3 C 4,4 C 97 % 1005,9 hPa 0,0 l/m 3,2 km/h (1 Bft) SO 135 0 min 0,000 mm 0,0 UV-I 0 W/m -2,7 C -2,3 C 8,0 km/h (2 Bft) 100,00 %
26.12.2017 23:55 -2,3 C 4,4 C 97 % 1005,9 hPa 0,0 l/m 6,4 km/h (2 Bft) S-SW 202 0 min 0,000 mm 0,0 UV-I 0 W/m -2,7 C -2,3 C 9,7 km/h (2 Bft) 100,00 %
26.12.2017 23:56 -2,2 C 4,4 C 97 % 1005,9 hPa 0,0 l/m 4,8 km/h (1 Bft) S-SW 202 0 min 0,000 mm 0,0 UV-I 0 W/m -2,6 C -2,2 C 6,4 km/h (2 Bft) 100,00 %
26.12.2017 23:57 -2,2 C 4,4 C 97 % 1006,0 hPa 0,0 l/m 1,6 km/h (1 Bft) S 180 0 min 0,000 mm 0,0 UV-I 0 W/m -2,6 C -2,2 C 3,2 km/h (1 Bft) 91,30 %
26.12.2017 23:58 -2,2 C 4,4 C 97 % 1006,0 hPa 0,0 l/m 1,6 km/h (1 Bft) S 180 0 min 0,000 mm 0,0 UV-I 0 W/m -2,6 C -2,2 C 3,2 km/h (1 Bft) 100,00 %
26.12.2017 23:59 -2,2 C 4,4 C 97 % 1005,9 hPa 0,0 l/m 3,2 km/h (1 Bft) S 180 0 min 0,000 mm 0,0 UV-I 0 W/m -2,6 C -2,2 C 6,4 km/h (2 Bft) 100,00 %
_ Min-Zeit 02:51 00:00 00:37 23:47 - 00:02 - - - - - - 02:51 23:44 00:17 12:30
Minimum _ -2,6 C 4,4 C 97 % 1005,5 hPa - 0,0 km/h (0 Bft) - - - - - - -3,0 C -12,1 C 0,0 km/h (0 Bft) 82,61 %
_ Max-Zeit 15:41 00:00 00:00 00:00 00:00 23:44 - - 08:06 10:00 00:00 12:31 15:41 15:41 23:44 00:00
Maximum _ -1,0 C 4,4 C 98 % 1016,4 hPa 0,0 l/m 19,3 km/h
O-NO (3 Bft)
- - 1 min 0,025 mm 0,0 UV-I 160 W/m -1,3 C -1,0 C 22,5 km/h
O-NO (4 Bft)
100,00 %
Durchschnitt _ -1,9 C 4,4 C 97 % 1011,6 hPa #0,0 l/m 3,1 km/h (1 Bft) O-NO - #12 min. #0,150 mm 0,0 UV-I 59 W/m -2,2 C -2,2 C 5,0 km/h (1 Bft) 97,10 %